<?xml version="1.0" encoding="UTF-8" standalone="no" ?>
<gpx xmlns="http://www.topografix.com/GPX/1/1" xmlns:xsi="http://www.w3.org/2001/XMLSchema-instance" xsi:schemaLocation="http://www.topografix.com/GPX/1/1 http://www.topografix.com/GPX/1/1/gpx.xsd" version="1.1" creator="VisuGPX - https://www.visugpx.com">
  <metadata>
    <name>Marathon de Lyon 2014</name>
    <desc><![CDATA[Run in Lyon 2014 (5ème édition)]]></desc>
  </metadata>
  <trk>
    <name><![CDATA[Marathon de Lyon 2014]]></name>
    <desc><![CDATA[5ème édition (Run in Lyon)

Perte du signal GPS pendant plus d'un km avant le 4e et après le 5e dans le tunnel de la Croix Rousse.

1er semi : 1h44'44
2 semi : 1h44'26]]></desc>
    <trkseg>
      <trkpt lat="45.75841" lon="4.83257">
        <ele>179.60000610352</ele>
        <time>2014-10-05T07:14:12.000Z</time>
      </trkpt>
      <trkpt lat="45.75844" lon="4.83249">
        <ele>179.39999389648</ele>
        <time>2014-10-05T07:14:15.000Z</time>
      </trkpt>
      <trkpt lat="45.75845" lon="4.83243">
        <ele>179.19999694824</ele>
        <time>2014-10-05T07:14:17.000Z</time>
      </trkpt>
      <trkpt lat="45.75851" lon="4.83226">
        <ele>178.60000610352</ele>
        <time>2014-10-05T07:14:22.000Z</time>
      </trkpt>
      <trkpt lat="45.75856" lon="4.83213">
        <ele>178.19999694824</ele>
        <time>2014-10-05T07:14:26.000Z</time>
      </trkpt>
      <trkpt lat="45.75861" lon="4.83197">
        <ele>178</ele>
        <time>2014-10-05T07:14:31.000Z</time>
      </trkpt>
      <trkpt lat="45.75868" lon="4.83177">
        <ele>178.39999389648</ele>
        <time>2014-10-05T07:14:36.000Z</time>
      </trkpt>
      <trkpt lat="45.75873" lon="4.83153">
        <ele>178</ele>
        <time>2014-10-05T07:14:42.000Z</time>
      </trkpt>
      <trkpt lat="45.75879" lon="4.8313">
        <ele>177.80000305176</ele>
        <time>2014-10-05T07:14:48.000Z</time>
      </trkpt>
      <trkpt lat="45.75883" lon="4.83111">
        <ele>177.80000305176</ele>
        <time>2014-10-05T07:14:53.000Z</time>
      </trkpt>
      <trkpt lat="45.75891" lon="4.83097">
        <ele>176.80000305176</ele>
        <time>2014-10-05T07:14:57.000Z</time>
      </trkpt>
      <trkpt lat="45.75909" lon="4.83078">
        <ele>175.39999389648</ele>
        <time>2014-10-05T07:15:03.000Z</time>
      </trkpt>
      <trkpt lat="45.7592" lon="4.83067">
        <ele>174.19999694824</ele>
        <time>2014-10-05T07:15:07.000Z</time>
      </trkpt>
      <trkpt lat="45.75921" lon="4.83061">
        <ele>173.19999694824</ele>
        <time>2014-10-05T07:15:09.000Z</time>
      </trkpt>
      <trkpt lat="45.75923" lon="4.83053">
        <ele>172</ele>
        <time>2014-10-05T07:15:11.000Z</time>
      </trkpt>
      <trkpt lat="45.75922" lon="4.8303">
        <ele>169.80000305176</ele>
        <time>2014-10-05T07:15:16.000Z</time>
      </trkpt>
      <trkpt lat="45.75921" lon="4.83018">
        <ele>169.19999694824</ele>
        <time>2014-10-05T07:15:19.000Z</time>
      </trkpt>
      <trkpt lat="45.7592" lon="4.83013">
        <ele>169</ele>
        <time>2014-10-05T07:15:20.000Z</time>
      </trkpt>
      <trkpt lat="45.7592" lon="4.82997">
        <ele>168</ele>
        <time>2014-10-05T07:15:24.000Z</time>
      </trkpt>
      <trkpt lat="45.7592" lon="4.82993">
        <ele>167.80000305176</ele>
        <time>2014-10-05T07:15:25.000Z</time>
      </trkpt>
      <trkpt lat="45.75926" lon="4.82978">
        <ele>167.19999694824</ele>
        <time>2014-10-05T07:15:29.000Z</time>
      </trkpt>
      <trkpt lat="45.75932" lon="4.82972">
        <ele>166.80000305176</ele>
        <time>2014-10-05T07:15:31.000Z</time>
      </trkpt>
      <trkpt lat="45.75938" lon="4.82965">
        <ele>166.60000610352</ele>
        <time>2014-10-05T07:15:33.000Z</time>
      </trkpt>
      <trkpt lat="45.75937" lon="4.82952">
        <ele>166.39999389648</ele>
        <time>2014-10-05T07:15:36.000Z</time>
      </trkpt>
      <trkpt lat="45.75938" lon="4.82944">
        <ele>166</ele>
        <time>2014-10-05T07:15:38.000Z</time>
      </trkpt>
      <trkpt lat="45.75939" lon="4.82923">
        <ele>165</ele>
        <time>2014-10-05T07:15:43.000Z</time>
      </trkpt>
      <trkpt lat="45.75944" lon="4.82901">
        <ele>165</ele>
        <time>2014-10-05T07:15:49.000Z</time>
      </trkpt>
      <trkpt lat="45.75949" lon="4.82883">
        <ele>165</ele>
        <time>2014-10-05T07:15:54.000Z</time>
      </trkpt>
      <trkpt lat="45.75956" lon="4.8286">
        <ele>165.80000305176</ele>
        <time>2014-10-05T07:16:00.000Z</time>
      </trkpt>
      <trkpt lat="45.75964" lon="4.82836">
        <ele>169.60000610352</ele>
        <time>2014-10-05T07:16:06.000Z</time>
      </trkpt>
      <trkpt lat="45.75972" lon="4.82815">
        <ele>173.39999389648</ele>
        <time>2014-10-05T07:16:12.000Z</time>
      </trkpt>
      <trkpt lat="45.75979" lon="4.82804">
        <ele>175.39999389648</ele>
        <time>2014-10-05T07:16:17.000Z</time>
      </trkpt>
      <trkpt lat="45.7599" lon="4.82807">
        <ele>175.60000610352</ele>
        <time>2014-10-05T07:16:21.000Z</time>
      </trkpt>
      <trkpt lat="45.76007" lon="4.82817">
        <ele>175.19999694824</ele>
        <time>2014-10-05T07:16:26.000Z</time>
      </trkpt>
      <trkpt lat="45.76024" lon="4.82827">
        <ele>174.60000610352</ele>
        <time>2014-10-05T07:16:31.000Z</time>
      </trkpt>
      <trkpt lat="45.76042" lon="4.82839">
        <ele>174</ele>
        <time>2014-10-05T07:16:37.000Z</time>
      </trkpt>
      <trkpt lat="45.76062" lon="4.82846">
        <ele>173.60000610352</ele>
        <time>2014-10-05T07:16:43.000Z</time>
      </trkpt>
      <trkpt lat="45.76078" lon="4.82849">
        <ele>173.80000305176</ele>
        <time>2014-10-05T07:16:48.000Z</time>
      </trkpt>
      <trkpt lat="45.76091" lon="4.82852">
        <ele>173.80000305176</ele>
        <time>2014-10-05T07:16:52.000Z</time>
      </trkpt>
      <trkpt lat="45.76104" lon="4.82856">
        <ele>173.80000305176</ele>
        <time>2014-10-05T07:16:56.000Z</time>
      </trkpt>
      <trkpt lat="45.76121" lon="4.82862">
        <ele>173.60000610352</ele>
        <time>2014-10-05T07:17:02.000Z</time>
      </trkpt>
      <trkpt lat="45.76138" lon="4.82865">
        <ele>173.60000610352</ele>
        <time>2014-10-05T07:17:08.000Z</time>
      </trkpt>
      <trkpt lat="45.76158" lon="4.82865">
        <ele>175</ele>
        <time>2014-10-05T07:17:14.000Z</time>
      </trkpt>
      <trkpt lat="45.7617" lon="4.82867">
        <ele>175.80000305176</ele>
        <time>2014-10-05T07:17:18.000Z</time>
      </trkpt>
      <trkpt lat="45.76187" lon="4.82873">
        <ele>176.39999389648</ele>
        <time>2014-10-05T07:17:24.000Z</time>
      </trkpt>
      <trkpt lat="45.76202" lon="4.82878">
        <ele>177</ele>
        <time>2014-10-05T07:17:29.000Z</time>
      </trkpt>
      <trkpt lat="45.7622" lon="4.82884">
        <ele>177.60000610352</ele>
        <time>2014-10-05T07:17:35.000Z</time>
      </trkpt>
      <trkpt lat="45.76232" lon="4.82889">
        <ele>177.39999389648</ele>
        <time>2014-10-05T07:17:40.000Z</time>
      </trkpt>
      <trkpt lat="45.76245" lon="4.82891">
        <ele>177.39999389648</ele>
        <time>2014-10-05T07:17:44.000Z</time>
      </trkpt>
      <trkpt lat="45.76257" lon="4.82896">
        <ele>177.19999694824</ele>
        <time>2014-10-05T07:17:48.000Z</time>
      </trkpt>
      <trkpt lat="45.76272" lon="4.82902">
        <ele>176.80000305176</ele>
        <time>2014-10-05T07:17:53.000Z</time>
      </trkpt>
      <trkpt lat="45.76286" lon="4.82907">
        <ele>176.39999389648</ele>
        <time>2014-10-05T07:17:58.000Z</time>
      </trkpt>
      <trkpt lat="45.76301" lon="4.82911">
        <ele>176.19999694824</ele>
        <time>2014-10-05T07:18:03.000Z</time>
      </trkpt>
      <trkpt lat="45.76313" lon="4.82912">
        <ele>176.39999389648</ele>
        <time>2014-10-05T07:18:07.000Z</time>
      </trkpt>
      <trkpt lat="45.76324" lon="4.82912">
        <ele>176.39999389648</ele>
        <time>2014-10-05T07:18:11.000Z</time>
      </trkpt>
      <trkpt lat="45.76338" lon="4.8291">
        <ele>176.80000305176</ele>
        <time>2014-10-05T07:18:16.000Z</time>
      </trkpt>
      <trkpt lat="45.76351" lon="4.82911">
        <ele>177</ele>
        <time>2014-10-05T07:18:21.000Z</time>
      </trkpt>
      <trkpt lat="45.76364" lon="4.82914">
        <ele>177.19999694824</ele>
        <time>2014-10-05T07:18:26.000Z</time>
      </trkpt>
      <trkpt lat="45.76379" lon="4.82912">
        <ele>177.80000305176</ele>
        <time>2014-10-05T07:18:31.000Z</time>
      </trkpt>
      <trkpt lat="45.76394" lon="4.82912">
        <ele>178</ele>
        <time>2014-10-05T07:18:36.000Z</time>
      </trkpt>
      <trkpt lat="45.76413" lon="4.82911">
        <ele>177.80000305176</ele>
        <time>2014-10-05T07:18:42.000Z</time>
      </trkpt>
      <trkpt lat="45.76429" lon="4.8291">
        <ele>177.39999389648</ele>
        <time>2014-10-05T07:18:47.000Z</time>
      </trkpt>
      <trkpt lat="45.76445" lon="4.82911">
        <ele>176.19999694824</ele>
        <time>2014-10-05T07:18:52.000Z</time>
      </trkpt>
      <trkpt lat="45.76461" lon="4.82912">
        <ele>175</ele>
        <time>2014-10-05T07:18:57.000Z</time>
      </trkpt>
      <trkpt lat="45.76482" lon="4.82913">
        <ele>174.60000610352</ele>
        <time>2014-10-05T07:19:03.000Z</time>
      </trkpt>
      <trkpt lat="45.765" lon="4.82914">
        <ele>175.39999389648</ele>
        <time>2014-10-05T07:19:09.000Z</time>
      </trkpt>
      <trkpt lat="45.76509" lon="4.82915">
        <ele>175.80000305176</ele>
        <time>2014-10-05T07:19:13.000Z</time>
      </trkpt>
      <trkpt lat="45.76516" lon="4.82916">
        <ele>176</ele>
        <time>2014-10-05T07:19:16.000Z</time>
      </trkpt>
      <trkpt lat="45.76523" lon="4.82916">
        <ele>176.39999389648</ele>
        <time>2014-10-05T07:19:18.000Z</time>
      </trkpt>
      <trkpt lat="45.76541" lon="4.82912">
        <ele>177.80000305176</ele>
        <time>2014-10-05T07:19:24.000Z</time>
      </trkpt>
      <trkpt lat="45.76554" lon="4.82908">
        <ele>179</ele>
        <time>2014-10-05T07:19:28.000Z</time>
      </trkpt>
      <trkpt lat="45.76568" lon="4.82902">
        <ele>177.80000305176</ele>
        <time>2014-10-05T07:19:32.000Z</time>
      </trkpt>
      <trkpt lat="45.7658" lon="4.82899">
        <ele>176.80000305176</ele>
        <time>2014-10-05T07:19:36.000Z</time>
      </trkpt>
      <trkpt lat="45.76595" lon="4.82893">
        <ele>176</ele>
        <time>2014-10-05T07:19:42.000Z</time>
      </trkpt>
      <trkpt lat="45.76608" lon="4.82886">
        <ele>175.80000305176</ele>
        <time>2014-10-05T07:19:47.000Z</time>
      </trkpt>
      <trkpt lat="45.76618" lon="4.82881">
        <ele>175.60000610352</ele>
        <time>2014-10-05T07:19:50.000Z</time>
      </trkpt>
      <trkpt lat="45.76633" lon="4.82869">
        <ele>175.39999389648</ele>
        <time>2014-10-05T07:19:55.000Z</time>
      </trkpt>
      <trkpt lat="45.76648" lon="4.82851">
        <ele>174.19999694824</ele>
        <time>2014-10-05T07:20:01.000Z</time>
      </trkpt>
      <trkpt lat="45.7666" lon="4.82836">
        <ele>173.19999694824</ele>
        <time>2014-10-05T07:20:06.000Z</time>
      </trkpt>
      <trkpt lat="45.76668" lon="4.82825">
        <ele>172.60000610352</ele>
        <time>2014-10-05T07:20:10.000Z</time>
      </trkpt>
      <trkpt lat="45.76679" lon="4.82814">
        <ele>171.19999694824</ele>
        <time>2014-10-05T07:20:14.000Z</time>
      </trkpt>
      <trkpt lat="45.76689" lon="4.82799">
        <ele>169.60000610352</ele>
        <time>2014-10-05T07:20:19.000Z</time>
      </trkpt>
      <trkpt lat="45.76703" lon="4.82782">
        <ele>167.60000610352</ele>
        <time>2014-10-05T07:20:25.000Z</time>
      </trkpt>
      <trkpt lat="45.76705" lon="4.82779">
        <ele>167.39999389648</ele>
        <time>2014-10-05T07:20:26.000Z</time>
      </trkpt>
      <trkpt lat="45.76716" lon="4.82766">
        <ele>165.80000305176</ele>
        <time>2014-10-05T07:20:30.000Z</time>
      </trkpt>
      <trkpt lat="45.76727" lon="4.82748">
        <ele>165.80000305176</ele>
        <time>2014-10-05T07:20:35.000Z</time>
      </trkpt>
      <trkpt lat="45.76734" lon="4.82734">
        <ele>167</ele>
        <time>2014-10-05T07:20:39.000Z</time>
      </trkpt>
      <trkpt lat="45.76743" lon="4.82708">
        <ele>166.60000610352</ele>
        <time>2014-10-05T07:20:46.000Z</time>
      </trkpt>
      <trkpt lat="45.76748" lon="4.82688">
        <ele>166.60000610352</ele>
        <time>2014-10-05T07:20:51.000Z</time>
      </trkpt>
      <trkpt lat="45.76751" lon="4.82672">
        <ele>166.80000305176</ele>
        <time>2014-10-05T07:20:55.000Z</time>
      </trkpt>
      <trkpt lat="45.76754" lon="4.82655">
        <ele>167</ele>
        <time>2014-10-05T07:20:59.000Z</time>
      </trkpt>
      <trkpt lat="45.76758" lon="4.82639">
        <ele>166.39999389648</ele>
        <time>2014-10-05T07:21:03.000Z</time>
      </trkpt>
      <trkpt lat="45.76761" lon="4.82619">
        <ele>166</ele>
        <time>2014-10-05T07:21:08.000Z</time>
      </trkpt>
      <trkpt lat="45.76761" lon="4.82615">
        <ele>166</ele>
        <time>2014-10-05T07:21:09.000Z</time>
      </trkpt>
      <trkpt lat="45.76761" lon="4.82603">
        <ele>166</ele>
        <time>2014-10-05T07:21:12.000Z</time>
      </trkpt>
      <trkpt lat="45.76761" lon="4.82586">
        <ele>166</ele>
        <time>2014-10-05T07:21:16.000Z</time>
      </trkpt>
      <trkpt lat="45.76762" lon="4.82566">
        <ele>166.39999389648</ele>
        <time>2014-10-05T07:21:21.000Z</time>
      </trkpt>
      <trkpt lat="45.76761" lon="4.82554">
        <ele>166.80000305176</ele>
        <time>2014-10-05T07:21:24.000Z</time>
      </trkpt>
      <trkpt lat="45.7676" lon="4.82546">
        <ele>167</ele>
        <time>2014-10-05T07:21:26.000Z</time>
      </trkpt>
      <trkpt lat="45.76756" lon="4.82518">
        <ele>167</ele>
        <time>2014-10-05T07:21:32.000Z</time>
      </trkpt>
      <trkpt lat="45.76755" lon="4.82501">
        <ele>167</ele>
        <time>2014-10-05T07:21:36.000Z</time>
      </trkpt>
      <trkpt lat="45.76752" lon="4.82479">
        <ele>167.19999694824</ele>
        <time>2014-10-05T07:21:41.000Z</time>
      </trkpt>
      <trkpt lat="45.76748" lon="4.82454">
        <ele>168.19999694824</ele>
        <time>2014-10-05T07:21:47.000Z</time>
      </trkpt>
      <trkpt lat="45.76748" lon="4.82433">
        <ele>168.19999694824</ele>
        <time>2014-10-05T07:21:52.000Z</time>
      </trkpt>
      <trkpt lat="45.76748" lon="4.82424">
        <ele>168.19999694824</ele>
        <time>2014-10-05T07:21:54.000Z</time>
      </trkpt>
      <trkpt lat="45.76748" lon="4.82416">
        <ele>168.19999694824</ele>
        <time>2014-10-05T07:21:56.000Z</time>
      </trkpt>
      <trkpt lat="45.7675" lon="4.82396">
        <ele>168.60000610352</ele>
        <time>2014-10-05T07:22:01.000Z</time>
      </trkpt>
      <trkpt lat="45.7675" lon="4.82375">
        <ele>169</ele>
        <time>2014-10-05T07:22:06.000Z</time>
      </trkpt>
      <trkpt lat="45.76749" lon="4.82367">
        <ele>169</ele>
        <time>2014-10-05T07:22:08.000Z</time>
      </trkpt>
      <trkpt lat="45.76749" lon="4.82354">
        <ele>169</ele>
        <time>2014-10-05T07:22:11.000Z</time>
      </trkpt>
      <trkpt lat="45.76748" lon="4.82337">
        <ele>168.80000305176</ele>
        <time>2014-10-05T07:22:15.000Z</time>
      </trkpt>
      <trkpt lat="45.76745" lon="4.82315">
        <ele>168.60000610352</ele>
        <time>2014-10-05T07:22:20.000Z</time>
      </trkpt>
      <trkpt lat="45.76743" lon="4.82298">
        <ele>168.60000610352</ele>
        <time>2014-10-05T07:22:24.000Z</time>
      </trkpt>
      <trkpt lat="45.76744" lon="4.82294">
        <ele>168.80000305176</ele>
        <time>2014-10-05T07:22:25.000Z</time>
      </trkpt>
      <trkpt lat="45.76744" lon="4.82286">
        <ele>169</ele>
        <time>2014-10-05T07:22:27.000Z</time>
      </trkpt>
      <trkpt lat="45.76741" lon="4.82274">
        <ele>168.60000610352</ele>
        <time>2014-10-05T07:22:30.000Z</time>
      </trkpt>
      <trkpt lat="45.76738" lon="4.82265">
        <ele>168.19999694824</ele>
        <time>2014-10-05T07:22:32.000Z</time>
      </trkpt>
      <trkpt lat="45.76736" lon="4.82246">
        <ele>167.80000305176</ele>
        <time>2014-10-05T07:22:37.000Z</time>
      </trkpt>
      <trkpt lat="45.76736" lon="4.82242">
        <ele>167.60000610352</ele>
        <time>2014-10-05T07:22:38.000Z</time>
      </trkpt>
      <trkpt lat="45.76732" lon="4.82232">
        <ele>167</ele>
        <time>2014-10-05T07:22:41.000Z</time>
      </trkpt>
      <trkpt lat="45.76729" lon="4.82216">
        <ele>166.39999389648</ele>
        <time>2014-10-05T07:22:45.000Z</time>
      </trkpt>
      <trkpt lat="45.76728" lon="4.82213">
        <ele>166.19999694824</ele>
        <time>2014-10-05T07:22:46.000Z</time>
      </trkpt>
      <trkpt lat="45.76726" lon="4.82205">
        <ele>166</ele>
        <time>2014-10-05T07:22:48.000Z</time>
      </trkpt>
      <trkpt lat="45.76724" lon="4.82197">
        <ele>166</ele>
        <time>2014-10-05T07:22:50.000Z</time>
      </trkpt>
      <trkpt lat="45.7672" lon="4.82181">
        <ele>166.19999694824</ele>
        <time>2014-10-05T07:22:54.000Z</time>
      </trkpt>
      <trkpt lat="45.7672" lon="4.82177">
        <ele>166.39999389648</ele>
        <time>2014-10-05T07:22:55.000Z</time>
      </trkpt>
      <trkpt lat="45.76719" lon="4.8217">
        <ele>166.60000610352</ele>
        <time>2014-10-05T07:22:57.000Z</time>
      </trkpt>
      <trkpt lat="45.76714" lon="4.82147">
        <ele>167.39999389648</ele>
        <time>2014-10-05T07:23:03.000Z</time>
      </trkpt>
      <trkpt lat="45.76708" lon="4.82128">
        <ele>168</ele>
        <time>2014-10-05T07:23:08.000Z</time>
      </trkpt>
      <trkpt lat="45.76705" lon="4.82107">
        <ele>168.19999694824</ele>
        <time>2014-10-05T07:23:14.000Z</time>
      </trkpt>
      <trkpt lat="45.76704" lon="4.82101">
        <ele>168.39999389648</ele>
        <time>2014-10-05T07:23:16.000Z</time>
      </trkpt>
      <trkpt lat="45.76701" lon="4.82093">
        <ele>168.39999389648</ele>
        <time>2014-10-05T07:23:18.000Z</time>
      </trkpt>
      <trkpt lat="45.76695" lon="4.82071">
        <ele>168.60000610352</ele>
        <time>2014-10-05T07:23:23.000Z</time>
      </trkpt>
      <trkpt lat="45.76691" lon="4.82063">
        <ele>168.60000610352</ele>
        <time>2014-10-05T07:23:25.000Z</time>
      </trkpt>
      <trkpt lat="45.76687" lon="4.82051">
        <ele>168.60000610352</ele>
        <time>2014-10-05T07:23:28.000Z</time>
      </trkpt>
      <trkpt lat="45.76681" lon="4.82035">
        <ele>168.60000610352</ele>
        <time>2014-10-05T07:23:32.000Z</time>
      </trkpt>
      <trkpt lat="45.76681" lon="4.82031">
        <ele>168.60000610352</ele>
        <time>2014-10-05T07:23:33.000Z</time>
      </trkpt>
      <trkpt lat="45.76676" lon="4.82015">
        <ele>168.19999694824</ele>
        <time>2014-10-05T07:23:37.000Z</time>
      </trkpt>
      <trkpt lat="45.76675" lon="4.82011">
        <ele>168</ele>
        <time>2014-10-05T07:23:38.000Z</time>
      </trkpt>
      <trkpt lat="45.76667" lon="4.81987">
        <ele>167.39999389648</ele>
        <time>2014-10-05T07:23:44.000Z</time>
      </trkpt>
      <trkpt lat="45.7666" lon="4.81965">
        <ele>167.39999389648</ele>
        <time>2014-10-05T07:23:50.000Z</time>
      </trkpt>
      <trkpt lat="45.76659" lon="4.81949">
        <ele>167.80000305176</ele>
        <time>2014-10-05T07:23:54.000Z</time>
      </trkpt>
      <trkpt lat="45.76658" lon="4.8194">
        <ele>167.60000610352</ele>
        <time>2014-10-05T07:23:56.000Z</time>
      </trkpt>
      <trkpt lat="45.76659" lon="4.81932">
        <ele>167.80000305176</ele>
        <time>2014-10-05T07:23:58.000Z</time>
      </trkpt>
      <trkpt lat="45.76658" lon="4.81917">
        <ele>167.60000610352</ele>
        <time>2014-10-05T07:24:02.000Z</time>
      </trkpt>
      <trkpt lat="45.76656" lon="4.81898">
        <ele>167.39999389648</ele>
        <time>2014-10-05T07:24:06.000Z</time>
      </trkpt>
      <trkpt lat="45.76654" lon="4.81887">
        <ele>167</ele>
        <time>2014-10-05T07:24:09.000Z</time>
      </trkpt>
      <trkpt lat="45.76655" lon="4.81879">
        <ele>166.60000610352</ele>
        <time>2014-10-05T07:24:11.000Z</time>
      </trkpt>
      <trkpt lat="45.76655" lon="4.81871">
        <ele>166</ele>
        <time>2014-10-05T07:24:13.000Z</time>
      </trkpt>
      <trkpt lat="45.76654" lon="4.81857">
        <ele>166</ele>
        <time>2014-10-05T07:24:16.000Z</time>
      </trkpt>
      <trkpt lat="45.76655" lon="4.81844">
        <ele>166</ele>
        <time>2014-10-05T07:24:19.000Z</time>
      </trkpt>
      <trkpt lat="45.76654" lon="4.81835">
        <ele>166</ele>
        <time>2014-10-05T07:24:21.000Z</time>
      </trkpt>
      <trkpt lat="45.76656" lon="4.81815">
        <ele>166</ele>
        <time>2014-10-05T07:24:26.000Z</time>
      </trkpt>
      <trkpt lat="45.76657" lon="4.81798">
        <ele>166</ele>
        <time>2014-10-05T07:24:30.000Z</time>
      </trkpt>
      <trkpt lat="45.76659" lon="4.81772">
        <ele>169.60000610352</ele>
        <time>2014-10-05T07:24:36.000Z</time>
      </trkpt>
      <trkpt lat="45.76664" lon="4.81747">
        <ele>175.39999389648</ele>
        <time>2014-10-05T07:24:42.000Z</time>
      </trkpt>
      <trkpt lat="45.76665" lon="4.81742">
        <ele>176.39999389648</ele>
        <time>2014-10-05T07:24:43.000Z</time>
      </trkpt>
      <trkpt lat="45.76672" lon="4.81718">
        <ele>176.19999694824</ele>
        <time>2014-10-05T07:24:49.000Z</time>
      </trkpt>
      <trkpt lat="45.76681" lon="4.81697">
        <ele>174</ele>
        <time>2014-10-05T07:24:54.000Z</time>
      </trkpt>
      <trkpt lat="45.76688" lon="4.81677">
        <ele>173.19999694824</ele>
        <time>2014-10-05T07:24:59.000Z</time>
      </trkpt>
      <trkpt lat="45.76692" lon="4.81655">
        <ele>172.39999389648</ele>
        <time>2014-10-05T07:25:04.000Z</time>
      </trkpt>
      <trkpt lat="45.7669" lon="4.81637">
        <ele>172.80000305176</ele>
        <time>2014-10-05T07:25:08.000Z</time>
      </trkpt>
      <trkpt lat="45.76694" lon="4.81616">
        <ele>171.80000305176</ele>
        <time>2014-10-05T07:25:13.000Z</time>
      </trkpt>
      <trkpt lat="45.76696" lon="4.8159">
        <ele>171.39999389648</ele>
        <time>2014-10-05T07:25:19.000Z</time>
      </trkpt>
      <trkpt lat="45.76699" lon="4.81574">
        <ele>170.60000610352</ele>
        <time>2014-10-05T07:25:23.000Z</time>
      </trkpt>
      <trkpt lat="45.76704" lon="4.81554">
        <ele>169.39999389648</ele>
        <time>2014-10-05T07:25:28.000Z</time>
      </trkpt>
      <trkpt lat="45.76712" lon="4.81535">
        <ele>167.19999694824</ele>
        <time>2014-10-05T07:25:33.000Z</time>
      </trkpt>
      <trkpt lat="45.7672" lon="4.81511">
        <ele>165.19999694824</ele>
        <time>2014-10-05T07:25:39.000Z</time>
      </trkpt>
      <trkpt lat="45.76728" lon="4.81492">
        <ele>165.80000305176</ele>
        <time>2014-10-05T07:25:44.000Z</time>
      </trkpt>
      <trkpt lat="45.76736" lon="4.81469">
        <ele>166.39999389648</ele>
        <time>2014-10-05T07:25:50.000Z</time>
      </trkpt>
      <trkpt lat="45.76746" lon="4.81446">
        <ele>166</ele>
        <time>2014-10-05T07:25:56.000Z</time>
      </trkpt>
      <trkpt lat="45.76747" lon="4.81443">
        <ele>166.39999389648</ele>
        <time>2014-10-05T07:25:57.000Z</time>
      </trkpt>
      <trkpt lat="45.76749" lon="4.81424">
        <ele>168.80000305176</ele>
        <time>2014-10-05T07:26:02.000Z</time>
      </trkpt>
      <trkpt lat="45.76748" lon="4.81407">
        <ele>170.80000305176</ele>
        <time>2014-10-05T07:26:06.000Z</time>
      </trkpt>
      <trkpt lat="45.76748" lon="4.81391">
        <ele>171.80000305176</ele>
        <time>2014-10-05T07:26:10.000Z</time>
      </trkpt>
      <trkpt lat="45.76755" lon="4.81375">
        <ele>171</ele>
        <time>2014-10-05T07:26:14.000Z</time>
      </trkpt>
      <trkpt lat="45.76762" lon="4.81362">
        <ele>170.60000610352</ele>
        <time>2014-10-05T07:26:18.000Z</time>
      </trkpt>
      <trkpt lat="45.76774" lon="4.81347">
        <ele>170.19999694824</ele>
        <time>2014-10-05T07:26:23.000Z</time>
      </trkpt>
      <trkpt lat="45.76784" lon="4.81336">
        <ele>169.80000305176</ele>
        <time>2014-10-05T07:26:27.000Z</time>
      </trkpt>
      <trkpt lat="45.76796" lon="4.81325">
        <ele>169.39999389648</ele>
        <time>2014-10-05T07:26:31.000Z</time>
      </trkpt>
      <trkpt lat="45.7681" lon="4.81314">
        <ele>169.19999694824</ele>
        <time>2014-10-05T07:26:36.000Z</time>
      </trkpt>
      <trkpt lat="45.76824" lon="4.81304">
        <ele>169.60000610352</ele>
        <time>2014-10-05T07:26:41.000Z</time>
      </trkpt>
      <trkpt lat="45.76841" lon="4.81297">
        <ele>168.39999389648</ele>
        <time>2014-10-05T07:26:45.000Z</time>
      </trkpt>
      <trkpt lat="45.76854" lon="4.8129">
        <ele>167.39999389648</ele>
        <time>2014-10-05T07:26:49.000Z</time>
      </trkpt>
      <trkpt lat="45.76868" lon="4.81285">
        <ele>166.80000305176</ele>
        <time>2014-10-05T07:26:54.000Z</time>
      </trkpt>
      <trkpt lat="45.7688" lon="4.81281">
        <ele>166.39999389648</ele>
        <time>2014-10-05T07:26:59.000Z</time>
      </trkpt>
      <trkpt lat="45.76898" lon="4.81278">
        <ele>166.39999389648</ele>
        <time>2014-10-05T07:27:05.000Z</time>
      </trkpt>
      <trkpt lat="45.769" lon="4.81277">
        <ele>166.60000610352</ele>
        <time>2014-10-05T07:27:06.000Z</time>
      </trkpt>
      <trkpt lat="45.76921" lon="4.81274">
        <ele>166.80000305176</ele>
        <time>2014-10-05T07:27:13.000Z</time>
      </trkpt>
      <trkpt lat="45.76937" lon="4.81273">
        <ele>167.19999694824</ele>
        <time>2014-10-05T07:27:19.000Z</time>
      </trkpt>
      <trkpt lat="45.76956" lon="4.8127">
        <ele>167.39999389648</ele>
        <time>2014-10-05T07:27:26.000Z</time>
      </trkpt>
      <trkpt lat="45.7697" lon="4.81267">
        <ele>167.80000305176</ele>
        <time>2014-10-05T07:27:31.000Z</time>
      </trkpt>
      <trkpt lat="45.76985" lon="4.81261">
        <ele>168.60000610352</ele>
        <time>2014-10-05T07:27:37.000Z</time>
      </trkpt>
      <trkpt lat="45.77001" lon="4.81255">
        <ele>169.39999389648</ele>
        <time>2014-10-05T07:27:43.000Z</time>
      </trkpt>
      <trkpt lat="45.77015" lon="4.81247">
        <ele>170.39999389648</ele>
        <time>2014-10-05T07:27:48.000Z</time>
      </trkpt>
      <trkpt lat="45.77029" lon="4.81239">
        <ele>171.19999694824</ele>
        <time>2014-10-05T07:27:53.000Z</time>
      </trkpt>
      <trkpt lat="45.77042" lon="4.81233">
        <ele>171.80000305176</ele>
        <time>2014-10-05T07:27:57.000Z</time>
      </trkpt>
      <trkpt lat="45.77052" lon="4.81228">
        <ele>172.39999389648</ele>
        <time>2014-10-05T07:28:01.000Z</time>
      </trkpt>
      <trkpt lat="45.77062" lon="4.81222">
        <ele>173</ele>
        <time>2014-10-05T07:28:05.000Z</time>
      </trkpt>
      <trkpt lat="45.77075" lon="4.81217">
        <ele>173.39999389648</ele>
        <time>2014-10-05T07:28:10.000Z</time>
      </trkpt>
      <trkpt lat="45.77091" lon="4.81209">
        <ele>174.19999694824</ele>
        <time>2014-10-05T07:28:15.000Z</time>
      </trkpt>
      <trkpt lat="45.77107" lon="4.81201">
        <ele>175</ele>
        <time>2014-10-05T07:28:21.000Z</time>
      </trkpt>
      <trkpt lat="45.77124" lon="4.81191">
        <ele>175.80000305176</ele>
        <time>2014-10-05T07:28:27.000Z</time>
      </trkpt>
      <trkpt lat="45.77133" lon="4.81184">
        <ele>176.19999694824</ele>
        <time>2014-10-05T07:28:31.000Z</time>
      </trkpt>
      <trkpt lat="45.77146" lon="4.81177">
        <ele>176</ele>
        <time>2014-10-05T07:28:36.000Z</time>
      </trkpt>
      <trkpt lat="45.77155" lon="4.81172">
        <ele>175.39999389648</ele>
        <time>2014-10-05T07:28:40.000Z</time>
      </trkpt>
      <trkpt lat="45.77165" lon="4.81165">
        <ele>175</ele>
        <time>2014-10-05T07:28:44.000Z</time>
      </trkpt>
      <trkpt lat="45.7718" lon="4.81156">
        <ele>174.19999694824</ele>
        <time>2014-10-05T07:28:49.000Z</time>
      </trkpt>
      <trkpt lat="45.77195" lon="4.81146">
        <ele>173.19999694824</ele>
        <time>2014-10-05T07:28:54.000Z</time>
      </trkpt>
      <trkpt lat="45.77204" lon="4.81134">
        <ele>173</ele>
        <time>2014-10-05T07:28:59.000Z</time>
      </trkpt>
      <trkpt lat="45.77213" lon="4.81123">
        <ele>173</ele>
        <time>2014-10-05T07:29:03.000Z</time>
      </trkpt>
      <trkpt lat="45.77224" lon="4.81108">
        <ele>174.19999694824</ele>
        <time>2014-10-05T07:29:08.000Z</time>
      </trkpt>
      <trkpt lat="45.77236" lon="4.81093">
        <ele>176</ele>
        <time>2014-10-05T07:29:13.000Z</time>
      </trkpt>
      <trkpt lat="45.77248" lon="4.8108">
        <ele>177.39999389648</ele>
        <time>2014-10-05T07:29:18.000Z</time>
      </trkpt>
      <trkpt lat="45.77254" lon="4.81075">
        <ele>177.80000305176</ele>
        <time>2014-10-05T07:29:20.000Z</time>
      </trkpt>
      <trkpt lat="45.77264" lon="4.81065">
        <ele>177.39999389648</ele>
        <time>2014-10-05T07:29:24.000Z</time>
      </trkpt>
      <trkpt lat="45.77274" lon="4.81056">
        <ele>176.80000305176</ele>
        <time>2014-10-05T07:29:28.000Z</time>
      </trkpt>
      <trkpt lat="45.77286" lon="4.81044">
        <ele>176.39999389648</ele>
        <time>2014-10-05T07:29:33.000Z</time>
      </trkpt>
      <trkpt lat="45.77297" lon="4.8103">
        <ele>175.80000305176</ele>
        <time>2014-10-05T07:29:38.000Z</time>
      </trkpt>
      <trkpt lat="45.77308" lon="4.81015">
        <ele>174.19999694824</ele>
        <time>2014-10-05T07:29:43.000Z</time>
      </trkpt>
      <trkpt lat="45.77317" lon="4.81005">
        <ele>173.39999389648</ele>
        <time>2014-10-05T07:29:47.000Z</time>
      </trkpt>
      <trkpt lat="45.77327" lon="4.80994">
        <ele>172.60000610352</ele>
        <time>2014-10-05T07:29:51.000Z</time>
      </trkpt>
      <trkpt lat="45.77334" lon="4.80986">
        <ele>172</ele>
        <time>2014-10-05T07:29:54.000Z</time>
      </trkpt>
      <trkpt lat="45.7735" lon="4.80974">
        <ele>172.19999694824</ele>
        <time>2014-10-05T07:30:00.000Z</time>
      </trkpt>
      <trkpt lat="45.7736" lon="4.80963">
        <ele>172.60000610352</ele>
        <time>2014-10-05T07:30:05.000Z</time>
      </trkpt>
      <trkpt lat="45.77374" lon="4.8095">
        <ele>172.80000305176</ele>
        <time>2014-10-05T07:30:11.000Z</time>
      </trkpt>
      <trkpt lat="45.77384" lon="4.80942">
        <ele>172.60000610352</ele>
        <time>2014-10-05T07:30:16.000Z</time>
      </trkpt>
      <trkpt lat="45.77395" lon="4.80933">
        <ele>172.39999389648</ele>
        <time>2014-10-05T07:30:20.000Z</time>
      </trkpt>
      <trkpt lat="45.77405" lon="4.80922">
        <ele>172.19999694824</ele>
        <time>2014-10-05T07:30:25.000Z</time>
      </trkpt>
      <trkpt lat="45.77417" lon="4.80912">
        <ele>171.60000610352</ele>
        <time>2014-10-05T07:30:29.000Z</time>
      </trkpt>
      <trkpt lat="45.77431" lon="4.80902">
        <ele>171.19999694824</ele>
        <time>2014-10-05T07:30:34.000Z</time>
      </trkpt>
      <trkpt lat="45.77448" lon="4.80888">
        <ele>171.19999694824</ele>
        <time>2014-10-05T07:30:40.000Z</time>
      </trkpt>
      <trkpt lat="45.77462" lon="4.80878">
        <ele>171.19999694824</ele>
        <time>2014-10-05T07:30:45.000Z</time>
      </trkpt>
      <trkpt lat="45.77466" lon="4.80876">
        <ele>171</ele>
        <time>2014-10-05T07:30:47.000Z</time>
      </trkpt>
      <trkpt lat="45.77471" lon="4.80878">
        <ele>170.60000610352</ele>
        <time>2014-10-05T07:30:49.000Z</time>
      </trkpt>
      <trkpt lat="45.77476" lon="4.80892">
        <ele>169.60000610352</ele>
        <time>2014-10-05T07:30:53.000Z</time>
      </trkpt>
      <trkpt lat="45.77479" lon="4.80908">
        <ele>168.39999389648</ele>
        <time>2014-10-05T07:30:57.000Z</time>
      </trkpt>
      <trkpt lat="45.77481" lon="4.80916">
        <ele>167.80000305176</ele>
        <time>2014-10-05T07:30:59.000Z</time>
      </trkpt>
      <trkpt lat="45.77487" lon="4.8094">
        <ele>166</ele>
        <time>2014-10-05T07:31:05.000Z</time>
      </trkpt>
      <trkpt lat="45.77487" lon="4.80964">
        <ele>165.60000610352</ele>
        <time>2014-10-05T07:31:11.000Z</time>
      </trkpt>
      <trkpt lat="45.77485" lon="4.80989">
        <ele>166</ele>
        <time>2014-10-05T07:31:17.000Z</time>
      </trkpt>
      <trkpt lat="45.77484" lon="4.81015">
        <ele>166</ele>
        <time>2014-10-05T07:31:23.000Z</time>
      </trkpt>
      <trkpt lat="45.77483" lon="4.81041">
        <ele>165.80000305176</ele>
        <time>2014-10-05T07:31:29.000Z</time>
      </trkpt>
      <trkpt lat="45.7748" lon="4.81067">
        <ele>166.80000305176</ele>
        <time>2014-10-05T07:31:35.000Z</time>
      </trkpt>
      <trkpt lat="45.7748" lon="4.81071">
        <ele>167</ele>
        <time>2014-10-05T07:31:36.000Z</time>
      </trkpt>
      <trkpt lat="45.77479" lon="4.81099">
        <ele>168.80000305176</ele>
        <time>2014-10-05T07:31:42.000Z</time>
      </trkpt>
      <trkpt lat="45.77477" lon="4.81118">
        <ele>169.80000305176</ele>
        <time>2014-10-05T07:31:46.000Z</time>
      </trkpt>
      <trkpt lat="45.77476" lon="4.81145">
        <ele>171.39999389648</ele>
        <time>2014-10-05T07:31:52.000Z</time>
      </trkpt>
      <trkpt lat="45.77476" lon="4.81149">
        <ele>171.80000305176</ele>
        <time>2014-10-05T07:31:53.000Z</time>
      </trkpt>
      <trkpt lat="45.7748" lon="4.81168">
        <ele>173</ele>
        <time>2014-10-05T07:31:57.000Z</time>
      </trkpt>
      <trkpt lat="45.77483" lon="4.81186">
        <ele>174.19999694824</ele>
        <time>2014-10-05T07:32:01.000Z</time>
      </trkpt>
      <trkpt lat="45.77486" lon="4.81207">
        <ele>175.60000610352</ele>
        <time>2014-10-05T07:32:06.000Z</time>
      </trkpt>
      <trkpt lat="45.77486" lon="4.81228">
        <ele>176</ele>
        <time>2014-10-05T07:32:11.000Z</time>
      </trkpt>
      <trkpt lat="45.77484" lon="4.81248">
        <ele>175.39999389648</ele>
        <time>2014-10-05T07:32:16.000Z</time>
      </trkpt>
      <trkpt lat="45.77484" lon="4.8127">
        <ele>174.80000305176</ele>
        <time>2014-10-05T07:32:21.000Z</time>
      </trkpt>
      <trkpt lat="45.77481" lon="4.81292">
        <ele>174.80000305176</ele>
        <time>2014-10-05T07:32:26.000Z</time>
      </trkpt>
      <trkpt lat="45.77479" lon="4.81314">
        <ele>175.60000610352</ele>
        <time>2014-10-05T07:32:31.000Z</time>
      </trkpt>
      <trkpt lat="45.77478" lon="4.81335">
        <ele>176.19999694824</ele>
        <time>2014-10-05T07:32:36.000Z</time>
      </trkpt>
      <trkpt lat="45.77476" lon="4.81363">
        <ele>177.19999694824</ele>
        <time>2014-10-05T07:32:42.000Z</time>
      </trkpt>
      <trkpt lat="45.77477" lon="4.81382">
        <ele>179.19999694824</ele>
        <time>2014-10-05T07:32:46.000Z</time>
      </trkpt>
      <trkpt lat="45.77473" lon="4.81395">
        <ele>180.19999694824</ele>
        <time>2014-10-05T07:32:49.000Z</time>
      </trkpt>
      <trkpt lat="45.77471" lon="4.81399">
        <ele>180.60000610352</ele>
        <time>2014-10-05T07:32:50.000Z</time>
      </trkpt>
      <trkpt lat="45.77465" lon="4.81421">
        <ele>183.19999694824</ele>
        <time>2014-10-05T07:32:55.000Z</time>
      </trkpt>
      <trkpt lat="45.77268" lon="4.83751">
        <ele>189.80000305176</ele>
        <time>2014-10-05T07:41:57.000Z</time>
      </trkpt>
      <trkpt lat="45.77242" lon="4.83736">
        <ele>190.19999694824</ele>
        <time>2014-10-05T07:41:58.000Z</time>
      </trkpt>
      <trkpt lat="45.77236" lon="4.83731">
        <ele>190.60000610352</ele>
        <time>2014-10-05T07:42:01.000Z</time>
      </trkpt>
      <trkpt lat="45.77267" lon="4.83749">
        <ele>190.19999694824</ele>
        <time>2014-10-05T07:42:06.000Z</time>
      </trkpt>
      <trkpt lat="45.77269" lon="4.83753">
        <ele>189.60000610352</ele>
        <time>2014-10-05T07:42:07.000Z</time>
      </trkpt>
      <trkpt lat="45.77271" lon="4.83766">
        <ele>187.19999694824</ele>
        <time>2014-10-05T07:42:11.000Z</time>
      </trkpt>
      <trkpt lat="45.77271" lon="4.83773">
        <ele>185.80000305176</ele>
        <time>2014-10-05T07:42:13.000Z</time>
      </trkpt>
      <trkpt lat="45.7727" lon="4.83784">
        <ele>183.80000305176</ele>
        <time>2014-10-05T07:42:16.000Z</time>
      </trkpt>
      <trkpt lat="45.7727" lon="4.83788">
        <ele>183</ele>
        <time>2014-10-05T07:42:17.000Z</time>
      </trkpt>
      <trkpt lat="45.77267" lon="4.8381">
        <ele>179.39999389648</ele>
        <time>2014-10-05T07:42:22.000Z</time>
      </trkpt>
      <trkpt lat="45.77263" lon="4.83831">
        <ele>176</ele>
        <time>2014-10-05T07:42:28.000Z</time>
      </trkpt>
      <trkpt lat="45.77259" lon="4.83847">
        <ele>174.80000305176</ele>
        <time>2014-10-05T07:42:32.000Z</time>
      </trkpt>
      <trkpt lat="45.77252" lon="4.83872">
        <ele>172.80000305176</ele>
        <time>2014-10-05T07:42:38.000Z</time>
      </trkpt>
      <trkpt lat="45.77248" lon="4.83891">
        <ele>170.80000305176</ele>
        <time>2014-10-05T07:42:43.000Z</time>
      </trkpt>
      <trkpt lat="45.77243" lon="4.83912">
        <ele>169.19999694824</ele>
        <time>2014-10-05T07:42:48.000Z</time>
      </trkpt>
      <trkpt lat="45.7724" lon="4.83932">
        <ele>167.80000305176</ele>
        <time>2014-10-05T07:42:53.000Z</time>
      </trkpt>
      <trkpt lat="45.77243" lon="4.83955">
        <ele>166</ele>
        <time>2014-10-05T07:42:58.000Z</time>
      </trkpt>
      <trkpt lat="45.77243" lon="4.83972">
        <ele>166</ele>
        <time>2014-10-05T07:43:02.000Z</time>
      </trkpt>
      <trkpt lat="45.77242" lon="4.83989">
        <ele>166</ele>
        <time>2014-10-05T07:43:06.000Z</time>
      </trkpt>
      <trkpt lat="45.7724" lon="4.84015">
        <ele>166</ele>
        <time>2014-10-05T07:43:12.000Z</time>
      </trkpt>
      <trkpt lat="45.77239" lon="4.8402">
        <ele>166</ele>
        <time>2014-10-05T07:43:13.000Z</time>
      </trkpt>
      <trkpt lat="45.77239" lon="4.84046">
        <ele>166</ele>
        <time>2014-10-05T07:43:19.000Z</time>
      </trkpt>
      <trkpt lat="45.77239" lon="4.84052">
        <ele>166</ele>
        <time>2014-10-05T07:43:20.000Z</time>
      </trkpt>
      <trkpt lat="45.77235" lon="4.84073">
        <ele>167.60000610352</ele>
        <time>2014-10-05T07:43:25.000Z</time>
      </trkpt>
      <trkpt lat="45.77232" lon="4.8409">
        <ele>169</ele>
        <time>2014-10-05T07:43:29.000Z</time>
      </trkpt>
      <trkpt lat="45.77222" lon="4.84103">
        <ele>170.60000610352</ele>
        <time>2014-10-05T07:43:33.000Z</time>
      </trkpt>
      <trkpt lat="45.77208" lon="4.84108">
        <ele>171</ele>
        <time>2014-10-05T07:43:37.000Z</time>
      </trkpt>
      <trkpt lat="45.77203" lon="4.8411">
        <ele>170.80000305176</ele>
        <time>2014-10-05T07:43:40.000Z</time>
      </trkpt>
      <trkpt lat="45.77201" lon="4.84111">
        <ele>170.60000610352</ele>
        <time>2014-10-05T07:43:41.000Z</time>
      </trkpt>
      <trkpt lat="45.77185" lon="4.84109">
        <ele>169.39999389648</ele>
        <time>2014-10-05T07:43:46.000Z</time>
      </trkpt>
      <trkpt lat="45.77172" lon="4.84109">
        <ele>168.39999389648</ele>
        <time>2014-10-05T07:43:50.000Z</time>
      </trkpt>
      <trkpt lat="45.77151" lon="4.84108">
        <ele>167</ele>
        <time>2014-10-05T07:43:56.000Z</time>
      </trkpt>
      <trkpt lat="45.76991" lon="4.841">
        <ele>170.39999389648</ele>
        <time>2014-10-05T07:44:53.000Z</time>
      </trkpt>
      <trkpt lat="45.76983" lon="4.84101">
        <ele>170.60000610352</ele>
        <time>2014-10-05T07:44:54.000Z</time>
      </trkpt>
      <trkpt lat="45.76966" lon="4.841">
        <ele>170.60000610352</ele>
        <time>2014-10-05T07:44:57.000Z</time>
      </trkpt>
      <trkpt lat="45.76961" lon="4.841">
        <ele>170.60000610352</ele>
        <time>2014-10-05T07:44:58.000Z</time>
      </trkpt>
      <trkpt lat="45.76957" lon="4.841">
        <ele>170.80000305176</ele>
        <time>2014-10-05T07:44:59.000Z</time>
      </trkpt>
      <trkpt lat="45.76949" lon="4.84099">
        <ele>170.80000305176</ele>
        <time>2014-10-05T07:45:01.000Z</time>
      </trkpt>
      <trkpt lat="45.76945" lon="4.84099">
        <ele>170.60000610352</ele>
        <time>2014-10-05T07:45:02.000Z</time>
      </trkpt>
      <trkpt lat="45.76934" lon="4.841">
        <ele>170.60000610352</ele>
        <time>2014-10-05T07:45:05.000Z</time>
      </trkpt>
      <trkpt lat="45.76927" lon="4.84099">
        <ele>170.19999694824</ele>
        <time>2014-10-05T07:45:07.000Z</time>
      </trkpt>
      <trkpt lat="45.76917" lon="4.84101">
        <ele>170.19999694824</ele>
        <time>2014-10-05T07:45:10.000Z</time>
      </trkpt>
      <trkpt lat="45.76906" lon="4.84103">
        <ele>170</ele>
        <time>2014-10-05T07:45:14.000Z</time>
      </trkpt>
      <trkpt lat="45.76888" lon="4.84106">
        <ele>169.80000305176</ele>
        <time>2014-10-05T07:45:20.000Z</time>
      </trkpt>
      <trkpt lat="45.76877" lon="4.84108">
        <ele>170</ele>
        <time>2014-10-05T07:45:24.000Z</time>
      </trkpt>
      <trkpt lat="45.76863" lon="4.84114">
        <ele>169.39999389648</ele>
        <time>2014-10-05T07:45:29.000Z</time>
      </trkpt>
      <trkpt lat="45.76848" lon="4.84117">
        <ele>168.60000610352</ele>
        <time>2014-10-05T07:45:34.000Z</time>
      </trkpt>
      <trkpt lat="45.76837" lon="4.84118">
        <ele>168</ele>
        <time>2014-10-05T07:45:38.000Z</time>
      </trkpt>
      <trkpt lat="45.76826" lon="4.84119">
        <ele>167.19999694824</ele>
        <time>2014-10-05T07:45:42.000Z</time>
      </trkpt>
      <trkpt lat="45.76806" lon="4.84121">
        <ele>166.19999694824</ele>
        <time>2014-10-05T07:45:48.000Z</time>
      </trkpt>
      <trkpt lat="45.76787" lon="4.84122">
        <ele>166.39999389648</ele>
        <time>2014-10-05T07:45:54.000Z</time>
      </trkpt>
      <trkpt lat="45.76767" lon="4.84125">
        <ele>167</ele>
        <time>2014-10-05T07:46:00.000Z</time>
      </trkpt>
      <trkpt lat="45.76749" lon="4.84126">
        <ele>167.60000610352</ele>
        <time>2014-10-05T07:46:06.000Z</time>
      </trkpt>
      <trkpt lat="45.76732" lon="4.84125">
        <ele>167.80000305176</ele>
        <time>2014-10-05T07:46:11.000Z</time>
      </trkpt>
      <trkpt lat="45.76716" lon="4.84126">
        <ele>168.60000610352</ele>
        <time>2014-10-05T07:46:15.000Z</time>
      </trkpt>
      <trkpt lat="45.76703" lon="4.84125">
        <ele>168.39999389648</ele>
        <time>2014-10-05T07:46:19.000Z</time>
      </trkpt>
      <trkpt lat="45.767" lon="4.84118">
        <ele>168</ele>
        <time>2014-10-05T07:46:21.000Z</time>
      </trkpt>
      <trkpt lat="45.76699" lon="4.84114">
        <ele>167.80000305176</ele>
        <time>2014-10-05T07:46:22.000Z</time>
      </trkpt>
      <trkpt lat="45.76706" lon="4.84101">
        <ele>167.39999389648</ele>
        <time>2014-10-05T07:46:26.000Z</time>
      </trkpt>
      <trkpt lat="45.76717" lon="4.84096">
        <ele>167.39999389648</ele>
        <time>2014-10-05T07:46:30.000Z</time>
      </trkpt>
      <trkpt lat="45.76728" lon="4.84094">
        <ele>167.19999694824</ele>
        <time>2014-10-05T07:46:33.000Z</time>
      </trkpt>
      <trkpt lat="45.76736" lon="4.84093">
        <ele>167</ele>
        <time>2014-10-05T07:46:36.000Z</time>
      </trkpt>
      <trkpt lat="45.76756" lon="4.84088">
        <ele>166.39999389648</ele>
        <time>2014-10-05T07:46:42.000Z</time>
      </trkpt>
      <trkpt lat="45.76771" lon="4.84083">
        <ele>166</ele>
        <time>2014-10-05T07:46:47.000Z</time>
      </trkpt>
      <trkpt lat="45.76787" lon="4.84078">
        <ele>166</ele>
        <time>2014-10-05T07:46:52.000Z</time>
      </trkpt>
      <trkpt lat="45.76807" lon="4.84074">
        <ele>166.19999694824</ele>
        <time>2014-10-05T07:46:58.000Z</time>
      </trkpt>
      <trkpt lat="45.76819" lon="4.84072">
        <ele>166.80000305176</ele>
        <time>2014-10-05T07:47:02.000Z</time>
      </trkpt>
      <trkpt lat="45.76825" lon="4.84071">
        <ele>167.19999694824</ele>
        <time>2014-10-05T07:47:04.000Z</time>
      </trkpt>
      <trkpt lat="45.7684" lon="4.84069">
        <ele>167.80000305176</ele>
        <time>2014-10-05T07:47:09.000Z</time>
      </trkpt>
      <trkpt lat="45.7685" lon="4.84068">
        <ele>167.60000610352</ele>
        <time>2014-10-05T07:47:13.000Z</time>
      </trkpt>
      <trkpt lat="45.76862" lon="4.84071">
        <ele>167.60000610352</ele>
        <time>2014-10-05T07:47:17.000Z</time>
      </trkpt>
      <trkpt lat="45.76865" lon="4.8407">
        <ele>167.60000610352</ele>
        <time>2014-10-05T07:47:18.000Z</time>
      </trkpt>
      <trkpt lat="45.76876" lon="4.84068">
        <ele>167.19999694824</ele>
        <time>2014-10-05T07:47:22.000Z</time>
      </trkpt>
      <trkpt lat="45.76888" lon="4.84067">
        <ele>167</ele>
        <time>2014-10-05T07:47:26.000Z</time>
      </trkpt>
      <trkpt lat="45.76907" lon="4.84065">
        <ele>167.19999694824</ele>
        <time>2014-10-05T07:47:31.000Z</time>
      </trkpt>
      <trkpt lat="45.76927" lon="4.84065">
        <ele>167.39999389648</ele>
        <time>2014-10-05T07:47:37.000Z</time>
      </trkpt>
      <trkpt lat="45.76941" lon="4.84064">
        <ele>167</ele>
        <time>2014-10-05T07:47:42.000Z</time>
      </trkpt>
      <trkpt lat="45.76958" lon="4.84067">
        <ele>167.19999694824</ele>
        <time>2014-10-05T07:47:47.000Z</time>
      </trkpt>
      <trkpt lat="45.76965" lon="4.84066">
        <ele>167</ele>
        <time>2014-10-05T07:47:50.000Z</time>
      </trkpt>
      <trkpt lat="45.76979" lon="4.84068">
        <ele>167</ele>
        <time>2014-10-05T07:47:55.000Z</time>
      </trkpt>
      <trkpt lat="45.76987" lon="4.84068">
        <ele>167</ele>
        <time>2014-10-05T07:47:59.000Z</time>
      </trkpt>
      <trkpt lat="45.76995" lon="4.84069">
        <ele>167</ele>
        <time>2014-10-05T07:48:02.000Z</time>
      </trkpt>
      <trkpt lat="45.76998" lon="4.84068">
        <ele>166.80000305176</ele>
        <time>2014-10-05T07:48:03.000Z</time>
      </trkpt>
      <trkpt lat="45.77016" lon="4.84067">
        <ele>167</ele>
        <time>2014-10-05T07:48:08.000Z</time>
      </trkpt>
      <trkpt lat="45.77019" lon="4.84066">
        <ele>167.19999694824</ele>
        <time>2014-10-05T07:48:09.000Z</time>
      </trkpt>
      <trkpt lat="45.77033" lon="4.84068">
        <ele>167.60000610352</ele>
        <time>2014-10-05T07:48:13.000Z</time>
      </trkpt>
      <trkpt lat="45.77047" lon="4.84069">
        <ele>168</ele>
        <time>2014-10-05T07:48:17.000Z</time>
      </trkpt>
      <trkpt lat="45.77059" lon="4.84071">
        <ele>168</ele>
        <time>2014-10-05T07:48:22.000Z</time>
      </trkpt>
      <trkpt lat="45.77078" lon="4.84074">
        <ele>166.80000305176</ele>
        <time>2014-10-05T07:48:27.000Z</time>
      </trkpt>
      <trkpt lat="45.77091" lon="4.84074">
        <ele>166</ele>
        <time>2014-10-05T07:48:31.000Z</time>
      </trkpt>
      <trkpt lat="45.77102" lon="4.84074">
        <ele>166</ele>
        <time>2014-10-05T07:48:35.000Z</time>
      </trkpt>
      <trkpt lat="45.77115" lon="4.84074">
        <ele>166</ele>
        <time>2014-10-05T07:48:40.000Z</time>
      </trkpt>
      <trkpt lat="45.77133" lon="4.84075">
        <ele>166</ele>
        <time>2014-10-05T07:48:46.000Z</time>
      </trkpt>
      <trkpt lat="45.77149" lon="4.84074">
        <ele>166.80000305176</ele>
        <time>2014-10-05T07:48:51.000Z</time>
      </trkpt>
      <trkpt lat="45.77167" lon="4.84074">
        <ele>168.19999694824</ele>
        <time>2014-10-05T07:48:57.000Z</time>
      </trkpt>
      <trkpt lat="45.77183" lon="4.84075">
        <ele>168.60000610352</ele>
        <time>2014-10-05T07:49:02.000Z</time>
      </trkpt>
      <trkpt lat="45.77197" lon="4.84074">
        <ele>168.60000610352</ele>
        <time>2014-10-05T07:49:07.000Z</time>
      </trkpt>
      <trkpt lat="45.77217" lon="4.84075">
        <ele>168.60000610352</ele>
        <time>2014-10-05T07:49:13.000Z</time>
      </trkpt>
      <trkpt lat="45.77223" lon="4.84078">
        <ele>168.60000610352</ele>
        <time>2014-10-05T07:49:16.000Z</time>
      </trkpt>
      <trkpt lat="45.7724" lon="4.84101">
        <ele>169.19999694824</ele>
        <time>2014-10-05T07:49:26.000Z</time>
      </trkpt>
      <trkpt lat="45.77259" lon="4.84092">
        <ele>167</ele>
        <time>2014-10-05T07:49:30.000Z</time>
      </trkpt>
      <trkpt lat="45.77271" lon="4.84091">
        <ele>166.19999694824</ele>
        <time>2014-10-05T07:49:33.000Z</time>
      </trkpt>
      <trkpt lat="45.77274" lon="4.84091">
        <ele>166</ele>
        <time>2014-10-05T07:49:34.000Z</time>
      </trkpt>
      <trkpt lat="45.77277" lon="4.84091">
        <ele>166</ele>
        <time>2014-10-05T07:49:35.000Z</time>
      </trkpt>
      <trkpt lat="45.7728" lon="4.84093">
        <ele>166</ele>
        <time>2014-10-05T07:49:36.000Z</time>
      </trkpt>
      <trkpt lat="45.77289" lon="4.84097">
        <ele>166</ele>
        <time>2014-10-05T07:49:39.000Z</time>
      </trkpt>
      <trkpt lat="45.77298" lon="4.84104">
        <ele>166</ele>
        <time>2014-10-05T07:49:43.000Z</time>
      </trkpt>
      <trkpt lat="45.77309" lon="4.84109">
        <ele>166</ele>
        <time>2014-10-05T07:49:47.000Z</time>
      </trkpt>
      <trkpt lat="45.77321" lon="4.84116">
        <ele>166</ele>
        <time>2014-10-05T07:49:51.000Z</time>
      </trkpt>
      <trkpt lat="45.77336" lon="4.84124">
        <ele>166.19999694824</ele>
        <time>2014-10-05T07:49:56.000Z</time>
      </trkpt>
      <trkpt lat="45.77341" lon="4.84128">
        <ele>166.39999389648</ele>
        <time>2014-10-05T07:49:58.000Z</time>
      </trkpt>
      <trkpt lat="45.77352" lon="4.84138">
        <ele>167</ele>
        <time>2014-10-05T07:50:02.000Z</time>
      </trkpt>
      <trkpt lat="45.77365" lon="4.84148">
        <ele>167.60000610352</ele>
        <time>2014-10-05T07:50:07.000Z</time>
      </trkpt>
      <trkpt lat="45.77377" lon="4.84159">
        <ele>168.19999694824</ele>
        <time>2014-10-05T07:50:12.000Z</time>
      </trkpt>
      <trkpt lat="45.77388" lon="4.8417">
        <ele>168.80000305176</ele>
        <time>2014-10-05T07:50:17.000Z</time>
      </trkpt>
      <trkpt lat="45.77395" lon="4.84173">
        <ele>168.80000305176</ele>
        <time>2014-10-05T07:50:19.000Z</time>
      </trkpt>
      <trkpt lat="45.77411" lon="4.84181">
        <ele>168.39999389648</ele>
        <time>2014-10-05T07:50:24.000Z</time>
      </trkpt>
      <trkpt lat="45.77424" lon="4.84191">
        <ele>168.39999389648</ele>
        <time>2014-10-05T07:50:29.000Z</time>
      </trkpt>
      <trkpt lat="45.77435" lon="4.84198">
        <ele>168.19999694824</ele>
        <time>2014-10-05T07:50:33.000Z</time>
      </trkpt>
      <trkpt lat="45.77445" lon="4.84206">
        <ele>168.19999694824</ele>
        <time>2014-10-05T07:50:37.000Z</time>
      </trkpt>
      <trkpt lat="45.77459" lon="4.84215">
        <ele>167.80000305176</ele>
        <time>2014-10-05T07:50:42.000Z</time>
      </trkpt>
      <trkpt lat="45.77469" lon="4.84223">
        <ele>167.60000610352</ele>
        <time>2014-10-05T07:50:46.000Z</time>
      </trkpt>
      <trkpt lat="45.77479" lon="4.84228">
        <ele>167.60000610352</ele>
        <time>2014-10-05T07:50:50.000Z</time>
      </trkpt>
      <trkpt lat="45.77482" lon="4.84229">
        <ele>167.60000610352</ele>
        <time>2014-10-05T07:50:51.000Z</time>
      </trkpt>
      <trkpt lat="45.77492" lon="4.84236">
        <ele>167.80000305176</ele>
        <time>2014-10-05T07:50:55.000Z</time>
      </trkpt>
      <trkpt lat="45.77506" lon="4.84249">
        <ele>168</ele>
        <time>2014-10-05T07:51:01.000Z</time>
      </trkpt>
      <trkpt lat="45.77523" lon="4.84259">
        <ele>168.19999694824</ele>
        <time>2014-10-05T07:51:07.000Z</time>
      </trkpt>
      <trkpt lat="45.77532" lon="4.84263">
        <ele>168.39999389648</ele>
        <time>2014-10-05T07:51:10.000Z</time>
      </trkpt>
      <trkpt lat="45.77534" lon="4.84266">
        <ele>168.39999389648</ele>
        <time>2014-10-05T07:51:11.000Z</time>
      </trkpt>
      <trkpt lat="45.7755" lon="4.84274">
        <ele>168.60000610352</ele>
        <time>2014-10-05T07:51:16.000Z</time>
      </trkpt>
      <trkpt lat="45.77565" lon="4.84283">
        <ele>168.19999694824</ele>
        <time>2014-10-05T07:51:21.000Z</time>
      </trkpt>
      <trkpt lat="45.77572" lon="4.84286">
        <ele>167.80000305176</ele>
        <time>2014-10-05T07:51:23.000Z</time>
      </trkpt>
      <trkpt lat="45.77581" lon="4.84291">
        <ele>167.60000610352</ele>
        <time>2014-10-05T07:51:26.000Z</time>
      </trkpt>
      <trkpt lat="45.77595" lon="4.84298">
        <ele>167</ele>
        <time>2014-10-05T07:51:31.000Z</time>
      </trkpt>
      <trkpt lat="45.77607" lon="4.84303">
        <ele>166.60000610352</ele>
        <time>2014-10-05T07:51:35.000Z</time>
      </trkpt>
      <trkpt lat="45.77617" lon="4.8431">
        <ele>166.19999694824</ele>
        <time>2014-10-05T07:51:39.000Z</time>
      </trkpt>
      <trkpt lat="45.7762" lon="4.84312">
        <ele>166.19999694824</ele>
        <time>2014-10-05T07:51:40.000Z</time>
      </trkpt>
      <trkpt lat="45.77636" lon="4.84325">
        <ele>165.80000305176</ele>
        <time>2014-10-05T07:51:47.000Z</time>
      </trkpt>
      <trkpt lat="45.77647" lon="4.84336">
        <ele>166</ele>
        <time>2014-10-05T07:51:52.000Z</time>
      </trkpt>
      <trkpt lat="45.7766" lon="4.84345">
        <ele>166.19999694824</ele>
        <time>2014-10-05T07:51:57.000Z</time>
      </trkpt>
      <trkpt lat="45.77665" lon="4.84349">
        <ele>166.19999694824</ele>
        <time>2014-10-05T07:51:59.000Z</time>
      </trkpt>
      <trkpt lat="45.77674" lon="4.84355">
        <ele>166.19999694824</ele>
        <time>2014-10-05T07:52:02.000Z</time>
      </trkpt>
      <trkpt lat="45.77677" lon="4.84357">
        <ele>166.39999389648</ele>
        <time>2014-10-05T07:52:03.000Z</time>
      </trkpt>
      <trkpt lat="45.77694" lon="4.84365">
        <ele>166.39999389648</ele>
        <time>2014-10-05T07:52:09.000Z</time>
      </trkpt>
      <trkpt lat="45.77707" lon="4.84366">
        <ele>166</ele>
        <time>2014-10-05T07:52:13.000Z</time>
      </trkpt>
      <trkpt lat="45.77722" lon="4.84367">
        <ele>166</ele>
        <time>2014-10-05T07:52:17.000Z</time>
      </trkpt>
      <trkpt lat="45.77739" lon="4.84364">
        <ele>166.19999694824</ele>
        <time>2014-10-05T07:52:22.000Z</time>
      </trkpt>
      <trkpt lat="45.77752" lon="4.84363">
        <ele>166.39999389648</ele>
        <time>2014-10-05T07:52:26.000Z</time>
      </trkpt>
      <trkpt lat="45.77764" lon="4.84359">
        <ele>166.60000610352</ele>
        <time>2014-10-05T07:52:30.000Z</time>
      </trkpt>
      <trkpt lat="45.77777" lon="4.8436">
        <ele>166.60000610352</ele>
        <time>2014-10-05T07:52:35.000Z</time>
      </trkpt>
      <trkpt lat="45.77793" lon="4.84365">
        <ele>166.80000305176</ele>
        <time>2014-10-05T07:52:40.000Z</time>
      </trkpt>
      <trkpt lat="45.77807" lon="4.8437">
        <ele>167</ele>
        <time>2014-10-05T07:52:45.000Z</time>
      </trkpt>
      <trkpt lat="45.77825" lon="4.84377">
        <ele>166.80000305176</ele>
        <time>2014-10-05T07:52:50.000Z</time>
      </trkpt>
      <trkpt lat="45.77843" lon="4.84383">
        <ele>166.60000610352</ele>
        <time>2014-10-05T07:52:55.000Z</time>
      </trkpt>
      <trkpt lat="45.77857" lon="4.84398">
        <ele>166.60000610352</ele>
        <time>2014-10-05T07:53:02.000Z</time>
      </trkpt>
      <trkpt lat="45.77869" lon="4.84409">
        <ele>166.60000610352</ele>
        <time>2014-10-05T07:53:07.000Z</time>
      </trkpt>
      <trkpt lat="45.77885" lon="4.84418">
        <ele>166.60000610352</ele>
        <time>2014-10-05T07:53:13.000Z</time>
      </trkpt>
      <trkpt lat="45.77899" lon="4.84428">
        <ele>166.39999389648</ele>
        <time>2014-10-05T07:53:18.000Z</time>
      </trkpt>
      <trkpt lat="45.77911" lon="4.84441">
        <ele>166.19999694824</ele>
        <time>2014-10-05T07:53:23.000Z</time>
      </trkpt>
      <trkpt lat="45.77925" lon="4.84452">
        <ele>166</ele>
        <time>2014-10-05T07:53:28.000Z</time>
      </trkpt>
      <trkpt lat="45.7794" lon="4.8446">
        <ele>165.80000305176</ele>
        <time>2014-10-05T07:53:33.000Z</time>
      </trkpt>
      <trkpt lat="45.7795" lon="4.84465">
        <ele>165.39999389648</ele>
        <time>2014-10-05T07:53:37.000Z</time>
      </trkpt>
      <trkpt lat="45.77953" lon="4.84465">
        <ele>165.39999389648</ele>
        <time>2014-10-05T07:53:38.000Z</time>
      </trkpt>
      <trkpt lat="45.77963" lon="4.84474">
        <ele>165</ele>
        <time>2014-10-05T07:53:42.000Z</time>
      </trkpt>
      <trkpt lat="45.77969" lon="4.84477">
        <ele>164.80000305176</ele>
        <time>2014-10-05T07:53:44.000Z</time>
      </trkpt>
      <trkpt lat="45.77977" lon="4.84483">
        <ele>165</ele>
        <time>2014-10-05T07:53:47.000Z</time>
      </trkpt>
      <trkpt lat="45.77988" lon="4.84494">
        <ele>165.39999389648</ele>
        <time>2014-10-05T07:53:52.000Z</time>
      </trkpt>
      <trkpt lat="45.78003" lon="4.84508">
        <ele>165.80000305176</ele>
        <time>2014-10-05T07:53:58.000Z</time>
      </trkpt>
      <trkpt lat="45.78018" lon="4.8452">
        <ele>166.39999389648</ele>
        <time>2014-10-05T07:54:04.000Z</time>
      </trkpt>
      <trkpt lat="45.7803" lon="4.84533">
        <ele>166.80000305176</ele>
        <time>2014-10-05T07:54:09.000Z</time>
      </trkpt>
      <trkpt lat="45.7804" lon="4.84546">
        <ele>167.19999694824</ele>
        <time>2014-10-05T07:54:14.000Z</time>
      </trkpt>
      <trkpt lat="45.78045" lon="4.8455">
        <ele>167.19999694824</ele>
        <time>2014-10-05T07:54:16.000Z</time>
      </trkpt>
      <trkpt lat="45.78053" lon="4.84556">
        <ele>167.60000610352</ele>
        <time>2014-10-05T07:54:19.000Z</time>
      </trkpt>
      <trkpt lat="45.78064" lon="4.84565">
        <ele>167.19999694824</ele>
        <time>2014-10-05T07:54:23.000Z</time>
      </trkpt>
      <trkpt lat="45.78077" lon="4.84578">
        <ele>166.80000305176</ele>
        <time>2014-10-05T07:54:28.000Z</time>
      </trkpt>
      <trkpt lat="45.78093" lon="4.84592">
        <ele>166.19999694824</ele>
        <time>2014-10-05T07:54:34.000Z</time>
      </trkpt>
      <trkpt lat="45.78104" lon="4.84606">
        <ele>165.80000305176</ele>
        <time>2014-10-05T07:54:39.000Z</time>
      </trkpt>
      <trkpt lat="45.7811" lon="4.84613">
        <ele>165.60000610352</ele>
        <time>2014-10-05T07:54:42.000Z</time>
      </trkpt>
      <trkpt lat="45.78113" lon="4.84615">
        <ele>165.39999389648</ele>
        <time>2014-10-05T07:54:43.000Z</time>
      </trkpt>
      <trkpt lat="45.78128" lon="4.84625">
        <ele>165.19999694824</ele>
        <time>2014-10-05T07:54:48.000Z</time>
      </trkpt>
      <trkpt lat="45.7813" lon="4.84627">
        <ele>165.19999694824</ele>
        <time>2014-10-05T07:54:49.000Z</time>
      </trkpt>
      <trkpt lat="45.78137" lon="4.84636">
        <ele>165.60000610352</ele>
        <time>2014-10-05T07:54:52.000Z</time>
      </trkpt>
      <trkpt lat="45.7814" lon="4.84637">
        <ele>165.60000610352</ele>
        <time>2014-10-05T07:54:53.000Z</time>
      </trkpt>
      <trkpt lat="45.78144" lon="4.84643">
        <ele>165.60000610352</ele>
        <time>2014-10-05T07:54:55.000Z</time>
      </trkpt>
      <trkpt lat="45.78149" lon="4.84658">
        <ele>166</ele>
        <time>2014-10-05T07:54:59.000Z</time>
      </trkpt>
      <trkpt lat="45.78152" lon="4.84667">
        <ele>166.19999694824</ele>
        <time>2014-10-05T07:55:01.000Z</time>
      </trkpt>
      <trkpt lat="45.78157" lon="4.84672">
        <ele>166</ele>
        <time>2014-10-05T07:55:03.000Z</time>
      </trkpt>
      <trkpt lat="45.78174" lon="4.84684">
        <ele>165.39999389648</ele>
        <time>2014-10-05T07:55:09.000Z</time>
      </trkpt>
      <trkpt lat="45.78191" lon="4.84697">
        <ele>164.80000305176</ele>
        <time>2014-10-05T07:55:15.000Z</time>
      </trkpt>
      <trkpt lat="45.78203" lon="4.84709">
        <ele>164.39999389648</ele>
        <time>2014-10-05T07:55:20.000Z</time>
      </trkpt>
      <trkpt lat="45.78218" lon="4.84722">
        <ele>164.19999694824</ele>
        <time>2014-10-05T07:55:26.000Z</time>
      </trkpt>
      <trkpt lat="45.78233" lon="4.84737">
        <ele>164.80000305176</ele>
        <time>2014-10-05T07:55:32.000Z</time>
      </trkpt>
      <trkpt lat="45.78245" lon="4.84749">
        <ele>165.60000610352</ele>
        <time>2014-10-05T07:55:37.000Z</time>
      </trkpt>
      <trkpt lat="45.78257" lon="4.84761">
        <ele>166.39999389648</ele>
        <time>2014-10-05T07:55:42.000Z</time>
      </trkpt>
      <trkpt lat="45.7827" lon="4.84774">
        <ele>167</ele>
        <time>2014-10-05T07:55:47.000Z</time>
      </trkpt>
      <trkpt lat="45.78284" lon="4.84791">
        <ele>168</ele>
        <time>2014-10-05T07:55:53.000Z</time>
      </trkpt>
      <trkpt lat="45.78295" lon="4.84804">
        <ele>168.39999389648</ele>
        <time>2014-10-05T07:55:58.000Z</time>
      </trkpt>
      <trkpt lat="45.78301" lon="4.84821">
        <ele>168.80000305176</ele>
        <time>2014-10-05T07:56:03.000Z</time>
      </trkpt>
      <trkpt lat="45.78296" lon="4.84823">
        <ele>168.80000305176</ele>
        <time>2014-10-05T07:56:05.000Z</time>
      </trkpt>
      <trkpt lat="45.78285" lon="4.84813">
        <ele>168.60000610352</ele>
        <time>2014-10-05T07:56:09.000Z</time>
      </trkpt>
      <trkpt lat="45.78272" lon="4.84795">
        <ele>168.19999694824</ele>
        <time>2014-10-05T07:56:15.000Z</time>
      </trkpt>
      <trkpt lat="45.78259" lon="4.84777">
        <ele>167.19999694824</ele>
        <time>2014-10-05T07:56:21.000Z</time>
      </trkpt>
      <trkpt lat="45.78257" lon="4.84774">
        <ele>167.19999694824</ele>
        <time>2014-10-05T07:56:22.000Z</time>
      </trkpt>
      <trkpt lat="45.78243" lon="4.84759">
        <ele>166.19999694824</ele>
        <time>2014-10-05T07:56:28.000Z</time>
      </trkpt>
      <trkpt lat="45.78228" lon="4.84744">
        <ele>165.19999694824</ele>
        <time>2014-10-05T07:56:34.000Z</time>
      </trkpt>
      <trkpt lat="45.78218" lon="4.84732">
        <ele>164.80000305176</ele>
        <time>2014-10-05T07:56:39.000Z</time>
      </trkpt>
      <trkpt lat="45.78205" lon="4.84721">
        <ele>165</ele>
        <time>2014-10-05T07:56:44.000Z</time>
      </trkpt>
      <trkpt lat="45.7819" lon="4.84707">
        <ele>165.39999389648</ele>
        <time>2014-10-05T07:56:50.000Z</time>
      </trkpt>
      <trkpt lat="45.78175" lon="4.84695">
        <ele>165.80000305176</ele>
        <time>2014-10-05T07:56:56.000Z</time>
      </trkpt>
      <trkpt lat="45.78169" lon="4.84691">
        <ele>166</ele>
        <time>2014-10-05T07:56:58.000Z</time>
      </trkpt>
      <trkpt lat="45.78158" lon="4.84684">
        <ele>166.60000610352</ele>
        <time>2014-10-05T07:57:02.000Z</time>
      </trkpt>
      <trkpt lat="45.78141" lon="4.84678">
        <ele>167.39999389648</ele>
        <time>2014-10-05T07:57:08.000Z</time>
      </trkpt>
      <trkpt lat="45.78139" lon="4.84681">
        <ele>167.80000305176</ele>
        <time>2014-10-05T07:57:09.000Z</time>
      </trkpt>
      <trkpt lat="45.78132" lon="4.84689">
        <ele>168.19999694824</ele>
        <time>2014-10-05T07:57:12.000Z</time>
      </trkpt>
      <trkpt lat="45.78125" lon="4.84702">
        <ele>169.19999694824</ele>
        <time>2014-10-05T07:57:16.000Z</time>
      </trkpt>
      <trkpt lat="45.78124" lon="4.84706">
        <ele>169.60000610352</ele>
        <time>2014-10-05T07:57:17.000Z</time>
      </trkpt>
      <trkpt lat="45.78117" lon="4.84724">
        <ele>170.80000305176</ele>
        <time>2014-10-05T07:57:22.000Z</time>
      </trkpt>
      <trkpt lat="45.78111" lon="4.84737">
        <ele>171.80000305176</ele>
        <time>2014-10-05T07:57:26.000Z</time>
      </trkpt>
      <trkpt lat="45.78106" lon="4.84752">
        <ele>173</ele>
        <time>2014-10-05T07:57:31.000Z</time>
      </trkpt>
      <trkpt lat="45.78107" lon="4.84755">
        <ele>173</ele>
        <time>2014-10-05T07:57:32.000Z</time>
      </trkpt>
      <trkpt lat="45.78115" lon="4.84768">
        <ele>173.39999389648</ele>
        <time>2014-10-05T07:57:37.000Z</time>
      </trkpt>
      <trkpt lat="45.78118" lon="4.84771">
        <ele>173.60000610352</ele>
        <time>2014-10-05T07:57:38.000Z</time>
      </trkpt>
      <trkpt lat="45.78129" lon="4.84787">
        <ele>174</ele>
        <time>2014-10-05T07:57:44.000Z</time>
      </trkpt>
      <trkpt lat="45.78138" lon="4.84799">
        <ele>173.80000305176</ele>
        <time>2014-10-05T07:57:48.000Z</time>
      </trkpt>
      <trkpt lat="45.78151" lon="4.84813">
        <ele>173</ele>
        <time>2014-10-05T07:57:53.000Z</time>
      </trkpt>
      <trkpt lat="45.78163" lon="4.84825">
        <ele>172.39999389648</ele>
        <time>2014-10-05T07:57:58.000Z</time>
      </trkpt>
      <trkpt lat="45.78173" lon="4.84841">
        <ele>171.60000610352</ele>
        <time>2014-10-05T07:58:03.000Z</time>
      </trkpt>
      <trkpt lat="45.78177" lon="4.84846">
        <ele>171.39999389648</ele>
        <time>2014-10-05T07:58:05.000Z</time>
      </trkpt>
      <trkpt lat="45.78183" lon="4.84856">
        <ele>171</ele>
        <time>2014-10-05T07:58:08.000Z</time>
      </trkpt>
      <trkpt lat="45.78192" lon="4.84869">
        <ele>170.39999389648</ele>
        <time>2014-10-05T07:58:12.000Z</time>
      </trkpt>
      <trkpt lat="45.78198" lon="4.84881">
        <ele>170.39999389648</ele>
        <time>2014-10-05T07:58:16.000Z</time>
      </trkpt>
      <trkpt lat="45.78207" lon="4.84899">
        <ele>170.60000610352</ele>
        <time>2014-10-05T07:58:21.000Z</time>
      </trkpt>
      <trkpt lat="45.7822" lon="4.84918">
        <ele>170.80000305176</ele>
        <time>2014-10-05T07:58:26.000Z</time>
      </trkpt>
      <trkpt lat="45.78233" lon="4.84936">
        <ele>171</ele>
        <time>2014-10-05T07:58:31.000Z</time>
      </trkpt>
      <trkpt lat="45.78244" lon="4.84955">
        <ele>171.39999389648</ele>
        <time>2014-10-05T07:58:36.000Z</time>
      </trkpt>
      <trkpt lat="45.78249" lon="4.84963">
        <ele>171.39999389648</ele>
        <time>2014-10-05T07:58:38.000Z</time>
      </trkpt>
      <trkpt lat="45.78251" lon="4.84968">
        <ele>171.19999694824</ele>
        <time>2014-10-05T07:58:39.000Z</time>
      </trkpt>
      <trkpt lat="45.78261" lon="4.84992">
        <ele>171</ele>
        <time>2014-10-05T07:58:45.000Z</time>
      </trkpt>
      <trkpt lat="45.78272" lon="4.8501">
        <ele>170.80000305176</ele>
        <time>2014-10-05T07:58:50.000Z</time>
      </trkpt>
      <trkpt lat="45.78282" lon="4.85027">
        <ele>170.60000610352</ele>
        <time>2014-10-05T07:58:55.000Z</time>
      </trkpt>
      <trkpt lat="45.78293" lon="4.85044">
        <ele>170.39999389648</ele>
        <time>2014-10-05T07:59:00.000Z</time>
      </trkpt>
      <trkpt lat="45.78301" lon="4.85061">
        <ele>170.80000305176</ele>
        <time>2014-10-05T07:59:05.000Z</time>
      </trkpt>
      <trkpt lat="45.78309" lon="4.85077">
        <ele>171.19999694824</ele>
        <time>2014-10-05T07:59:10.000Z</time>
      </trkpt>
      <trkpt lat="45.78316" lon="4.8509">
        <ele>171.39999389648</ele>
        <time>2014-10-05T07:59:14.000Z</time>
      </trkpt>
      <trkpt lat="45.78325" lon="4.85103">
        <ele>171.60000610352</ele>
        <time>2014-10-05T07:59:18.000Z</time>
      </trkpt>
      <trkpt lat="45.78334" lon="4.8512">
        <ele>171.80000305176</ele>
        <time>2014-10-05T07:59:23.000Z</time>
      </trkpt>
      <trkpt lat="45.7834" lon="4.85135">
        <ele>172.39999389648</ele>
        <time>2014-10-05T07:59:27.000Z</time>
      </trkpt>
      <trkpt lat="45.78351" lon="4.85152">
        <ele>173.19999694824</ele>
        <time>2014-10-05T07:59:32.000Z</time>
      </trkpt>
      <trkpt lat="45.78359" lon="4.8517">
        <ele>174</ele>
        <time>2014-10-05T07:59:37.000Z</time>
      </trkpt>
      <trkpt lat="45.78367" lon="4.85184">
        <ele>174.39999389648</ele>
        <time>2014-10-05T07:59:41.000Z</time>
      </trkpt>
      <trkpt lat="45.78375" lon="4.85201">
        <ele>174.80000305176</ele>
        <time>2014-10-05T07:59:46.000Z</time>
      </trkpt>
      <trkpt lat="45.78383" lon="4.85222">
        <ele>175.60000610352</ele>
        <time>2014-10-05T07:59:52.000Z</time>
      </trkpt>
      <trkpt lat="45.78392" lon="4.85244">
        <ele>176.39999389648</ele>
        <time>2014-10-05T07:59:58.000Z</time>
      </trkpt>
      <trkpt lat="45.78398" lon="4.85265">
        <ele>177</ele>
        <time>2014-10-05T08:00:03.000Z</time>
      </trkpt>
      <trkpt lat="45.78394" lon="4.8528">
        <ele>177.60000610352</ele>
        <time>2014-10-05T08:00:07.000Z</time>
      </trkpt>
      <trkpt lat="45.78396" lon="4.85297">
        <ele>178.19999694824</ele>
        <time>2014-10-05T08:00:11.000Z</time>
      </trkpt>
      <trkpt lat="45.78399" lon="4.8531">
        <ele>178.60000610352</ele>
        <time>2014-10-05T08:00:14.000Z</time>
      </trkpt>
      <trkpt lat="45.78402" lon="4.85318">
        <ele>178.80000305176</ele>
        <time>2014-10-05T08:00:16.000Z</time>
      </trkpt>
      <trkpt lat="45.78405" lon="4.85321">
        <ele>179</ele>
        <time>2014-10-05T08:00:17.000Z</time>
      </trkpt>
      <trkpt lat="45.78407" lon="4.8533">
        <ele>179.19999694824</ele>
        <time>2014-10-05T08:00:19.000Z</time>
      </trkpt>
      <trkpt lat="45.7841" lon="4.85346">
        <ele>179.60000610352</ele>
        <time>2014-10-05T08:00:23.000Z</time>
      </trkpt>
      <trkpt lat="45.78412" lon="4.85349">
        <ele>179.80000305176</ele>
        <time>2014-10-05T08:00:24.000Z</time>
      </trkpt>
      <trkpt lat="45.78421" lon="4.85373">
        <ele>180.39999389648</ele>
        <time>2014-10-05T08:00:30.000Z</time>
      </trkpt>
      <trkpt lat="45.78427" lon="4.85387">
        <ele>180</ele>
        <time>2014-10-05T08:00:34.000Z</time>
      </trkpt>
      <trkpt lat="45.78432" lon="4.85409">
        <ele>179.19999694824</ele>
        <time>2014-10-05T08:00:39.000Z</time>
      </trkpt>
      <trkpt lat="45.78437" lon="4.85434">
        <ele>178</ele>
        <time>2014-10-05T08:00:45.000Z</time>
      </trkpt>
      <trkpt lat="45.7844" lon="4.85455">
        <ele>176.80000305176</ele>
        <time>2014-10-05T08:00:50.000Z</time>
      </trkpt>
      <trkpt lat="45.78445" lon="4.8548">
        <ele>175.80000305176</ele>
        <time>2014-10-05T08:00:56.000Z</time>
      </trkpt>
      <trkpt lat="45.78445" lon="4.85484">
        <ele>175.80000305176</ele>
        <time>2014-10-05T08:00:57.000Z</time>
      </trkpt>
      <trkpt lat="45.78448" lon="4.85505">
        <ele>174.80000305176</ele>
        <time>2014-10-05T08:01:02.000Z</time>
      </trkpt>
      <trkpt lat="45.78461" lon="4.85532">
        <ele>174</ele>
        <time>2014-10-05T08:01:08.000Z</time>
      </trkpt>
      <trkpt lat="45.78462" lon="4.85536">
        <ele>174</ele>
        <time>2014-10-05T08:01:09.000Z</time>
      </trkpt>
      <trkpt lat="45.78472" lon="4.85562">
        <ele>173.60000610352</ele>
        <time>2014-10-05T08:01:15.000Z</time>
      </trkpt>
      <trkpt lat="45.78478" lon="4.85591">
        <ele>173</ele>
        <time>2014-10-05T08:01:21.000Z</time>
      </trkpt>
      <trkpt lat="45.7848" lon="4.85609">
        <ele>172.60000610352</ele>
        <time>2014-10-05T08:01:25.000Z</time>
      </trkpt>
      <trkpt lat="45.78485" lon="4.85635">
        <ele>172.60000610352</ele>
        <time>2014-10-05T08:01:31.000Z</time>
      </trkpt>
      <trkpt lat="45.78486" lon="4.85652">
        <ele>172.39999389648</ele>
        <time>2014-10-05T08:01:35.000Z</time>
      </trkpt>
      <trkpt lat="45.78486" lon="4.85678">
        <ele>172.39999389648</ele>
        <time>2014-10-05T08:01:41.000Z</time>
      </trkpt>
      <trkpt lat="45.78485" lon="4.85698">
        <ele>172.60000610352</ele>
        <time>2014-10-05T08:01:46.000Z</time>
      </trkpt>
      <trkpt lat="45.78482" lon="4.85716">
        <ele>172.39999389648</ele>
        <time>2014-10-05T08:01:50.000Z</time>
      </trkpt>
      <trkpt lat="45.78481" lon="4.85726">
        <ele>172.39999389648</ele>
        <time>2014-10-05T08:01:52.000Z</time>
      </trkpt>
      <trkpt lat="45.78478" lon="4.85738">
        <ele>172.19999694824</ele>
        <time>2014-10-05T08:01:55.000Z</time>
      </trkpt>
      <trkpt lat="45.78476" lon="4.85755">
        <ele>172.19999694824</ele>
        <time>2014-10-05T08:01:59.000Z</time>
      </trkpt>
      <trkpt lat="45.78477" lon="4.85759">
        <ele>172.19999694824</ele>
        <time>2014-10-05T08:02:00.000Z</time>
      </trkpt>
      <trkpt lat="45.78476" lon="4.85775">
        <ele>172</ele>
        <time>2014-10-05T08:02:04.000Z</time>
      </trkpt>
      <trkpt lat="45.78471" lon="4.85794">
        <ele>172</ele>
        <time>2014-10-05T08:02:09.000Z</time>
      </trkpt>
      <trkpt lat="45.78469" lon="4.85813">
        <ele>171.80000305176</ele>
        <time>2014-10-05T08:02:13.000Z</time>
      </trkpt>
      <trkpt lat="45.78472" lon="4.85842">
        <ele>171.39999389648</ele>
        <time>2014-10-05T08:02:19.000Z</time>
      </trkpt>
      <trkpt lat="45.78473" lon="4.85867">
        <ele>171</ele>
        <time>2014-10-05T08:02:25.000Z</time>
      </trkpt>
      <trkpt lat="45.78475" lon="4.85893">
        <ele>171.19999694824</ele>
        <time>2014-10-05T08:02:31.000Z</time>
      </trkpt>
      <trkpt lat="45.78474" lon="4.85897">
        <ele>171.19999694824</ele>
        <time>2014-10-05T08:02:32.000Z</time>
      </trkpt>
      <trkpt lat="45.78469" lon="4.85904">
        <ele>171.39999389648</ele>
        <time>2014-10-05T08:02:34.000Z</time>
      </trkpt>
      <trkpt lat="45.78463" lon="4.85907">
        <ele>171.60000610352</ele>
        <time>2014-10-05T08:02:36.000Z</time>
      </trkpt>
      <trkpt lat="45.78449" lon="4.85905">
        <ele>171.60000610352</ele>
        <time>2014-10-05T08:02:40.000Z</time>
      </trkpt>
      <trkpt lat="45.7843" lon="4.859">
        <ele>171.80000305176</ele>
        <time>2014-10-05T08:02:46.000Z</time>
      </trkpt>
      <trkpt lat="45.7841" lon="4.85894">
        <ele>172</ele>
        <time>2014-10-05T08:02:52.000Z</time>
      </trkpt>
      <trkpt lat="45.78404" lon="4.85892">
        <ele>172</ele>
        <time>2014-10-05T08:02:54.000Z</time>
      </trkpt>
      <trkpt lat="45.78386" lon="4.85883">
        <ele>172</ele>
        <time>2014-10-05T08:03:00.000Z</time>
      </trkpt>
      <trkpt lat="45.78367" lon="4.85875">
        <ele>172.19999694824</ele>
        <time>2014-10-05T08:03:06.000Z</time>
      </trkpt>
      <trkpt lat="45.78364" lon="4.85873">
        <ele>172.19999694824</ele>
        <time>2014-10-05T08:03:07.000Z</time>
      </trkpt>
      <trkpt lat="45.78347" lon="4.85862">
        <ele>172.60000610352</ele>
        <time>2014-10-05T08:03:13.000Z</time>
      </trkpt>
      <trkpt lat="45.78344" lon="4.8586">
        <ele>172.60000610352</ele>
        <time>2014-10-05T08:03:14.000Z</time>
      </trkpt>
      <trkpt lat="45.78336" lon="4.85855">
        <ele>172.80000305176</ele>
        <time>2014-10-05T08:03:17.000Z</time>
      </trkpt>
      <trkpt lat="45.78334" lon="4.85852">
        <ele>172.80000305176</ele>
        <time>2014-10-05T08:03:18.000Z</time>
      </trkpt>
      <trkpt lat="45.78323" lon="4.85844">
        <ele>173.19999694824</ele>
        <time>2014-10-05T08:03:22.000Z</time>
      </trkpt>
      <trkpt lat="45.7832" lon="4.85842">
        <ele>173.19999694824</ele>
        <time>2014-10-05T08:03:23.000Z</time>
      </trkpt>
      <trkpt lat="45.78304" lon="4.85827">
        <ele>173.60000610352</ele>
        <time>2014-10-05T08:03:29.000Z</time>
      </trkpt>
      <trkpt lat="45.78287" lon="4.85814">
        <ele>173.39999389648</ele>
        <time>2014-10-05T08:03:35.000Z</time>
      </trkpt>
      <trkpt lat="45.78276" lon="4.85818">
        <ele>173.19999694824</ele>
        <time>2014-10-05T08:03:39.000Z</time>
      </trkpt>
      <trkpt lat="45.78261" lon="4.85828">
        <ele>173</ele>
        <time>2014-10-05T08:03:44.000Z</time>
      </trkpt>
      <trkpt lat="45.78246" lon="4.85837">
        <ele>172.80000305176</ele>
        <time>2014-10-05T08:03:49.000Z</time>
      </trkpt>
      <trkpt lat="45.78237" lon="4.85841">
        <ele>172.60000610352</ele>
        <time>2014-10-05T08:03:52.000Z</time>
      </trkpt>
      <trkpt lat="45.7823" lon="4.85844">
        <ele>172.39999389648</ele>
        <time>2014-10-05T08:03:54.000Z</time>
      </trkpt>
      <trkpt lat="45.78224" lon="4.85846">
        <ele>172.39999389648</ele>
        <time>2014-10-05T08:03:56.000Z</time>
      </trkpt>
      <trkpt lat="45.78222" lon="4.85845">
        <ele>172.39999389648</ele>
        <time>2014-10-05T08:03:57.000Z</time>
      </trkpt>
      <trkpt lat="45.78216" lon="4.85847">
        <ele>172</ele>
        <time>2014-10-05T08:03:59.000Z</time>
      </trkpt>
      <trkpt lat="45.7821" lon="4.85852">
        <ele>171.60000610352</ele>
        <time>2014-10-05T08:04:01.000Z</time>
      </trkpt>
      <trkpt lat="45.78197" lon="4.85855">
        <ele>171</ele>
        <time>2014-10-05T08:04:05.000Z</time>
      </trkpt>
      <trkpt lat="45.78178" lon="4.85857">
        <ele>170.19999694824</ele>
        <time>2014-10-05T08:04:11.000Z</time>
      </trkpt>
      <trkpt lat="45.78175" lon="4.85858">
        <ele>170.19999694824</ele>
        <time>2014-10-05T08:04:12.000Z</time>
      </trkpt>
      <trkpt lat="45.78157" lon="4.8586">
        <ele>169.60000610352</ele>
        <time>2014-10-05T08:04:18.000Z</time>
      </trkpt>
      <trkpt lat="45.78147" lon="4.8586">
        <ele>169.19999694824</ele>
        <time>2014-10-05T08:04:22.000Z</time>
      </trkpt>
      <trkpt lat="45.7813" lon="4.85863">
        <ele>169</ele>
        <time>2014-10-05T08:04:28.000Z</time>
      </trkpt>
      <trkpt lat="45.78116" lon="4.85863">
        <ele>169.80000305176</ele>
        <time>2014-10-05T08:04:33.000Z</time>
      </trkpt>
      <trkpt lat="45.78102" lon="4.85863">
        <ele>170.80000305176</ele>
        <time>2014-10-05T08:04:38.000Z</time>
      </trkpt>
      <trkpt lat="45.78088" lon="4.85864">
        <ele>171.60000610352</ele>
        <time>2014-10-05T08:04:43.000Z</time>
      </trkpt>
      <trkpt lat="45.7807" lon="4.85865">
        <ele>172.80000305176</ele>
        <time>2014-10-05T08:04:49.000Z</time>
      </trkpt>
      <trkpt lat="45.78055" lon="4.85865">
        <ele>173.60000610352</ele>
        <time>2014-10-05T08:04:54.000Z</time>
      </trkpt>
      <trkpt lat="45.78041" lon="4.85865">
        <ele>174</ele>
        <time>2014-10-05T08:04:59.000Z</time>
      </trkpt>
      <trkpt lat="45.78026" lon="4.85866">
        <ele>174</ele>
        <time>2014-10-05T08:05:04.000Z</time>
      </trkpt>
      <trkpt lat="45.78008" lon="4.85867">
        <ele>174</ele>
        <time>2014-10-05T08:05:10.000Z</time>
      </trkpt>
      <trkpt lat="45.7799" lon="4.85868">
        <ele>174</ele>
        <time>2014-10-05T08:05:16.000Z</time>
      </trkpt>
      <trkpt lat="45.77972" lon="4.85868">
        <ele>174</ele>
        <time>2014-10-05T08:05:22.000Z</time>
      </trkpt>
      <trkpt lat="45.77969" lon="4.85868">
        <ele>174.19999694824</ele>
        <time>2014-10-05T08:05:23.000Z</time>
      </trkpt>
      <trkpt lat="45.77951" lon="4.85866">
        <ele>174.39999389648</ele>
        <time>2014-10-05T08:05:28.000Z</time>
      </trkpt>
      <trkpt lat="45.77934" lon="4.85865">
        <ele>174.80000305176</ele>
        <time>2014-10-05T08:05:34.000Z</time>
      </trkpt>
      <trkpt lat="45.77917" lon="4.85864">
        <ele>175</ele>
        <time>2014-10-05T08:05:39.000Z</time>
      </trkpt>
      <trkpt lat="45.77901" lon="4.85861">
        <ele>175.19999694824</ele>
        <time>2014-10-05T08:05:44.000Z</time>
      </trkpt>
      <trkpt lat="45.7789" lon="4.85859">
        <ele>175.39999389648</ele>
        <time>2014-10-05T08:05:48.000Z</time>
      </trkpt>
      <trkpt lat="45.77887" lon="4.85858">
        <ele>175.39999389648</ele>
        <time>2014-10-05T08:05:49.000Z</time>
      </trkpt>
      <trkpt lat="45.77871" lon="4.85856">
        <ele>175</ele>
        <time>2014-10-05T08:05:54.000Z</time>
      </trkpt>
      <trkpt lat="45.77858" lon="4.85853">
        <ele>174.80000305176</ele>
        <time>2014-10-05T08:05:59.000Z</time>
      </trkpt>
      <trkpt lat="45.77851" lon="4.85853">
        <ele>174.80000305176</ele>
        <time>2014-10-05T08:06:02.000Z</time>
      </trkpt>
      <trkpt lat="45.77845" lon="4.85852">
        <ele>174.80000305176</ele>
        <time>2014-10-05T08:06:04.000Z</time>
      </trkpt>
      <trkpt lat="45.77832" lon="4.85849">
        <ele>174.60000610352</ele>
        <time>2014-10-05T08:06:08.000Z</time>
      </trkpt>
      <trkpt lat="45.77816" lon="4.85845">
        <ele>174.39999389648</ele>
        <time>2014-10-05T08:06:13.000Z</time>
      </trkpt>
      <trkpt lat="45.77798" lon="4.8584">
        <ele>174</ele>
        <time>2014-10-05T08:06:19.000Z</time>
      </trkpt>
      <trkpt lat="45.77795" lon="4.85839">
        <ele>173.80000305176</ele>
        <time>2014-10-05T08:06:20.000Z</time>
      </trkpt>
      <trkpt lat="45.77778" lon="4.85833">
        <ele>172.80000305176</ele>
        <time>2014-10-05T08:06:26.000Z</time>
      </trkpt>
      <trkpt lat="45.77759" lon="4.85827">
        <ele>171.80000305176</ele>
        <time>2014-10-05T08:06:32.000Z</time>
      </trkpt>
      <trkpt lat="45.77743" lon="4.85825">
        <ele>171.19999694824</ele>
        <time>2014-10-05T08:06:37.000Z</time>
      </trkpt>
      <trkpt lat="45.77728" lon="4.85822">
        <ele>170.60000610352</ele>
        <time>2014-10-05T08:06:42.000Z</time>
      </trkpt>
      <trkpt lat="45.77721" lon="4.85821">
        <ele>170.39999389648</ele>
        <time>2014-10-05T08:06:44.000Z</time>
      </trkpt>
      <trkpt lat="45.77708" lon="4.8582">
        <ele>170.39999389648</ele>
        <time>2014-10-05T08:06:48.000Z</time>
      </trkpt>
      <trkpt lat="45.77688" lon="4.85818">
        <ele>170.39999389648</ele>
        <time>2014-10-05T08:06:54.000Z</time>
      </trkpt>
      <trkpt lat="45.77684" lon="4.85819">
        <ele>170.39999389648</ele>
        <time>2014-10-05T08:06:55.000Z</time>
      </trkpt>
      <trkpt lat="45.77666" lon="4.85818">
        <ele>170.39999389648</ele>
        <time>2014-10-05T08:07:01.000Z</time>
      </trkpt>
      <trkpt lat="45.77651" lon="4.85818">
        <ele>171</ele>
        <time>2014-10-05T08:07:06.000Z</time>
      </trkpt>
      <trkpt lat="45.77636" lon="4.8582">
        <ele>171.39999389648</ele>
        <time>2014-10-05T08:07:11.000Z</time>
      </trkpt>
      <trkpt lat="45.77622" lon="4.85823">
        <ele>171.39999389648</ele>
        <time>2014-10-05T08:07:16.000Z</time>
      </trkpt>
      <trkpt lat="45.77607" lon="4.85826">
        <ele>171.39999389648</ele>
        <time>2014-10-05T08:07:21.000Z</time>
      </trkpt>
      <trkpt lat="45.77593" lon="4.85828">
        <ele>171.39999389648</ele>
        <time>2014-10-05T08:07:26.000Z</time>
      </trkpt>
      <trkpt lat="45.77578" lon="4.85827">
        <ele>171.19999694824</ele>
        <time>2014-10-05T08:07:31.000Z</time>
      </trkpt>
      <trkpt lat="45.77566" lon="4.85826">
        <ele>171.19999694824</ele>
        <time>2014-10-05T08:07:35.000Z</time>
      </trkpt>
      <trkpt lat="45.77551" lon="4.85825">
        <ele>171.19999694824</ele>
        <time>2014-10-05T08:07:40.000Z</time>
      </trkpt>
      <trkpt lat="45.77536" lon="4.85824">
        <ele>171.60000610352</ele>
        <time>2014-10-05T08:07:45.000Z</time>
      </trkpt>
      <trkpt lat="45.77524" lon="4.85822">
        <ele>171.60000610352</ele>
        <time>2014-10-05T08:07:49.000Z</time>
      </trkpt>
      <trkpt lat="45.77505" lon="4.85816">
        <ele>171.80000305176</ele>
        <time>2014-10-05T08:07:56.000Z</time>
      </trkpt>
      <trkpt lat="45.77495" lon="4.85813">
        <ele>171.80000305176</ele>
        <time>2014-10-05T08:08:00.000Z</time>
      </trkpt>
      <trkpt lat="45.77485" lon="4.85811">
        <ele>171.60000610352</ele>
        <time>2014-10-05T08:08:03.000Z</time>
      </trkpt>
      <trkpt lat="45.7748" lon="4.85808">
        <ele>171.39999389648</ele>
        <time>2014-10-05T08:08:05.000Z</time>
      </trkpt>
      <trkpt lat="45.77475" lon="4.85805">
        <ele>171.19999694824</ele>
        <time>2014-10-05T08:08:07.000Z</time>
      </trkpt>
      <trkpt lat="45.77469" lon="4.85803">
        <ele>171.19999694824</ele>
        <time>2014-10-05T08:08:09.000Z</time>
      </trkpt>
      <trkpt lat="45.77461" lon="4.85799">
        <ele>171</ele>
        <time>2014-10-05T08:08:12.000Z</time>
      </trkpt>
      <trkpt lat="45.77448" lon="4.85792">
        <ele>170.80000305176</ele>
        <time>2014-10-05T08:08:17.000Z</time>
      </trkpt>
      <trkpt lat="45.77432" lon="4.85781">
        <ele>170.60000610352</ele>
        <time>2014-10-05T08:08:23.000Z</time>
      </trkpt>
      <trkpt lat="45.7742" lon="4.85769">
        <ele>170.39999389648</ele>
        <time>2014-10-05T08:08:28.000Z</time>
      </trkpt>
      <trkpt lat="45.7741" lon="4.85746">
        <ele>170.19999694824</ele>
        <time>2014-10-05T08:08:34.000Z</time>
      </trkpt>
      <trkpt lat="45.77405" lon="4.85725">
        <ele>170.19999694824</ele>
        <time>2014-10-05T08:08:39.000Z</time>
      </trkpt>
      <trkpt lat="45.774" lon="4.85704">
        <ele>170</ele>
        <time>2014-10-05T08:08:44.000Z</time>
      </trkpt>
      <trkpt lat="45.77397" lon="4.85684">
        <ele>170</ele>
        <time>2014-10-05T08:08:49.000Z</time>
      </trkpt>
      <trkpt lat="45.77396" lon="4.85658">
        <ele>170</ele>
        <time>2014-10-05T08:08:55.000Z</time>
      </trkpt>
      <trkpt lat="45.77394" lon="4.85637">
        <ele>170</ele>
        <time>2014-10-05T08:09:00.000Z</time>
      </trkpt>
      <trkpt lat="45.77392" lon="4.85615">
        <ele>170.39999389648</ele>
        <time>2014-10-05T08:09:05.000Z</time>
      </trkpt>
      <trkpt lat="45.77392" lon="4.85595">
        <ele>171.80000305176</ele>
        <time>2014-10-05T08:09:10.000Z</time>
      </trkpt>
      <trkpt lat="45.77392" lon="4.8557">
        <ele>173.19999694824</ele>
        <time>2014-10-05T08:09:16.000Z</time>
      </trkpt>
      <trkpt lat="45.77393" lon="4.85541">
        <ele>174.60000610352</ele>
        <time>2014-10-05T08:09:23.000Z</time>
      </trkpt>
      <trkpt lat="45.77391" lon="4.85521">
        <ele>174.39999389648</ele>
        <time>2014-10-05T08:09:28.000Z</time>
      </trkpt>
      <trkpt lat="45.7739" lon="4.855">
        <ele>174</ele>
        <time>2014-10-05T08:09:33.000Z</time>
      </trkpt>
      <trkpt lat="45.77388" lon="4.85478">
        <ele>173.39999389648</ele>
        <time>2014-10-05T08:09:38.000Z</time>
      </trkpt>
      <trkpt lat="45.77388" lon="4.85475">
        <ele>173.39999389648</ele>
        <time>2014-10-05T08:09:39.000Z</time>
      </trkpt>
      <trkpt lat="45.77391" lon="4.85461">
        <ele>172.80000305176</ele>
        <time>2014-10-05T08:09:43.000Z</time>
      </trkpt>
      <trkpt lat="45.77392" lon="4.85438">
        <ele>171.19999694824</ele>
        <time>2014-10-05T08:09:48.000Z</time>
      </trkpt>
      <trkpt lat="45.77394" lon="4.8542">
        <ele>169.80000305176</ele>
        <time>2014-10-05T08:09:52.000Z</time>
      </trkpt>
      <trkpt lat="45.774" lon="4.85396">
        <ele>167.39999389648</ele>
        <time>2014-10-05T08:09:58.000Z</time>
      </trkpt>
      <trkpt lat="45.77404" lon="4.85374">
        <ele>166.80000305176</ele>
        <time>2014-10-05T08:10:03.000Z</time>
      </trkpt>
      <trkpt lat="45.77408" lon="4.85356">
        <ele>167.19999694824</ele>
        <time>2014-10-05T08:10:07.000Z</time>
      </trkpt>
      <trkpt lat="45.77415" lon="4.85335">
        <ele>167.60000610352</ele>
        <time>2014-10-05T08:10:12.000Z</time>
      </trkpt>
      <trkpt lat="45.77423" lon="4.85315">
        <ele>168</ele>
        <time>2014-10-05T08:10:17.000Z</time>
      </trkpt>
      <trkpt lat="45.7743" lon="4.85296">
        <ele>168.80000305176</ele>
        <time>2014-10-05T08:10:22.000Z</time>
      </trkpt>
      <trkpt lat="45.77439" lon="4.8527">
        <ele>170.19999694824</ele>
        <time>2014-10-05T08:10:29.000Z</time>
      </trkpt>
      <trkpt lat="45.77446" lon="4.8525">
        <ele>171.19999694824</ele>
        <time>2014-10-05T08:10:34.000Z</time>
      </trkpt>
      <trkpt lat="45.77451" lon="4.85234">
        <ele>172</ele>
        <time>2014-10-05T08:10:38.000Z</time>
      </trkpt>
      <trkpt lat="45.77457" lon="4.85219">
        <ele>172.60000610352</ele>
        <time>2014-10-05T08:10:42.000Z</time>
      </trkpt>
      <trkpt lat="45.7747" lon="4.85199">
        <ele>173.19999694824</ele>
        <time>2014-10-05T08:10:48.000Z</time>
      </trkpt>
      <trkpt lat="45.77482" lon="4.85179">
        <ele>173.80000305176</ele>
        <time>2014-10-05T08:10:54.000Z</time>
      </trkpt>
      <trkpt lat="45.77489" lon="4.85161">
        <ele>174.39999389648</ele>
        <time>2014-10-05T08:10:59.000Z</time>
      </trkpt>
      <trkpt lat="45.775" lon="4.8514">
        <ele>174.39999389648</ele>
        <time>2014-10-05T08:11:05.000Z</time>
      </trkpt>
      <trkpt lat="45.77501" lon="4.85136">
        <ele>174.39999389648</ele>
        <time>2014-10-05T08:11:06.000Z</time>
      </trkpt>
      <trkpt lat="45.77506" lon="4.85118">
        <ele>174</ele>
        <time>2014-10-05T08:11:11.000Z</time>
      </trkpt>
      <trkpt lat="45.77515" lon="4.85101">
        <ele>173.39999389648</ele>
        <time>2014-10-05T08:11:16.000Z</time>
      </trkpt>
      <trkpt lat="45.77525" lon="4.85079">
        <ele>173.39999389648</ele>
        <time>2014-10-05T08:11:22.000Z</time>
      </trkpt>
      <trkpt lat="45.77533" lon="4.85066">
        <ele>174</ele>
        <time>2014-10-05T08:11:26.000Z</time>
      </trkpt>
      <trkpt lat="45.77539" lon="4.85055">
        <ele>174.39999389648</ele>
        <time>2014-10-05T08:11:30.000Z</time>
      </trkpt>
      <trkpt lat="45.77546" lon="4.85038">
        <ele>175</ele>
        <time>2014-10-05T08:11:35.000Z</time>
      </trkpt>
      <trkpt lat="45.77551" lon="4.85023">
        <ele>175.19999694824</ele>
        <time>2014-10-05T08:11:39.000Z</time>
      </trkpt>
      <trkpt lat="45.77552" lon="4.85021">
        <ele>175.19999694824</ele>
        <time>2014-10-05T08:11:40.000Z</time>
      </trkpt>
      <trkpt lat="45.77557" lon="4.85005">
        <ele>175.19999694824</ele>
        <time>2014-10-05T08:11:44.000Z</time>
      </trkpt>
      <trkpt lat="45.7756" lon="4.84987">
        <ele>175.19999694824</ele>
        <time>2014-10-05T08:11:48.000Z</time>
      </trkpt>
      <trkpt lat="45.77561" lon="4.84969">
        <ele>175.39999389648</ele>
        <time>2014-10-05T08:11:52.000Z</time>
      </trkpt>
      <trkpt lat="45.77561" lon="4.84965">
        <ele>175.39999389648</ele>
        <time>2014-10-05T08:11:53.000Z</time>
      </trkpt>
      <trkpt lat="45.77568" lon="4.84944">
        <ele>174.39999389648</ele>
        <time>2014-10-05T08:11:58.000Z</time>
      </trkpt>
      <trkpt lat="45.77571" lon="4.84928">
        <ele>173.39999389648</ele>
        <time>2014-10-05T08:12:02.000Z</time>
      </trkpt>
      <trkpt lat="45.77576" lon="4.84907">
        <ele>172.19999694824</ele>
        <time>2014-10-05T08:12:07.000Z</time>
      </trkpt>
      <trkpt lat="45.77578" lon="4.84891">
        <ele>171.60000610352</ele>
        <time>2014-10-05T08:12:11.000Z</time>
      </trkpt>
      <trkpt lat="45.7758" lon="4.8487">
        <ele>171.60000610352</ele>
        <time>2014-10-05T08:12:16.000Z</time>
      </trkpt>
      <trkpt lat="45.77582" lon="4.84854">
        <ele>172.19999694824</ele>
        <time>2014-10-05T08:12:20.000Z</time>
      </trkpt>
      <trkpt lat="45.77585" lon="4.84832">
        <ele>173</ele>
        <time>2014-10-05T08:12:25.000Z</time>
      </trkpt>
      <trkpt lat="45.77588" lon="4.84814">
        <ele>173.80000305176</ele>
        <time>2014-10-05T08:12:29.000Z</time>
      </trkpt>
      <trkpt lat="45.77589" lon="4.84796">
        <ele>174.19999694824</ele>
        <time>2014-10-05T08:12:33.000Z</time>
      </trkpt>
      <trkpt lat="45.77598" lon="4.8477">
        <ele>174.39999389648</ele>
        <time>2014-10-05T08:12:39.000Z</time>
      </trkpt>
      <trkpt lat="45.77607" lon="4.84748">
        <ele>174.39999389648</ele>
        <time>2014-10-05T08:12:45.000Z</time>
      </trkpt>
      <trkpt lat="45.77613" lon="4.84733">
        <ele>175</ele>
        <time>2014-10-05T08:12:49.000Z</time>
      </trkpt>
      <trkpt lat="45.77615" lon="4.84726">
        <ele>175.19999694824</ele>
        <time>2014-10-05T08:12:51.000Z</time>
      </trkpt>
      <trkpt lat="45.77617" lon="4.84723">
        <ele>175.19999694824</ele>
        <time>2014-10-05T08:12:52.000Z</time>
      </trkpt>
      <trkpt lat="45.77624" lon="4.84703">
        <ele>175.60000610352</ele>
        <time>2014-10-05T08:12:57.000Z</time>
      </trkpt>
      <trkpt lat="45.77633" lon="4.84685">
        <ele>176</ele>
        <time>2014-10-05T08:13:02.000Z</time>
      </trkpt>
      <trkpt lat="45.7764" lon="4.84671">
        <ele>176.60000610352</ele>
        <time>2014-10-05T08:13:06.000Z</time>
      </trkpt>
      <trkpt lat="45.77653" lon="4.84648">
        <ele>177.39999389648</ele>
        <time>2014-10-05T08:13:12.000Z</time>
      </trkpt>
      <trkpt lat="45.77663" lon="4.84631">
        <ele>178.19999694824</ele>
        <time>2014-10-05T08:13:17.000Z</time>
      </trkpt>
      <trkpt lat="45.77674" lon="4.84613">
        <ele>178.39999389648</ele>
        <time>2014-10-05T08:13:22.000Z</time>
      </trkpt>
      <trkpt lat="45.77684" lon="4.84597">
        <ele>177.80000305176</ele>
        <time>2014-10-05T08:13:26.000Z</time>
      </trkpt>
      <trkpt lat="45.77692" lon="4.84586">
        <ele>177.39999389648</ele>
        <time>2014-10-05T08:13:30.000Z</time>
      </trkpt>
      <trkpt lat="45.77702" lon="4.84573">
        <ele>176.60000610352</ele>
        <time>2014-10-05T08:13:35.000Z</time>
      </trkpt>
      <trkpt lat="45.77709" lon="4.8457">
        <ele>176.39999389648</ele>
        <time>2014-10-05T08:13:39.000Z</time>
      </trkpt>
      <trkpt lat="45.7771" lon="4.8457">
        <ele>176.39999389648</ele>
        <time>2014-10-05T08:13:40.000Z</time>
      </trkpt>
      <trkpt lat="45.77719" lon="4.84576">
        <ele>176.39999389648</ele>
        <time>2014-10-05T08:13:43.000Z</time>
      </trkpt>
      <trkpt lat="45.77724" lon="4.84595">
        <ele>177</ele>
        <time>2014-10-05T08:13:48.000Z</time>
      </trkpt>
      <trkpt lat="45.77726" lon="4.84621">
        <ele>178</ele>
        <time>2014-10-05T08:13:54.000Z</time>
      </trkpt>
      <trkpt lat="45.77726" lon="4.84644">
        <ele>176.80000305176</ele>
        <time>2014-10-05T08:13:59.000Z</time>
      </trkpt>
      <trkpt lat="45.77728" lon="4.8467">
        <ele>175.39999389648</ele>
        <time>2014-10-05T08:14:05.000Z</time>
      </trkpt>
      <trkpt lat="45.77728" lon="4.84685">
        <ele>174.39999389648</ele>
        <time>2014-10-05T08:14:09.000Z</time>
      </trkpt>
      <trkpt lat="45.77728" lon="4.84711">
        <ele>172.60000610352</ele>
        <time>2014-10-05T08:14:15.000Z</time>
      </trkpt>
      <trkpt lat="45.77731" lon="4.84735">
        <ele>172</ele>
        <time>2014-10-05T08:14:21.000Z</time>
      </trkpt>
      <trkpt lat="45.77733" lon="4.84756">
        <ele>171.60000610352</ele>
        <time>2014-10-05T08:14:26.000Z</time>
      </trkpt>
      <trkpt lat="45.77733" lon="4.84776">
        <ele>171.39999389648</ele>
        <time>2014-10-05T08:14:31.000Z</time>
      </trkpt>
      <trkpt lat="45.77732" lon="4.84785">
        <ele>171.39999389648</ele>
        <time>2014-10-05T08:14:33.000Z</time>
      </trkpt>
      <trkpt lat="45.77733" lon="4.84793">
        <ele>171.19999694824</ele>
        <time>2014-10-05T08:14:35.000Z</time>
      </trkpt>
      <trkpt lat="45.77736" lon="4.84812">
        <ele>171.19999694824</ele>
        <time>2014-10-05T08:14:40.000Z</time>
      </trkpt>
      <trkpt lat="45.77737" lon="4.84817">
        <ele>171.19999694824</ele>
        <time>2014-10-05T08:14:41.000Z</time>
      </trkpt>
      <trkpt lat="45.77738" lon="4.84832">
        <ele>171.39999389648</ele>
        <time>2014-10-05T08:14:45.000Z</time>
      </trkpt>
      <trkpt lat="45.77738" lon="4.84836">
        <ele>171.39999389648</ele>
        <time>2014-10-05T08:14:46.000Z</time>
      </trkpt>
      <trkpt lat="45.77739" lon="4.84852">
        <ele>171.39999389648</ele>
        <time>2014-10-05T08:14:50.000Z</time>
      </trkpt>
      <trkpt lat="45.77742" lon="4.84872">
        <ele>171.60000610352</ele>
        <time>2014-10-05T08:14:55.000Z</time>
      </trkpt>
      <trkpt lat="45.77745" lon="4.8489">
        <ele>171.19999694824</ele>
        <time>2014-10-05T08:14:59.000Z</time>
      </trkpt>
      <trkpt lat="45.77749" lon="4.84909">
        <ele>171.39999389648</ele>
        <time>2014-10-05T08:15:03.000Z</time>
      </trkpt>
      <trkpt lat="45.77752" lon="4.84926">
        <ele>172</ele>
        <time>2014-10-05T08:15:07.000Z</time>
      </trkpt>
      <trkpt lat="45.77755" lon="4.84953">
        <ele>172.80000305176</ele>
        <time>2014-10-05T08:15:13.000Z</time>
      </trkpt>
      <trkpt lat="45.77755" lon="4.84959">
        <ele>173</ele>
        <time>2014-10-05T08:15:14.000Z</time>
      </trkpt>
      <trkpt lat="45.77756" lon="4.84977">
        <ele>172.80000305176</ele>
        <time>2014-10-05T08:15:18.000Z</time>
      </trkpt>
      <trkpt lat="45.77756" lon="4.84994">
        <ele>172.60000610352</ele>
        <time>2014-10-05T08:15:22.000Z</time>
      </trkpt>
      <trkpt lat="45.77758" lon="4.85017">
        <ele>171.39999389648</ele>
        <time>2014-10-05T08:15:27.000Z</time>
      </trkpt>
      <trkpt lat="45.77759" lon="4.85039">
        <ele>170.19999694824</ele>
        <time>2014-10-05T08:15:32.000Z</time>
      </trkpt>
      <trkpt lat="45.77762" lon="4.85057">
        <ele>170</ele>
        <time>2014-10-05T08:15:37.000Z</time>
      </trkpt>
      <trkpt lat="45.77766" lon="4.85066">
        <ele>169.80000305176</ele>
        <time>2014-10-05T08:15:40.000Z</time>
      </trkpt>
      <trkpt lat="45.77766" lon="4.8507">
        <ele>169.80000305176</ele>
        <time>2014-10-05T08:15:41.000Z</time>
      </trkpt>
      <trkpt lat="45.77768" lon="4.85077">
        <ele>169.60000610352</ele>
        <time>2014-10-05T08:15:43.000Z</time>
      </trkpt>
      <trkpt lat="45.77769" lon="4.85085">
        <ele>169.60000610352</ele>
        <time>2014-10-05T08:15:45.000Z</time>
      </trkpt>
      <trkpt lat="45.7777" lon="4.85105">
        <ele>171</ele>
        <time>2014-10-05T08:15:50.000Z</time>
      </trkpt>
      <trkpt lat="45.77771" lon="4.85124">
        <ele>172.19999694824</ele>
        <time>2014-10-05T08:15:55.000Z</time>
      </trkpt>
      <trkpt lat="45.77772" lon="4.85137">
        <ele>172</ele>
        <time>2014-10-05T08:15:59.000Z</time>
      </trkpt>
      <trkpt lat="45.77772" lon="4.85153">
        <ele>172</ele>
        <time>2014-10-05T08:16:03.000Z</time>
      </trkpt>
      <trkpt lat="45.77772" lon="4.85172">
        <ele>172.19999694824</ele>
        <time>2014-10-05T08:16:07.000Z</time>
      </trkpt>
      <trkpt lat="45.77772" lon="4.85175">
        <ele>172</ele>
        <time>2014-10-05T08:16:08.000Z</time>
      </trkpt>
      <trkpt lat="45.77772" lon="4.85179">
        <ele>172.19999694824</ele>
        <time>2014-10-05T08:16:09.000Z</time>
      </trkpt>
      <trkpt lat="45.77774" lon="4.85193">
        <ele>171.80000305176</ele>
        <time>2014-10-05T08:16:12.000Z</time>
      </trkpt>
      <trkpt lat="45.7778" lon="4.85208">
        <ele>171.19999694824</ele>
        <time>2014-10-05T08:16:16.000Z</time>
      </trkpt>
      <trkpt lat="45.77789" lon="4.85223">
        <ele>171.19999694824</ele>
        <time>2014-10-05T08:16:20.000Z</time>
      </trkpt>
      <trkpt lat="45.77801" lon="4.85239">
        <ele>171.19999694824</ele>
        <time>2014-10-05T08:16:25.000Z</time>
      </trkpt>
      <trkpt lat="45.77812" lon="4.85252">
        <ele>171.19999694824</ele>
        <time>2014-10-05T08:16:30.000Z</time>
      </trkpt>
      <trkpt lat="45.77821" lon="4.85263">
        <ele>171.39999389648</ele>
        <time>2014-10-05T08:16:35.000Z</time>
      </trkpt>
      <trkpt lat="45.77827" lon="4.85267">
        <ele>171.19999694824</ele>
        <time>2014-10-05T08:16:37.000Z</time>
      </trkpt>
      <trkpt lat="45.77834" lon="4.85269">
        <ele>170.60000610352</ele>
        <time>2014-10-05T08:16:39.000Z</time>
      </trkpt>
      <trkpt lat="45.77843" lon="4.85276">
        <ele>170.39999389648</ele>
        <time>2014-10-05T08:16:42.000Z</time>
      </trkpt>
      <trkpt lat="45.77847" lon="4.85278">
        <ele>170.19999694824</ele>
        <time>2014-10-05T08:16:43.000Z</time>
      </trkpt>
      <trkpt lat="45.77852" lon="4.85281">
        <ele>170</ele>
        <time>2014-10-05T08:16:45.000Z</time>
      </trkpt>
      <trkpt lat="45.77859" lon="4.85285">
        <ele>169.80000305176</ele>
        <time>2014-10-05T08:16:47.000Z</time>
      </trkpt>
      <trkpt lat="45.77868" lon="4.85297">
        <ele>169.80000305176</ele>
        <time>2014-10-05T08:16:52.000Z</time>
      </trkpt>
      <trkpt lat="45.77878" lon="4.85309">
        <ele>169.80000305176</ele>
        <time>2014-10-05T08:16:57.000Z</time>
      </trkpt>
      <trkpt lat="45.77879" lon="4.85312">
        <ele>169.80000305176</ele>
        <time>2014-10-05T08:16:58.000Z</time>
      </trkpt>
      <trkpt lat="45.77883" lon="4.85318">
        <ele>170</ele>
        <time>2014-10-05T08:17:00.000Z</time>
      </trkpt>
      <trkpt lat="45.77893" lon="4.85333">
        <ele>170.19999694824</ele>
        <time>2014-10-05T08:17:04.000Z</time>
      </trkpt>
      <trkpt lat="45.77903" lon="4.85347">
        <ele>170.60000610352</ele>
        <time>2014-10-05T08:17:08.000Z</time>
      </trkpt>
      <trkpt lat="45.77905" lon="4.8535">
        <ele>170.60000610352</ele>
        <time>2014-10-05T08:17:09.000Z</time>
      </trkpt>
      <trkpt lat="45.77912" lon="4.85366">
        <ele>171.39999389648</ele>
        <time>2014-10-05T08:17:13.000Z</time>
      </trkpt>
      <trkpt lat="45.77919" lon="4.8538">
        <ele>171.39999389648</ele>
        <time>2014-10-05T08:17:17.000Z</time>
      </trkpt>
      <trkpt lat="45.77931" lon="4.85401">
        <ele>170.39999389648</ele>
        <time>2014-10-05T08:17:23.000Z</time>
      </trkpt>
      <trkpt lat="45.77933" lon="4.85406">
        <ele>170.19999694824</ele>
        <time>2014-10-05T08:17:24.000Z</time>
      </trkpt>
      <trkpt lat="45.77939" lon="4.85425">
        <ele>169.80000305176</ele>
        <time>2014-10-05T08:17:29.000Z</time>
      </trkpt>
      <trkpt lat="45.77947" lon="4.85449">
        <ele>169.39999389648</ele>
        <time>2014-10-05T08:17:35.000Z</time>
      </trkpt>
      <trkpt lat="45.77954" lon="4.85462">
        <ele>169.19999694824</ele>
        <time>2014-10-05T08:17:39.000Z</time>
      </trkpt>
      <trkpt lat="45.77956" lon="4.85479">
        <ele>169.80000305176</ele>
        <time>2014-10-05T08:17:44.000Z</time>
      </trkpt>
      <trkpt lat="45.7796" lon="4.85499">
        <ele>170.39999389648</ele>
        <time>2014-10-05T08:17:49.000Z</time>
      </trkpt>
      <trkpt lat="45.77968" lon="4.85519">
        <ele>170.39999389648</ele>
        <time>2014-10-05T08:17:54.000Z</time>
      </trkpt>
      <trkpt lat="45.77976" lon="4.8554">
        <ele>170.80000305176</ele>
        <time>2014-10-05T08:17:59.000Z</time>
      </trkpt>
      <trkpt lat="45.77985" lon="4.8556">
        <ele>171.19999694824</ele>
        <time>2014-10-05T08:18:04.000Z</time>
      </trkpt>
      <trkpt lat="45.77992" lon="4.85582">
        <ele>172.19999694824</ele>
        <time>2014-10-05T08:18:09.000Z</time>
      </trkpt>
      <trkpt lat="45.78001" lon="4.85599">
        <ele>172.39999389648</ele>
        <time>2014-10-05T08:18:14.000Z</time>
      </trkpt>
      <trkpt lat="45.78011" lon="4.85613">
        <ele>172.60000610352</ele>
        <time>2014-10-05T08:18:19.000Z</time>
      </trkpt>
      <trkpt lat="45.78015" lon="4.8562">
        <ele>172.80000305176</ele>
        <time>2014-10-05T08:18:21.000Z</time>
      </trkpt>
      <trkpt lat="45.78019" lon="4.85625">
        <ele>172.60000610352</ele>
        <time>2014-10-05T08:18:23.000Z</time>
      </trkpt>
      <trkpt lat="45.78029" lon="4.85627">
        <ele>171.80000305176</ele>
        <time>2014-10-05T08:18:26.000Z</time>
      </trkpt>
      <trkpt lat="45.78034" lon="4.85632">
        <ele>171.39999389648</ele>
        <time>2014-10-05T08:18:28.000Z</time>
      </trkpt>
      <trkpt lat="45.78048" lon="4.85641">
        <ele>170.60000610352</ele>
        <time>2014-10-05T08:18:33.000Z</time>
      </trkpt>
      <trkpt lat="45.78066" lon="4.85652">
        <ele>170.19999694824</ele>
        <time>2014-10-05T08:18:39.000Z</time>
      </trkpt>
      <trkpt lat="45.78082" lon="4.85662">
        <ele>170.60000610352</ele>
        <time>2014-10-05T08:18:44.000Z</time>
      </trkpt>
      <trkpt lat="45.78095" lon="4.85673">
        <ele>171</ele>
        <time>2014-10-05T08:18:49.000Z</time>
      </trkpt>
      <trkpt lat="45.7811" lon="4.85684">
        <ele>171.39999389648</ele>
        <time>2014-10-05T08:18:54.000Z</time>
      </trkpt>
      <trkpt lat="45.78123" lon="4.85697">
        <ele>171.60000610352</ele>
        <time>2014-10-05T08:18:59.000Z</time>
      </trkpt>
      <trkpt lat="45.7813" lon="4.85707">
        <ele>171.80000305176</ele>
        <time>2014-10-05T08:19:02.000Z</time>
      </trkpt>
      <trkpt lat="45.78132" lon="4.85709">
        <ele>171.60000610352</ele>
        <time>2014-10-05T08:19:03.000Z</time>
      </trkpt>
      <trkpt lat="45.78143" lon="4.85723">
        <ele>171.60000610352</ele>
        <time>2014-10-05T08:19:08.000Z</time>
      </trkpt>
      <trkpt lat="45.78154" lon="4.85735">
        <ele>171.60000610352</ele>
        <time>2014-10-05T08:19:13.000Z</time>
      </trkpt>
      <trkpt lat="45.78169" lon="4.85748">
        <ele>171.80000305176</ele>
        <time>2014-10-05T08:19:19.000Z</time>
      </trkpt>
      <trkpt lat="45.78181" lon="4.85756">
        <ele>172.19999694824</ele>
        <time>2014-10-05T08:19:24.000Z</time>
      </trkpt>
      <trkpt lat="45.78192" lon="4.85767">
        <ele>172.39999389648</ele>
        <time>2014-10-05T08:19:29.000Z</time>
      </trkpt>
      <trkpt lat="45.78205" lon="4.85775">
        <ele>172.60000610352</ele>
        <time>2014-10-05T08:19:34.000Z</time>
      </trkpt>
      <trkpt lat="45.78218" lon="4.85783">
        <ele>173</ele>
        <time>2014-10-05T08:19:39.000Z</time>
      </trkpt>
      <trkpt lat="45.78229" lon="4.85789">
        <ele>173</ele>
        <time>2014-10-05T08:19:43.000Z</time>
      </trkpt>
      <trkpt lat="45.78234" lon="4.85791">
        <ele>173.19999694824</ele>
        <time>2014-10-05T08:19:45.000Z</time>
      </trkpt>
      <trkpt lat="45.7824" lon="4.85792">
        <ele>173.19999694824</ele>
        <time>2014-10-05T08:19:47.000Z</time>
      </trkpt>
      <trkpt lat="45.78245" lon="4.85796">
        <ele>173.19999694824</ele>
        <time>2014-10-05T08:19:49.000Z</time>
      </trkpt>
      <trkpt lat="45.78252" lon="4.85801">
        <ele>173.19999694824</ele>
        <time>2014-10-05T08:19:52.000Z</time>
      </trkpt>
      <trkpt lat="45.78258" lon="4.85803">
        <ele>173.19999694824</ele>
        <time>2014-10-05T08:19:54.000Z</time>
      </trkpt>
      <trkpt lat="45.78263" lon="4.85804">
        <ele>173.39999389648</ele>
        <time>2014-10-05T08:19:56.000Z</time>
      </trkpt>
      <trkpt lat="45.78272" lon="4.85801">
        <ele>173.39999389648</ele>
        <time>2014-10-05T08:20:00.000Z</time>
      </trkpt>
      <trkpt lat="45.78279" lon="4.85794">
        <ele>173.60000610352</ele>
        <time>2014-10-05T08:20:02.000Z</time>
      </trkpt>
      <trkpt lat="45.78286" lon="4.85788">
        <ele>173.80000305176</ele>
        <time>2014-10-05T08:20:04.000Z</time>
      </trkpt>
      <trkpt lat="45.78299" lon="4.85773">
        <ele>174</ele>
        <time>2014-10-05T08:20:09.000Z</time>
      </trkpt>
      <trkpt lat="45.78306" lon="4.85765">
        <ele>174</ele>
        <time>2014-10-05T08:20:12.000Z</time>
      </trkpt>
      <trkpt lat="45.78321" lon="4.85749">
        <ele>174.39999389648</ele>
        <time>2014-10-05T08:20:17.000Z</time>
      </trkpt>
      <trkpt lat="45.78336" lon="4.85735">
        <ele>174.60000610352</ele>
        <time>2014-10-05T08:20:22.000Z</time>
      </trkpt>
      <trkpt lat="45.78345" lon="4.85724">
        <ele>174.19999694824</ele>
        <time>2014-10-05T08:20:26.000Z</time>
      </trkpt>
      <trkpt lat="45.78357" lon="4.85715">
        <ele>173.80000305176</ele>
        <time>2014-10-05T08:20:31.000Z</time>
      </trkpt>
      <trkpt lat="45.78368" lon="4.85705">
        <ele>173.19999694824</ele>
        <time>2014-10-05T08:20:37.000Z</time>
      </trkpt>
      <trkpt lat="45.78376" lon="4.85691">
        <ele>173.19999694824</ele>
        <time>2014-10-05T08:20:41.000Z</time>
      </trkpt>
      <trkpt lat="45.78387" lon="4.85676">
        <ele>172.60000610352</ele>
        <time>2014-10-05T08:20:46.000Z</time>
      </trkpt>
      <trkpt lat="45.78396" lon="4.85658">
        <ele>172.39999389648</ele>
        <time>2014-10-05T08:20:51.000Z</time>
      </trkpt>
      <trkpt lat="45.78399" lon="4.85643">
        <ele>172.19999694824</ele>
        <time>2014-10-05T08:20:55.000Z</time>
      </trkpt>
      <trkpt lat="45.78403" lon="4.85631">
        <ele>172.19999694824</ele>
        <time>2014-10-05T08:20:59.000Z</time>
      </trkpt>
      <trkpt lat="45.78405" lon="4.85623">
        <ele>172.19999694824</ele>
        <time>2014-10-05T08:21:01.000Z</time>
      </trkpt>
      <trkpt lat="45.78407" lon="4.85615">
        <ele>172.39999389648</ele>
        <time>2014-10-05T08:21:03.000Z</time>
      </trkpt>
      <trkpt lat="45.78409" lon="4.85589">
        <ele>172.60000610352</ele>
        <time>2014-10-05T08:21:09.000Z</time>
      </trkpt>
      <trkpt lat="45.78411" lon="4.85581">
        <ele>172.80000305176</ele>
        <time>2014-10-05T08:21:11.000Z</time>
      </trkpt>
      <trkpt lat="45.7841" lon="4.85555">
        <ele>173</ele>
        <time>2014-10-05T08:21:17.000Z</time>
      </trkpt>
      <trkpt lat="45.784" lon="4.85532">
        <ele>173.39999389648</ele>
        <time>2014-10-05T08:21:23.000Z</time>
      </trkpt>
      <trkpt lat="45.78389" lon="4.85511">
        <ele>173.60000610352</ele>
        <time>2014-10-05T08:21:29.000Z</time>
      </trkpt>
      <trkpt lat="45.78378" lon="4.85495">
        <ele>173.39999389648</ele>
        <time>2014-10-05T08:21:34.000Z</time>
      </trkpt>
      <trkpt lat="45.78368" lon="4.85481">
        <ele>173.19999694824</ele>
        <time>2014-10-05T08:21:38.000Z</time>
      </trkpt>
      <trkpt lat="45.78359" lon="4.8547">
        <ele>173</ele>
        <time>2014-10-05T08:21:42.000Z</time>
      </trkpt>
      <trkpt lat="45.78344" lon="4.85453">
        <ele>172.39999389648</ele>
        <time>2014-10-05T08:21:48.000Z</time>
      </trkpt>
      <trkpt lat="45.78329" lon="4.85437">
        <ele>171.19999694824</ele>
        <time>2014-10-05T08:21:54.000Z</time>
      </trkpt>
      <trkpt lat="45.78328" lon="4.85434">
        <ele>171.19999694824</ele>
        <time>2014-10-05T08:21:55.000Z</time>
      </trkpt>
      <trkpt lat="45.78315" lon="4.85414">
        <ele>170.19999694824</ele>
        <time>2014-10-05T08:22:01.000Z</time>
      </trkpt>
      <trkpt lat="45.78304" lon="4.85393">
        <ele>169.19999694824</ele>
        <time>2014-10-05T08:22:07.000Z</time>
      </trkpt>
      <trkpt lat="45.78302" lon="4.8539">
        <ele>169.19999694824</ele>
        <time>2014-10-05T08:22:08.000Z</time>
      </trkpt>
      <trkpt lat="45.78291" lon="4.85368">
        <ele>168.60000610352</ele>
        <time>2014-10-05T08:22:14.000Z</time>
      </trkpt>
      <trkpt lat="45.78281" lon="4.85347">
        <ele>168.39999389648</ele>
        <time>2014-10-05T08:22:20.000Z</time>
      </trkpt>
      <trkpt lat="45.78271" lon="4.85324">
        <ele>168.39999389648</ele>
        <time>2014-10-05T08:22:26.000Z</time>
      </trkpt>
      <trkpt lat="45.78262" lon="4.85302">
        <ele>168.19999694824</ele>
        <time>2014-10-05T08:22:32.000Z</time>
      </trkpt>
      <trkpt lat="45.78254" lon="4.85279">
        <ele>168.60000610352</ele>
        <time>2014-10-05T08:22:37.000Z</time>
      </trkpt>
      <trkpt lat="45.78244" lon="4.85256">
        <ele>169.39999389648</ele>
        <time>2014-10-05T08:22:43.000Z</time>
      </trkpt>
      <trkpt lat="45.78242" lon="4.85253">
        <ele>169.60000610352</ele>
        <time>2014-10-05T08:22:44.000Z</time>
      </trkpt>
      <trkpt lat="45.78233" lon="4.85234">
        <ele>170</ele>
        <time>2014-10-05T08:22:49.000Z</time>
      </trkpt>
      <trkpt lat="45.7823" lon="4.85227">
        <ele>170.19999694824</ele>
        <time>2014-10-05T08:22:51.000Z</time>
      </trkpt>
      <trkpt lat="45.78219" lon="4.85205">
        <ele>171</ele>
        <time>2014-10-05T08:22:57.000Z</time>
      </trkpt>
      <trkpt lat="45.7821" lon="4.85184">
        <ele>170.80000305176</ele>
        <time>2014-10-05T08:23:03.000Z</time>
      </trkpt>
      <trkpt lat="45.78199" lon="4.85163">
        <ele>170.80000305176</ele>
        <time>2014-10-05T08:23:09.000Z</time>
      </trkpt>
      <trkpt lat="45.78189" lon="4.85142">
        <ele>170.60000610352</ele>
        <time>2014-10-05T08:23:15.000Z</time>
      </trkpt>
      <trkpt lat="45.78178" lon="4.85123">
        <ele>170.39999389648</ele>
        <time>2014-10-05T08:23:21.000Z</time>
      </trkpt>
      <trkpt lat="45.78165" lon="4.85105">
        <ele>170</ele>
        <time>2014-10-05T08:23:27.000Z</time>
      </trkpt>
      <trkpt lat="45.78155" lon="4.85091">
        <ele>169.60000610352</ele>
        <time>2014-10-05T08:23:32.000Z</time>
      </trkpt>
      <trkpt lat="45.78142" lon="4.85075">
        <ele>169.19999694824</ele>
        <time>2014-10-05T08:23:38.000Z</time>
      </trkpt>
      <trkpt lat="45.78132" lon="4.85066">
        <ele>169.39999389648</ele>
        <time>2014-10-05T08:23:42.000Z</time>
      </trkpt>
      <trkpt lat="45.7812" lon="4.85053">
        <ele>170.19999694824</ele>
        <time>2014-10-05T08:23:47.000Z</time>
      </trkpt>
      <trkpt lat="45.78105" lon="4.8504">
        <ele>171.39999389648</ele>
        <time>2014-10-05T08:23:53.000Z</time>
      </trkpt>
      <trkpt lat="45.78093" lon="4.85025">
        <ele>172.60000610352</ele>
        <time>2014-10-05T08:23:58.000Z</time>
      </trkpt>
      <trkpt lat="45.7808" lon="4.85004">
        <ele>174</ele>
        <time>2014-10-05T08:24:05.000Z</time>
      </trkpt>
      <trkpt lat="45.78078" lon="4.85">
        <ele>174.19999694824</ele>
        <time>2014-10-05T08:24:06.000Z</time>
      </trkpt>
      <trkpt lat="45.78069" lon="4.84983">
        <ele>175.39999389648</ele>
        <time>2014-10-05T08:24:11.000Z</time>
      </trkpt>
      <trkpt lat="45.7806" lon="4.84961">
        <ele>176.60000610352</ele>
        <time>2014-10-05T08:24:17.000Z</time>
      </trkpt>
      <trkpt lat="45.78051" lon="4.84938">
        <ele>176.19999694824</ele>
        <time>2014-10-05T08:24:23.000Z</time>
      </trkpt>
      <trkpt lat="45.78043" lon="4.84917">
        <ele>175</ele>
        <time>2014-10-05T08:24:29.000Z</time>
      </trkpt>
      <trkpt lat="45.78034" lon="4.849">
        <ele>174</ele>
        <time>2014-10-05T08:24:34.000Z</time>
      </trkpt>
      <trkpt lat="45.78023" lon="4.84885">
        <ele>173.19999694824</ele>
        <time>2014-10-05T08:24:39.000Z</time>
      </trkpt>
      <trkpt lat="45.78014" lon="4.8487">
        <ele>172.60000610352</ele>
        <time>2014-10-05T08:24:44.000Z</time>
      </trkpt>
      <trkpt lat="45.78004" lon="4.84856">
        <ele>172.80000305176</ele>
        <time>2014-10-05T08:24:49.000Z</time>
      </trkpt>
      <trkpt lat="45.77992" lon="4.84837">
        <ele>173</ele>
        <time>2014-10-05T08:24:55.000Z</time>
      </trkpt>
      <trkpt lat="45.77982" lon="4.84824">
        <ele>173.19999694824</ele>
        <time>2014-10-05T08:25:00.000Z</time>
      </trkpt>
      <trkpt lat="45.77978" lon="4.84817">
        <ele>173.39999389648</ele>
        <time>2014-10-05T08:25:02.000Z</time>
      </trkpt>
      <trkpt lat="45.77973" lon="4.84811">
        <ele>173.39999389648</ele>
        <time>2014-10-05T08:25:04.000Z</time>
      </trkpt>
      <trkpt lat="45.77967" lon="4.84802">
        <ele>173.60000610352</ele>
        <time>2014-10-05T08:25:07.000Z</time>
      </trkpt>
      <trkpt lat="45.77961" lon="4.84793">
        <ele>173.80000305176</ele>
        <time>2014-10-05T08:25:10.000Z</time>
      </trkpt>
      <trkpt lat="45.77949" lon="4.84778">
        <ele>173.80000305176</ele>
        <time>2014-10-05T08:25:15.000Z</time>
      </trkpt>
      <trkpt lat="45.77934" lon="4.84758">
        <ele>173.60000610352</ele>
        <time>2014-10-05T08:25:22.000Z</time>
      </trkpt>
      <trkpt lat="45.77922" lon="4.84744">
        <ele>173.39999389648</ele>
        <time>2014-10-05T08:25:27.000Z</time>
      </trkpt>
      <trkpt lat="45.77906" lon="4.8473">
        <ele>173.19999694824</ele>
        <time>2014-10-05T08:25:33.000Z</time>
      </trkpt>
      <trkpt lat="45.77903" lon="4.84725">
        <ele>173.19999694824</ele>
        <time>2014-10-05T08:25:35.000Z</time>
      </trkpt>
      <trkpt lat="45.77897" lon="4.84719">
        <ele>173.19999694824</ele>
        <time>2014-10-05T08:25:37.000Z</time>
      </trkpt>
      <trkpt lat="45.77889" lon="4.84709">
        <ele>173</ele>
        <time>2014-10-05T08:25:41.000Z</time>
      </trkpt>
      <trkpt lat="45.77877" lon="4.84694">
        <ele>173.60000610352</ele>
        <time>2014-10-05T08:25:46.000Z</time>
      </trkpt>
      <trkpt lat="45.77864" lon="4.84677">
        <ele>174.60000610352</ele>
        <time>2014-10-05T08:25:52.000Z</time>
      </trkpt>
      <trkpt lat="45.77849" lon="4.84662">
        <ele>175.60000610352</ele>
        <time>2014-10-05T08:25:58.000Z</time>
      </trkpt>
      <trkpt lat="45.77838" lon="4.8465">
        <ele>176.19999694824</ele>
        <time>2014-10-05T08:26:03.000Z</time>
      </trkpt>
      <trkpt lat="45.77824" lon="4.84638">
        <ele>177</ele>
        <time>2014-10-05T08:26:08.000Z</time>
      </trkpt>
      <trkpt lat="45.7781" lon="4.8462">
        <ele>177.80000305176</ele>
        <time>2014-10-05T08:26:14.000Z</time>
      </trkpt>
      <trkpt lat="45.77794" lon="4.84603">
        <ele>177.39999389648</ele>
        <time>2014-10-05T08:26:20.000Z</time>
      </trkpt>
      <trkpt lat="45.77779" lon="4.84587">
        <ele>176.80000305176</ele>
        <time>2014-10-05T08:26:25.000Z</time>
      </trkpt>
      <trkpt lat="45.77776" lon="4.84584">
        <ele>176.80000305176</ele>
        <time>2014-10-05T08:26:26.000Z</time>
      </trkpt>
      <trkpt lat="45.77763" lon="4.8457">
        <ele>176.19999694824</ele>
        <time>2014-10-05T08:26:31.000Z</time>
      </trkpt>
      <trkpt lat="45.77748" lon="4.84558">
        <ele>175.80000305176</ele>
        <time>2014-10-05T08:26:36.000Z</time>
      </trkpt>
      <trkpt lat="45.77745" lon="4.84556">
        <ele>175.60000610352</ele>
        <time>2014-10-05T08:26:37.000Z</time>
      </trkpt>
      <trkpt lat="45.77734" lon="4.84548">
        <ele>175.39999389648</ele>
        <time>2014-10-05T08:26:41.000Z</time>
      </trkpt>
      <trkpt lat="45.77717" lon="4.84544">
        <ele>175.19999694824</ele>
        <time>2014-10-05T08:26:47.000Z</time>
      </trkpt>
      <trkpt lat="45.77714" lon="4.84545">
        <ele>175.39999389648</ele>
        <time>2014-10-05T08:26:48.000Z</time>
      </trkpt>
      <trkpt lat="45.77707" lon="4.84551">
        <ele>175.80000305176</ele>
        <time>2014-10-05T08:26:51.000Z</time>
      </trkpt>
      <trkpt lat="45.77695" lon="4.84569">
        <ele>176.80000305176</ele>
        <time>2014-10-05T08:26:56.000Z</time>
      </trkpt>
      <trkpt lat="45.77687" lon="4.84585">
        <ele>177.39999389648</ele>
        <time>2014-10-05T08:27:00.000Z</time>
      </trkpt>
      <trkpt lat="45.77677" lon="4.84605">
        <ele>178.19999694824</ele>
        <time>2014-10-05T08:27:05.000Z</time>
      </trkpt>
      <trkpt lat="45.77665" lon="4.84625">
        <ele>178.39999389648</ele>
        <time>2014-10-05T08:27:11.000Z</time>
      </trkpt>
      <trkpt lat="45.77654" lon="4.84646">
        <ele>177.39999389648</ele>
        <time>2014-10-05T08:27:17.000Z</time>
      </trkpt>
      <trkpt lat="45.77641" lon="4.84669">
        <ele>176.80000305176</ele>
        <time>2014-10-05T08:27:24.000Z</time>
      </trkpt>
      <trkpt lat="45.7763" lon="4.84692">
        <ele>175.60000610352</ele>
        <time>2014-10-05T08:27:30.000Z</time>
      </trkpt>
      <trkpt lat="45.7762" lon="4.84712">
        <ele>175.60000610352</ele>
        <time>2014-10-05T08:27:36.000Z</time>
      </trkpt>
      <trkpt lat="45.77613" lon="4.8473">
        <ele>175</ele>
        <time>2014-10-05T08:27:41.000Z</time>
      </trkpt>
      <trkpt lat="45.77605" lon="4.84751">
        <ele>174.39999389648</ele>
        <time>2014-10-05T08:27:46.000Z</time>
      </trkpt>
      <trkpt lat="45.77599" lon="4.84766">
        <ele>174.39999389648</ele>
        <time>2014-10-05T08:27:50.000Z</time>
      </trkpt>
      <trkpt lat="45.77588" lon="4.84781">
        <ele>174.80000305176</ele>
        <time>2014-10-05T08:27:55.000Z</time>
      </trkpt>
      <trkpt lat="45.77579" lon="4.84801">
        <ele>174.80000305176</ele>
        <time>2014-10-05T08:28:01.000Z</time>
      </trkpt>
      <trkpt lat="45.7757" lon="4.84819">
        <ele>174.60000610352</ele>
        <time>2014-10-05T08:28:06.000Z</time>
      </trkpt>
      <trkpt lat="45.77562" lon="4.84832">
        <ele>174.39999389648</ele>
        <time>2014-10-05T08:28:10.000Z</time>
      </trkpt>
      <trkpt lat="45.77554" lon="4.84856">
        <ele>173.80000305176</ele>
        <time>2014-10-05T08:28:16.000Z</time>
      </trkpt>
      <trkpt lat="45.77547" lon="4.84878">
        <ele>173.19999694824</ele>
        <time>2014-10-05T08:28:21.000Z</time>
      </trkpt>
      <trkpt lat="45.77541" lon="4.84895">
        <ele>174</ele>
        <time>2014-10-05T08:28:25.000Z</time>
      </trkpt>
      <trkpt lat="45.77534" lon="4.84914">
        <ele>174.80000305176</ele>
        <time>2014-10-05T08:28:30.000Z</time>
      </trkpt>
      <trkpt lat="45.77527" lon="4.84934">
        <ele>175.39999389648</ele>
        <time>2014-10-05T08:28:35.000Z</time>
      </trkpt>
      <trkpt lat="45.77522" lon="4.84947">
        <ele>175.60000610352</ele>
        <time>2014-10-05T08:28:39.000Z</time>
      </trkpt>
      <trkpt lat="45.77515" lon="4.84967">
        <ele>175.39999389648</ele>
        <time>2014-10-05T08:28:45.000Z</time>
      </trkpt>
      <trkpt lat="45.7751" lon="4.84978">
        <ele>175.19999694824</ele>
        <time>2014-10-05T08:28:49.000Z</time>
      </trkpt>
      <trkpt lat="45.77503" lon="4.84991">
        <ele>175</ele>
        <time>2014-10-05T08:28:53.000Z</time>
      </trkpt>
      <trkpt lat="45.77496" lon="4.85006">
        <ele>175.39999389648</ele>
        <time>2014-10-05T08:28:57.000Z</time>
      </trkpt>
      <trkpt lat="45.77488" lon="4.85024">
        <ele>175.60000610352</ele>
        <time>2014-10-05T08:29:02.000Z</time>
      </trkpt>
      <trkpt lat="45.77479" lon="4.85045">
        <ele>175.60000610352</ele>
        <time>2014-10-05T08:29:07.000Z</time>
      </trkpt>
      <trkpt lat="45.77466" lon="4.85068">
        <ele>176</ele>
        <time>2014-10-05T08:29:14.000Z</time>
      </trkpt>
      <trkpt lat="45.77456" lon="4.85087">
        <ele>175.80000305176</ele>
        <time>2014-10-05T08:29:19.000Z</time>
      </trkpt>
      <trkpt lat="45.77447" lon="4.85102">
        <ele>175.60000610352</ele>
        <time>2014-10-05T08:29:24.000Z</time>
      </trkpt>
      <trkpt lat="45.77438" lon="4.8512">
        <ele>174.80000305176</ele>
        <time>2014-10-05T08:29:29.000Z</time>
      </trkpt>
      <trkpt lat="45.77427" lon="4.85138">
        <ele>173.80000305176</ele>
        <time>2014-10-05T08:29:34.000Z</time>
      </trkpt>
      <trkpt lat="45.77414" lon="4.85155">
        <ele>173</ele>
        <time>2014-10-05T08:29:40.000Z</time>
      </trkpt>
      <trkpt lat="45.77399" lon="4.85164">
        <ele>173.39999389648</ele>
        <time>2014-10-05T08:29:45.000Z</time>
      </trkpt>
      <trkpt lat="45.77384" lon="4.85169">
        <ele>173.60000610352</ele>
        <time>2014-10-05T08:29:50.000Z</time>
      </trkpt>
      <trkpt lat="45.77371" lon="4.85178">
        <ele>173.60000610352</ele>
        <time>2014-10-05T08:29:55.000Z</time>
      </trkpt>
      <trkpt lat="45.7736" lon="4.85198">
        <ele>173.19999694824</ele>
        <time>2014-10-05T08:30:01.000Z</time>
      </trkpt>
      <trkpt lat="45.77356" lon="4.85222">
        <ele>171.80000305176</ele>
        <time>2014-10-05T08:30:06.000Z</time>
      </trkpt>
      <trkpt lat="45.77353" lon="4.85245">
        <ele>170.39999389648</ele>
        <time>2014-10-05T08:30:11.000Z</time>
      </trkpt>
      <trkpt lat="45.77351" lon="4.85268">
        <ele>169.80000305176</ele>
        <time>2014-10-05T08:30:16.000Z</time>
      </trkpt>
      <trkpt lat="45.77353" lon="4.85282">
        <ele>169.60000610352</ele>
        <time>2014-10-05T08:30:20.000Z</time>
      </trkpt>
      <trkpt lat="45.77351" lon="4.85299">
        <ele>169.19999694824</ele>
        <time>2014-10-05T08:30:24.000Z</time>
      </trkpt>
      <trkpt lat="45.77349" lon="4.85318">
        <ele>168.80000305176</ele>
        <time>2014-10-05T08:30:29.000Z</time>
      </trkpt>
      <trkpt lat="45.7735" lon="4.85341">
        <ele>168.60000610352</ele>
        <time>2014-10-05T08:30:34.000Z</time>
      </trkpt>
      <trkpt lat="45.77354" lon="4.85367">
        <ele>169.19999694824</ele>
        <time>2014-10-05T08:30:40.000Z</time>
      </trkpt>
      <trkpt lat="45.77356" lon="4.8537">
        <ele>169.19999694824</ele>
        <time>2014-10-05T08:30:41.000Z</time>
      </trkpt>
      <trkpt lat="45.7736" lon="4.85382">
        <ele>169.80000305176</ele>
        <time>2014-10-05T08:30:44.000Z</time>
      </trkpt>
      <trkpt lat="45.77361" lon="4.85392">
        <ele>170.19999694824</ele>
        <time>2014-10-05T08:30:46.000Z</time>
      </trkpt>
      <trkpt lat="45.77365" lon="4.85398">
        <ele>170.60000610352</ele>
        <time>2014-10-05T08:30:48.000Z</time>
      </trkpt>
      <trkpt lat="45.7737" lon="4.85408">
        <ele>170.80000305176</ele>
        <time>2014-10-05T08:30:51.000Z</time>
      </trkpt>
      <trkpt lat="45.77374" lon="4.85418">
        <ele>171.39999389648</ele>
        <time>2014-10-05T08:30:54.000Z</time>
      </trkpt>
      <trkpt lat="45.77381" lon="4.85438">
        <ele>172.19999694824</ele>
        <time>2014-10-05T08:30:59.000Z</time>
      </trkpt>
      <trkpt lat="45.77385" lon="4.85459">
        <ele>173</ele>
        <time>2014-10-05T08:31:04.000Z</time>
      </trkpt>
      <trkpt lat="45.77385" lon="4.85468">
        <ele>173.19999694824</ele>
        <time>2014-10-05T08:31:06.000Z</time>
      </trkpt>
      <trkpt lat="45.77385" lon="4.85474">
        <ele>173.39999389648</ele>
        <time>2014-10-05T08:31:07.000Z</time>
      </trkpt>
      <trkpt lat="45.77386" lon="4.85498">
        <ele>174</ele>
        <time>2014-10-05T08:31:13.000Z</time>
      </trkpt>
      <trkpt lat="45.77385" lon="4.85524">
        <ele>174.60000610352</ele>
        <time>2014-10-05T08:31:19.000Z</time>
      </trkpt>
      <trkpt lat="45.77385" lon="4.85552">
        <ele>174</ele>
        <time>2014-10-05T08:31:25.000Z</time>
      </trkpt>
      <trkpt lat="45.77385" lon="4.85557">
        <ele>173.80000305176</ele>
        <time>2014-10-05T08:31:26.000Z</time>
      </trkpt>
      <trkpt lat="45.77386" lon="4.85573">
        <ele>172.80000305176</ele>
        <time>2014-10-05T08:31:30.000Z</time>
      </trkpt>
      <trkpt lat="45.77387" lon="4.85577">
        <ele>172.60000610352</ele>
        <time>2014-10-05T08:31:31.000Z</time>
      </trkpt>
      <trkpt lat="45.77387" lon="4.85603">
        <ele>171.19999694824</ele>
        <time>2014-10-05T08:31:37.000Z</time>
      </trkpt>
      <trkpt lat="45.77386" lon="4.8563">
        <ele>170</ele>
        <time>2014-10-05T08:31:42.000Z</time>
      </trkpt>
      <trkpt lat="45.77384" lon="4.85633">
        <ele>169.80000305176</ele>
        <time>2014-10-05T08:31:43.000Z</time>
      </trkpt>
      <trkpt lat="45.77378" lon="4.85636">
        <ele>169.60000610352</ele>
        <time>2014-10-05T08:31:45.000Z</time>
      </trkpt>
      <trkpt lat="45.7737" lon="4.85637">
        <ele>169.39999389648</ele>
        <time>2014-10-05T08:31:48.000Z</time>
      </trkpt>
      <trkpt lat="45.7736" lon="4.85638">
        <ele>169</ele>
        <time>2014-10-05T08:31:51.000Z</time>
      </trkpt>
      <trkpt lat="45.77341" lon="4.85643">
        <ele>168.39999389648</ele>
        <time>2014-10-05T08:31:57.000Z</time>
      </trkpt>
      <trkpt lat="45.77323" lon="4.85643">
        <ele>167.60000610352</ele>
        <time>2014-10-05T08:32:03.000Z</time>
      </trkpt>
      <trkpt lat="45.77304" lon="4.85645">
        <ele>167.39999389648</ele>
        <time>2014-10-05T08:32:09.000Z</time>
      </trkpt>
      <trkpt lat="45.77289" lon="4.85651">
        <ele>168.19999694824</ele>
        <time>2014-10-05T08:32:14.000Z</time>
      </trkpt>
      <trkpt lat="45.77274" lon="4.85653">
        <ele>169.19999694824</ele>
        <time>2014-10-05T08:32:19.000Z</time>
      </trkpt>
      <trkpt lat="45.77269" lon="4.85649">
        <ele>169.39999389648</ele>
        <time>2014-10-05T08:32:21.000Z</time>
      </trkpt>
      <trkpt lat="45.77268" lon="4.85641">
        <ele>169.39999389648</ele>
        <time>2014-10-05T08:32:23.000Z</time>
      </trkpt>
      <trkpt lat="45.77268" lon="4.85628">
        <ele>169.19999694824</ele>
        <time>2014-10-05T08:32:26.000Z</time>
      </trkpt>
      <trkpt lat="45.77267" lon="4.85619">
        <ele>169.19999694824</ele>
        <time>2014-10-05T08:32:28.000Z</time>
      </trkpt>
      <trkpt lat="45.77268" lon="4.85606">
        <ele>169.39999389648</ele>
        <time>2014-10-05T08:32:31.000Z</time>
      </trkpt>
      <trkpt lat="45.77266" lon="4.85601">
        <ele>169.60000610352</ele>
        <time>2014-10-05T08:32:32.000Z</time>
      </trkpt>
      <trkpt lat="45.77269" lon="4.85582">
        <ele>169.80000305176</ele>
        <time>2014-10-05T08:32:36.000Z</time>
      </trkpt>
      <trkpt lat="45.7727" lon="4.85559">
        <ele>170.60000610352</ele>
        <time>2014-10-05T08:32:41.000Z</time>
      </trkpt>
      <trkpt lat="45.77269" lon="4.85537">
        <ele>171.39999389648</ele>
        <time>2014-10-05T08:32:45.000Z</time>
      </trkpt>
      <trkpt lat="45.77267" lon="4.85533">
        <ele>171.60000610352</ele>
        <time>2014-10-05T08:32:46.000Z</time>
      </trkpt>
      <trkpt lat="45.77268" lon="4.85515">
        <ele>172</ele>
        <time>2014-10-05T08:32:49.000Z</time>
      </trkpt>
      <trkpt lat="45.77266" lon="4.85495">
        <ele>172.60000610352</ele>
        <time>2014-10-05T08:32:53.000Z</time>
      </trkpt>
      <trkpt lat="45.77265" lon="4.85487">
        <ele>172.80000305176</ele>
        <time>2014-10-05T08:32:55.000Z</time>
      </trkpt>
      <trkpt lat="45.77265" lon="4.85477">
        <ele>173.19999694824</ele>
        <time>2014-10-05T08:32:57.000Z</time>
      </trkpt>
      <trkpt lat="45.7726" lon="4.85461">
        <ele>173.80000305176</ele>
        <time>2014-10-05T08:33:02.000Z</time>
      </trkpt>
      <trkpt lat="45.77256" lon="4.85439">
        <ele>173.80000305176</ele>
        <time>2014-10-05T08:33:08.000Z</time>
      </trkpt>
      <trkpt lat="45.77255" lon="4.85431">
        <ele>173.60000610352</ele>
        <time>2014-10-05T08:33:10.000Z</time>
      </trkpt>
      <trkpt lat="45.77252" lon="4.85413">
        <ele>173.19999694824</ele>
        <time>2014-10-05T08:33:14.000Z</time>
      </trkpt>
      <trkpt lat="45.77249" lon="4.8539">
        <ele>173</ele>
        <time>2014-10-05T08:33:19.000Z</time>
      </trkpt>
      <trkpt lat="45.77253" lon="4.85367">
        <ele>173.19999694824</ele>
        <time>2014-10-05T08:33:24.000Z</time>
      </trkpt>
      <trkpt lat="45.77261" lon="4.85345">
        <ele>174</ele>
        <time>2014-10-05T08:33:29.000Z</time>
      </trkpt>
      <trkpt lat="45.77267" lon="4.85327">
        <ele>174</ele>
        <time>2014-10-05T08:33:33.000Z</time>
      </trkpt>
      <trkpt lat="45.7727" lon="4.8532">
        <ele>173.60000610352</ele>
        <time>2014-10-05T08:33:37.000Z</time>
      </trkpt>
      <trkpt lat="45.77272" lon="4.85309">
        <ele>173</ele>
        <time>2014-10-05T08:33:42.000Z</time>
      </trkpt>
      <trkpt lat="45.77273" lon="4.85306">
        <ele>172.80000305176</ele>
        <time>2014-10-05T08:33:43.000Z</time>
      </trkpt>
      <trkpt lat="45.77278" lon="4.85294">
        <ele>172</ele>
        <time>2014-10-05T08:33:47.000Z</time>
      </trkpt>
      <trkpt lat="45.77289" lon="4.85276">
        <ele>171</ele>
        <time>2014-10-05T08:33:52.000Z</time>
      </trkpt>
      <trkpt lat="45.77296" lon="4.85252">
        <ele>170.80000305176</ele>
        <time>2014-10-05T08:33:58.000Z</time>
      </trkpt>
      <trkpt lat="45.77303" lon="4.85228">
        <ele>170.80000305176</ele>
        <time>2014-10-05T08:34:03.000Z</time>
      </trkpt>
      <trkpt lat="45.77313" lon="4.85206">
        <ele>171.39999389648</ele>
        <time>2014-10-05T08:34:08.000Z</time>
      </trkpt>
      <trkpt lat="45.77322" lon="4.85189">
        <ele>172</ele>
        <time>2014-10-05T08:34:12.000Z</time>
      </trkpt>
      <trkpt lat="45.77334" lon="4.85164">
        <ele>173</ele>
        <time>2014-10-05T08:34:18.000Z</time>
      </trkpt>
      <trkpt lat="45.7734" lon="4.85149">
        <ele>173.39999389648</ele>
        <time>2014-10-05T08:34:22.000Z</time>
      </trkpt>
      <trkpt lat="45.7735" lon="4.85125">
        <ele>173</ele>
        <time>2014-10-05T08:34:28.000Z</time>
      </trkpt>
      <trkpt lat="45.77353" lon="4.8511">
        <ele>173.60000610352</ele>
        <time>2014-10-05T08:34:32.000Z</time>
      </trkpt>
      <trkpt lat="45.77358" lon="4.85093">
        <ele>174.39999389648</ele>
        <time>2014-10-05T08:34:37.000Z</time>
      </trkpt>
      <trkpt lat="45.77363" lon="4.85078">
        <ele>174.60000610352</ele>
        <time>2014-10-05T08:34:42.000Z</time>
      </trkpt>
      <trkpt lat="45.77368" lon="4.85066">
        <ele>174.80000305176</ele>
        <time>2014-10-05T08:34:46.000Z</time>
      </trkpt>
      <trkpt lat="45.77375" lon="4.85053">
        <ele>175</ele>
        <time>2014-10-05T08:34:50.000Z</time>
      </trkpt>
      <trkpt lat="45.7738" lon="4.85042">
        <ele>175.19999694824</ele>
        <time>2014-10-05T08:34:54.000Z</time>
      </trkpt>
      <trkpt lat="45.77387" lon="4.85029">
        <ele>175.19999694824</ele>
        <time>2014-10-05T08:34:59.000Z</time>
      </trkpt>
      <trkpt lat="45.77396" lon="4.85006">
        <ele>175.39999389648</ele>
        <time>2014-10-05T08:35:04.000Z</time>
      </trkpt>
      <trkpt lat="45.77407" lon="4.84988">
        <ele>175.80000305176</ele>
        <time>2014-10-05T08:35:08.000Z</time>
      </trkpt>
      <trkpt lat="45.77412" lon="4.8497">
        <ele>175.80000305176</ele>
        <time>2014-10-05T08:35:13.000Z</time>
      </trkpt>
      <trkpt lat="45.77421" lon="4.84952">
        <ele>175.80000305176</ele>
        <time>2014-10-05T08:35:18.000Z</time>
      </trkpt>
      <trkpt lat="45.77429" lon="4.84934">
        <ele>176</ele>
        <time>2014-10-05T08:35:23.000Z</time>
      </trkpt>
      <trkpt lat="45.77432" lon="4.84927">
        <ele>176.19999694824</ele>
        <time>2014-10-05T08:35:27.000Z</time>
      </trkpt>
      <trkpt lat="45.77438" lon="4.84911">
        <ele>176</ele>
        <time>2014-10-05T08:35:32.000Z</time>
      </trkpt>
      <trkpt lat="45.77441" lon="4.84902">
        <ele>175.80000305176</ele>
        <time>2014-10-05T08:35:35.000Z</time>
      </trkpt>
      <trkpt lat="45.77443" lon="4.84896">
        <ele>175.60000610352</ele>
        <time>2014-10-05T08:35:37.000Z</time>
      </trkpt>
      <trkpt lat="45.7745" lon="4.8488">
        <ele>175</ele>
        <time>2014-10-05T08:35:41.000Z</time>
      </trkpt>
      <trkpt lat="45.77454" lon="4.84871">
        <ele>174.80000305176</ele>
        <time>2014-10-05T08:35:44.000Z</time>
      </trkpt>
      <trkpt lat="45.77465" lon="4.84851">
        <ele>174.80000305176</ele>
        <time>2014-10-05T08:35:49.000Z</time>
      </trkpt>
      <trkpt lat="45.77476" lon="4.84834">
        <ele>175.39999389648</ele>
        <time>2014-10-05T08:35:54.000Z</time>
      </trkpt>
      <trkpt lat="45.77485" lon="4.84815">
        <ele>176</ele>
        <time>2014-10-05T08:35:58.000Z</time>
      </trkpt>
      <trkpt lat="45.77497" lon="4.84796">
        <ele>176.60000610352</ele>
        <time>2014-10-05T08:36:03.000Z</time>
      </trkpt>
      <trkpt lat="45.77504" lon="4.8478">
        <ele>177.19999694824</ele>
        <time>2014-10-05T08:36:07.000Z</time>
      </trkpt>
      <trkpt lat="45.77505" lon="4.84774">
        <ele>177.19999694824</ele>
        <time>2014-10-05T08:36:09.000Z</time>
      </trkpt>
      <trkpt lat="45.77508" lon="4.84767">
        <ele>177.19999694824</ele>
        <time>2014-10-05T08:36:11.000Z</time>
      </trkpt>
      <trkpt lat="45.77517" lon="4.84749">
        <ele>177.60000610352</ele>
        <time>2014-10-05T08:36:15.000Z</time>
      </trkpt>
      <trkpt lat="45.77522" lon="4.84737">
        <ele>177.80000305176</ele>
        <time>2014-10-05T08:36:19.000Z</time>
      </trkpt>
      <trkpt lat="45.77525" lon="4.84725">
        <ele>178.19999694824</ele>
        <time>2014-10-05T08:36:23.000Z</time>
      </trkpt>
      <trkpt lat="45.77534" lon="4.84712">
        <ele>178.60000610352</ele>
        <time>2014-10-05T08:36:27.000Z</time>
      </trkpt>
      <trkpt lat="45.77537" lon="4.84709">
        <ele>178.60000610352</ele>
        <time>2014-10-05T08:36:28.000Z</time>
      </trkpt>
      <trkpt lat="45.77543" lon="4.84698">
        <ele>178.80000305176</ele>
        <time>2014-10-05T08:36:31.000Z</time>
      </trkpt>
      <trkpt lat="45.77547" lon="4.8469">
        <ele>179</ele>
        <time>2014-10-05T08:36:35.000Z</time>
      </trkpt>
      <trkpt lat="45.77554" lon="4.84678">
        <ele>179</ele>
        <time>2014-10-05T08:36:39.000Z</time>
      </trkpt>
      <trkpt lat="45.77561" lon="4.84665">
        <ele>178.60000610352</ele>
        <time>2014-10-05T08:36:43.000Z</time>
      </trkpt>
      <trkpt lat="45.77568" lon="4.84646">
        <ele>178.39999389648</ele>
        <time>2014-10-05T08:36:47.000Z</time>
      </trkpt>
      <trkpt lat="45.77577" lon="4.84629">
        <ele>178.60000610352</ele>
        <time>2014-10-05T08:36:51.000Z</time>
      </trkpt>
      <trkpt lat="45.77583" lon="4.84619">
        <ele>179</ele>
        <time>2014-10-05T08:36:53.000Z</time>
      </trkpt>
      <trkpt lat="45.7759" lon="4.84605">
        <ele>179.39999389648</ele>
        <time>2014-10-05T08:36:55.000Z</time>
      </trkpt>
      <trkpt lat="45.77593" lon="4.84601">
        <ele>179.60000610352</ele>
        <time>2014-10-05T08:36:56.000Z</time>
      </trkpt>
      <trkpt lat="45.77598" lon="4.84594">
        <ele>179.60000610352</ele>
        <time>2014-10-05T08:36:58.000Z</time>
      </trkpt>
      <trkpt lat="45.776" lon="4.8459">
        <ele>179.80000305176</ele>
        <time>2014-10-05T08:36:59.000Z</time>
      </trkpt>
      <trkpt lat="45.77603" lon="4.84583">
        <ele>179.80000305176</ele>
        <time>2014-10-05T08:37:01.000Z</time>
      </trkpt>
      <trkpt lat="45.77605" lon="4.84573">
        <ele>179.39999389648</ele>
        <time>2014-10-05T08:37:03.000Z</time>
      </trkpt>
      <trkpt lat="45.77609" lon="4.84562">
        <ele>179</ele>
        <time>2014-10-05T08:37:06.000Z</time>
      </trkpt>
      <trkpt lat="45.77611" lon="4.84556">
        <ele>178.60000610352</ele>
        <time>2014-10-05T08:37:08.000Z</time>
      </trkpt>
      <trkpt lat="45.7762" lon="4.84535">
        <ele>178</ele>
        <time>2014-10-05T08:37:14.000Z</time>
      </trkpt>
      <trkpt lat="45.7763" lon="4.8452">
        <ele>177</ele>
        <time>2014-10-05T08:37:19.000Z</time>
      </trkpt>
      <trkpt lat="45.77638" lon="4.84502">
        <ele>174.19999694824</ele>
        <time>2014-10-05T08:37:24.000Z</time>
      </trkpt>
      <trkpt lat="45.77643" lon="4.84481">
        <ele>172.80000305176</ele>
        <time>2014-10-05T08:37:29.000Z</time>
      </trkpt>
      <trkpt lat="45.7765" lon="4.84462">
        <ele>171.19999694824</ele>
        <time>2014-10-05T08:37:34.000Z</time>
      </trkpt>
      <trkpt lat="45.7766" lon="4.84441">
        <ele>170</ele>
        <time>2014-10-05T08:37:40.000Z</time>
      </trkpt>
      <trkpt lat="45.77665" lon="4.84431">
        <ele>169.39999389648</ele>
        <time>2014-10-05T08:37:43.000Z</time>
      </trkpt>
      <trkpt lat="45.77667" lon="4.84427">
        <ele>169.19999694824</ele>
        <time>2014-10-05T08:37:44.000Z</time>
      </trkpt>
      <trkpt lat="45.7768" lon="4.8441">
        <ele>168.39999389648</ele>
        <time>2014-10-05T08:37:50.000Z</time>
      </trkpt>
      <trkpt lat="45.77689" lon="4.84412">
        <ele>168.19999694824</ele>
        <time>2014-10-05T08:37:53.000Z</time>
      </trkpt>
      <trkpt lat="45.77692" lon="4.84415">
        <ele>168.19999694824</ele>
        <time>2014-10-05T08:37:54.000Z</time>
      </trkpt>
      <trkpt lat="45.77707" lon="4.84426">
        <ele>168.19999694824</ele>
        <time>2014-10-05T08:37:59.000Z</time>
      </trkpt>
      <trkpt lat="45.77722" lon="4.84436">
        <ele>168.19999694824</ele>
        <time>2014-10-05T08:38:05.000Z</time>
      </trkpt>
      <trkpt lat="45.77733" lon="4.84442">
        <ele>168.19999694824</ele>
        <time>2014-10-05T08:38:09.000Z</time>
      </trkpt>
      <trkpt lat="45.77747" lon="4.84452">
        <ele>168.19999694824</ele>
        <time>2014-10-05T08:38:15.000Z</time>
      </trkpt>
      <trkpt lat="45.77761" lon="4.84461">
        <ele>168.60000610352</ele>
        <time>2014-10-05T08:38:20.000Z</time>
      </trkpt>
      <trkpt lat="45.77776" lon="4.84463">
        <ele>168.39999389648</ele>
        <time>2014-10-05T08:38:25.000Z</time>
      </trkpt>
      <trkpt lat="45.77793" lon="4.84461">
        <ele>167.80000305176</ele>
        <time>2014-10-05T08:38:31.000Z</time>
      </trkpt>
      <trkpt lat="45.77812" lon="4.84463">
        <ele>167.19999694824</ele>
        <time>2014-10-05T08:38:37.000Z</time>
      </trkpt>
      <trkpt lat="45.77815" lon="4.84465">
        <ele>167.39999389648</ele>
        <time>2014-10-05T08:38:38.000Z</time>
      </trkpt>
      <trkpt lat="45.77832" lon="4.84474">
        <ele>167.60000610352</ele>
        <time>2014-10-05T08:38:44.000Z</time>
      </trkpt>
      <trkpt lat="45.7785" lon="4.84485">
        <ele>168</ele>
        <time>2014-10-05T08:38:50.000Z</time>
      </trkpt>
      <trkpt lat="45.77867" lon="4.84497">
        <ele>168.39999389648</ele>
        <time>2014-10-05T08:38:56.000Z</time>
      </trkpt>
      <trkpt lat="45.77883" lon="4.84509">
        <ele>169</ele>
        <time>2014-10-05T08:39:02.000Z</time>
      </trkpt>
      <trkpt lat="45.77886" lon="4.84512">
        <ele>169</ele>
        <time>2014-10-05T08:39:03.000Z</time>
      </trkpt>
      <trkpt lat="45.77902" lon="4.84523">
        <ele>168.39999389648</ele>
        <time>2014-10-05T08:39:09.000Z</time>
      </trkpt>
      <trkpt lat="45.77919" lon="4.84536">
        <ele>167.60000610352</ele>
        <time>2014-10-05T08:39:15.000Z</time>
      </trkpt>
      <trkpt lat="45.77934" lon="4.8455">
        <ele>167</ele>
        <time>2014-10-05T08:39:21.000Z</time>
      </trkpt>
      <trkpt lat="45.77949" lon="4.84559">
        <ele>166.39999389648</ele>
        <time>2014-10-05T08:39:26.000Z</time>
      </trkpt>
      <trkpt lat="45.77965" lon="4.84568">
        <ele>165.39999389648</ele>
        <time>2014-10-05T08:39:32.000Z</time>
      </trkpt>
      <trkpt lat="45.77978" lon="4.84576">
        <ele>165.19999694824</ele>
        <time>2014-10-05T08:39:37.000Z</time>
      </trkpt>
      <trkpt lat="45.77995" lon="4.84584">
        <ele>165.39999389648</ele>
        <time>2014-10-05T08:39:43.000Z</time>
      </trkpt>
      <trkpt lat="45.78011" lon="4.84592">
        <ele>165.39999389648</ele>
        <time>2014-10-05T08:39:49.000Z</time>
      </trkpt>
      <trkpt lat="45.78026" lon="4.846">
        <ele>165.60000610352</ele>
        <time>2014-10-05T08:39:54.000Z</time>
      </trkpt>
      <trkpt lat="45.78043" lon="4.84609">
        <ele>165.80000305176</ele>
        <time>2014-10-05T08:40:00.000Z</time>
      </trkpt>
      <trkpt lat="45.78061" lon="4.84619">
        <ele>166</ele>
        <time>2014-10-05T08:40:06.000Z</time>
      </trkpt>
      <trkpt lat="45.78079" lon="4.84628">
        <ele>166</ele>
        <time>2014-10-05T08:40:12.000Z</time>
      </trkpt>
      <trkpt lat="45.78082" lon="4.8463">
        <ele>166</ele>
        <time>2014-10-05T08:40:13.000Z</time>
      </trkpt>
      <trkpt lat="45.78101" lon="4.8464">
        <ele>166.19999694824</ele>
        <time>2014-10-05T08:40:20.000Z</time>
      </trkpt>
      <trkpt lat="45.78115" lon="4.8465">
        <ele>166.60000610352</ele>
        <time>2014-10-05T08:40:25.000Z</time>
      </trkpt>
      <trkpt lat="45.78135" lon="4.84662">
        <ele>167</ele>
        <time>2014-10-05T08:40:32.000Z</time>
      </trkpt>
      <trkpt lat="45.78144" lon="4.84665">
        <ele>166.60000610352</ele>
        <time>2014-10-05T08:40:36.000Z</time>
      </trkpt>
      <trkpt lat="45.78145" lon="4.84662">
        <ele>166.39999389648</ele>
        <time>2014-10-05T08:40:37.000Z</time>
      </trkpt>
      <trkpt lat="45.78137" lon="4.84656">
        <ele>166.60000610352</ele>
        <time>2014-10-05T08:40:40.000Z</time>
      </trkpt>
      <trkpt lat="45.78131" lon="4.84653">
        <ele>166.60000610352</ele>
        <time>2014-10-05T08:40:42.000Z</time>
      </trkpt>
      <trkpt lat="45.78122" lon="4.84649">
        <ele>166.39999389648</ele>
        <time>2014-10-05T08:40:45.000Z</time>
      </trkpt>
      <trkpt lat="45.78104" lon="4.8464">
        <ele>166.19999694824</ele>
        <time>2014-10-05T08:40:51.000Z</time>
      </trkpt>
      <trkpt lat="45.78102" lon="4.84638">
        <ele>166.19999694824</ele>
        <time>2014-10-05T08:40:52.000Z</time>
      </trkpt>
      <trkpt lat="45.78085" lon="4.84628">
        <ele>166</ele>
        <time>2014-10-05T08:40:58.000Z</time>
      </trkpt>
      <trkpt lat="45.78068" lon="4.84619">
        <ele>166</ele>
        <time>2014-10-05T08:41:04.000Z</time>
      </trkpt>
      <trkpt lat="45.78051" lon="4.84609">
        <ele>166.19999694824</ele>
        <time>2014-10-05T08:41:10.000Z</time>
      </trkpt>
      <trkpt lat="45.78048" lon="4.84608">
        <ele>166</ele>
        <time>2014-10-05T08:41:11.000Z</time>
      </trkpt>
      <trkpt lat="45.78034" lon="4.846">
        <ele>165.60000610352</ele>
        <time>2014-10-05T08:41:16.000Z</time>
      </trkpt>
      <trkpt lat="45.78022" lon="4.84593">
        <ele>165.39999389648</ele>
        <time>2014-10-05T08:41:20.000Z</time>
      </trkpt>
      <trkpt lat="45.7802" lon="4.84592">
        <ele>165.39999389648</ele>
        <time>2014-10-05T08:41:21.000Z</time>
      </trkpt>
      <trkpt lat="45.78009" lon="4.84585">
        <ele>165.19999694824</ele>
        <time>2014-10-05T08:41:25.000Z</time>
      </trkpt>
      <trkpt lat="45.77994" lon="4.84576">
        <ele>165</ele>
        <time>2014-10-05T08:41:30.000Z</time>
      </trkpt>
      <trkpt lat="45.77977" lon="4.84564">
        <ele>164.80000305176</ele>
        <time>2014-10-05T08:41:36.000Z</time>
      </trkpt>
      <trkpt lat="45.7796" lon="4.84552">
        <ele>165.19999694824</ele>
        <time>2014-10-05T08:41:42.000Z</time>
      </trkpt>
      <trkpt lat="45.77943" lon="4.8454">
        <ele>166.19999694824</ele>
        <time>2014-10-05T08:41:48.000Z</time>
      </trkpt>
      <trkpt lat="45.7794" lon="4.84538">
        <ele>166.19999694824</ele>
        <time>2014-10-05T08:41:49.000Z</time>
      </trkpt>
      <trkpt lat="45.77926" lon="4.84528">
        <ele>166.80000305176</ele>
        <time>2014-10-05T08:41:54.000Z</time>
      </trkpt>
      <trkpt lat="45.77914" lon="4.84516">
        <ele>167.39999389648</ele>
        <time>2014-10-05T08:41:59.000Z</time>
      </trkpt>
      <trkpt lat="45.77901" lon="4.84504">
        <ele>167.80000305176</ele>
        <time>2014-10-05T08:42:04.000Z</time>
      </trkpt>
      <trkpt lat="45.77885" lon="4.8449">
        <ele>168.19999694824</ele>
        <time>2014-10-05T08:42:10.000Z</time>
      </trkpt>
      <trkpt lat="45.7787" lon="4.84477">
        <ele>167.80000305176</ele>
        <time>2014-10-05T08:42:16.000Z</time>
      </trkpt>
      <trkpt lat="45.77853" lon="4.84464">
        <ele>167.19999694824</ele>
        <time>2014-10-05T08:42:22.000Z</time>
      </trkpt>
      <trkpt lat="45.77836" lon="4.8445">
        <ele>167</ele>
        <time>2014-10-05T08:42:28.000Z</time>
      </trkpt>
      <trkpt lat="45.77833" lon="4.84448">
        <ele>167</ele>
        <time>2014-10-05T08:42:29.000Z</time>
      </trkpt>
      <trkpt lat="45.77817" lon="4.84436">
        <ele>167</ele>
        <time>2014-10-05T08:42:35.000Z</time>
      </trkpt>
      <trkpt lat="45.77805" lon="4.84431">
        <ele>167</ele>
        <time>2014-10-05T08:42:41.000Z</time>
      </trkpt>
      <trkpt lat="45.77799" lon="4.84414">
        <ele>167</ele>
        <time>2014-10-05T08:42:44.000Z</time>
      </trkpt>
      <trkpt lat="45.77795" lon="4.84412">
        <ele>166.80000305176</ele>
        <time>2014-10-05T08:42:45.000Z</time>
      </trkpt>
      <trkpt lat="45.77778" lon="4.84411">
        <ele>166.60000610352</ele>
        <time>2014-10-05T08:42:49.000Z</time>
      </trkpt>
      <trkpt lat="45.77758" lon="4.84409">
        <ele>166.39999389648</ele>
        <time>2014-10-05T08:42:55.000Z</time>
      </trkpt>
      <trkpt lat="45.77755" lon="4.84409">
        <ele>166.60000610352</ele>
        <time>2014-10-05T08:42:56.000Z</time>
      </trkpt>
      <trkpt lat="45.77739" lon="4.84404">
        <ele>166.80000305176</ele>
        <time>2014-10-05T08:43:02.000Z</time>
      </trkpt>
      <trkpt lat="45.77724" lon="4.84399">
        <ele>167</ele>
        <time>2014-10-05T08:43:08.000Z</time>
      </trkpt>
      <trkpt lat="45.77713" lon="4.84396">
        <ele>167</ele>
        <time>2014-10-05T08:43:12.000Z</time>
      </trkpt>
      <trkpt lat="45.77708" lon="4.84394">
        <ele>167.19999694824</ele>
        <time>2014-10-05T08:43:14.000Z</time>
      </trkpt>
      <trkpt lat="45.77703" lon="4.84392">
        <ele>167.19999694824</ele>
        <time>2014-10-05T08:43:16.000Z</time>
      </trkpt>
      <trkpt lat="45.77684" lon="4.84384">
        <ele>167.39999389648</ele>
        <time>2014-10-05T08:43:23.000Z</time>
      </trkpt>
      <trkpt lat="45.77681" lon="4.84383">
        <ele>167.39999389648</ele>
        <time>2014-10-05T08:43:24.000Z</time>
      </trkpt>
      <trkpt lat="45.77666" lon="4.84379">
        <ele>167.60000610352</ele>
        <time>2014-10-05T08:43:29.000Z</time>
      </trkpt>
      <trkpt lat="45.77652" lon="4.84372">
        <ele>167.60000610352</ele>
        <time>2014-10-05T08:43:34.000Z</time>
      </trkpt>
      <trkpt lat="45.77637" lon="4.84367">
        <ele>167.80000305176</ele>
        <time>2014-10-05T08:43:39.000Z</time>
      </trkpt>
      <trkpt lat="45.77622" lon="4.84358">
        <ele>168.39999389648</ele>
        <time>2014-10-05T08:43:44.000Z</time>
      </trkpt>
      <trkpt lat="45.77606" lon="4.84351">
        <ele>169.19999694824</ele>
        <time>2014-10-05T08:43:50.000Z</time>
      </trkpt>
      <trkpt lat="45.77587" lon="4.84343">
        <ele>170.39999389648</ele>
        <time>2014-10-05T08:43:56.000Z</time>
      </trkpt>
      <trkpt lat="45.77582" lon="4.84337">
        <ele>170.39999389648</ele>
        <time>2014-10-05T08:43:58.000Z</time>
      </trkpt>
      <trkpt lat="45.77578" lon="4.84332">
        <ele>170.39999389648</ele>
        <time>2014-10-05T08:44:00.000Z</time>
      </trkpt>
      <trkpt lat="45.77562" lon="4.84321">
        <ele>171</ele>
        <time>2014-10-05T08:44:05.000Z</time>
      </trkpt>
      <trkpt lat="45.77546" lon="4.84306">
        <ele>170.39999389648</ele>
        <time>2014-10-05T08:44:11.000Z</time>
      </trkpt>
      <trkpt lat="45.77528" lon="4.84295">
        <ele>169.39999389648</ele>
        <time>2014-10-05T08:44:17.000Z</time>
      </trkpt>
      <trkpt lat="45.77512" lon="4.84282">
        <ele>168.80000305176</ele>
        <time>2014-10-05T08:44:23.000Z</time>
      </trkpt>
      <trkpt lat="45.77496" lon="4.8427">
        <ele>168.60000610352</ele>
        <time>2014-10-05T08:44:29.000Z</time>
      </trkpt>
      <trkpt lat="45.7748" lon="4.84258">
        <ele>168.19999694824</ele>
        <time>2014-10-05T08:44:35.000Z</time>
      </trkpt>
      <trkpt lat="45.77477" lon="4.84256">
        <ele>168.19999694824</ele>
        <time>2014-10-05T08:44:36.000Z</time>
      </trkpt>
      <trkpt lat="45.77467" lon="4.84247">
        <ele>168.19999694824</ele>
        <time>2014-10-05T08:44:40.000Z</time>
      </trkpt>
      <trkpt lat="45.77455" lon="4.84239">
        <ele>168.60000610352</ele>
        <time>2014-10-05T08:44:44.000Z</time>
      </trkpt>
      <trkpt lat="45.7744" lon="4.84229">
        <ele>169</ele>
        <time>2014-10-05T08:44:49.000Z</time>
      </trkpt>
      <trkpt lat="45.77425" lon="4.84217">
        <ele>169.39999389648</ele>
        <time>2014-10-05T08:44:54.000Z</time>
      </trkpt>
      <trkpt lat="45.77412" lon="4.84206">
        <ele>169.80000305176</ele>
        <time>2014-10-05T08:44:59.000Z</time>
      </trkpt>
      <trkpt lat="45.77396" lon="4.84192">
        <ele>169.80000305176</ele>
        <time>2014-10-05T08:45:05.000Z</time>
      </trkpt>
      <trkpt lat="45.77381" lon="4.84175">
        <ele>169.19999694824</ele>
        <time>2014-10-05T08:45:11.000Z</time>
      </trkpt>
      <trkpt lat="45.77368" lon="4.84163">
        <ele>168.39999389648</ele>
        <time>2014-10-05T08:45:16.000Z</time>
      </trkpt>
      <trkpt lat="45.77355" lon="4.84151">
        <ele>167.80000305176</ele>
        <time>2014-10-05T08:45:21.000Z</time>
      </trkpt>
      <trkpt lat="45.77341" lon="4.84139">
        <ele>167</ele>
        <time>2014-10-05T08:45:26.000Z</time>
      </trkpt>
      <trkpt lat="45.77328" lon="4.84127">
        <ele>166.19999694824</ele>
        <time>2014-10-05T08:45:31.000Z</time>
      </trkpt>
      <trkpt lat="45.77315" lon="4.84117">
        <ele>166</ele>
        <time>2014-10-05T08:45:36.000Z</time>
      </trkpt>
      <trkpt lat="45.77297" lon="4.84105">
        <ele>166</ele>
        <time>2014-10-05T08:45:42.000Z</time>
      </trkpt>
      <trkpt lat="45.77284" lon="4.84092">
        <ele>166</ele>
        <time>2014-10-05T08:45:47.000Z</time>
      </trkpt>
      <trkpt lat="45.77268" lon="4.84086">
        <ele>166</ele>
        <time>2014-10-05T08:45:52.000Z</time>
      </trkpt>
      <trkpt lat="45.77252" lon="4.84084">
        <ele>167</ele>
        <time>2014-10-05T08:45:57.000Z</time>
      </trkpt>
      <trkpt lat="45.77202" lon="4.84089">
        <ele>169.60000610352</ele>
        <time>2014-10-05T08:46:12.000Z</time>
      </trkpt>
      <trkpt lat="45.77197" lon="4.84092">
        <ele>169.80000305176</ele>
        <time>2014-10-05T08:46:16.000Z</time>
      </trkpt>
      <trkpt lat="45.77178" lon="4.84092">
        <ele>168.80000305176</ele>
        <time>2014-10-05T08:46:22.000Z</time>
      </trkpt>
      <trkpt lat="45.77175" lon="4.84092">
        <ele>168.60000610352</ele>
        <time>2014-10-05T08:46:23.000Z</time>
      </trkpt>
      <trkpt lat="45.77161" lon="4.84092">
        <ele>167.60000610352</ele>
        <time>2014-10-05T08:46:28.000Z</time>
      </trkpt>
      <trkpt lat="45.77147" lon="4.84093">
        <ele>166.60000610352</ele>
        <time>2014-10-05T08:46:33.000Z</time>
      </trkpt>
      <trkpt lat="45.77132" lon="4.84095">
        <ele>166</ele>
        <time>2014-10-05T08:46:38.000Z</time>
      </trkpt>
      <trkpt lat="45.77118" lon="4.84095">
        <ele>166</ele>
        <time>2014-10-05T08:46:43.000Z</time>
      </trkpt>
      <trkpt lat="45.77106" lon="4.84095">
        <ele>166.19999694824</ele>
        <time>2014-10-05T08:46:47.000Z</time>
      </trkpt>
      <trkpt lat="45.77097" lon="4.84095">
        <ele>167</ele>
        <time>2014-10-05T08:46:51.000Z</time>
      </trkpt>
      <trkpt lat="45.77081" lon="4.84096">
        <ele>168.19999694824</ele>
        <time>2014-10-05T08:46:57.000Z</time>
      </trkpt>
      <trkpt lat="45.77067" lon="4.84094">
        <ele>169</ele>
        <time>2014-10-05T08:47:02.000Z</time>
      </trkpt>
      <trkpt lat="45.77051" lon="4.84097">
        <ele>170</ele>
        <time>2014-10-05T08:47:07.000Z</time>
      </trkpt>
      <trkpt lat="45.77038" lon="4.84095">
        <ele>169.60000610352</ele>
        <time>2014-10-05T08:47:11.000Z</time>
      </trkpt>
      <trkpt lat="45.77032" lon="4.84097">
        <ele>169.60000610352</ele>
        <time>2014-10-05T08:47:13.000Z</time>
      </trkpt>
      <trkpt lat="45.77025" lon="4.84097">
        <ele>169.60000610352</ele>
        <time>2014-10-05T08:47:15.000Z</time>
      </trkpt>
      <trkpt lat="45.77019" lon="4.84097">
        <ele>169.80000305176</ele>
        <time>2014-10-05T08:47:17.000Z</time>
      </trkpt>
      <trkpt lat="45.77008" lon="4.84097">
        <ele>169.80000305176</ele>
        <time>2014-10-05T08:47:21.000Z</time>
      </trkpt>
      <trkpt lat="45.76994" lon="4.84095">
        <ele>169.80000305176</ele>
        <time>2014-10-05T08:47:26.000Z</time>
      </trkpt>
      <trkpt lat="45.76985" lon="4.84093">
        <ele>169.60000610352</ele>
        <time>2014-10-05T08:47:29.000Z</time>
      </trkpt>
      <trkpt lat="45.76982" lon="4.84093">
        <ele>169.60000610352</ele>
        <time>2014-10-05T08:47:30.000Z</time>
      </trkpt>
      <trkpt lat="45.7697" lon="4.84092">
        <ele>169.80000305176</ele>
        <time>2014-10-05T08:47:34.000Z</time>
      </trkpt>
      <trkpt lat="45.7696" lon="4.84095">
        <ele>170.19999694824</ele>
        <time>2014-10-05T08:47:37.000Z</time>
      </trkpt>
      <trkpt lat="45.76948" lon="4.84096">
        <ele>170.39999389648</ele>
        <time>2014-10-05T08:47:42.000Z</time>
      </trkpt>
      <trkpt lat="45.76935" lon="4.84103">
        <ele>170.80000305176</ele>
        <time>2014-10-05T08:47:46.000Z</time>
      </trkpt>
      <trkpt lat="45.76929" lon="4.84104">
        <ele>170.60000610352</ele>
        <time>2014-10-05T08:47:47.000Z</time>
      </trkpt>
      <trkpt lat="45.76915" lon="4.84109">
        <ele>170.80000305176</ele>
        <time>2014-10-05T08:47:51.000Z</time>
      </trkpt>
      <trkpt lat="45.76896" lon="4.84113">
        <ele>170.39999389648</ele>
        <time>2014-10-05T08:47:56.000Z</time>
      </trkpt>
      <trkpt lat="45.76876" lon="4.8411">
        <ele>170.19999694824</ele>
        <time>2014-10-05T08:48:02.000Z</time>
      </trkpt>
      <trkpt lat="45.76874" lon="4.84105">
        <ele>170</ele>
        <time>2014-10-05T08:48:03.000Z</time>
      </trkpt>
      <trkpt lat="45.76871" lon="4.84088">
        <ele>168.80000305176</ele>
        <time>2014-10-05T08:48:07.000Z</time>
      </trkpt>
      <trkpt lat="45.76871" lon="4.84084">
        <ele>168.39999389648</ele>
        <time>2014-10-05T08:48:08.000Z</time>
      </trkpt>
      <trkpt lat="45.76871" lon="4.84056">
        <ele>166.39999389648</ele>
        <time>2014-10-05T08:48:14.000Z</time>
      </trkpt>
      <trkpt lat="45.76872" lon="4.84034">
        <ele>165.19999694824</ele>
        <time>2014-10-05T08:48:19.000Z</time>
      </trkpt>
      <trkpt lat="45.7687" lon="4.84018">
        <ele>165.19999694824</ele>
        <time>2014-10-05T08:48:23.000Z</time>
      </trkpt>
      <trkpt lat="45.76871" lon="4.83992">
        <ele>165.60000610352</ele>
        <time>2014-10-05T08:48:29.000Z</time>
      </trkpt>
      <trkpt lat="45.76871" lon="4.83966">
        <ele>165.80000305176</ele>
        <time>2014-10-05T08:48:35.000Z</time>
      </trkpt>
      <trkpt lat="45.7687" lon="4.83957">
        <ele>166</ele>
        <time>2014-10-05T08:48:37.000Z</time>
      </trkpt>
      <trkpt lat="45.7687" lon="4.8393">
        <ele>167</ele>
        <time>2014-10-05T08:48:43.000Z</time>
      </trkpt>
      <trkpt lat="45.76871" lon="4.83927">
        <ele>167.39999389648</ele>
        <time>2014-10-05T08:48:44.000Z</time>
      </trkpt>
      <trkpt lat="45.7687" lon="4.83901">
        <ele>168.80000305176</ele>
        <time>2014-10-05T08:48:50.000Z</time>
      </trkpt>
      <trkpt lat="45.76869" lon="4.83875">
        <ele>170.39999389648</ele>
        <time>2014-10-05T08:48:56.000Z</time>
      </trkpt>
      <trkpt lat="45.76868" lon="4.83854">
        <ele>172.19999694824</ele>
        <time>2014-10-05T08:49:01.000Z</time>
      </trkpt>
      <trkpt lat="45.76868" lon="4.83841">
        <ele>173.39999389648</ele>
        <time>2014-10-05T08:49:04.000Z</time>
      </trkpt>
      <trkpt lat="45.76872" lon="4.83833">
        <ele>174.39999389648</ele>
        <time>2014-10-05T08:49:06.000Z</time>
      </trkpt>
      <trkpt lat="45.76875" lon="4.8383">
        <ele>174.80000305176</ele>
        <time>2014-10-05T08:49:07.000Z</time>
      </trkpt>
      <trkpt lat="45.76883" lon="4.83822">
        <ele>175.60000610352</ele>
        <time>2014-10-05T08:49:10.000Z</time>
      </trkpt>
      <trkpt lat="45.7689" lon="4.83805">
        <ele>177.39999389648</ele>
        <time>2014-10-05T08:49:14.000Z</time>
      </trkpt>
      <trkpt lat="45.76887" lon="4.83797">
        <ele>178.19999694824</ele>
        <time>2014-10-05T08:49:16.000Z</time>
      </trkpt>
      <trkpt lat="45.76885" lon="4.83793">
        <ele>178.60000610352</ele>
        <time>2014-10-05T08:49:17.000Z</time>
      </trkpt>
      <trkpt lat="45.76873" lon="4.83786">
        <ele>178.80000305176</ele>
        <time>2014-10-05T08:49:21.000Z</time>
      </trkpt>
      <trkpt lat="45.76858" lon="4.83784">
        <ele>178.60000610352</ele>
        <time>2014-10-05T08:49:26.000Z</time>
      </trkpt>
      <trkpt lat="45.76838" lon="4.83783">
        <ele>178.19999694824</ele>
        <time>2014-10-05T08:49:32.000Z</time>
      </trkpt>
      <trkpt lat="45.7683" lon="4.83783">
        <ele>178</ele>
        <time>2014-10-05T08:49:34.000Z</time>
      </trkpt>
      <trkpt lat="45.76813" lon="4.83783">
        <ele>177.60000610352</ele>
        <time>2014-10-05T08:49:39.000Z</time>
      </trkpt>
      <trkpt lat="45.7681" lon="4.83775">
        <ele>178</ele>
        <time>2014-10-05T08:49:41.000Z</time>
      </trkpt>
      <trkpt lat="45.7681" lon="4.8377">
        <ele>178.19999694824</ele>
        <time>2014-10-05T08:49:42.000Z</time>
      </trkpt>
      <trkpt lat="45.76809" lon="4.83753">
        <ele>179.19999694824</ele>
        <time>2014-10-05T08:49:46.000Z</time>
      </trkpt>
      <trkpt lat="45.7681" lon="4.83749">
        <ele>179.60000610352</ele>
        <time>2014-10-05T08:49:47.000Z</time>
      </trkpt>
      <trkpt lat="45.76813" lon="4.83742">
        <ele>180</ele>
        <time>2014-10-05T08:49:49.000Z</time>
      </trkpt>
      <trkpt lat="45.76817" lon="4.83734">
        <ele>180.60000610352</ele>
        <time>2014-10-05T08:49:51.000Z</time>
      </trkpt>
      <trkpt lat="45.76823" lon="4.83714">
        <ele>183</ele>
        <time>2014-10-05T08:49:56.000Z</time>
      </trkpt>
      <trkpt lat="45.76818" lon="4.83693">
        <ele>183.80000305176</ele>
        <time>2014-10-05T08:50:01.000Z</time>
      </trkpt>
      <trkpt lat="45.76821" lon="4.83672">
        <ele>184.19999694824</ele>
        <time>2014-10-05T08:50:06.000Z</time>
      </trkpt>
      <trkpt lat="45.76825" lon="4.83655">
        <ele>184.60000610352</ele>
        <time>2014-10-05T08:50:10.000Z</time>
      </trkpt>
      <trkpt lat="45.76826" lon="4.83646">
        <ele>184.80000305176</ele>
        <time>2014-10-05T08:50:12.000Z</time>
      </trkpt>
      <trkpt lat="45.76823" lon="4.8363">
        <ele>185.19999694824</ele>
        <time>2014-10-05T08:50:16.000Z</time>
      </trkpt>
      <trkpt lat="45.76808" lon="4.83607">
        <ele>183.39999389648</ele>
        <time>2014-10-05T08:50:22.000Z</time>
      </trkpt>
      <trkpt lat="45.76799" lon="4.83597">
        <ele>183</ele>
        <time>2014-10-05T08:50:26.000Z</time>
      </trkpt>
      <trkpt lat="45.76794" lon="4.83592">
        <ele>183</ele>
        <time>2014-10-05T08:50:29.000Z</time>
      </trkpt>
      <trkpt lat="45.76793" lon="4.83592">
        <ele>182.80000305176</ele>
        <time>2014-10-05T08:50:30.000Z</time>
      </trkpt>
      <trkpt lat="45.76785" lon="4.83585">
        <ele>182.80000305176</ele>
        <time>2014-10-05T08:50:35.000Z</time>
      </trkpt>
      <trkpt lat="45.76788" lon="4.83563">
        <ele>184</ele>
        <time>2014-10-05T08:50:40.000Z</time>
      </trkpt>
      <trkpt lat="45.76789" lon="4.83558">
        <ele>184.39999389648</ele>
        <time>2014-10-05T08:50:41.000Z</time>
      </trkpt>
      <trkpt lat="45.76788" lon="4.83539">
        <ele>185.19999694824</ele>
        <time>2014-10-05T08:50:44.000Z</time>
      </trkpt>
      <trkpt lat="45.76788" lon="4.83511">
        <ele>185.19999694824</ele>
        <time>2014-10-05T08:50:49.000Z</time>
      </trkpt>
      <trkpt lat="45.76787" lon="4.83484">
        <ele>186</ele>
        <time>2014-10-05T08:50:54.000Z</time>
      </trkpt>
      <trkpt lat="45.76784" lon="4.8346">
        <ele>186.60000610352</ele>
        <time>2014-10-05T08:50:59.000Z</time>
      </trkpt>
      <trkpt lat="45.76785" lon="4.83449">
        <ele>187.19999694824</ele>
        <time>2014-10-05T08:51:01.000Z</time>
      </trkpt>
      <trkpt lat="45.76782" lon="4.83435">
        <ele>187.39999389648</ele>
        <time>2014-10-05T08:51:03.000Z</time>
      </trkpt>
      <trkpt lat="45.76775" lon="4.83428">
        <ele>186.80000305176</ele>
        <time>2014-10-05T08:51:06.000Z</time>
      </trkpt>
      <trkpt lat="45.76761" lon="4.83414">
        <ele>185.80000305176</ele>
        <time>2014-10-05T08:51:10.000Z</time>
      </trkpt>
      <trkpt lat="45.76747" lon="4.834">
        <ele>184.80000305176</ele>
        <time>2014-10-05T08:51:15.000Z</time>
      </trkpt>
      <trkpt lat="45.76745" lon="4.83396">
        <ele>184.80000305176</ele>
        <time>2014-10-05T08:51:16.000Z</time>
      </trkpt>
      <trkpt lat="45.76742" lon="4.83395">
        <ele>184.39999389648</ele>
        <time>2014-10-05T08:51:18.000Z</time>
      </trkpt>
      <trkpt lat="45.76742" lon="4.83408">
        <ele>184</ele>
        <time>2014-10-05T08:51:22.000Z</time>
      </trkpt>
      <trkpt lat="45.76742" lon="4.8342">
        <ele>183.60000610352</ele>
        <time>2014-10-05T08:51:26.000Z</time>
      </trkpt>
      <trkpt lat="45.76736" lon="4.83431">
        <ele>182.60000610352</ele>
        <time>2014-10-05T08:51:30.000Z</time>
      </trkpt>
      <trkpt lat="45.76736" lon="4.83447">
        <ele>181.80000305176</ele>
        <time>2014-10-05T08:51:34.000Z</time>
      </trkpt>
      <trkpt lat="45.76741" lon="4.83473">
        <ele>181.39999389648</ele>
        <time>2014-10-05T08:51:40.000Z</time>
      </trkpt>
      <trkpt lat="45.76746" lon="4.83491">
        <ele>182</ele>
        <time>2014-10-05T08:51:45.000Z</time>
      </trkpt>
      <trkpt lat="45.76751" lon="4.8351">
        <ele>182.80000305176</ele>
        <time>2014-10-05T08:51:50.000Z</time>
      </trkpt>
      <trkpt lat="45.76756" lon="4.83535">
        <ele>183.60000610352</ele>
        <time>2014-10-05T08:51:57.000Z</time>
      </trkpt>
      <trkpt lat="45.76756" lon="4.83542">
        <ele>183.60000610352</ele>
        <time>2014-10-05T08:51:59.000Z</time>
      </trkpt>
      <trkpt lat="45.76759" lon="4.83553">
        <ele>183.19999694824</ele>
        <time>2014-10-05T08:52:02.000Z</time>
      </trkpt>
      <trkpt lat="45.76766" lon="4.83567">
        <ele>182.80000305176</ele>
        <time>2014-10-05T08:52:07.000Z</time>
      </trkpt>
      <trkpt lat="45.76758" lon="4.83571">
        <ele>182.19999694824</ele>
        <time>2014-10-05T08:52:10.000Z</time>
      </trkpt>
      <trkpt lat="45.76744" lon="4.83576">
        <ele>182</ele>
        <time>2014-10-05T08:52:14.000Z</time>
      </trkpt>
      <trkpt lat="45.76741" lon="4.83577">
        <ele>182</ele>
        <time>2014-10-05T08:52:15.000Z</time>
      </trkpt>
      <trkpt lat="45.76723" lon="4.8358">
        <ele>182</ele>
        <time>2014-10-05T08:52:20.000Z</time>
      </trkpt>
      <trkpt lat="45.76715" lon="4.83582">
        <ele>182.39999389648</ele>
        <time>2014-10-05T08:52:23.000Z</time>
      </trkpt>
      <trkpt lat="45.76711" lon="4.83584">
        <ele>182.39999389648</ele>
        <time>2014-10-05T08:52:24.000Z</time>
      </trkpt>
      <trkpt lat="45.76697" lon="4.83587">
        <ele>183.19999694824</ele>
        <time>2014-10-05T08:52:28.000Z</time>
      </trkpt>
      <trkpt lat="45.76693" lon="4.83586">
        <ele>183.39999389648</ele>
        <time>2014-10-05T08:52:29.000Z</time>
      </trkpt>
      <trkpt lat="45.76684" lon="4.83584">
        <ele>183.80000305176</ele>
        <time>2014-10-05T08:52:32.000Z</time>
      </trkpt>
      <trkpt lat="45.76673" lon="4.83578">
        <ele>184.19999694824</ele>
        <time>2014-10-05T08:52:36.000Z</time>
      </trkpt>
      <trkpt lat="45.7667" lon="4.83579">
        <ele>184.19999694824</ele>
        <time>2014-10-05T08:52:37.000Z</time>
      </trkpt>
      <trkpt lat="45.7666" lon="4.83582">
        <ele>184.19999694824</ele>
        <time>2014-10-05T08:52:40.000Z</time>
      </trkpt>
      <trkpt lat="45.76642" lon="4.83585">
        <ele>184.19999694824</ele>
        <time>2014-10-05T08:52:45.000Z</time>
      </trkpt>
      <trkpt lat="45.76628" lon="4.8359">
        <ele>184</ele>
        <time>2014-10-05T08:52:48.000Z</time>
      </trkpt>
      <trkpt lat="45.7662" lon="4.8359">
        <ele>184</ele>
        <time>2014-10-05T08:52:51.000Z</time>
      </trkpt>
      <trkpt lat="45.76616" lon="4.8359">
        <ele>184</ele>
        <time>2014-10-05T08:52:52.000Z</time>
      </trkpt>
      <trkpt lat="45.76599" lon="4.83594">
        <ele>183.60000610352</ele>
        <time>2014-10-05T08:52:57.000Z</time>
      </trkpt>
      <trkpt lat="45.76584" lon="4.83591">
        <ele>183.80000305176</ele>
        <time>2014-10-05T08:53:02.000Z</time>
      </trkpt>
      <trkpt lat="45.76576" lon="4.83593">
        <ele>183.80000305176</ele>
        <time>2014-10-05T08:53:04.000Z</time>
      </trkpt>
      <trkpt lat="45.76571" lon="4.83593">
        <ele>183.80000305176</ele>
        <time>2014-10-05T08:53:06.000Z</time>
      </trkpt>
      <trkpt lat="45.76569" lon="4.83591">
        <ele>183.80000305176</ele>
        <time>2014-10-05T08:53:07.000Z</time>
      </trkpt>
      <trkpt lat="45.7656" lon="4.83592">
        <ele>183.80000305176</ele>
        <time>2014-10-05T08:53:10.000Z</time>
      </trkpt>
      <trkpt lat="45.76554" lon="4.83587">
        <ele>183.80000305176</ele>
        <time>2014-10-05T08:53:12.000Z</time>
      </trkpt>
      <trkpt lat="45.76552" lon="4.83588">
        <ele>183.80000305176</ele>
        <time>2014-10-05T08:53:13.000Z</time>
      </trkpt>
      <trkpt lat="45.76546" lon="4.83588">
        <ele>183.60000610352</ele>
        <time>2014-10-05T08:53:16.000Z</time>
      </trkpt>
      <trkpt lat="45.76544" lon="4.83589">
        <ele>183.39999389648</ele>
        <time>2014-10-05T08:53:17.000Z</time>
      </trkpt>
      <trkpt lat="45.7654" lon="4.83586">
        <ele>183.39999389648</ele>
        <time>2014-10-05T08:53:18.000Z</time>
      </trkpt>
      <trkpt lat="45.7653" lon="4.83585">
        <ele>183</ele>
        <time>2014-10-05T08:53:21.000Z</time>
      </trkpt>
      <trkpt lat="45.76524" lon="4.83585">
        <ele>182.80000305176</ele>
        <time>2014-10-05T08:53:23.000Z</time>
      </trkpt>
      <trkpt lat="45.76507" lon="4.83586">
        <ele>181.80000305176</ele>
        <time>2014-10-05T08:53:28.000Z</time>
      </trkpt>
      <trkpt lat="45.76495" lon="4.83584">
        <ele>181</ele>
        <time>2014-10-05T08:53:31.000Z</time>
      </trkpt>
      <trkpt lat="45.76492" lon="4.83584">
        <ele>180.80000305176</ele>
        <time>2014-10-05T08:53:32.000Z</time>
      </trkpt>
      <trkpt lat="45.76471" lon="4.83589">
        <ele>179</ele>
        <time>2014-10-05T08:53:37.000Z</time>
      </trkpt>
      <trkpt lat="45.76458" lon="4.83593">
        <ele>178.80000305176</ele>
        <time>2014-10-05T08:53:41.000Z</time>
      </trkpt>
      <trkpt lat="45.76439" lon="4.83598">
        <ele>178.60000610352</ele>
        <time>2014-10-05T08:53:46.000Z</time>
      </trkpt>
      <trkpt lat="45.76419" lon="4.83597">
        <ele>179.19999694824</ele>
        <time>2014-10-05T08:53:52.000Z</time>
      </trkpt>
      <trkpt lat="45.76412" lon="4.83594">
        <ele>179.39999389648</ele>
        <time>2014-10-05T08:53:56.000Z</time>
      </trkpt>
      <trkpt lat="45.76405" lon="4.83588">
        <ele>179.80000305176</ele>
        <time>2014-10-05T08:54:00.000Z</time>
      </trkpt>
      <trkpt lat="45.76403" lon="4.83587">
        <ele>179.80000305176</ele>
        <time>2014-10-05T08:54:01.000Z</time>
      </trkpt>
      <trkpt lat="45.76392" lon="4.8359">
        <ele>180</ele>
        <time>2014-10-05T08:54:05.000Z</time>
      </trkpt>
      <trkpt lat="45.76383" lon="4.83594">
        <ele>180.19999694824</ele>
        <time>2014-10-05T08:54:08.000Z</time>
      </trkpt>
      <trkpt lat="45.7638" lon="4.83595">
        <ele>180.19999694824</ele>
        <time>2014-10-05T08:54:09.000Z</time>
      </trkpt>
      <trkpt lat="45.76376" lon="4.83595">
        <ele>180.19999694824</ele>
        <time>2014-10-05T08:54:10.000Z</time>
      </trkpt>
      <trkpt lat="45.76367" lon="4.83593">
        <ele>180.60000610352</ele>
        <time>2014-10-05T08:54:12.000Z</time>
      </trkpt>
      <trkpt lat="45.76353" lon="4.83589">
        <ele>181</ele>
        <time>2014-10-05T08:54:16.000Z</time>
      </trkpt>
      <trkpt lat="45.76335" lon="4.83585">
        <ele>181.19999694824</ele>
        <time>2014-10-05T08:54:21.000Z</time>
      </trkpt>
      <trkpt lat="45.76319" lon="4.83578">
        <ele>181.60000610352</ele>
        <time>2014-10-05T08:54:25.000Z</time>
      </trkpt>
      <trkpt lat="45.7631" lon="4.83574">
        <ele>181.80000305176</ele>
        <time>2014-10-05T08:54:28.000Z</time>
      </trkpt>
      <trkpt lat="45.76302" lon="4.83573">
        <ele>182</ele>
        <time>2014-10-05T08:54:31.000Z</time>
      </trkpt>
      <trkpt lat="45.76299" lon="4.83573">
        <ele>182</ele>
        <time>2014-10-05T08:54:32.000Z</time>
      </trkpt>
      <trkpt lat="45.76281" lon="4.83577">
        <ele>181.60000610352</ele>
        <time>2014-10-05T08:54:37.000Z</time>
      </trkpt>
      <trkpt lat="45.76275" lon="4.83577">
        <ele>181.80000305176</ele>
        <time>2014-10-05T08:54:40.000Z</time>
      </trkpt>
      <trkpt lat="45.7627" lon="4.83579">
        <ele>181.60000610352</ele>
        <time>2014-10-05T08:54:42.000Z</time>
      </trkpt>
      <trkpt lat="45.76256" lon="4.83579">
        <ele>181.60000610352</ele>
        <time>2014-10-05T08:54:48.000Z</time>
      </trkpt>
      <trkpt lat="45.76253" lon="4.8358">
        <ele>181.60000610352</ele>
        <time>2014-10-05T08:54:49.000Z</time>
      </trkpt>
      <trkpt lat="45.76241" lon="4.83577">
        <ele>182</ele>
        <time>2014-10-05T08:54:53.000Z</time>
      </trkpt>
      <trkpt lat="45.76231" lon="4.83575">
        <ele>182.19999694824</ele>
        <time>2014-10-05T08:54:57.000Z</time>
      </trkpt>
      <trkpt lat="45.76225" lon="4.8357">
        <ele>182.39999389648</ele>
        <time>2014-10-05T08:54:59.000Z</time>
      </trkpt>
      <trkpt lat="45.76222" lon="4.83569">
        <ele>182.60000610352</ele>
        <time>2014-10-05T08:55:00.000Z</time>
      </trkpt>
      <trkpt lat="45.76211" lon="4.8357">
        <ele>182.19999694824</ele>
        <time>2014-10-05T08:55:04.000Z</time>
      </trkpt>
      <trkpt lat="45.76205" lon="4.83569">
        <ele>182.19999694824</ele>
        <time>2014-10-05T08:55:07.000Z</time>
      </trkpt>
      <trkpt lat="45.76196" lon="4.8357">
        <ele>181.80000305176</ele>
        <time>2014-10-05T08:55:10.000Z</time>
      </trkpt>
      <trkpt lat="45.76179" lon="4.83568">
        <ele>181.60000610352</ele>
        <time>2014-10-05T08:55:15.000Z</time>
      </trkpt>
      <trkpt lat="45.76174" lon="4.83569">
        <ele>181.39999389648</ele>
        <time>2014-10-05T08:55:17.000Z</time>
      </trkpt>
      <trkpt lat="45.76167" lon="4.83572">
        <ele>181.19999694824</ele>
        <time>2014-10-05T08:55:19.000Z</time>
      </trkpt>
      <trkpt lat="45.76152" lon="4.83566">
        <ele>181.39999389648</ele>
        <time>2014-10-05T08:55:25.000Z</time>
      </trkpt>
      <trkpt lat="45.7615" lon="4.83563">
        <ele>181.39999389648</ele>
        <time>2014-10-05T08:55:26.000Z</time>
      </trkpt>
      <trkpt lat="45.76143" lon="4.83557">
        <ele>181.60000610352</ele>
        <time>2014-10-05T08:55:28.000Z</time>
      </trkpt>
      <trkpt lat="45.76139" lon="4.83554">
        <ele>181.60000610352</ele>
        <time>2014-10-05T08:55:29.000Z</time>
      </trkpt>
      <trkpt lat="45.76123" lon="4.83548">
        <ele>181.19999694824</ele>
        <time>2014-10-05T08:55:33.000Z</time>
      </trkpt>
      <trkpt lat="45.76109" lon="4.83544">
        <ele>180.80000305176</ele>
        <time>2014-10-05T08:55:37.000Z</time>
      </trkpt>
      <trkpt lat="45.76105" lon="4.83543">
        <ele>180.80000305176</ele>
        <time>2014-10-05T08:55:38.000Z</time>
      </trkpt>
      <trkpt lat="45.76085" lon="4.8354">
        <ele>180</ele>
        <time>2014-10-05T08:55:44.000Z</time>
      </trkpt>
      <trkpt lat="45.76066" lon="4.83541">
        <ele>179.39999389648</ele>
        <time>2014-10-05T08:55:49.000Z</time>
      </trkpt>
      <trkpt lat="45.76051" lon="4.83548">
        <ele>179</ele>
        <time>2014-10-05T08:55:53.000Z</time>
      </trkpt>
      <trkpt lat="45.76032" lon="4.8355">
        <ele>179.60000610352</ele>
        <time>2014-10-05T08:55:59.000Z</time>
      </trkpt>
      <trkpt lat="45.76028" lon="4.83549">
        <ele>179.80000305176</ele>
        <time>2014-10-05T08:56:01.000Z</time>
      </trkpt>
      <trkpt lat="45.76027" lon="4.83542">
        <ele>180</ele>
        <time>2014-10-05T08:56:03.000Z</time>
      </trkpt>
      <trkpt lat="45.76029" lon="4.8352">
        <ele>180</ele>
        <time>2014-10-05T08:56:08.000Z</time>
      </trkpt>
      <trkpt lat="45.76028" lon="4.83504">
        <ele>180</ele>
        <time>2014-10-05T08:56:12.000Z</time>
      </trkpt>
      <trkpt lat="45.76028" lon="4.8349">
        <ele>180.19999694824</ele>
        <time>2014-10-05T08:56:15.000Z</time>
      </trkpt>
      <trkpt lat="45.7603" lon="4.83483">
        <ele>180.19999694824</ele>
        <time>2014-10-05T08:56:16.000Z</time>
      </trkpt>
      <trkpt lat="45.76031" lon="4.83477">
        <ele>180.39999389648</ele>
        <time>2014-10-05T08:56:17.000Z</time>
      </trkpt>
      <trkpt lat="45.76034" lon="4.83448">
        <ele>180.60000610352</ele>
        <time>2014-10-05T08:56:22.000Z</time>
      </trkpt>
      <trkpt lat="45.76035" lon="4.83426">
        <ele>180.80000305176</ele>
        <time>2014-10-05T08:56:26.000Z</time>
      </trkpt>
      <trkpt lat="45.76035" lon="4.83421">
        <ele>180.60000610352</ele>
        <time>2014-10-05T08:56:27.000Z</time>
      </trkpt>
      <trkpt lat="45.76035" lon="4.83398">
        <ele>180</ele>
        <time>2014-10-05T08:56:32.000Z</time>
      </trkpt>
      <trkpt lat="45.76037" lon="4.83377">
        <ele>179.39999389648</ele>
        <time>2014-10-05T08:56:36.000Z</time>
      </trkpt>
      <trkpt lat="45.76037" lon="4.83351">
        <ele>180</ele>
        <time>2014-10-05T08:56:41.000Z</time>
      </trkpt>
      <trkpt lat="45.76037" lon="4.83333">
        <ele>180.60000610352</ele>
        <time>2014-10-05T08:56:45.000Z</time>
      </trkpt>
      <trkpt lat="45.76032" lon="4.83315">
        <ele>181.80000305176</ele>
        <time>2014-10-05T08:56:49.000Z</time>
      </trkpt>
      <trkpt lat="45.76026" lon="4.83315">
        <ele>182.19999694824</ele>
        <time>2014-10-05T08:56:51.000Z</time>
      </trkpt>
      <trkpt lat="45.76021" lon="4.83311">
        <ele>182.60000610352</ele>
        <time>2014-10-05T08:56:53.000Z</time>
      </trkpt>
      <trkpt lat="45.76018" lon="4.83303">
        <ele>183.19999694824</ele>
        <time>2014-10-05T08:56:55.000Z</time>
      </trkpt>
      <trkpt lat="45.76014" lon="4.83295">
        <ele>183.60000610352</ele>
        <time>2014-10-05T08:56:57.000Z</time>
      </trkpt>
      <trkpt lat="45.76009" lon="4.83265">
        <ele>182.80000305176</ele>
        <time>2014-10-05T08:57:03.000Z</time>
      </trkpt>
      <trkpt lat="45.76005" lon="4.83256">
        <ele>182.60000610352</ele>
        <time>2014-10-05T08:57:05.000Z</time>
      </trkpt>
      <trkpt lat="45.76" lon="4.83252">
        <ele>182.80000305176</ele>
        <time>2014-10-05T08:57:07.000Z</time>
      </trkpt>
      <trkpt lat="45.75992" lon="4.83243">
        <ele>182.80000305176</ele>
        <time>2014-10-05T08:57:11.000Z</time>
      </trkpt>
      <trkpt lat="45.75987" lon="4.83238">
        <ele>182.80000305176</ele>
        <time>2014-10-05T08:57:13.000Z</time>
      </trkpt>
      <trkpt lat="45.75979" lon="4.83229">
        <ele>182.80000305176</ele>
        <time>2014-10-05T08:57:16.000Z</time>
      </trkpt>
      <trkpt lat="45.75966" lon="4.83218">
        <ele>182.60000610352</ele>
        <time>2014-10-05T08:57:21.000Z</time>
      </trkpt>
      <trkpt lat="45.75956" lon="4.83208">
        <ele>181.80000305176</ele>
        <time>2014-10-05T08:57:25.000Z</time>
      </trkpt>
      <trkpt lat="45.75946" lon="4.832">
        <ele>181.19999694824</ele>
        <time>2014-10-05T08:57:28.000Z</time>
      </trkpt>
      <trkpt lat="45.7594" lon="4.83198">
        <ele>181</ele>
        <time>2014-10-05T08:57:31.000Z</time>
      </trkpt>
      <trkpt lat="45.75935" lon="4.83201">
        <ele>181</ele>
        <time>2014-10-05T08:57:34.000Z</time>
      </trkpt>
      <trkpt lat="45.75941" lon="4.83188">
        <ele>180.80000305176</ele>
        <time>2014-10-05T08:57:36.000Z</time>
      </trkpt>
      <trkpt lat="45.75942" lon="4.83183">
        <ele>180.80000305176</ele>
        <time>2014-10-05T08:57:37.000Z</time>
      </trkpt>
      <trkpt lat="45.75952" lon="4.83158">
        <ele>179</ele>
        <time>2014-10-05T08:57:42.000Z</time>
      </trkpt>
      <trkpt lat="45.75959" lon="4.83142">
        <ele>177.60000610352</ele>
        <time>2014-10-05T08:57:46.000Z</time>
      </trkpt>
      <trkpt lat="45.75965" lon="4.83118">
        <ele>176</ele>
        <time>2014-10-05T08:57:51.000Z</time>
      </trkpt>
      <trkpt lat="45.75971" lon="4.83102">
        <ele>173.39999389648</ele>
        <time>2014-10-05T08:57:55.000Z</time>
      </trkpt>
      <trkpt lat="45.7598" lon="4.83085">
        <ele>170.60000610352</ele>
        <time>2014-10-05T08:58:00.000Z</time>
      </trkpt>
      <trkpt lat="45.75984" lon="4.83069">
        <ele>168.19999694824</ele>
        <time>2014-10-05T08:58:04.000Z</time>
      </trkpt>
      <trkpt lat="45.7599" lon="4.83045">
        <ele>165.39999389648</ele>
        <time>2014-10-05T08:58:10.000Z</time>
      </trkpt>
      <trkpt lat="45.75989" lon="4.83035">
        <ele>165</ele>
        <time>2014-10-05T08:58:12.000Z</time>
      </trkpt>
      <trkpt lat="45.75984" lon="4.83027">
        <ele>165</ele>
        <time>2014-10-05T08:58:14.000Z</time>
      </trkpt>
      <trkpt lat="45.75973" lon="4.83015">
        <ele>165</ele>
        <time>2014-10-05T08:58:17.000Z</time>
      </trkpt>
      <trkpt lat="45.75966" lon="4.83009">
        <ele>165.19999694824</ele>
        <time>2014-10-05T08:58:19.000Z</time>
      </trkpt>
      <trkpt lat="45.7595" lon="4.8299">
        <ele>166</ele>
        <time>2014-10-05T08:58:24.000Z</time>
      </trkpt>
      <trkpt lat="45.75933" lon="4.82974">
        <ele>166.80000305176</ele>
        <time>2014-10-05T08:58:30.000Z</time>
      </trkpt>
      <trkpt lat="45.75925" lon="4.82962">
        <ele>167.19999694824</ele>
        <time>2014-10-05T08:58:34.000Z</time>
      </trkpt>
      <trkpt lat="45.75916" lon="4.82942">
        <ele>167</ele>
        <time>2014-10-05T08:58:40.000Z</time>
      </trkpt>
      <trkpt lat="45.75905" lon="4.8293">
        <ele>167</ele>
        <time>2014-10-05T08:58:45.000Z</time>
      </trkpt>
      <trkpt lat="45.75892" lon="4.82917">
        <ele>167</ele>
        <time>2014-10-05T08:58:50.000Z</time>
      </trkpt>
      <trkpt lat="45.7588" lon="4.82903">
        <ele>167.19999694824</ele>
        <time>2014-10-05T08:58:55.000Z</time>
      </trkpt>
      <trkpt lat="45.75865" lon="4.82886">
        <ele>167.60000610352</ele>
        <time>2014-10-05T08:59:01.000Z</time>
      </trkpt>
      <trkpt lat="45.75854" lon="4.82874">
        <ele>168</ele>
        <time>2014-10-05T08:59:06.000Z</time>
      </trkpt>
      <trkpt lat="45.7584" lon="4.82861">
        <ele>168</ele>
        <time>2014-10-05T08:59:11.000Z</time>
      </trkpt>
      <trkpt lat="45.75823" lon="4.82846">
        <ele>168.19999694824</ele>
        <time>2014-10-05T08:59:17.000Z</time>
      </trkpt>
      <trkpt lat="45.75807" lon="4.8283">
        <ele>168.19999694824</ele>
        <time>2014-10-05T08:59:23.000Z</time>
      </trkpt>
      <trkpt lat="45.75803" lon="4.82828">
        <ele>168.60000610352</ele>
        <time>2014-10-05T08:59:24.000Z</time>
      </trkpt>
      <trkpt lat="45.75788" lon="4.82817">
        <ele>169.60000610352</ele>
        <time>2014-10-05T08:59:29.000Z</time>
      </trkpt>
      <trkpt lat="45.75772" lon="4.82801">
        <ele>170.39999389648</ele>
        <time>2014-10-05T08:59:35.000Z</time>
      </trkpt>
      <trkpt lat="45.7577" lon="4.82798">
        <ele>170.19999694824</ele>
        <time>2014-10-05T08:59:36.000Z</time>
      </trkpt>
      <trkpt lat="45.75762" lon="4.82784">
        <ele>170</ele>
        <time>2014-10-05T08:59:40.000Z</time>
      </trkpt>
      <trkpt lat="45.75748" lon="4.82773">
        <ele>170.39999389648</ele>
        <time>2014-10-05T08:59:45.000Z</time>
      </trkpt>
      <trkpt lat="45.75733" lon="4.82757">
        <ele>170.19999694824</ele>
        <time>2014-10-05T08:59:51.000Z</time>
      </trkpt>
      <trkpt lat="45.75731" lon="4.82754">
        <ele>170.19999694824</ele>
        <time>2014-10-05T08:59:52.000Z</time>
      </trkpt>
      <trkpt lat="45.75717" lon="4.82738">
        <ele>169.60000610352</ele>
        <time>2014-10-05T08:59:58.000Z</time>
      </trkpt>
      <trkpt lat="45.75705" lon="4.82724">
        <ele>168.80000305176</ele>
        <time>2014-10-05T09:00:03.000Z</time>
      </trkpt>
      <trkpt lat="45.7569" lon="4.82708">
        <ele>167.80000305176</ele>
        <time>2014-10-05T09:00:09.000Z</time>
      </trkpt>
      <trkpt lat="45.75676" lon="4.82692">
        <ele>167.60000610352</ele>
        <time>2014-10-05T09:00:15.000Z</time>
      </trkpt>
      <trkpt lat="45.75662" lon="4.82673">
        <ele>167.19999694824</ele>
        <time>2014-10-05T09:00:21.000Z</time>
      </trkpt>
      <trkpt lat="45.75659" lon="4.8267">
        <ele>167.19999694824</ele>
        <time>2014-10-05T09:00:22.000Z</time>
      </trkpt>
      <trkpt lat="45.75644" lon="4.82655">
        <ele>167.19999694824</ele>
        <time>2014-10-05T09:00:28.000Z</time>
      </trkpt>
      <trkpt lat="45.75639" lon="4.8265">
        <ele>167.19999694824</ele>
        <time>2014-10-05T09:00:30.000Z</time>
      </trkpt>
      <trkpt lat="45.75628" lon="4.82639">
        <ele>167.60000610352</ele>
        <time>2014-10-05T09:00:34.000Z</time>
      </trkpt>
      <trkpt lat="45.75611" lon="4.82628">
        <ele>168.80000305176</ele>
        <time>2014-10-05T09:00:40.000Z</time>
      </trkpt>
      <trkpt lat="45.75598" lon="4.82618">
        <ele>169.39999389648</ele>
        <time>2014-10-05T09:00:45.000Z</time>
      </trkpt>
      <trkpt lat="45.75587" lon="4.82615">
        <ele>170.19999694824</ele>
        <time>2014-10-05T09:00:49.000Z</time>
      </trkpt>
      <trkpt lat="45.75573" lon="4.82612">
        <ele>171.60000610352</ele>
        <time>2014-10-05T09:00:54.000Z</time>
      </trkpt>
      <trkpt lat="45.75566" lon="4.82607">
        <ele>171.80000305176</ele>
        <time>2014-10-05T09:00:57.000Z</time>
      </trkpt>
      <trkpt lat="45.75554" lon="4.82605">
        <ele>173</ele>
        <time>2014-10-05T09:01:02.000Z</time>
      </trkpt>
      <trkpt lat="45.75541" lon="4.82601">
        <ele>172.39999389648</ele>
        <time>2014-10-05T09:01:07.000Z</time>
      </trkpt>
      <trkpt lat="45.7553" lon="4.826">
        <ele>172.60000610352</ele>
        <time>2014-10-05T09:01:11.000Z</time>
      </trkpt>
      <trkpt lat="45.75514" lon="4.82594">
        <ele>172.39999389648</ele>
        <time>2014-10-05T09:01:16.000Z</time>
      </trkpt>
      <trkpt lat="45.755" lon="4.8259">
        <ele>172.39999389648</ele>
        <time>2014-10-05T09:01:21.000Z</time>
      </trkpt>
      <trkpt lat="45.75487" lon="4.82585">
        <ele>172.39999389648</ele>
        <time>2014-10-05T09:01:26.000Z</time>
      </trkpt>
      <trkpt lat="45.75471" lon="4.82577">
        <ele>171.80000305176</ele>
        <time>2014-10-05T09:01:31.000Z</time>
      </trkpt>
      <trkpt lat="45.75453" lon="4.82571">
        <ele>170.80000305176</ele>
        <time>2014-10-05T09:01:36.000Z</time>
      </trkpt>
      <trkpt lat="45.75438" lon="4.82562">
        <ele>169.19999694824</ele>
        <time>2014-10-05T09:01:41.000Z</time>
      </trkpt>
      <trkpt lat="45.75426" lon="4.82555">
        <ele>168</ele>
        <time>2014-10-05T09:01:46.000Z</time>
      </trkpt>
      <trkpt lat="45.7541" lon="4.82546">
        <ele>166.39999389648</ele>
        <time>2014-10-05T09:01:51.000Z</time>
      </trkpt>
      <trkpt lat="45.75393" lon="4.82538">
        <ele>165</ele>
        <time>2014-10-05T09:01:56.000Z</time>
      </trkpt>
      <trkpt lat="45.7539" lon="4.82536">
        <ele>165</ele>
        <time>2014-10-05T09:01:57.000Z</time>
      </trkpt>
      <trkpt lat="45.75372" lon="4.82526">
        <ele>165.19999694824</ele>
        <time>2014-10-05T09:02:03.000Z</time>
      </trkpt>
      <trkpt lat="45.75353" lon="4.82516">
        <ele>165.80000305176</ele>
        <time>2014-10-05T09:02:09.000Z</time>
      </trkpt>
      <trkpt lat="45.75335" lon="4.82507">
        <ele>166.39999389648</ele>
        <time>2014-10-05T09:02:14.000Z</time>
      </trkpt>
      <trkpt lat="45.75323" lon="4.82497">
        <ele>166.60000610352</ele>
        <time>2014-10-05T09:02:19.000Z</time>
      </trkpt>
      <trkpt lat="45.7531" lon="4.82489">
        <ele>167</ele>
        <time>2014-10-05T09:02:23.000Z</time>
      </trkpt>
      <trkpt lat="45.75296" lon="4.82478">
        <ele>167.19999694824</ele>
        <time>2014-10-05T09:02:28.000Z</time>
      </trkpt>
      <trkpt lat="45.7528" lon="4.8247">
        <ele>167.80000305176</ele>
        <time>2014-10-05T09:02:33.000Z</time>
      </trkpt>
      <trkpt lat="45.75266" lon="4.82463">
        <ele>168.19999694824</ele>
        <time>2014-10-05T09:02:37.000Z</time>
      </trkpt>
      <trkpt lat="45.75251" lon="4.82454">
        <ele>168.60000610352</ele>
        <time>2014-10-05T09:02:42.000Z</time>
      </trkpt>
      <trkpt lat="45.75238" lon="4.82446">
        <ele>169.19999694824</ele>
        <time>2014-10-05T09:02:47.000Z</time>
      </trkpt>
      <trkpt lat="45.75227" lon="4.82441">
        <ele>169.39999389648</ele>
        <time>2014-10-05T09:02:51.000Z</time>
      </trkpt>
      <trkpt lat="45.75213" lon="4.82432">
        <ele>169.80000305176</ele>
        <time>2014-10-05T09:02:56.000Z</time>
      </trkpt>
      <trkpt lat="45.75199" lon="4.82428">
        <ele>170.39999389648</ele>
        <time>2014-10-05T09:03:00.000Z</time>
      </trkpt>
      <trkpt lat="45.75189" lon="4.82423">
        <ele>170.60000610352</ele>
        <time>2014-10-05T09:03:04.000Z</time>
      </trkpt>
      <trkpt lat="45.75169" lon="4.82412">
        <ele>170.60000610352</ele>
        <time>2014-10-05T09:03:10.000Z</time>
      </trkpt>
      <trkpt lat="45.75159" lon="4.82396">
        <ele>170.39999389648</ele>
        <time>2014-10-05T09:03:15.000Z</time>
      </trkpt>
      <trkpt lat="45.75154" lon="4.82381">
        <ele>169.60000610352</ele>
        <time>2014-10-05T09:03:20.000Z</time>
      </trkpt>
      <trkpt lat="45.75147" lon="4.82369">
        <ele>169.19999694824</ele>
        <time>2014-10-05T09:03:24.000Z</time>
      </trkpt>
      <trkpt lat="45.75139" lon="4.82358">
        <ele>169</ele>
        <time>2014-10-05T09:03:28.000Z</time>
      </trkpt>
      <trkpt lat="45.75128" lon="4.82338">
        <ele>168</ele>
        <time>2014-10-05T09:03:34.000Z</time>
      </trkpt>
      <trkpt lat="45.75122" lon="4.82327">
        <ele>167.39999389648</ele>
        <time>2014-10-05T09:03:38.000Z</time>
      </trkpt>
      <trkpt lat="45.75109" lon="4.82321">
        <ele>167.19999694824</ele>
        <time>2014-10-05T09:03:42.000Z</time>
      </trkpt>
      <trkpt lat="45.75101" lon="4.82309">
        <ele>166.60000610352</ele>
        <time>2014-10-05T09:03:47.000Z</time>
      </trkpt>
      <trkpt lat="45.75091" lon="4.82295">
        <ele>166</ele>
        <time>2014-10-05T09:03:52.000Z</time>
      </trkpt>
      <trkpt lat="45.75077" lon="4.82279">
        <ele>165.60000610352</ele>
        <time>2014-10-05T09:03:57.000Z</time>
      </trkpt>
      <trkpt lat="45.75074" lon="4.82276">
        <ele>165.60000610352</ele>
        <time>2014-10-05T09:03:58.000Z</time>
      </trkpt>
      <trkpt lat="45.75063" lon="4.82261">
        <ele>165.60000610352</ele>
        <time>2014-10-05T09:04:03.000Z</time>
      </trkpt>
      <trkpt lat="45.75049" lon="4.82245">
        <ele>165.60000610352</ele>
        <time>2014-10-05T09:04:08.000Z</time>
      </trkpt>
      <trkpt lat="45.75036" lon="4.82227">
        <ele>166</ele>
        <time>2014-10-05T09:04:14.000Z</time>
      </trkpt>
      <trkpt lat="45.75023" lon="4.82211">
        <ele>166.19999694824</ele>
        <time>2014-10-05T09:04:20.000Z</time>
      </trkpt>
      <trkpt lat="45.75007" lon="4.82204">
        <ele>166.60000610352</ele>
        <time>2014-10-05T09:04:26.000Z</time>
      </trkpt>
      <trkpt lat="45.75" lon="4.82196">
        <ele>166.60000610352</ele>
        <time>2014-10-05T09:04:30.000Z</time>
      </trkpt>
      <trkpt lat="45.74986" lon="4.82182">
        <ele>166.60000610352</ele>
        <time>2014-10-05T09:04:36.000Z</time>
      </trkpt>
      <trkpt lat="45.7497" lon="4.82164">
        <ele>166.60000610352</ele>
        <time>2014-10-05T09:04:42.000Z</time>
      </trkpt>
      <trkpt lat="45.74957" lon="4.82147">
        <ele>166.39999389648</ele>
        <time>2014-10-05T09:04:47.000Z</time>
      </trkpt>
      <trkpt lat="45.74945" lon="4.82133">
        <ele>166.39999389648</ele>
        <time>2014-10-05T09:04:52.000Z</time>
      </trkpt>
      <trkpt lat="45.74934" lon="4.82117">
        <ele>166</ele>
        <time>2014-10-05T09:04:57.000Z</time>
      </trkpt>
      <trkpt lat="45.74922" lon="4.82097">
        <ele>165.60000610352</ele>
        <time>2014-10-05T09:05:03.000Z</time>
      </trkpt>
      <trkpt lat="45.7492" lon="4.82093">
        <ele>165.39999389648</ele>
        <time>2014-10-05T09:05:04.000Z</time>
      </trkpt>
      <trkpt lat="45.74909" lon="4.82078">
        <ele>165</ele>
        <time>2014-10-05T09:05:09.000Z</time>
      </trkpt>
      <trkpt lat="45.74899" lon="4.82062">
        <ele>164.80000305176</ele>
        <time>2014-10-05T09:05:14.000Z</time>
      </trkpt>
      <trkpt lat="45.7489" lon="4.8205">
        <ele>164.39999389648</ele>
        <time>2014-10-05T09:05:18.000Z</time>
      </trkpt>
      <trkpt lat="45.7488" lon="4.82034">
        <ele>164.19999694824</ele>
        <time>2014-10-05T09:05:23.000Z</time>
      </trkpt>
      <trkpt lat="45.74878" lon="4.8203">
        <ele>164.19999694824</ele>
        <time>2014-10-05T09:05:24.000Z</time>
      </trkpt>
      <trkpt lat="45.74864" lon="4.82012">
        <ele>164.60000610352</ele>
        <time>2014-10-05T09:05:30.000Z</time>
      </trkpt>
      <trkpt lat="45.74852" lon="4.81994">
        <ele>165</ele>
        <time>2014-10-05T09:05:36.000Z</time>
      </trkpt>
      <trkpt lat="45.74839" lon="4.81975">
        <ele>165.39999389648</ele>
        <time>2014-10-05T09:05:42.000Z</time>
      </trkpt>
      <trkpt lat="45.74825" lon="4.81958">
        <ele>165.80000305176</ele>
        <time>2014-10-05T09:05:48.000Z</time>
      </trkpt>
      <trkpt lat="45.74823" lon="4.81955">
        <ele>165.80000305176</ele>
        <time>2014-10-05T09:05:49.000Z</time>
      </trkpt>
      <trkpt lat="45.74809" lon="4.81938">
        <ele>164.80000305176</ele>
        <time>2014-10-05T09:05:55.000Z</time>
      </trkpt>
      <trkpt lat="45.74804" lon="4.81933">
        <ele>164.60000610352</ele>
        <time>2014-10-05T09:05:57.000Z</time>
      </trkpt>
      <trkpt lat="45.74789" lon="4.81913">
        <ele>164.19999694824</ele>
        <time>2014-10-05T09:06:04.000Z</time>
      </trkpt>
      <trkpt lat="45.74775" lon="4.81895">
        <ele>163.80000305176</ele>
        <time>2014-10-05T09:06:10.000Z</time>
      </trkpt>
      <trkpt lat="45.74766" lon="4.81882">
        <ele>163.39999389648</ele>
        <time>2014-10-05T09:06:14.000Z</time>
      </trkpt>
      <trkpt lat="45.74762" lon="4.81876">
        <ele>163.19999694824</ele>
        <time>2014-10-05T09:06:16.000Z</time>
      </trkpt>
      <trkpt lat="45.74749" lon="4.81857">
        <ele>162.80000305176</ele>
        <time>2014-10-05T09:06:22.000Z</time>
      </trkpt>
      <trkpt lat="45.74734" lon="4.81841">
        <ele>162.39999389648</ele>
        <time>2014-10-05T09:06:28.000Z</time>
      </trkpt>
      <trkpt lat="45.74729" lon="4.81835">
        <ele>162.39999389648</ele>
        <time>2014-10-05T09:06:30.000Z</time>
      </trkpt>
      <trkpt lat="45.74712" lon="4.81821">
        <ele>162.19999694824</ele>
        <time>2014-10-05T09:06:36.000Z</time>
      </trkpt>
      <trkpt lat="45.74709" lon="4.81818">
        <ele>162</ele>
        <time>2014-10-05T09:06:37.000Z</time>
      </trkpt>
      <trkpt lat="45.74697" lon="4.81807">
        <ele>161.80000305176</ele>
        <time>2014-10-05T09:06:42.000Z</time>
      </trkpt>
      <trkpt lat="45.74689" lon="4.81802">
        <ele>161.60000610352</ele>
        <time>2014-10-05T09:06:45.000Z</time>
      </trkpt>
      <trkpt lat="45.74684" lon="4.818">
        <ele>161.60000610352</ele>
        <time>2014-10-05T09:06:47.000Z</time>
      </trkpt>
      <trkpt lat="45.74671" lon="4.81796">
        <ele>161.60000610352</ele>
        <time>2014-10-05T09:06:51.000Z</time>
      </trkpt>
      <trkpt lat="45.74665" lon="4.81793">
        <ele>161.60000610352</ele>
        <time>2014-10-05T09:06:53.000Z</time>
      </trkpt>
      <trkpt lat="45.74652" lon="4.81782">
        <ele>161.60000610352</ele>
        <time>2014-10-05T09:06:58.000Z</time>
      </trkpt>
      <trkpt lat="45.74639" lon="4.81769">
        <ele>162</ele>
        <time>2014-10-05T09:07:03.000Z</time>
      </trkpt>
      <trkpt lat="45.7463" lon="4.81748">
        <ele>162.39999389648</ele>
        <time>2014-10-05T09:07:09.000Z</time>
      </trkpt>
      <trkpt lat="45.74622" lon="4.81724">
        <ele>163</ele>
        <time>2014-10-05T09:07:15.000Z</time>
      </trkpt>
      <trkpt lat="45.74608" lon="4.81708">
        <ele>163.80000305176</ele>
        <time>2014-10-05T09:07:21.000Z</time>
      </trkpt>
      <trkpt lat="45.74592" lon="4.81694">
        <ele>164.39999389648</ele>
        <time>2014-10-05T09:07:27.000Z</time>
      </trkpt>
      <trkpt lat="45.74574" lon="4.81681">
        <ele>165</ele>
        <time>2014-10-05T09:07:34.000Z</time>
      </trkpt>
      <trkpt lat="45.74565" lon="4.81685">
        <ele>165.60000610352</ele>
        <time>2014-10-05T09:07:38.000Z</time>
      </trkpt>
      <trkpt lat="45.74558" lon="4.81698">
        <ele>166.60000610352</ele>
        <time>2014-10-05T09:07:42.000Z</time>
      </trkpt>
      <trkpt lat="45.74554" lon="4.81709">
        <ele>167</ele>
        <time>2014-10-05T09:07:45.000Z</time>
      </trkpt>
      <trkpt lat="45.74553" lon="4.81713">
        <ele>167.19999694824</ele>
        <time>2014-10-05T09:07:46.000Z</time>
      </trkpt>
      <trkpt lat="45.74545" lon="4.81734">
        <ele>167.19999694824</ele>
        <time>2014-10-05T09:07:52.000Z</time>
      </trkpt>
      <trkpt lat="45.74538" lon="4.81752">
        <ele>167.19999694824</ele>
        <time>2014-10-05T09:07:57.000Z</time>
      </trkpt>
      <trkpt lat="45.74532" lon="4.81771">
        <ele>167.39999389648</ele>
        <time>2014-10-05T09:08:02.000Z</time>
      </trkpt>
      <trkpt lat="45.74525" lon="4.8179">
        <ele>168</ele>
        <time>2014-10-05T09:08:07.000Z</time>
      </trkpt>
      <trkpt lat="45.74518" lon="4.81817">
        <ele>167.39999389648</ele>
        <time>2014-10-05T09:08:14.000Z</time>
      </trkpt>
      <trkpt lat="45.74513" lon="4.8182">
        <ele>167.19999694824</ele>
        <time>2014-10-05T09:08:16.000Z</time>
      </trkpt>
      <trkpt lat="45.7451" lon="4.81819">
        <ele>167</ele>
        <time>2014-10-05T09:08:17.000Z</time>
      </trkpt>
      <trkpt lat="45.745" lon="4.81809">
        <ele>166.80000305176</ele>
        <time>2014-10-05T09:08:21.000Z</time>
      </trkpt>
      <trkpt lat="45.74485" lon="4.81799">
        <ele>166.39999389648</ele>
        <time>2014-10-05T09:08:26.000Z</time>
      </trkpt>
      <trkpt lat="45.74469" lon="4.81786">
        <ele>166</ele>
        <time>2014-10-05T09:08:32.000Z</time>
      </trkpt>
      <trkpt lat="45.74466" lon="4.81784">
        <ele>166</ele>
        <time>2014-10-05T09:08:33.000Z</time>
      </trkpt>
      <trkpt lat="45.74453" lon="4.81775">
        <ele>166.19999694824</ele>
        <time>2014-10-05T09:08:38.000Z</time>
      </trkpt>
      <trkpt lat="45.74441" lon="4.81768">
        <ele>166.39999389648</ele>
        <time>2014-10-05T09:08:43.000Z</time>
      </trkpt>
      <trkpt lat="45.74429" lon="4.81756">
        <ele>166.60000610352</ele>
        <time>2014-10-05T09:08:47.000Z</time>
      </trkpt>
      <trkpt lat="45.74417" lon="4.81746">
        <ele>166.60000610352</ele>
        <time>2014-10-05T09:08:52.000Z</time>
      </trkpt>
      <trkpt lat="45.74417" lon="4.81746">
        <ele>166.60000610352</ele>
        <time>2014-10-05T09:08:53.000Z</time>
      </trkpt>
      <trkpt lat="45.7442" lon="4.81743">
        <ele>166.60000610352</ele>
        <time>2014-10-05T09:08:55.000Z</time>
      </trkpt>
      <trkpt lat="45.74428" lon="4.81727">
        <ele>165.60000610352</ele>
        <time>2014-10-05T09:08:59.000Z</time>
      </trkpt>
      <trkpt lat="45.74437" lon="4.81706">
        <ele>164</ele>
        <time>2014-10-05T09:09:04.000Z</time>
      </trkpt>
      <trkpt lat="45.74445" lon="4.81684">
        <ele>162.80000305176</ele>
        <time>2014-10-05T09:09:09.000Z</time>
      </trkpt>
      <trkpt lat="45.7445" lon="4.81656">
        <ele>162.19999694824</ele>
        <time>2014-10-05T09:09:15.000Z</time>
      </trkpt>
      <trkpt lat="45.74457" lon="4.8163">
        <ele>161.60000610352</ele>
        <time>2014-10-05T09:09:21.000Z</time>
      </trkpt>
      <trkpt lat="45.74467" lon="4.81607">
        <ele>161</ele>
        <time>2014-10-05T09:09:27.000Z</time>
      </trkpt>
      <trkpt lat="45.74475" lon="4.81582">
        <ele>160.60000610352</ele>
        <time>2014-10-05T09:09:33.000Z</time>
      </trkpt>
      <trkpt lat="45.74472" lon="4.81565">
        <ele>160.39999389648</ele>
        <time>2014-10-05T09:09:37.000Z</time>
      </trkpt>
      <trkpt lat="45.74458" lon="4.81553">
        <ele>160.60000610352</ele>
        <time>2014-10-05T09:09:42.000Z</time>
      </trkpt>
      <trkpt lat="45.74442" lon="4.81539">
        <ele>161</ele>
        <time>2014-10-05T09:09:48.000Z</time>
      </trkpt>
      <trkpt lat="45.74439" lon="4.81537">
        <ele>161.19999694824</ele>
        <time>2014-10-05T09:09:49.000Z</time>
      </trkpt>
      <trkpt lat="45.74423" lon="4.81523">
        <ele>162</ele>
        <time>2014-10-05T09:09:55.000Z</time>
      </trkpt>
      <trkpt lat="45.74415" lon="4.81516">
        <ele>162.60000610352</ele>
        <time>2014-10-05T09:09:58.000Z</time>
      </trkpt>
      <trkpt lat="45.744" lon="4.81507">
        <ele>163.39999389648</ele>
        <time>2014-10-05T09:10:03.000Z</time>
      </trkpt>
      <trkpt lat="45.74382" lon="4.81497">
        <ele>163.60000610352</ele>
        <time>2014-10-05T09:10:09.000Z</time>
      </trkpt>
      <trkpt lat="45.74369" lon="4.8149">
        <ele>162.60000610352</ele>
        <time>2014-10-05T09:10:14.000Z</time>
      </trkpt>
      <trkpt lat="45.7436" lon="4.81487">
        <ele>162</ele>
        <time>2014-10-05T09:10:17.000Z</time>
      </trkpt>
      <trkpt lat="45.74357" lon="4.81487">
        <ele>161.60000610352</ele>
        <time>2014-10-05T09:10:18.000Z</time>
      </trkpt>
      <trkpt lat="45.74345" lon="4.81496">
        <ele>160.60000610352</ele>
        <time>2014-10-05T09:10:22.000Z</time>
      </trkpt>
      <trkpt lat="45.74336" lon="4.81513">
        <ele>162.39999389648</ele>
        <time>2014-10-05T09:10:27.000Z</time>
      </trkpt>
      <trkpt lat="45.74326" lon="4.81536">
        <ele>165</ele>
        <time>2014-10-05T09:10:33.000Z</time>
      </trkpt>
      <trkpt lat="45.74325" lon="4.8154">
        <ele>165.19999694824</ele>
        <time>2014-10-05T09:10:34.000Z</time>
      </trkpt>
      <trkpt lat="45.74314" lon="4.81561">
        <ele>166</ele>
        <time>2014-10-05T09:10:40.000Z</time>
      </trkpt>
      <trkpt lat="45.7431" lon="4.81567">
        <ele>166.19999694824</ele>
        <time>2014-10-05T09:10:42.000Z</time>
      </trkpt>
      <trkpt lat="45.74302" lon="4.81587">
        <ele>166.60000610352</ele>
        <time>2014-10-05T09:10:47.000Z</time>
      </trkpt>
      <trkpt lat="45.74294" lon="4.81612">
        <ele>167.19999694824</ele>
        <time>2014-10-05T09:10:53.000Z</time>
      </trkpt>
      <trkpt lat="45.74287" lon="4.81627">
        <ele>168.19999694824</ele>
        <time>2014-10-05T09:10:57.000Z</time>
      </trkpt>
      <trkpt lat="45.7428" lon="4.81641">
        <ele>168.80000305176</ele>
        <time>2014-10-05T09:11:01.000Z</time>
      </trkpt>
      <trkpt lat="45.74278" lon="4.81642">
        <ele>169</ele>
        <time>2014-10-05T09:11:02.000Z</time>
      </trkpt>
      <trkpt lat="45.74271" lon="4.81635">
        <ele>169.39999389648</ele>
        <time>2014-10-05T09:11:05.000Z</time>
      </trkpt>
      <trkpt lat="45.74254" lon="4.81618">
        <ele>170.39999389648</ele>
        <time>2014-10-05T09:11:12.000Z</time>
      </trkpt>
      <trkpt lat="45.74238" lon="4.81604">
        <ele>170.60000610352</ele>
        <time>2014-10-05T09:11:18.000Z</time>
      </trkpt>
      <trkpt lat="45.7422" lon="4.81591">
        <ele>171.19999694824</ele>
        <time>2014-10-05T09:11:24.000Z</time>
      </trkpt>
      <trkpt lat="45.74209" lon="4.81577">
        <ele>169.80000305176</ele>
        <time>2014-10-05T09:11:29.000Z</time>
      </trkpt>
      <trkpt lat="45.74193" lon="4.81564">
        <ele>168.60000610352</ele>
        <time>2014-10-05T09:11:35.000Z</time>
      </trkpt>
      <trkpt lat="45.74183" lon="4.81553">
        <ele>167.60000610352</ele>
        <time>2014-10-05T09:11:39.000Z</time>
      </trkpt>
      <trkpt lat="45.74167" lon="4.81541">
        <ele>166.19999694824</ele>
        <time>2014-10-05T09:11:45.000Z</time>
      </trkpt>
      <trkpt lat="45.74155" lon="4.8153">
        <ele>165.39999389648</ele>
        <time>2014-10-05T09:11:50.000Z</time>
      </trkpt>
      <trkpt lat="45.74144" lon="4.81519">
        <ele>164.60000610352</ele>
        <time>2014-10-05T09:11:54.000Z</time>
      </trkpt>
      <trkpt lat="45.74128" lon="4.81505">
        <ele>163.80000305176</ele>
        <time>2014-10-05T09:12:00.000Z</time>
      </trkpt>
      <trkpt lat="45.74124" lon="4.81498">
        <ele>163.60000610352</ele>
        <time>2014-10-05T09:12:02.000Z</time>
      </trkpt>
      <trkpt lat="45.74122" lon="4.8148">
        <ele>162.80000305176</ele>
        <time>2014-10-05T09:12:06.000Z</time>
      </trkpt>
      <trkpt lat="45.74123" lon="4.81476">
        <ele>162.80000305176</ele>
        <time>2014-10-05T09:12:07.000Z</time>
      </trkpt>
      <trkpt lat="45.74131" lon="4.81455">
        <ele>162</ele>
        <time>2014-10-05T09:12:12.000Z</time>
      </trkpt>
      <trkpt lat="45.74134" lon="4.81435">
        <ele>162.80000305176</ele>
        <time>2014-10-05T09:12:17.000Z</time>
      </trkpt>
      <trkpt lat="45.74132" lon="4.81431">
        <ele>162.80000305176</ele>
        <time>2014-10-05T09:12:18.000Z</time>
      </trkpt>
      <trkpt lat="45.74126" lon="4.81428">
        <ele>163</ele>
        <time>2014-10-05T09:12:20.000Z</time>
      </trkpt>
      <trkpt lat="45.74109" lon="4.81424">
        <ele>163.19999694824</ele>
        <time>2014-10-05T09:12:26.000Z</time>
      </trkpt>
      <trkpt lat="45.74091" lon="4.81421">
        <ele>163.19999694824</ele>
        <time>2014-10-05T09:12:32.000Z</time>
      </trkpt>
      <trkpt lat="45.74075" lon="4.8142">
        <ele>163.19999694824</ele>
        <time>2014-10-05T09:12:38.000Z</time>
      </trkpt>
      <trkpt lat="45.74054" lon="4.81418">
        <ele>163.39999389648</ele>
        <time>2014-10-05T09:12:45.000Z</time>
      </trkpt>
      <trkpt lat="45.74035" lon="4.81417">
        <ele>163.39999389648</ele>
        <time>2014-10-05T09:12:51.000Z</time>
      </trkpt>
      <trkpt lat="45.74032" lon="4.81416">
        <ele>163.39999389648</ele>
        <time>2014-10-05T09:12:52.000Z</time>
      </trkpt>
      <trkpt lat="45.74015" lon="4.81414">
        <ele>163.39999389648</ele>
        <time>2014-10-05T09:12:58.000Z</time>
      </trkpt>
      <trkpt lat="45.74001" lon="4.81411">
        <ele>164</ele>
        <time>2014-10-05T09:13:03.000Z</time>
      </trkpt>
      <trkpt lat="45.73989" lon="4.81412">
        <ele>164.39999389648</ele>
        <time>2014-10-05T09:13:07.000Z</time>
      </trkpt>
      <trkpt lat="45.73975" lon="4.81414">
        <ele>164.80000305176</ele>
        <time>2014-10-05T09:13:12.000Z</time>
      </trkpt>
      <trkpt lat="45.73963" lon="4.81415">
        <ele>165</ele>
        <time>2014-10-05T09:13:16.000Z</time>
      </trkpt>
      <trkpt lat="45.73946" lon="4.81416">
        <ele>165</ele>
        <time>2014-10-05T09:13:22.000Z</time>
      </trkpt>
      <trkpt lat="45.73932" lon="4.81414">
        <ele>165</ele>
        <time>2014-10-05T09:13:28.000Z</time>
      </trkpt>
      <trkpt lat="45.7392" lon="4.81417">
        <ele>164.60000610352</ele>
        <time>2014-10-05T09:13:32.000Z</time>
      </trkpt>
      <trkpt lat="45.73901" lon="4.81419">
        <ele>164.19999694824</ele>
        <time>2014-10-05T09:13:38.000Z</time>
      </trkpt>
      <trkpt lat="45.73899" lon="4.8142">
        <ele>164.19999694824</ele>
        <time>2014-10-05T09:13:39.000Z</time>
      </trkpt>
      <trkpt lat="45.73886" lon="4.81423">
        <ele>163.80000305176</ele>
        <time>2014-10-05T09:13:43.000Z</time>
      </trkpt>
      <trkpt lat="45.73872" lon="4.81426">
        <ele>163.80000305176</ele>
        <time>2014-10-05T09:13:48.000Z</time>
      </trkpt>
      <trkpt lat="45.73857" lon="4.81428">
        <ele>163.80000305176</ele>
        <time>2014-10-05T09:13:53.000Z</time>
      </trkpt>
      <trkpt lat="45.73847" lon="4.8143">
        <ele>164.19999694824</ele>
        <time>2014-10-05T09:13:57.000Z</time>
      </trkpt>
      <trkpt lat="45.73836" lon="4.8143">
        <ele>164.60000610352</ele>
        <time>2014-10-05T09:14:01.000Z</time>
      </trkpt>
      <trkpt lat="45.73833" lon="4.81432">
        <ele>164.60000610352</ele>
        <time>2014-10-05T09:14:02.000Z</time>
      </trkpt>
      <trkpt lat="45.73816" lon="4.81434">
        <ele>165.39999389648</ele>
        <time>2014-10-05T09:14:07.000Z</time>
      </trkpt>
      <trkpt lat="45.73804" lon="4.81437">
        <ele>165.80000305176</ele>
        <time>2014-10-05T09:14:11.000Z</time>
      </trkpt>
      <trkpt lat="45.73788" lon="4.81443">
        <ele>165.80000305176</ele>
        <time>2014-10-05T09:14:16.000Z</time>
      </trkpt>
      <trkpt lat="45.73769" lon="4.81447">
        <ele>166</ele>
        <time>2014-10-05T09:14:23.000Z</time>
      </trkpt>
      <trkpt lat="45.73751" lon="4.81453">
        <ele>166</ele>
        <time>2014-10-05T09:14:29.000Z</time>
      </trkpt>
      <trkpt lat="45.73731" lon="4.81455">
        <ele>166</ele>
        <time>2014-10-05T09:14:35.000Z</time>
      </trkpt>
      <trkpt lat="45.73718" lon="4.8146">
        <ele>166</ele>
        <time>2014-10-05T09:14:40.000Z</time>
      </trkpt>
      <trkpt lat="45.73703" lon="4.81461">
        <ele>165.80000305176</ele>
        <time>2014-10-05T09:14:45.000Z</time>
      </trkpt>
      <trkpt lat="45.73686" lon="4.81463">
        <ele>165.39999389648</ele>
        <time>2014-10-05T09:14:50.000Z</time>
      </trkpt>
      <trkpt lat="45.73674" lon="4.81465">
        <ele>165.39999389648</ele>
        <time>2014-10-05T09:14:54.000Z</time>
      </trkpt>
      <trkpt lat="45.73658" lon="4.81471">
        <ele>165</ele>
        <time>2014-10-05T09:14:59.000Z</time>
      </trkpt>
      <trkpt lat="45.7364" lon="4.81477">
        <ele>165.39999389648</ele>
        <time>2014-10-05T09:15:04.000Z</time>
      </trkpt>
      <trkpt lat="45.73636" lon="4.81478">
        <ele>165.60000610352</ele>
        <time>2014-10-05T09:15:05.000Z</time>
      </trkpt>
      <trkpt lat="45.73617" lon="4.81484">
        <ele>165.60000610352</ele>
        <time>2014-10-05T09:15:11.000Z</time>
      </trkpt>
      <trkpt lat="45.73611" lon="4.81486">
        <ele>165.80000305176</ele>
        <time>2014-10-05T09:15:13.000Z</time>
      </trkpt>
      <trkpt lat="45.73592" lon="4.81493">
        <ele>165.80000305176</ele>
        <time>2014-10-05T09:15:20.000Z</time>
      </trkpt>
      <trkpt lat="45.73574" lon="4.81498">
        <ele>165</ele>
        <time>2014-10-05T09:15:26.000Z</time>
      </trkpt>
      <trkpt lat="45.73563" lon="4.81499">
        <ele>164.39999389648</ele>
        <time>2014-10-05T09:15:30.000Z</time>
      </trkpt>
      <trkpt lat="45.7355" lon="4.81502">
        <ele>163.80000305176</ele>
        <time>2014-10-05T09:15:34.000Z</time>
      </trkpt>
      <trkpt lat="45.73535" lon="4.81505">
        <ele>163.80000305176</ele>
        <time>2014-10-05T09:15:39.000Z</time>
      </trkpt>
      <trkpt lat="45.73518" lon="4.81508">
        <ele>163.80000305176</ele>
        <time>2014-10-05T09:15:45.000Z</time>
      </trkpt>
      <trkpt lat="45.7351" lon="4.81505">
        <ele>164</ele>
        <time>2014-10-05T09:15:49.000Z</time>
      </trkpt>
      <trkpt lat="45.73507" lon="4.81505">
        <ele>164.19999694824</ele>
        <time>2014-10-05T09:15:50.000Z</time>
      </trkpt>
      <trkpt lat="45.73494" lon="4.81506">
        <ele>164.39999389648</ele>
        <time>2014-10-05T09:15:55.000Z</time>
      </trkpt>
      <trkpt lat="45.73485" lon="4.81507">
        <ele>164.60000610352</ele>
        <time>2014-10-05T09:15:59.000Z</time>
      </trkpt>
      <trkpt lat="45.73482" lon="4.81508">
        <ele>164.80000305176</ele>
        <time>2014-10-05T09:16:00.000Z</time>
      </trkpt>
      <trkpt lat="45.7347" lon="4.8151">
        <ele>165</ele>
        <time>2014-10-05T09:16:04.000Z</time>
      </trkpt>
      <trkpt lat="45.73454" lon="4.81515">
        <ele>165</ele>
        <time>2014-10-05T09:16:09.000Z</time>
      </trkpt>
      <trkpt lat="45.73432" lon="4.81522">
        <ele>165</ele>
        <time>2014-10-05T09:16:15.000Z</time>
      </trkpt>
      <trkpt lat="45.73415" lon="4.81528">
        <ele>165</ele>
        <time>2014-10-05T09:16:20.000Z</time>
      </trkpt>
      <trkpt lat="45.73404" lon="4.81527">
        <ele>165</ele>
        <time>2014-10-05T09:16:24.000Z</time>
      </trkpt>
      <trkpt lat="45.73388" lon="4.81527">
        <ele>165</ele>
        <time>2014-10-05T09:16:30.000Z</time>
      </trkpt>
      <trkpt lat="45.73387" lon="4.81527">
        <ele>165</ele>
        <time>2014-10-05T09:16:31.000Z</time>
      </trkpt>
      <trkpt lat="45.73379" lon="4.81528">
        <ele>165</ele>
        <time>2014-10-05T09:16:34.000Z</time>
      </trkpt>
      <trkpt lat="45.73372" lon="4.81526">
        <ele>165</ele>
        <time>2014-10-05T09:16:38.000Z</time>
      </trkpt>
      <trkpt lat="45.73359" lon="4.81524">
        <ele>165</ele>
        <time>2014-10-05T09:16:43.000Z</time>
      </trkpt>
      <trkpt lat="45.73343" lon="4.81535">
        <ele>165</ele>
        <time>2014-10-05T09:16:48.000Z</time>
      </trkpt>
      <trkpt lat="45.7333" lon="4.81546">
        <ele>165</ele>
        <time>2014-10-05T09:16:53.000Z</time>
      </trkpt>
      <trkpt lat="45.73333" lon="4.81563">
        <ele>165</ele>
        <time>2014-10-05T09:16:56.000Z</time>
      </trkpt>
      <trkpt lat="45.73338" lon="4.81586">
        <ele>164.60000610352</ele>
        <time>2014-10-05T09:17:02.000Z</time>
      </trkpt>
      <trkpt lat="45.73342" lon="4.81606">
        <ele>164.19999694824</ele>
        <time>2014-10-05T09:17:07.000Z</time>
      </trkpt>
      <trkpt lat="45.7335" lon="4.81612">
        <ele>164.39999389648</ele>
        <time>2014-10-05T09:17:11.000Z</time>
      </trkpt>
      <trkpt lat="45.73355" lon="4.81612">
        <ele>164.39999389648</ele>
        <time>2014-10-05T09:17:13.000Z</time>
      </trkpt>
      <trkpt lat="45.73363" lon="4.81611">
        <ele>164.60000610352</ele>
        <time>2014-10-05T09:17:16.000Z</time>
      </trkpt>
      <trkpt lat="45.73382" lon="4.81606">
        <ele>165</ele>
        <time>2014-10-05T09:17:22.000Z</time>
      </trkpt>
      <trkpt lat="45.73397" lon="4.81599">
        <ele>165</ele>
        <time>2014-10-05T09:17:27.000Z</time>
      </trkpt>
      <trkpt lat="45.73414" lon="4.8159">
        <ele>165</ele>
        <time>2014-10-05T09:17:33.000Z</time>
      </trkpt>
      <trkpt lat="45.73425" lon="4.81588">
        <ele>165</ele>
        <time>2014-10-05T09:17:37.000Z</time>
      </trkpt>
      <trkpt lat="45.73441" lon="4.81587">
        <ele>165</ele>
        <time>2014-10-05T09:17:42.000Z</time>
      </trkpt>
      <trkpt lat="45.73452" lon="4.81585">
        <ele>165</ele>
        <time>2014-10-05T09:17:46.000Z</time>
      </trkpt>
      <trkpt lat="45.73465" lon="4.81584">
        <ele>165</ele>
        <time>2014-10-05T09:17:50.000Z</time>
      </trkpt>
      <trkpt lat="45.73481" lon="4.81578">
        <ele>165.19999694824</ele>
        <time>2014-10-05T09:17:55.000Z</time>
      </trkpt>
      <trkpt lat="45.73501" lon="4.81577">
        <ele>165.39999389648</ele>
        <time>2014-10-05T09:18:01.000Z</time>
      </trkpt>
      <trkpt lat="45.73521" lon="4.81575">
        <ele>165</ele>
        <time>2014-10-05T09:18:07.000Z</time>
      </trkpt>
      <trkpt lat="45.7354" lon="4.81571">
        <ele>164.60000610352</ele>
        <time>2014-10-05T09:18:13.000Z</time>
      </trkpt>
      <trkpt lat="45.73559" lon="4.81568">
        <ele>164.19999694824</ele>
        <time>2014-10-05T09:18:19.000Z</time>
      </trkpt>
      <trkpt lat="45.73562" lon="4.81568">
        <ele>164.19999694824</ele>
        <time>2014-10-05T09:18:20.000Z</time>
      </trkpt>
      <trkpt lat="45.73577" lon="4.81564">
        <ele>164.19999694824</ele>
        <time>2014-10-05T09:18:25.000Z</time>
      </trkpt>
      <trkpt lat="45.73596" lon="4.8156">
        <ele>165</ele>
        <time>2014-10-05T09:18:31.000Z</time>
      </trkpt>
      <trkpt lat="45.7361" lon="4.81556">
        <ele>165.60000610352</ele>
        <time>2014-10-05T09:18:36.000Z</time>
      </trkpt>
      <trkpt lat="45.73625" lon="4.81553">
        <ele>166.39999389648</ele>
        <time>2014-10-05T09:18:41.000Z</time>
      </trkpt>
      <trkpt lat="45.73642" lon="4.81549">
        <ele>167</ele>
        <time>2014-10-05T09:18:46.000Z</time>
      </trkpt>
      <trkpt lat="45.73659" lon="4.81546">
        <ele>166.60000610352</ele>
        <time>2014-10-05T09:18:52.000Z</time>
      </trkpt>
      <trkpt lat="45.73673" lon="4.81546">
        <ele>166.19999694824</ele>
        <time>2014-10-05T09:18:57.000Z</time>
      </trkpt>
      <trkpt lat="45.73687" lon="4.81544">
        <ele>165.80000305176</ele>
        <time>2014-10-05T09:19:02.000Z</time>
      </trkpt>
      <trkpt lat="45.73704" lon="4.81538">
        <ele>165.39999389648</ele>
        <time>2014-10-05T09:19:08.000Z</time>
      </trkpt>
      <trkpt lat="45.73721" lon="4.81533">
        <ele>165</ele>
        <time>2014-10-05T09:19:14.000Z</time>
      </trkpt>
      <trkpt lat="45.73729" lon="4.81531">
        <ele>165.19999694824</ele>
        <time>2014-10-05T09:19:17.000Z</time>
      </trkpt>
      <trkpt lat="45.73731" lon="4.8153">
        <ele>165.19999694824</ele>
        <time>2014-10-05T09:19:18.000Z</time>
      </trkpt>
      <trkpt lat="45.73742" lon="4.81526">
        <ele>165.39999389648</ele>
        <time>2014-10-05T09:19:22.000Z</time>
      </trkpt>
      <trkpt lat="45.73757" lon="4.81522">
        <ele>165.60000610352</ele>
        <time>2014-10-05T09:19:27.000Z</time>
      </trkpt>
      <trkpt lat="45.73776" lon="4.81516">
        <ele>166</ele>
        <time>2014-10-05T09:19:33.000Z</time>
      </trkpt>
      <trkpt lat="45.7378" lon="4.81516">
        <ele>166</ele>
        <time>2014-10-05T09:19:34.000Z</time>
      </trkpt>
      <trkpt lat="45.73801" lon="4.81513">
        <ele>166</ele>
        <time>2014-10-05T09:19:40.000Z</time>
      </trkpt>
      <trkpt lat="45.73804" lon="4.81513">
        <ele>166</ele>
        <time>2014-10-05T09:19:41.000Z</time>
      </trkpt>
      <trkpt lat="45.73823" lon="4.8151">
        <ele>165.80000305176</ele>
        <time>2014-10-05T09:19:47.000Z</time>
      </trkpt>
      <trkpt lat="45.73837" lon="4.81505">
        <ele>165.60000610352</ele>
        <time>2014-10-05T09:19:52.000Z</time>
      </trkpt>
      <trkpt lat="45.73856" lon="4.81501">
        <ele>165.19999694824</ele>
        <time>2014-10-05T09:19:58.000Z</time>
      </trkpt>
      <trkpt lat="45.73873" lon="4.81499">
        <ele>164.60000610352</ele>
        <time>2014-10-05T09:20:03.000Z</time>
      </trkpt>
      <trkpt lat="45.7389" lon="4.81497">
        <ele>164</ele>
        <time>2014-10-05T09:20:09.000Z</time>
      </trkpt>
      <trkpt lat="45.73904" lon="4.81495">
        <ele>164.19999694824</ele>
        <time>2014-10-05T09:20:14.000Z</time>
      </trkpt>
      <trkpt lat="45.73918" lon="4.81494">
        <ele>164.19999694824</ele>
        <time>2014-10-05T09:20:19.000Z</time>
      </trkpt>
      <trkpt lat="45.7393" lon="4.81489">
        <ele>164.39999389648</ele>
        <time>2014-10-05T09:20:23.000Z</time>
      </trkpt>
      <trkpt lat="45.73934" lon="4.81492">
        <ele>164.60000610352</ele>
        <time>2014-10-05T09:20:24.000Z</time>
      </trkpt>
      <trkpt lat="45.73939" lon="4.81497">
        <ele>164.80000305176</ele>
        <time>2014-10-05T09:20:26.000Z</time>
      </trkpt>
      <trkpt lat="45.73949" lon="4.81501">
        <ele>165</ele>
        <time>2014-10-05T09:20:29.000Z</time>
      </trkpt>
      <trkpt lat="45.7396" lon="4.81515">
        <ele>165.39999389648</ele>
        <time>2014-10-05T09:20:33.000Z</time>
      </trkpt>
      <trkpt lat="45.73962" lon="4.81519">
        <ele>165.60000610352</ele>
        <time>2014-10-05T09:20:34.000Z</time>
      </trkpt>
      <trkpt lat="45.73974" lon="4.81526">
        <ele>165.80000305176</ele>
        <time>2014-10-05T09:20:38.000Z</time>
      </trkpt>
      <trkpt lat="45.7399" lon="4.8154">
        <ele>165.60000610352</ele>
        <time>2014-10-05T09:20:44.000Z</time>
      </trkpt>
      <trkpt lat="45.74006" lon="4.81552">
        <ele>165.39999389648</ele>
        <time>2014-10-05T09:20:50.000Z</time>
      </trkpt>
      <trkpt lat="45.74009" lon="4.81554">
        <ele>165.19999694824</ele>
        <time>2014-10-05T09:20:51.000Z</time>
      </trkpt>
      <trkpt lat="45.74025" lon="4.81565">
        <ele>165</ele>
        <time>2014-10-05T09:20:57.000Z</time>
      </trkpt>
      <trkpt lat="45.74044" lon="4.81576">
        <ele>164.60000610352</ele>
        <time>2014-10-05T09:21:04.000Z</time>
      </trkpt>
      <trkpt lat="45.74048" lon="4.81579">
        <ele>164.60000610352</ele>
        <time>2014-10-05T09:21:05.000Z</time>
      </trkpt>
      <trkpt lat="45.74064" lon="4.8159">
        <ele>165.19999694824</ele>
        <time>2014-10-05T09:21:11.000Z</time>
      </trkpt>
      <trkpt lat="45.7407" lon="4.81589">
        <ele>165.60000610352</ele>
        <time>2014-10-05T09:21:13.000Z</time>
      </trkpt>
      <trkpt lat="45.74076" lon="4.81586">
        <ele>165.80000305176</ele>
        <time>2014-10-05T09:21:15.000Z</time>
      </trkpt>
      <trkpt lat="45.7408" lon="4.8158">
        <ele>166</ele>
        <time>2014-10-05T09:21:17.000Z</time>
      </trkpt>
      <trkpt lat="45.74083" lon="4.81573">
        <ele>166.19999694824</ele>
        <time>2014-10-05T09:21:19.000Z</time>
      </trkpt>
      <trkpt lat="45.74091" lon="4.81553">
        <ele>165.39999389648</ele>
        <time>2014-10-05T09:21:24.000Z</time>
      </trkpt>
      <trkpt lat="45.741" lon="4.81542">
        <ele>164.80000305176</ele>
        <time>2014-10-05T09:21:28.000Z</time>
      </trkpt>
      <trkpt lat="45.74107" lon="4.81525">
        <ele>164.39999389648</ele>
        <time>2014-10-05T09:21:33.000Z</time>
      </trkpt>
      <trkpt lat="45.74116" lon="4.81502">
        <ele>163.60000610352</ele>
        <time>2014-10-05T09:21:39.000Z</time>
      </trkpt>
      <trkpt lat="45.74123" lon="4.81488">
        <ele>163.19999694824</ele>
        <time>2014-10-05T09:21:43.000Z</time>
      </trkpt>
      <trkpt lat="45.74125" lon="4.81488">
        <ele>163.19999694824</ele>
        <time>2014-10-05T09:21:44.000Z</time>
      </trkpt>
      <trkpt lat="45.7413" lon="4.81492">
        <ele>163.39999389648</ele>
        <time>2014-10-05T09:21:46.000Z</time>
      </trkpt>
      <trkpt lat="45.74144" lon="4.81505">
        <ele>164</ele>
        <time>2014-10-05T09:21:52.000Z</time>
      </trkpt>
      <trkpt lat="45.74158" lon="4.81517">
        <ele>165</ele>
        <time>2014-10-05T09:21:57.000Z</time>
      </trkpt>
      <trkpt lat="45.74174" lon="4.81529">
        <ele>166</ele>
        <time>2014-10-05T09:22:03.000Z</time>
      </trkpt>
      <trkpt lat="45.74189" lon="4.81541">
        <ele>167</ele>
        <time>2014-10-05T09:22:09.000Z</time>
      </trkpt>
      <trkpt lat="45.74199" lon="4.81548">
        <ele>167.80000305176</ele>
        <time>2014-10-05T09:22:13.000Z</time>
      </trkpt>
      <trkpt lat="45.74211" lon="4.81558">
        <ele>168.80000305176</ele>
        <time>2014-10-05T09:22:18.000Z</time>
      </trkpt>
      <trkpt lat="45.74216" lon="4.81577">
        <ele>170.19999694824</ele>
        <time>2014-10-05T09:22:22.000Z</time>
      </trkpt>
      <trkpt lat="45.74209" lon="4.81597">
        <ele>171</ele>
        <time>2014-10-05T09:22:26.000Z</time>
      </trkpt>
      <trkpt lat="45.74205" lon="4.81613">
        <ele>172</ele>
        <time>2014-10-05T09:22:30.000Z</time>
      </trkpt>
      <trkpt lat="45.742" lon="4.81635">
        <ele>171.19999694824</ele>
        <time>2014-10-05T09:22:35.000Z</time>
      </trkpt>
      <trkpt lat="45.74194" lon="4.81661">
        <ele>169.19999694824</ele>
        <time>2014-10-05T09:22:41.000Z</time>
      </trkpt>
      <trkpt lat="45.74187" lon="4.81688">
        <ele>168</ele>
        <time>2014-10-05T09:22:47.000Z</time>
      </trkpt>
      <trkpt lat="45.7418" lon="4.81712">
        <ele>168</ele>
        <time>2014-10-05T09:22:53.000Z</time>
      </trkpt>
      <trkpt lat="45.74178" lon="4.81717">
        <ele>168</ele>
        <time>2014-10-05T09:22:54.000Z</time>
      </trkpt>
      <trkpt lat="45.74171" lon="4.81742">
        <ele>168.19999694824</ele>
        <time>2014-10-05T09:23:00.000Z</time>
      </trkpt>
      <trkpt lat="45.74164" lon="4.8177">
        <ele>168</ele>
        <time>2014-10-05T09:23:07.000Z</time>
      </trkpt>
      <trkpt lat="45.74156" lon="4.8179">
        <ele>167.80000305176</ele>
        <time>2014-10-05T09:23:12.000Z</time>
      </trkpt>
      <trkpt lat="45.7415" lon="4.81805">
        <ele>168.19999694824</ele>
        <time>2014-10-05T09:23:16.000Z</time>
      </trkpt>
      <trkpt lat="45.74148" lon="4.81816">
        <ele>168</ele>
        <time>2014-10-05T09:23:19.000Z</time>
      </trkpt>
      <trkpt lat="45.74146" lon="4.81822">
        <ele>167.80000305176</ele>
        <time>2014-10-05T09:23:20.000Z</time>
      </trkpt>
      <trkpt lat="45.74143" lon="4.81835">
        <ele>167.60000610352</ele>
        <time>2014-10-05T09:23:23.000Z</time>
      </trkpt>
      <trkpt lat="45.7414" lon="4.81843">
        <ele>167.39999389648</ele>
        <time>2014-10-05T09:23:25.000Z</time>
      </trkpt>
      <trkpt lat="45.74136" lon="4.81868">
        <ele>167</ele>
        <time>2014-10-05T09:23:31.000Z</time>
      </trkpt>
      <trkpt lat="45.74129" lon="4.81885">
        <ele>166.60000610352</ele>
        <time>2014-10-05T09:23:35.000Z</time>
      </trkpt>
      <trkpt lat="45.74126" lon="4.81901">
        <ele>166.39999389648</ele>
        <time>2014-10-05T09:23:39.000Z</time>
      </trkpt>
      <trkpt lat="45.7412" lon="4.81922">
        <ele>166</ele>
        <time>2014-10-05T09:23:44.000Z</time>
      </trkpt>
      <trkpt lat="45.7412" lon="4.81929">
        <ele>165.80000305176</ele>
        <time>2014-10-05T09:23:46.000Z</time>
      </trkpt>
      <trkpt lat="45.74124" lon="4.81934">
        <ele>166</ele>
        <time>2014-10-05T09:23:48.000Z</time>
      </trkpt>
      <trkpt lat="45.74137" lon="4.81945">
        <ele>166.19999694824</ele>
        <time>2014-10-05T09:23:53.000Z</time>
      </trkpt>
      <trkpt lat="45.74151" lon="4.81956">
        <ele>166.39999389648</ele>
        <time>2014-10-05T09:23:59.000Z</time>
      </trkpt>
      <trkpt lat="45.74164" lon="4.81962">
        <ele>167</ele>
        <time>2014-10-05T09:24:05.000Z</time>
      </trkpt>
      <trkpt lat="45.7417" lon="4.81948">
        <ele>167.19999694824</ele>
        <time>2014-10-05T09:24:09.000Z</time>
      </trkpt>
      <trkpt lat="45.74175" lon="4.81928">
        <ele>167.60000610352</ele>
        <time>2014-10-05T09:24:14.000Z</time>
      </trkpt>
      <trkpt lat="45.74182" lon="4.81904">
        <ele>168</ele>
        <time>2014-10-05T09:24:20.000Z</time>
      </trkpt>
      <trkpt lat="45.74184" lon="4.819">
        <ele>168.19999694824</ele>
        <time>2014-10-05T09:24:21.000Z</time>
      </trkpt>
      <trkpt lat="45.74192" lon="4.81878">
        <ele>168.39999389648</ele>
        <time>2014-10-05T09:24:27.000Z</time>
      </trkpt>
      <trkpt lat="45.74201" lon="4.81855">
        <ele>168.80000305176</ele>
        <time>2014-10-05T09:24:33.000Z</time>
      </trkpt>
      <trkpt lat="45.74206" lon="4.81835">
        <ele>168.19999694824</ele>
        <time>2014-10-05T09:24:38.000Z</time>
      </trkpt>
      <trkpt lat="45.74214" lon="4.8181">
        <ele>167.60000610352</ele>
        <time>2014-10-05T09:24:44.000Z</time>
      </trkpt>
      <trkpt lat="45.74217" lon="4.81802">
        <ele>167.39999389648</ele>
        <time>2014-10-05T09:24:46.000Z</time>
      </trkpt>
      <trkpt lat="45.74226" lon="4.81777">
        <ele>167</ele>
        <time>2014-10-05T09:24:52.000Z</time>
      </trkpt>
      <trkpt lat="45.74228" lon="4.81773">
        <ele>167</ele>
        <time>2014-10-05T09:24:53.000Z</time>
      </trkpt>
      <trkpt lat="45.74236" lon="4.81748">
        <ele>167</ele>
        <time>2014-10-05T09:24:59.000Z</time>
      </trkpt>
      <trkpt lat="45.74239" lon="4.8174">
        <ele>167</ele>
        <time>2014-10-05T09:25:01.000Z</time>
      </trkpt>
      <trkpt lat="45.7424" lon="4.81736">
        <ele>167</ele>
        <time>2014-10-05T09:25:02.000Z</time>
      </trkpt>
      <trkpt lat="45.74248" lon="4.81717">
        <ele>167</ele>
        <time>2014-10-05T09:25:07.000Z</time>
      </trkpt>
      <trkpt lat="45.74256" lon="4.81698">
        <ele>167.60000610352</ele>
        <time>2014-10-05T09:25:12.000Z</time>
      </trkpt>
      <trkpt lat="45.74266" lon="4.81676">
        <ele>169.19999694824</ele>
        <time>2014-10-05T09:25:18.000Z</time>
      </trkpt>
      <trkpt lat="45.74267" lon="4.81672">
        <ele>169.39999389648</ele>
        <time>2014-10-05T09:25:19.000Z</time>
      </trkpt>
      <trkpt lat="45.74276" lon="4.8165">
        <ele>169</ele>
        <time>2014-10-05T09:25:25.000Z</time>
      </trkpt>
      <trkpt lat="45.74284" lon="4.81629">
        <ele>168.39999389648</ele>
        <time>2014-10-05T09:25:30.000Z</time>
      </trkpt>
      <trkpt lat="45.74295" lon="4.81604">
        <ele>167</ele>
        <time>2014-10-05T09:25:37.000Z</time>
      </trkpt>
      <trkpt lat="45.74304" lon="4.81581">
        <ele>166.39999389648</ele>
        <time>2014-10-05T09:25:43.000Z</time>
      </trkpt>
      <trkpt lat="45.74306" lon="4.81577">
        <ele>166.39999389648</ele>
        <time>2014-10-05T09:25:44.000Z</time>
      </trkpt>
      <trkpt lat="45.74316" lon="4.81555">
        <ele>165.80000305176</ele>
        <time>2014-10-05T09:25:50.000Z</time>
      </trkpt>
      <trkpt lat="45.74319" lon="4.81554">
        <ele>165.60000610352</ele>
        <time>2014-10-05T09:25:51.000Z</time>
      </trkpt>
      <trkpt lat="45.74326" lon="4.81558">
        <ele>165.39999389648</ele>
        <time>2014-10-05T09:25:54.000Z</time>
      </trkpt>
      <trkpt lat="45.74332" lon="4.81563">
        <ele>165.19999694824</ele>
        <time>2014-10-05T09:25:56.000Z</time>
      </trkpt>
      <trkpt lat="45.7434" lon="4.8157">
        <ele>165</ele>
        <time>2014-10-05T09:25:59.000Z</time>
      </trkpt>
      <trkpt lat="45.74356" lon="4.81583">
        <ele>164.60000610352</ele>
        <time>2014-10-05T09:26:05.000Z</time>
      </trkpt>
      <trkpt lat="45.74371" lon="4.81601">
        <ele>164.39999389648</ele>
        <time>2014-10-05T09:26:11.000Z</time>
      </trkpt>
      <trkpt lat="45.74374" lon="4.81604">
        <ele>164.19999694824</ele>
        <time>2014-10-05T09:26:12.000Z</time>
      </trkpt>
      <trkpt lat="45.7439" lon="4.81619">
        <ele>163.80000305176</ele>
        <time>2014-10-05T09:26:18.000Z</time>
      </trkpt>
      <trkpt lat="45.74406" lon="4.81634">
        <ele>163.39999389648</ele>
        <time>2014-10-05T09:26:24.000Z</time>
      </trkpt>
      <trkpt lat="45.74408" lon="4.81637">
        <ele>163.39999389648</ele>
        <time>2014-10-05T09:26:25.000Z</time>
      </trkpt>
      <trkpt lat="45.74423" lon="4.8165">
        <ele>163</ele>
        <time>2014-10-05T09:26:31.000Z</time>
      </trkpt>
      <trkpt lat="45.7443" lon="4.81668">
        <ele>163.19999694824</ele>
        <time>2014-10-05T09:26:36.000Z</time>
      </trkpt>
      <trkpt lat="45.74428" lon="4.81672">
        <ele>163.39999389648</ele>
        <time>2014-10-05T09:26:37.000Z</time>
      </trkpt>
      <trkpt lat="45.74425" lon="4.81685">
        <ele>164</ele>
        <time>2014-10-05T09:26:40.000Z</time>
      </trkpt>
      <trkpt lat="45.74419" lon="4.81709">
        <ele>165.39999389648</ele>
        <time>2014-10-05T09:26:46.000Z</time>
      </trkpt>
      <trkpt lat="45.74414" lon="4.8173">
        <ele>166.60000610352</ele>
        <time>2014-10-05T09:26:51.000Z</time>
      </trkpt>
      <trkpt lat="45.74408" lon="4.81755">
        <ele>166.80000305176</ele>
        <time>2014-10-05T09:26:57.000Z</time>
      </trkpt>
      <trkpt lat="45.74402" lon="4.81775">
        <ele>166.80000305176</ele>
        <time>2014-10-05T09:27:02.000Z</time>
      </trkpt>
      <trkpt lat="45.74396" lon="4.818">
        <ele>166.80000305176</ele>
        <time>2014-10-05T09:27:08.000Z</time>
      </trkpt>
      <trkpt lat="45.74395" lon="4.81804">
        <ele>167</ele>
        <time>2014-10-05T09:27:09.000Z</time>
      </trkpt>
      <trkpt lat="45.7439" lon="4.8182">
        <ele>167.19999694824</ele>
        <time>2014-10-05T09:27:13.000Z</time>
      </trkpt>
      <trkpt lat="45.74389" lon="4.81824">
        <ele>167.39999389648</ele>
        <time>2014-10-05T09:27:14.000Z</time>
      </trkpt>
      <trkpt lat="45.74383" lon="4.81844">
        <ele>167.60000610352</ele>
        <time>2014-10-05T09:27:19.000Z</time>
      </trkpt>
      <trkpt lat="45.74376" lon="4.81868">
        <ele>168</ele>
        <time>2014-10-05T09:27:25.000Z</time>
      </trkpt>
      <trkpt lat="45.74364" lon="4.81891">
        <ele>168.80000305176</ele>
        <time>2014-10-05T09:27:31.000Z</time>
      </trkpt>
      <trkpt lat="45.74362" lon="4.81895">
        <ele>168.80000305176</ele>
        <time>2014-10-05T09:27:32.000Z</time>
      </trkpt>
      <trkpt lat="45.74354" lon="4.81909">
        <ele>169.19999694824</ele>
        <time>2014-10-05T09:27:36.000Z</time>
      </trkpt>
      <trkpt lat="45.74342" lon="4.81933">
        <ele>169.39999389648</ele>
        <time>2014-10-05T09:27:42.000Z</time>
      </trkpt>
      <trkpt lat="45.74329" lon="4.81957">
        <ele>169.19999694824</ele>
        <time>2014-10-05T09:27:48.000Z</time>
      </trkpt>
      <trkpt lat="45.74327" lon="4.81961">
        <ele>169.19999694824</ele>
        <time>2014-10-05T09:27:49.000Z</time>
      </trkpt>
      <trkpt lat="45.74319" lon="4.81975">
        <ele>169</ele>
        <time>2014-10-05T09:27:53.000Z</time>
      </trkpt>
      <trkpt lat="45.74308" lon="4.81996">
        <ele>169.39999389648</ele>
        <time>2014-10-05T09:27:58.000Z</time>
      </trkpt>
      <trkpt lat="45.74302" lon="4.82015">
        <ele>169.80000305176</ele>
        <time>2014-10-05T09:28:03.000Z</time>
      </trkpt>
      <trkpt lat="45.74289" lon="4.82034">
        <ele>169.80000305176</ele>
        <time>2014-10-05T09:28:09.000Z</time>
      </trkpt>
      <trkpt lat="45.74279" lon="4.82052">
        <ele>169.80000305176</ele>
        <time>2014-10-05T09:28:14.000Z</time>
      </trkpt>
      <trkpt lat="45.74268" lon="4.82072">
        <ele>170</ele>
        <time>2014-10-05T09:28:20.000Z</time>
      </trkpt>
      <trkpt lat="45.74263" lon="4.82072">
        <ele>170</ele>
        <time>2014-10-05T09:28:22.000Z</time>
      </trkpt>
      <trkpt lat="45.7426" lon="4.82071">
        <ele>169.80000305176</ele>
        <time>2014-10-05T09:28:23.000Z</time>
      </trkpt>
      <trkpt lat="45.74251" lon="4.82065">
        <ele>169.60000610352</ele>
        <time>2014-10-05T09:28:26.000Z</time>
      </trkpt>
      <trkpt lat="45.74242" lon="4.82058">
        <ele>169.39999389648</ele>
        <time>2014-10-05T09:28:29.000Z</time>
      </trkpt>
      <trkpt lat="45.74226" lon="4.82043">
        <ele>169.19999694824</ele>
        <time>2014-10-05T09:28:35.000Z</time>
      </trkpt>
      <trkpt lat="45.74223" lon="4.82041">
        <ele>169</ele>
        <time>2014-10-05T09:28:36.000Z</time>
      </trkpt>
      <trkpt lat="45.74206" lon="4.82026">
        <ele>168.60000610352</ele>
        <time>2014-10-05T09:28:42.000Z</time>
      </trkpt>
      <trkpt lat="45.74203" lon="4.82024">
        <ele>168.39999389648</ele>
        <time>2014-10-05T09:28:43.000Z</time>
      </trkpt>
      <trkpt lat="45.74187" lon="4.82008">
        <ele>167.80000305176</ele>
        <time>2014-10-05T09:28:49.000Z</time>
      </trkpt>
      <trkpt lat="45.74171" lon="4.81994">
        <ele>167.19999694824</ele>
        <time>2014-10-05T09:28:55.000Z</time>
      </trkpt>
      <trkpt lat="45.7416" lon="4.81986">
        <ele>167</ele>
        <time>2014-10-05T09:28:59.000Z</time>
      </trkpt>
      <trkpt lat="45.74147" lon="4.81973">
        <ele>166.39999389648</ele>
        <time>2014-10-05T09:29:04.000Z</time>
      </trkpt>
      <trkpt lat="45.7413" lon="4.81959">
        <ele>165.80000305176</ele>
        <time>2014-10-05T09:29:10.000Z</time>
      </trkpt>
      <trkpt lat="45.74115" lon="4.81945">
        <ele>165.60000610352</ele>
        <time>2014-10-05T09:29:16.000Z</time>
      </trkpt>
      <trkpt lat="45.74113" lon="4.81942">
        <ele>165.60000610352</ele>
        <time>2014-10-05T09:29:17.000Z</time>
      </trkpt>
      <trkpt lat="45.74101" lon="4.8193">
        <ele>165.39999389648</ele>
        <time>2014-10-05T09:29:22.000Z</time>
      </trkpt>
      <trkpt lat="45.7409" lon="4.81921">
        <ele>165.19999694824</ele>
        <time>2014-10-05T09:29:26.000Z</time>
      </trkpt>
      <trkpt lat="45.74074" lon="4.81909">
        <ele>165</ele>
        <time>2014-10-05T09:29:32.000Z</time>
      </trkpt>
      <trkpt lat="45.74058" lon="4.81898">
        <ele>164.80000305176</ele>
        <time>2014-10-05T09:29:38.000Z</time>
      </trkpt>
      <trkpt lat="45.74055" lon="4.81896">
        <ele>164.80000305176</ele>
        <time>2014-10-05T09:29:39.000Z</time>
      </trkpt>
      <trkpt lat="45.74041" lon="4.81885">
        <ele>165.39999389648</ele>
        <time>2014-10-05T09:29:44.000Z</time>
      </trkpt>
      <trkpt lat="45.74026" lon="4.81874">
        <ele>166</ele>
        <time>2014-10-05T09:29:49.000Z</time>
      </trkpt>
      <trkpt lat="45.74024" lon="4.81872">
        <ele>166</ele>
        <time>2014-10-05T09:29:50.000Z</time>
      </trkpt>
      <trkpt lat="45.74007" lon="4.8186">
        <ele>166.80000305176</ele>
        <time>2014-10-05T09:29:56.000Z</time>
      </trkpt>
      <trkpt lat="45.73991" lon="4.81847">
        <ele>167.60000610352</ele>
        <time>2014-10-05T09:30:02.000Z</time>
      </trkpt>
      <trkpt lat="45.73989" lon="4.81845">
        <ele>167.60000610352</ele>
        <time>2014-10-05T09:30:03.000Z</time>
      </trkpt>
      <trkpt lat="45.73974" lon="4.81827">
        <ele>168.39999389648</ele>
        <time>2014-10-05T09:30:09.000Z</time>
      </trkpt>
      <trkpt lat="45.73961" lon="4.81816">
        <ele>169</ele>
        <time>2014-10-05T09:30:14.000Z</time>
      </trkpt>
      <trkpt lat="45.73943" lon="4.81803">
        <ele>169.80000305176</ele>
        <time>2014-10-05T09:30:21.000Z</time>
      </trkpt>
      <trkpt lat="45.73927" lon="4.81792">
        <ele>170.60000610352</ele>
        <time>2014-10-05T09:30:27.000Z</time>
      </trkpt>
      <trkpt lat="45.73924" lon="4.81789">
        <ele>170.60000610352</ele>
        <time>2014-10-05T09:30:28.000Z</time>
      </trkpt>
      <trkpt lat="45.73908" lon="4.81776">
        <ele>171</ele>
        <time>2014-10-05T09:30:34.000Z</time>
      </trkpt>
      <trkpt lat="45.73903" lon="4.81772">
        <ele>171</ele>
        <time>2014-10-05T09:30:36.000Z</time>
      </trkpt>
      <trkpt lat="45.73886" lon="4.81755">
        <ele>171.19999694824</ele>
        <time>2014-10-05T09:30:43.000Z</time>
      </trkpt>
      <trkpt lat="45.7387" lon="4.81741">
        <ele>170.39999389648</ele>
        <time>2014-10-05T09:30:49.000Z</time>
      </trkpt>
      <trkpt lat="45.73865" lon="4.81737">
        <ele>170.19999694824</ele>
        <time>2014-10-05T09:30:51.000Z</time>
      </trkpt>
      <trkpt lat="45.7385" lon="4.81722">
        <ele>169.60000610352</ele>
        <time>2014-10-05T09:30:57.000Z</time>
      </trkpt>
      <trkpt lat="45.73848" lon="4.81721">
        <ele>169.39999389648</ele>
        <time>2014-10-05T09:30:58.000Z</time>
      </trkpt>
      <trkpt lat="45.73832" lon="4.81708">
        <ele>168.80000305176</ele>
        <time>2014-10-05T09:31:04.000Z</time>
      </trkpt>
      <trkpt lat="45.73814" lon="4.817">
        <ele>168.19999694824</ele>
        <time>2014-10-05T09:31:10.000Z</time>
      </trkpt>
      <trkpt lat="45.73813" lon="4.81699">
        <ele>168.19999694824</ele>
        <time>2014-10-05T09:31:11.000Z</time>
      </trkpt>
      <trkpt lat="45.73794" lon="4.81689">
        <ele>167.60000610352</ele>
        <time>2014-10-05T09:31:17.000Z</time>
      </trkpt>
      <trkpt lat="45.73792" lon="4.81687">
        <ele>167.60000610352</ele>
        <time>2014-10-05T09:31:18.000Z</time>
      </trkpt>
      <trkpt lat="45.73774" lon="4.81678">
        <ele>167.39999389648</ele>
        <time>2014-10-05T09:31:24.000Z</time>
      </trkpt>
      <trkpt lat="45.73769" lon="4.81676">
        <ele>167.39999389648</ele>
        <time>2014-10-05T09:31:26.000Z</time>
      </trkpt>
      <trkpt lat="45.73751" lon="4.81671">
        <ele>167.19999694824</ele>
        <time>2014-10-05T09:31:32.000Z</time>
      </trkpt>
      <trkpt lat="45.73732" lon="4.81668">
        <ele>167.19999694824</ele>
        <time>2014-10-05T09:31:38.000Z</time>
      </trkpt>
      <trkpt lat="45.73718" lon="4.81666">
        <ele>167.19999694824</ele>
        <time>2014-10-05T09:31:43.000Z</time>
      </trkpt>
      <trkpt lat="45.73701" lon="4.81669">
        <ele>167.39999389648</ele>
        <time>2014-10-05T09:31:49.000Z</time>
      </trkpt>
      <trkpt lat="45.73684" lon="4.8167">
        <ele>167.60000610352</ele>
        <time>2014-10-05T09:31:55.000Z</time>
      </trkpt>
      <trkpt lat="45.7367" lon="4.81673">
        <ele>167.60000610352</ele>
        <time>2014-10-05T09:32:00.000Z</time>
      </trkpt>
      <trkpt lat="45.73655" lon="4.81678">
        <ele>167.60000610352</ele>
        <time>2014-10-05T09:32:05.000Z</time>
      </trkpt>
      <trkpt lat="45.73641" lon="4.81683">
        <ele>167.80000305176</ele>
        <time>2014-10-05T09:32:10.000Z</time>
      </trkpt>
      <trkpt lat="45.73627" lon="4.81688">
        <ele>167.60000610352</ele>
        <time>2014-10-05T09:32:15.000Z</time>
      </trkpt>
      <trkpt lat="45.73609" lon="4.81698">
        <ele>167.60000610352</ele>
        <time>2014-10-05T09:32:21.000Z</time>
      </trkpt>
      <trkpt lat="45.73595" lon="4.81705">
        <ele>167.39999389648</ele>
        <time>2014-10-05T09:32:26.000Z</time>
      </trkpt>
      <trkpt lat="45.73581" lon="4.81711">
        <ele>167.39999389648</ele>
        <time>2014-10-05T09:32:31.000Z</time>
      </trkpt>
      <trkpt lat="45.73566" lon="4.81718">
        <ele>167.19999694824</ele>
        <time>2014-10-05T09:32:36.000Z</time>
      </trkpt>
      <trkpt lat="45.73548" lon="4.81726">
        <ele>167</ele>
        <time>2014-10-05T09:32:42.000Z</time>
      </trkpt>
      <trkpt lat="45.73534" lon="4.81732">
        <ele>167.19999694824</ele>
        <time>2014-10-05T09:32:47.000Z</time>
      </trkpt>
      <trkpt lat="45.73516" lon="4.8174">
        <ele>167.39999389648</ele>
        <time>2014-10-05T09:32:53.000Z</time>
      </trkpt>
      <trkpt lat="45.73511" lon="4.81743">
        <ele>167.60000610352</ele>
        <time>2014-10-05T09:32:55.000Z</time>
      </trkpt>
      <trkpt lat="45.73493" lon="4.81751">
        <ele>167.80000305176</ele>
        <time>2014-10-05T09:33:01.000Z</time>
      </trkpt>
      <trkpt lat="45.73474" lon="4.81756">
        <ele>168</ele>
        <time>2014-10-05T09:33:07.000Z</time>
      </trkpt>
      <trkpt lat="45.73471" lon="4.81758">
        <ele>168</ele>
        <time>2014-10-05T09:33:08.000Z</time>
      </trkpt>
      <trkpt lat="45.73453" lon="4.81763">
        <ele>168.19999694824</ele>
        <time>2014-10-05T09:33:14.000Z</time>
      </trkpt>
      <trkpt lat="45.73435" lon="4.81766">
        <ele>168.39999389648</ele>
        <time>2014-10-05T09:33:20.000Z</time>
      </trkpt>
      <trkpt lat="45.73431" lon="4.81767">
        <ele>168.39999389648</ele>
        <time>2014-10-05T09:33:21.000Z</time>
      </trkpt>
      <trkpt lat="45.73414" lon="4.8177">
        <ele>168.60000610352</ele>
        <time>2014-10-05T09:33:27.000Z</time>
      </trkpt>
      <trkpt lat="45.73395" lon="4.81773">
        <ele>169</ele>
        <time>2014-10-05T09:33:33.000Z</time>
      </trkpt>
      <trkpt lat="45.7339" lon="4.81777">
        <ele>169</ele>
        <time>2014-10-05T09:33:35.000Z</time>
      </trkpt>
      <trkpt lat="45.73388" lon="4.81781">
        <ele>169</ele>
        <time>2014-10-05T09:33:36.000Z</time>
      </trkpt>
      <trkpt lat="45.73385" lon="4.81793">
        <ele>169</ele>
        <time>2014-10-05T09:33:39.000Z</time>
      </trkpt>
      <trkpt lat="45.73378" lon="4.81814">
        <ele>169</ele>
        <time>2014-10-05T09:33:45.000Z</time>
      </trkpt>
      <trkpt lat="45.73375" lon="4.81831">
        <ele>169</ele>
        <time>2014-10-05T09:33:49.000Z</time>
      </trkpt>
      <trkpt lat="45.73367" lon="4.81853">
        <ele>169</ele>
        <time>2014-10-05T09:33:54.000Z</time>
      </trkpt>
      <trkpt lat="45.73362" lon="4.81867">
        <ele>168.80000305176</ele>
        <time>2014-10-05T09:33:58.000Z</time>
      </trkpt>
      <trkpt lat="45.73354" lon="4.8189">
        <ele>168</ele>
        <time>2014-10-05T09:34:04.000Z</time>
      </trkpt>
      <trkpt lat="45.73351" lon="4.81898">
        <ele>167.60000610352</ele>
        <time>2014-10-05T09:34:06.000Z</time>
      </trkpt>
      <trkpt lat="45.73345" lon="4.81922">
        <ele>166.60000610352</ele>
        <time>2014-10-05T09:34:12.000Z</time>
      </trkpt>
      <trkpt lat="45.7334" lon="4.81942">
        <ele>165.39999389648</ele>
        <time>2014-10-05T09:34:17.000Z</time>
      </trkpt>
      <trkpt lat="45.7333" lon="4.81957">
        <ele>164.60000610352</ele>
        <time>2014-10-05T09:34:22.000Z</time>
      </trkpt>
      <trkpt lat="45.73317" lon="4.81974">
        <ele>164</ele>
        <time>2014-10-05T09:34:28.000Z</time>
      </trkpt>
      <trkpt lat="45.73302" lon="4.81993">
        <ele>164</ele>
        <time>2014-10-05T09:34:35.000Z</time>
      </trkpt>
      <trkpt lat="45.73285" lon="4.82011">
        <ele>164</ele>
        <time>2014-10-05T09:34:42.000Z</time>
      </trkpt>
      <trkpt lat="45.73274" lon="4.82025">
        <ele>164</ele>
        <time>2014-10-05T09:34:47.000Z</time>
      </trkpt>
      <trkpt lat="45.73273" lon="4.82028">
        <ele>164</ele>
        <time>2014-10-05T09:34:48.000Z</time>
      </trkpt>
      <trkpt lat="45.73261" lon="4.82048">
        <ele>164</ele>
        <time>2014-10-05T09:34:54.000Z</time>
      </trkpt>
      <trkpt lat="45.73252" lon="4.82058">
        <ele>164</ele>
        <time>2014-10-05T09:34:58.000Z</time>
      </trkpt>
      <trkpt lat="45.73241" lon="4.82071">
        <ele>164</ele>
        <time>2014-10-05T09:35:03.000Z</time>
      </trkpt>
      <trkpt lat="45.7323" lon="4.82087">
        <ele>164</ele>
        <time>2014-10-05T09:35:08.000Z</time>
      </trkpt>
      <trkpt lat="45.73216" lon="4.82106">
        <ele>164</ele>
        <time>2014-10-05T09:35:14.000Z</time>
      </trkpt>
      <trkpt lat="45.73204" lon="4.82121">
        <ele>164</ele>
        <time>2014-10-05T09:35:19.000Z</time>
      </trkpt>
      <trkpt lat="45.73191" lon="4.82142">
        <ele>164.19999694824</ele>
        <time>2014-10-05T09:35:25.000Z</time>
      </trkpt>
      <trkpt lat="45.73184" lon="4.82169">
        <ele>164.60000610352</ele>
        <time>2014-10-05T09:35:31.000Z</time>
      </trkpt>
      <trkpt lat="45.73181" lon="4.82197">
        <ele>165.19999694824</ele>
        <time>2014-10-05T09:35:37.000Z</time>
      </trkpt>
      <trkpt lat="45.73181" lon="4.82202">
        <ele>165.39999389648</ele>
        <time>2014-10-05T09:35:38.000Z</time>
      </trkpt>
      <trkpt lat="45.73177" lon="4.82226">
        <ele>166.60000610352</ele>
        <time>2014-10-05T09:35:43.000Z</time>
      </trkpt>
      <trkpt lat="45.73174" lon="4.82253">
        <ele>167.39999389648</ele>
        <time>2014-10-05T09:35:49.000Z</time>
      </trkpt>
      <trkpt lat="45.73173" lon="4.82258">
        <ele>167.39999389648</ele>
        <time>2014-10-05T09:35:50.000Z</time>
      </trkpt>
      <trkpt lat="45.7317" lon="4.82283">
        <ele>167.80000305176</ele>
        <time>2014-10-05T09:35:56.000Z</time>
      </trkpt>
      <trkpt lat="45.73165" lon="4.82309">
        <ele>168.60000610352</ele>
        <time>2014-10-05T09:36:02.000Z</time>
      </trkpt>
      <trkpt lat="45.73164" lon="4.82313">
        <ele>168.80000305176</ele>
        <time>2014-10-05T09:36:03.000Z</time>
      </trkpt>
      <trkpt lat="45.73166" lon="4.82335">
        <ele>168.80000305176</ele>
        <time>2014-10-05T09:36:08.000Z</time>
      </trkpt>
      <trkpt lat="45.73165" lon="4.82358">
        <ele>168.39999389648</ele>
        <time>2014-10-05T09:36:13.000Z</time>
      </trkpt>
      <trkpt lat="45.73167" lon="4.82385">
        <ele>167.60000610352</ele>
        <time>2014-10-05T09:36:19.000Z</time>
      </trkpt>
      <trkpt lat="45.73166" lon="4.8239">
        <ele>167.19999694824</ele>
        <time>2014-10-05T09:36:20.000Z</time>
      </trkpt>
      <trkpt lat="45.73162" lon="4.82396">
        <ele>166.39999389648</ele>
        <time>2014-10-05T09:36:22.000Z</time>
      </trkpt>
      <trkpt lat="45.73158" lon="4.82398">
        <ele>166.19999694824</ele>
        <time>2014-10-05T09:36:23.000Z</time>
      </trkpt>
      <trkpt lat="45.73146" lon="4.82398">
        <ele>165.60000610352</ele>
        <time>2014-10-05T09:36:26.000Z</time>
      </trkpt>
      <trkpt lat="45.73143" lon="4.82397">
        <ele>165.39999389648</ele>
        <time>2014-10-05T09:36:27.000Z</time>
      </trkpt>
      <trkpt lat="45.73122" lon="4.82397">
        <ele>165.19999694824</ele>
        <time>2014-10-05T09:36:33.000Z</time>
      </trkpt>
      <trkpt lat="45.73103" lon="4.82395">
        <ele>165.60000610352</ele>
        <time>2014-10-05T09:36:39.000Z</time>
      </trkpt>
      <trkpt lat="45.73097" lon="4.82395">
        <ele>165.60000610352</ele>
        <time>2014-10-05T09:36:41.000Z</time>
      </trkpt>
      <trkpt lat="45.73079" lon="4.82393">
        <ele>166</ele>
        <time>2014-10-05T09:36:47.000Z</time>
      </trkpt>
      <trkpt lat="45.73063" lon="4.82394">
        <ele>166.60000610352</ele>
        <time>2014-10-05T09:36:52.000Z</time>
      </trkpt>
      <trkpt lat="45.73044" lon="4.82395">
        <ele>166.80000305176</ele>
        <time>2014-10-05T09:36:58.000Z</time>
      </trkpt>
      <trkpt lat="45.73041" lon="4.82395">
        <ele>166.80000305176</ele>
        <time>2014-10-05T09:36:59.000Z</time>
      </trkpt>
      <trkpt lat="45.73025" lon="4.82394">
        <ele>166.60000610352</ele>
        <time>2014-10-05T09:37:04.000Z</time>
      </trkpt>
      <trkpt lat="45.7301" lon="4.82391">
        <ele>166.39999389648</ele>
        <time>2014-10-05T09:37:09.000Z</time>
      </trkpt>
      <trkpt lat="45.7299" lon="4.82391">
        <ele>166.19999694824</ele>
        <time>2014-10-05T09:37:15.000Z</time>
      </trkpt>
      <trkpt lat="45.72987" lon="4.82391">
        <ele>166.39999389648</ele>
        <time>2014-10-05T09:37:16.000Z</time>
      </trkpt>
      <trkpt lat="45.72968" lon="4.82392">
        <ele>167</ele>
        <time>2014-10-05T09:37:22.000Z</time>
      </trkpt>
      <trkpt lat="45.72948" lon="4.82391">
        <ele>167.39999389648</ele>
        <time>2014-10-05T09:37:29.000Z</time>
      </trkpt>
      <trkpt lat="45.72932" lon="4.82393">
        <ele>168</ele>
        <time>2014-10-05T09:37:35.000Z</time>
      </trkpt>
      <trkpt lat="45.72914" lon="4.82393">
        <ele>168.39999389648</ele>
        <time>2014-10-05T09:37:41.000Z</time>
      </trkpt>
      <trkpt lat="45.72895" lon="4.82392">
        <ele>168</ele>
        <time>2014-10-05T09:37:47.000Z</time>
      </trkpt>
      <trkpt lat="45.72877" lon="4.82391">
        <ele>167.39999389648</ele>
        <time>2014-10-05T09:37:53.000Z</time>
      </trkpt>
      <trkpt lat="45.72873" lon="4.82391">
        <ele>167.19999694824</ele>
        <time>2014-10-05T09:37:54.000Z</time>
      </trkpt>
      <trkpt lat="45.72855" lon="4.82387">
        <ele>166.60000610352</ele>
        <time>2014-10-05T09:38:00.000Z</time>
      </trkpt>
      <trkpt lat="45.7285" lon="4.82385">
        <ele>166.39999389648</ele>
        <time>2014-10-05T09:38:02.000Z</time>
      </trkpt>
      <trkpt lat="45.72831" lon="4.82384">
        <ele>165.80000305176</ele>
        <time>2014-10-05T09:38:08.000Z</time>
      </trkpt>
      <trkpt lat="45.72829" lon="4.82384">
        <ele>165.80000305176</ele>
        <time>2014-10-05T09:38:09.000Z</time>
      </trkpt>
      <trkpt lat="45.7281" lon="4.82389">
        <ele>164.60000610352</ele>
        <time>2014-10-05T09:38:15.000Z</time>
      </trkpt>
      <trkpt lat="45.72792" lon="4.82398">
        <ele>163.80000305176</ele>
        <time>2014-10-05T09:38:21.000Z</time>
      </trkpt>
      <trkpt lat="45.72783" lon="4.82399">
        <ele>164</ele>
        <time>2014-10-05T09:38:24.000Z</time>
      </trkpt>
      <trkpt lat="45.7278" lon="4.82396">
        <ele>164.19999694824</ele>
        <time>2014-10-05T09:38:25.000Z</time>
      </trkpt>
      <trkpt lat="45.72765" lon="4.8238">
        <ele>165.19999694824</ele>
        <time>2014-10-05T09:38:31.000Z</time>
      </trkpt>
      <trkpt lat="45.72753" lon="4.82374">
        <ele>165.60000610352</ele>
        <time>2014-10-05T09:38:35.000Z</time>
      </trkpt>
      <trkpt lat="45.72739" lon="4.82374">
        <ele>165.60000610352</ele>
        <time>2014-10-05T09:38:40.000Z</time>
      </trkpt>
      <trkpt lat="45.72721" lon="4.82379">
        <ele>166</ele>
        <time>2014-10-05T09:38:45.000Z</time>
      </trkpt>
      <trkpt lat="45.72702" lon="4.8239">
        <ele>166.39999389648</ele>
        <time>2014-10-05T09:38:52.000Z</time>
      </trkpt>
      <trkpt lat="45.72688" lon="4.82401">
        <ele>166.80000305176</ele>
        <time>2014-10-05T09:38:57.000Z</time>
      </trkpt>
      <trkpt lat="45.72674" lon="4.82411">
        <ele>167</ele>
        <time>2014-10-05T09:39:02.000Z</time>
      </trkpt>
      <trkpt lat="45.72661" lon="4.82423">
        <ele>166.80000305176</ele>
        <time>2014-10-05T09:39:07.000Z</time>
      </trkpt>
      <trkpt lat="45.72645" lon="4.82436">
        <ele>166.39999389648</ele>
        <time>2014-10-05T09:39:13.000Z</time>
      </trkpt>
      <trkpt lat="45.7264" lon="4.82442">
        <ele>166.39999389648</ele>
        <time>2014-10-05T09:39:15.000Z</time>
      </trkpt>
      <trkpt lat="45.72626" lon="4.82458">
        <ele>166</ele>
        <time>2014-10-05T09:39:21.000Z</time>
      </trkpt>
      <trkpt lat="45.72611" lon="4.82476">
        <ele>165.80000305176</ele>
        <time>2014-10-05T09:39:27.000Z</time>
      </trkpt>
      <trkpt lat="45.72609" lon="4.82478">
        <ele>165.80000305176</ele>
        <time>2014-10-05T09:39:28.000Z</time>
      </trkpt>
      <trkpt lat="45.72599" lon="4.82492">
        <ele>165.60000610352</ele>
        <time>2014-10-05T09:39:33.000Z</time>
      </trkpt>
      <trkpt lat="45.72594" lon="4.82497">
        <ele>165.60000610352</ele>
        <time>2014-10-05T09:39:35.000Z</time>
      </trkpt>
      <trkpt lat="45.72581" lon="4.82514">
        <ele>166</ele>
        <time>2014-10-05T09:39:41.000Z</time>
      </trkpt>
      <trkpt lat="45.72569" lon="4.8253">
        <ele>166.60000610352</ele>
        <time>2014-10-05T09:39:47.000Z</time>
      </trkpt>
      <trkpt lat="45.72554" lon="4.82546">
        <ele>167</ele>
        <time>2014-10-05T09:39:53.000Z</time>
      </trkpt>
      <trkpt lat="45.72544" lon="4.82557">
        <ele>167</ele>
        <time>2014-10-05T09:39:57.000Z</time>
      </trkpt>
      <trkpt lat="45.72529" lon="4.82573">
        <ele>167.19999694824</ele>
        <time>2014-10-05T09:40:03.000Z</time>
      </trkpt>
      <trkpt lat="45.72516" lon="4.8259">
        <ele>167</ele>
        <time>2014-10-05T09:40:09.000Z</time>
      </trkpt>
      <trkpt lat="45.72503" lon="4.82608">
        <ele>166.80000305176</ele>
        <time>2014-10-05T09:40:15.000Z</time>
      </trkpt>
      <trkpt lat="45.7249" lon="4.82626">
        <ele>166.39999389648</ele>
        <time>2014-10-05T09:40:21.000Z</time>
      </trkpt>
      <trkpt lat="45.72488" lon="4.82629">
        <ele>166.19999694824</ele>
        <time>2014-10-05T09:40:22.000Z</time>
      </trkpt>
      <trkpt lat="45.72476" lon="4.82647">
        <ele>165.60000610352</ele>
        <time>2014-10-05T09:40:28.000Z</time>
      </trkpt>
      <trkpt lat="45.7246" lon="4.82667">
        <ele>164.60000610352</ele>
        <time>2014-10-05T09:40:35.000Z</time>
      </trkpt>
      <trkpt lat="45.72446" lon="4.82683">
        <ele>164</ele>
        <time>2014-10-05T09:40:41.000Z</time>
      </trkpt>
      <trkpt lat="45.72431" lon="4.82699">
        <ele>163.19999694824</ele>
        <time>2014-10-05T09:40:47.000Z</time>
      </trkpt>
      <trkpt lat="45.72421" lon="4.82717">
        <ele>163.19999694824</ele>
        <time>2014-10-05T09:40:52.000Z</time>
      </trkpt>
      <trkpt lat="45.72423" lon="4.82734">
        <ele>164</ele>
        <time>2014-10-05T09:40:56.000Z</time>
      </trkpt>
      <trkpt lat="45.72429" lon="4.82755">
        <ele>164.80000305176</ele>
        <time>2014-10-05T09:41:01.000Z</time>
      </trkpt>
      <trkpt lat="45.72436" lon="4.82776">
        <ele>165.39999389648</ele>
        <time>2014-10-05T09:41:06.000Z</time>
      </trkpt>
      <trkpt lat="45.72443" lon="4.82801">
        <ele>166.19999694824</ele>
        <time>2014-10-05T09:41:12.000Z</time>
      </trkpt>
      <trkpt lat="45.7245" lon="4.82822">
        <ele>166.60000610352</ele>
        <time>2014-10-05T09:41:17.000Z</time>
      </trkpt>
      <trkpt lat="45.72453" lon="4.82841">
        <ele>167</ele>
        <time>2014-10-05T09:41:22.000Z</time>
      </trkpt>
      <trkpt lat="45.72461" lon="4.82864">
        <ele>167.60000610352</ele>
        <time>2014-10-05T09:41:28.000Z</time>
      </trkpt>
      <trkpt lat="45.72466" lon="4.82885">
        <ele>167.39999389648</ele>
        <time>2014-10-05T09:41:33.000Z</time>
      </trkpt>
      <trkpt lat="45.72472" lon="4.8291">
        <ele>166.60000610352</ele>
        <time>2014-10-05T09:41:39.000Z</time>
      </trkpt>
      <trkpt lat="45.72476" lon="4.82931">
        <ele>166</ele>
        <time>2014-10-05T09:41:44.000Z</time>
      </trkpt>
      <trkpt lat="45.72484" lon="4.82955">
        <ele>165.39999389648</ele>
        <time>2014-10-05T09:41:50.000Z</time>
      </trkpt>
      <trkpt lat="45.72485" lon="4.82959">
        <ele>165.39999389648</ele>
        <time>2014-10-05T09:41:51.000Z</time>
      </trkpt>
      <trkpt lat="45.72491" lon="4.8298">
        <ele>165.39999389648</ele>
        <time>2014-10-05T09:41:56.000Z</time>
      </trkpt>
      <trkpt lat="45.72505" lon="4.82997">
        <ele>165.80000305176</ele>
        <time>2014-10-05T09:42:02.000Z</time>
      </trkpt>
      <trkpt lat="45.72518" lon="4.83004">
        <ele>166.19999694824</ele>
        <time>2014-10-05T09:42:07.000Z</time>
      </trkpt>
      <trkpt lat="45.72534" lon="4.83014">
        <ele>166.60000610352</ele>
        <time>2014-10-05T09:42:13.000Z</time>
      </trkpt>
      <trkpt lat="45.72549" lon="4.83022">
        <ele>166.80000305176</ele>
        <time>2014-10-05T09:42:18.000Z</time>
      </trkpt>
      <trkpt lat="45.72563" lon="4.83027">
        <ele>167</ele>
        <time>2014-10-05T09:42:23.000Z</time>
      </trkpt>
      <trkpt lat="45.72578" lon="4.83035">
        <ele>167</ele>
        <time>2014-10-05T09:42:28.000Z</time>
      </trkpt>
      <trkpt lat="45.72595" lon="4.83045">
        <ele>166.80000305176</ele>
        <time>2014-10-05T09:42:34.000Z</time>
      </trkpt>
      <trkpt lat="45.72613" lon="4.83055">
        <ele>166.19999694824</ele>
        <time>2014-10-05T09:42:40.000Z</time>
      </trkpt>
      <trkpt lat="45.72615" lon="4.83056">
        <ele>166.19999694824</ele>
        <time>2014-10-05T09:42:41.000Z</time>
      </trkpt>
      <trkpt lat="45.72629" lon="4.83066">
        <ele>165.80000305176</ele>
        <time>2014-10-05T09:42:46.000Z</time>
      </trkpt>
      <trkpt lat="45.72648" lon="4.83079">
        <ele>165.60000610352</ele>
        <time>2014-10-05T09:42:52.000Z</time>
      </trkpt>
      <trkpt lat="45.72655" lon="4.83095">
        <ele>165.19999694824</ele>
        <time>2014-10-05T09:42:56.000Z</time>
      </trkpt>
      <trkpt lat="45.72655" lon="4.8312">
        <ele>164</ele>
        <time>2014-10-05T09:43:01.000Z</time>
      </trkpt>
      <trkpt lat="45.72655" lon="4.83146">
        <ele>164.60000610352</ele>
        <time>2014-10-05T09:43:07.000Z</time>
      </trkpt>
      <trkpt lat="45.72655" lon="4.8317">
        <ele>166</ele>
        <time>2014-10-05T09:43:12.000Z</time>
      </trkpt>
      <trkpt lat="45.72656" lon="4.83198">
        <ele>167.80000305176</ele>
        <time>2014-10-05T09:43:18.000Z</time>
      </trkpt>
      <trkpt lat="45.72655" lon="4.83221">
        <ele>167.60000610352</ele>
        <time>2014-10-05T09:43:23.000Z</time>
      </trkpt>
      <trkpt lat="45.72655" lon="4.83244">
        <ele>168</ele>
        <time>2014-10-05T09:43:28.000Z</time>
      </trkpt>
      <trkpt lat="45.72652" lon="4.83271">
        <ele>168.80000305176</ele>
        <time>2014-10-05T09:43:34.000Z</time>
      </trkpt>
      <trkpt lat="45.7265" lon="4.83297">
        <ele>169</ele>
        <time>2014-10-05T09:43:40.000Z</time>
      </trkpt>
      <trkpt lat="45.72648" lon="4.83322">
        <ele>168.80000305176</ele>
        <time>2014-10-05T09:43:46.000Z</time>
      </trkpt>
      <trkpt lat="45.72646" lon="4.83348">
        <ele>168.60000610352</ele>
        <time>2014-10-05T09:43:52.000Z</time>
      </trkpt>
      <trkpt lat="45.72646" lon="4.83374">
        <ele>168.39999389648</ele>
        <time>2014-10-05T09:43:58.000Z</time>
      </trkpt>
      <trkpt lat="45.72646" lon="4.83378">
        <ele>168.39999389648</ele>
        <time>2014-10-05T09:43:59.000Z</time>
      </trkpt>
      <trkpt lat="45.72644" lon="4.83405">
        <ele>168</ele>
        <time>2014-10-05T09:44:05.000Z</time>
      </trkpt>
      <trkpt lat="45.72641" lon="4.83432">
        <ele>167.39999389648</ele>
        <time>2014-10-05T09:44:11.000Z</time>
      </trkpt>
      <trkpt lat="45.7264" lon="4.83454">
        <ele>167</ele>
        <time>2014-10-05T09:44:16.000Z</time>
      </trkpt>
      <trkpt lat="45.72639" lon="4.83483">
        <ele>167</ele>
        <time>2014-10-05T09:44:23.000Z</time>
      </trkpt>
      <trkpt lat="45.72639" lon="4.83487">
        <ele>167</ele>
        <time>2014-10-05T09:44:24.000Z</time>
      </trkpt>
      <trkpt lat="45.72639" lon="4.83501">
        <ele>167</ele>
        <time>2014-10-05T09:44:27.000Z</time>
      </trkpt>
      <trkpt lat="45.72637" lon="4.83523">
        <ele>167</ele>
        <time>2014-10-05T09:44:32.000Z</time>
      </trkpt>
      <trkpt lat="45.72634" lon="4.83548">
        <ele>166.80000305176</ele>
        <time>2014-10-05T09:44:38.000Z</time>
      </trkpt>
      <trkpt lat="45.72625" lon="4.83559">
        <ele>166.39999389648</ele>
        <time>2014-10-05T09:44:42.000Z</time>
      </trkpt>
      <trkpt lat="45.72608" lon="4.83557">
        <ele>166.19999694824</ele>
        <time>2014-10-05T09:44:47.000Z</time>
      </trkpt>
      <trkpt lat="45.72594" lon="4.83544">
        <ele>166.39999389648</ele>
        <time>2014-10-05T09:44:52.000Z</time>
      </trkpt>
      <trkpt lat="45.72577" lon="4.83532">
        <ele>166.19999694824</ele>
        <time>2014-10-05T09:44:58.000Z</time>
      </trkpt>
      <trkpt lat="45.7256" lon="4.83521">
        <ele>166</ele>
        <time>2014-10-05T09:45:04.000Z</time>
      </trkpt>
      <trkpt lat="45.72544" lon="4.83509">
        <ele>165.80000305176</ele>
        <time>2014-10-05T09:45:10.000Z</time>
      </trkpt>
      <trkpt lat="45.72541" lon="4.83506">
        <ele>165.80000305176</ele>
        <time>2014-10-05T09:45:11.000Z</time>
      </trkpt>
      <trkpt lat="45.72525" lon="4.83494">
        <ele>165.60000610352</ele>
        <time>2014-10-05T09:45:17.000Z</time>
      </trkpt>
      <trkpt lat="45.72509" lon="4.83483">
        <ele>165.39999389648</ele>
        <time>2014-10-05T09:45:23.000Z</time>
      </trkpt>
      <trkpt lat="45.72493" lon="4.83471">
        <ele>165.19999694824</ele>
        <time>2014-10-05T09:45:29.000Z</time>
      </trkpt>
      <trkpt lat="45.7249" lon="4.83469">
        <ele>165.19999694824</ele>
        <time>2014-10-05T09:45:30.000Z</time>
      </trkpt>
      <trkpt lat="45.72474" lon="4.83456">
        <ele>165</ele>
        <time>2014-10-05T09:45:36.000Z</time>
      </trkpt>
      <trkpt lat="45.72459" lon="4.83444">
        <ele>166.60000610352</ele>
        <time>2014-10-05T09:45:42.000Z</time>
      </trkpt>
      <trkpt lat="45.72456" lon="4.83442">
        <ele>166.80000305176</ele>
        <time>2014-10-05T09:45:43.000Z</time>
      </trkpt>
      <trkpt lat="45.72441" lon="4.83429">
        <ele>168.60000610352</ele>
        <time>2014-10-05T09:45:49.000Z</time>
      </trkpt>
      <trkpt lat="45.72433" lon="4.83423">
        <ele>169.60000610352</ele>
        <time>2014-10-05T09:45:52.000Z</time>
      </trkpt>
      <trkpt lat="45.72417" lon="4.83411">
        <ele>171.19999694824</ele>
        <time>2014-10-05T09:45:58.000Z</time>
      </trkpt>
      <trkpt lat="45.72403" lon="4.83402">
        <ele>172.60000610352</ele>
        <time>2014-10-05T09:46:03.000Z</time>
      </trkpt>
      <trkpt lat="45.72384" lon="4.83388">
        <ele>174.19999694824</ele>
        <time>2014-10-05T09:46:10.000Z</time>
      </trkpt>
      <trkpt lat="45.72368" lon="4.83376">
        <ele>173.60000610352</ele>
        <time>2014-10-05T09:46:16.000Z</time>
      </trkpt>
      <trkpt lat="45.72365" lon="4.83374">
        <ele>173.39999389648</ele>
        <time>2014-10-05T09:46:17.000Z</time>
      </trkpt>
      <trkpt lat="45.7235" lon="4.83362">
        <ele>172.60000610352</ele>
        <time>2014-10-05T09:46:23.000Z</time>
      </trkpt>
      <trkpt lat="45.72332" lon="4.83347">
        <ele>171.39999389648</ele>
        <time>2014-10-05T09:46:30.000Z</time>
      </trkpt>
      <trkpt lat="45.72327" lon="4.83342">
        <ele>171</ele>
        <time>2014-10-05T09:46:32.000Z</time>
      </trkpt>
      <trkpt lat="45.72311" lon="4.8333">
        <ele>169.80000305176</ele>
        <time>2014-10-05T09:46:38.000Z</time>
      </trkpt>
      <trkpt lat="45.72303" lon="4.83324">
        <ele>169.39999389648</ele>
        <time>2014-10-05T09:46:41.000Z</time>
      </trkpt>
      <trkpt lat="45.72287" lon="4.83311">
        <ele>169.39999389648</ele>
        <time>2014-10-05T09:46:47.000Z</time>
      </trkpt>
      <trkpt lat="45.72282" lon="4.83296">
        <ele>169.80000305176</ele>
        <time>2014-10-05T09:46:51.000Z</time>
      </trkpt>
      <trkpt lat="45.72284" lon="4.83292">
        <ele>170.19999694824</ele>
        <time>2014-10-05T09:46:52.000Z</time>
      </trkpt>
      <trkpt lat="45.72289" lon="4.83286">
        <ele>170.60000610352</ele>
        <time>2014-10-05T09:46:55.000Z</time>
      </trkpt>
      <trkpt lat="45.72293" lon="4.8328">
        <ele>171</ele>
        <time>2014-10-05T09:46:57.000Z</time>
      </trkpt>
      <trkpt lat="45.72295" lon="4.83271">
        <ele>171.19999694824</ele>
        <time>2014-10-05T09:46:59.000Z</time>
      </trkpt>
      <trkpt lat="45.72294" lon="4.83269">
        <ele>171.19999694824</ele>
        <time>2014-10-05T09:47:00.000Z</time>
      </trkpt>
      <trkpt lat="45.72297" lon="4.83257">
        <ele>171.39999389648</ele>
        <time>2014-10-05T09:47:02.000Z</time>
      </trkpt>
      <trkpt lat="45.72302" lon="4.83234">
        <ele>171.60000610352</ele>
        <time>2014-10-05T09:47:07.000Z</time>
      </trkpt>
      <trkpt lat="45.72303" lon="4.83229">
        <ele>171.80000305176</ele>
        <time>2014-10-05T09:47:08.000Z</time>
      </trkpt>
      <trkpt lat="45.72309" lon="4.83204">
        <ele>171.80000305176</ele>
        <time>2014-10-05T09:47:13.000Z</time>
      </trkpt>
      <trkpt lat="45.72315" lon="4.83178">
        <ele>171</ele>
        <time>2014-10-05T09:47:19.000Z</time>
      </trkpt>
      <trkpt lat="45.72324" lon="4.83154">
        <ele>170.19999694824</ele>
        <time>2014-10-05T09:47:25.000Z</time>
      </trkpt>
      <trkpt lat="45.72325" lon="4.8315">
        <ele>170.19999694824</ele>
        <time>2014-10-05T09:47:26.000Z</time>
      </trkpt>
      <trkpt lat="45.72336" lon="4.83132">
        <ele>168.80000305176</ele>
        <time>2014-10-05T09:47:31.000Z</time>
      </trkpt>
      <trkpt lat="45.72345" lon="4.83109">
        <ele>166.60000610352</ele>
        <time>2014-10-05T09:47:37.000Z</time>
      </trkpt>
      <trkpt lat="45.72354" lon="4.83097">
        <ele>165.19999694824</ele>
        <time>2014-10-05T09:47:42.000Z</time>
      </trkpt>
      <trkpt lat="45.72365" lon="4.8308">
        <ele>164.39999389648</ele>
        <time>2014-10-05T09:47:47.000Z</time>
      </trkpt>
      <trkpt lat="45.72379" lon="4.8307">
        <ele>164.39999389648</ele>
        <time>2014-10-05T09:47:52.000Z</time>
      </trkpt>
      <trkpt lat="45.72396" lon="4.83072">
        <ele>164.60000610352</ele>
        <time>2014-10-05T09:47:57.000Z</time>
      </trkpt>
      <trkpt lat="45.72414" lon="4.83079">
        <ele>164.80000305176</ele>
        <time>2014-10-05T09:48:03.000Z</time>
      </trkpt>
      <trkpt lat="45.72417" lon="4.8308">
        <ele>164.80000305176</ele>
        <time>2014-10-05T09:48:04.000Z</time>
      </trkpt>
      <trkpt lat="45.7243" lon="4.83075">
        <ele>165</ele>
        <time>2014-10-05T09:48:08.000Z</time>
      </trkpt>
      <trkpt lat="45.72441" lon="4.83061">
        <ele>165</ele>
        <time>2014-10-05T09:48:13.000Z</time>
      </trkpt>
      <trkpt lat="45.72448" lon="4.83043">
        <ele>164.80000305176</ele>
        <time>2014-10-05T09:48:18.000Z</time>
      </trkpt>
      <trkpt lat="45.72454" lon="4.83023">
        <ele>165</ele>
        <time>2014-10-05T09:48:23.000Z</time>
      </trkpt>
      <trkpt lat="45.72462" lon="4.82996">
        <ele>165</ele>
        <time>2014-10-05T09:48:30.000Z</time>
      </trkpt>
      <trkpt lat="45.72466" lon="4.82982">
        <ele>165</ele>
        <time>2014-10-05T09:48:36.000Z</time>
      </trkpt>
      <trkpt lat="45.72469" lon="4.82976">
        <ele>165</ele>
        <time>2014-10-05T09:48:38.000Z</time>
      </trkpt>
      <trkpt lat="45.72468" lon="4.82971">
        <ele>165</ele>
        <time>2014-10-05T09:48:39.000Z</time>
      </trkpt>
      <trkpt lat="45.72461" lon="4.82962">
        <ele>165</ele>
        <time>2014-10-05T09:48:42.000Z</time>
      </trkpt>
      <trkpt lat="45.72459" lon="4.82959">
        <ele>165</ele>
        <time>2014-10-05T09:48:43.000Z</time>
      </trkpt>
      <trkpt lat="45.72442" lon="4.82949">
        <ele>165.19999694824</ele>
        <time>2014-10-05T09:48:49.000Z</time>
      </trkpt>
      <trkpt lat="45.72424" lon="4.8294">
        <ele>165.39999389648</ele>
        <time>2014-10-05T09:48:55.000Z</time>
      </trkpt>
      <trkpt lat="45.72406" lon="4.8293">
        <ele>165.60000610352</ele>
        <time>2014-10-05T09:49:01.000Z</time>
      </trkpt>
      <trkpt lat="45.72389" lon="4.82921">
        <ele>165.80000305176</ele>
        <time>2014-10-05T09:49:07.000Z</time>
      </trkpt>
      <trkpt lat="45.72387" lon="4.8292">
        <ele>165.80000305176</ele>
        <time>2014-10-05T09:49:08.000Z</time>
      </trkpt>
      <trkpt lat="45.72372" lon="4.8291">
        <ele>166</ele>
        <time>2014-10-05T09:49:13.000Z</time>
      </trkpt>
      <trkpt lat="45.72361" lon="4.82903">
        <ele>166.19999694824</ele>
        <time>2014-10-05T09:49:17.000Z</time>
      </trkpt>
      <trkpt lat="45.72355" lon="4.829">
        <ele>166.39999389648</ele>
        <time>2014-10-05T09:49:19.000Z</time>
      </trkpt>
      <trkpt lat="45.72338" lon="4.82893">
        <ele>166.60000610352</ele>
        <time>2014-10-05T09:49:25.000Z</time>
      </trkpt>
      <trkpt lat="45.72329" lon="4.82888">
        <ele>166.60000610352</ele>
        <time>2014-10-05T09:49:28.000Z</time>
      </trkpt>
      <trkpt lat="45.72319" lon="4.82885">
        <ele>166.60000610352</ele>
        <time>2014-10-05T09:49:32.000Z</time>
      </trkpt>
      <trkpt lat="45.72316" lon="4.82888">
        <ele>166.80000305176</ele>
        <time>2014-10-05T09:49:33.000Z</time>
      </trkpt>
      <trkpt lat="45.72307" lon="4.82907">
        <ele>167</ele>
        <time>2014-10-05T09:49:38.000Z</time>
      </trkpt>
      <trkpt lat="45.72301" lon="4.82927">
        <ele>167</ele>
        <time>2014-10-05T09:49:43.000Z</time>
      </trkpt>
      <trkpt lat="45.72296" lon="4.82944">
        <ele>167</ele>
        <time>2014-10-05T09:49:47.000Z</time>
      </trkpt>
      <trkpt lat="45.72287" lon="4.82967">
        <ele>166.80000305176</ele>
        <time>2014-10-05T09:49:53.000Z</time>
      </trkpt>
      <trkpt lat="45.72276" lon="4.82989">
        <ele>166.19999694824</ele>
        <time>2014-10-05T09:49:59.000Z</time>
      </trkpt>
      <trkpt lat="45.72266" lon="4.83005">
        <ele>165.60000610352</ele>
        <time>2014-10-05T09:50:04.000Z</time>
      </trkpt>
      <trkpt lat="45.72257" lon="4.83029">
        <ele>164.39999389648</ele>
        <time>2014-10-05T09:50:10.000Z</time>
      </trkpt>
      <trkpt lat="45.72256" lon="4.83034">
        <ele>164.19999694824</ele>
        <time>2014-10-05T09:50:11.000Z</time>
      </trkpt>
      <trkpt lat="45.72247" lon="4.83052">
        <ele>165</ele>
        <time>2014-10-05T09:50:16.000Z</time>
      </trkpt>
      <trkpt lat="45.72237" lon="4.83075">
        <ele>166</ele>
        <time>2014-10-05T09:50:22.000Z</time>
      </trkpt>
      <trkpt lat="45.72228" lon="4.83098">
        <ele>166.39999389648</ele>
        <time>2014-10-05T09:50:28.000Z</time>
      </trkpt>
      <trkpt lat="45.72226" lon="4.83102">
        <ele>166.39999389648</ele>
        <time>2014-10-05T09:50:29.000Z</time>
      </trkpt>
      <trkpt lat="45.72217" lon="4.83125">
        <ele>167</ele>
        <time>2014-10-05T09:50:35.000Z</time>
      </trkpt>
      <trkpt lat="45.72215" lon="4.83129">
        <ele>167.19999694824</ele>
        <time>2014-10-05T09:50:36.000Z</time>
      </trkpt>
      <trkpt lat="45.72204" lon="4.83149">
        <ele>167.80000305176</ele>
        <time>2014-10-05T09:50:42.000Z</time>
      </trkpt>
      <trkpt lat="45.72202" lon="4.83152">
        <ele>168</ele>
        <time>2014-10-05T09:50:43.000Z</time>
      </trkpt>
      <trkpt lat="45.72192" lon="4.83175">
        <ele>168.80000305176</ele>
        <time>2014-10-05T09:50:49.000Z</time>
      </trkpt>
      <trkpt lat="45.72183" lon="4.83197">
        <ele>168.60000610352</ele>
        <time>2014-10-05T09:50:55.000Z</time>
      </trkpt>
      <trkpt lat="45.72173" lon="4.8322">
        <ele>167.39999389648</ele>
        <time>2014-10-05T09:51:01.000Z</time>
      </trkpt>
      <trkpt lat="45.72171" lon="4.83222">
        <ele>167</ele>
        <time>2014-10-05T09:51:02.000Z</time>
      </trkpt>
      <trkpt lat="45.72167" lon="4.83221">
        <ele>166.80000305176</ele>
        <time>2014-10-05T09:51:03.000Z</time>
      </trkpt>
      <trkpt lat="45.72161" lon="4.83216">
        <ele>166.60000610352</ele>
        <time>2014-10-05T09:51:05.000Z</time>
      </trkpt>
      <trkpt lat="45.7215" lon="4.83199">
        <ele>166</ele>
        <time>2014-10-05T09:51:10.000Z</time>
      </trkpt>
      <trkpt lat="45.72137" lon="4.83179">
        <ele>164.39999389648</ele>
        <time>2014-10-05T09:51:16.000Z</time>
      </trkpt>
      <trkpt lat="45.72123" lon="4.83161">
        <ele>163.80000305176</ele>
        <time>2014-10-05T09:51:22.000Z</time>
      </trkpt>
      <trkpt lat="45.72121" lon="4.83159">
        <ele>163.60000610352</ele>
        <time>2014-10-05T09:51:23.000Z</time>
      </trkpt>
      <trkpt lat="45.72107" lon="4.83142">
        <ele>163.19999694824</ele>
        <time>2014-10-05T09:51:29.000Z</time>
      </trkpt>
      <trkpt lat="45.72105" lon="4.83139">
        <ele>163</ele>
        <time>2014-10-05T09:51:30.000Z</time>
      </trkpt>
      <trkpt lat="45.7209" lon="4.83123">
        <ele>162.39999389648</ele>
        <time>2014-10-05T09:51:36.000Z</time>
      </trkpt>
      <trkpt lat="45.72088" lon="4.8312">
        <ele>162.39999389648</ele>
        <time>2014-10-05T09:51:37.000Z</time>
      </trkpt>
      <trkpt lat="45.72074" lon="4.83103">
        <ele>162.80000305176</ele>
        <time>2014-10-05T09:51:43.000Z</time>
      </trkpt>
      <trkpt lat="45.7207" lon="4.83097">
        <ele>162.80000305176</ele>
        <time>2014-10-05T09:51:45.000Z</time>
      </trkpt>
      <trkpt lat="45.72056" lon="4.83081">
        <ele>163</ele>
        <time>2014-10-05T09:51:51.000Z</time>
      </trkpt>
      <trkpt lat="45.72054" lon="4.83078">
        <ele>163</ele>
        <time>2014-10-05T09:51:52.000Z</time>
      </trkpt>
      <trkpt lat="45.72042" lon="4.8306">
        <ele>163.39999389648</ele>
        <time>2014-10-05T09:51:58.000Z</time>
      </trkpt>
      <trkpt lat="45.72028" lon="4.83042">
        <ele>163.60000610352</ele>
        <time>2014-10-05T09:52:04.000Z</time>
      </trkpt>
      <trkpt lat="45.72026" lon="4.8304">
        <ele>163.60000610352</ele>
        <time>2014-10-05T09:52:05.000Z</time>
      </trkpt>
      <trkpt lat="45.72012" lon="4.83023">
        <ele>163.39999389648</ele>
        <time>2014-10-05T09:52:11.000Z</time>
      </trkpt>
      <trkpt lat="45.7201" lon="4.8302">
        <ele>163.19999694824</ele>
        <time>2014-10-05T09:52:12.000Z</time>
      </trkpt>
      <trkpt lat="45.71996" lon="4.83003">
        <ele>162.80000305176</ele>
        <time>2014-10-05T09:52:18.000Z</time>
      </trkpt>
      <trkpt lat="45.71993" lon="4.83">
        <ele>162.80000305176</ele>
        <time>2014-10-05T09:52:19.000Z</time>
      </trkpt>
      <trkpt lat="45.71979" lon="4.82984">
        <ele>162.39999389648</ele>
        <time>2014-10-05T09:52:25.000Z</time>
      </trkpt>
      <trkpt lat="45.71965" lon="4.82966">
        <ele>162.39999389648</ele>
        <time>2014-10-05T09:52:31.000Z</time>
      </trkpt>
      <trkpt lat="45.71951" lon="4.82948">
        <ele>162.60000610352</ele>
        <time>2014-10-05T09:52:37.000Z</time>
      </trkpt>
      <trkpt lat="45.71937" lon="4.8293">
        <ele>162.80000305176</ele>
        <time>2014-10-05T09:52:43.000Z</time>
      </trkpt>
      <trkpt lat="45.71935" lon="4.82927">
        <ele>163</ele>
        <time>2014-10-05T09:52:44.000Z</time>
      </trkpt>
      <trkpt lat="45.71925" lon="4.8291">
        <ele>163</ele>
        <time>2014-10-05T09:52:49.000Z</time>
      </trkpt>
      <trkpt lat="45.71914" lon="4.82889">
        <ele>163.80000305176</ele>
        <time>2014-10-05T09:52:55.000Z</time>
      </trkpt>
      <trkpt lat="45.71902" lon="4.82869">
        <ele>164.19999694824</ele>
        <time>2014-10-05T09:53:01.000Z</time>
      </trkpt>
      <trkpt lat="45.7189" lon="4.8285">
        <ele>164.60000610352</ele>
        <time>2014-10-05T09:53:07.000Z</time>
      </trkpt>
      <trkpt lat="45.71881" lon="4.82829">
        <ele>165</ele>
        <time>2014-10-05T09:53:13.000Z</time>
      </trkpt>
      <trkpt lat="45.71871" lon="4.82807">
        <ele>165.39999389648</ele>
        <time>2014-10-05T09:53:19.000Z</time>
      </trkpt>
      <trkpt lat="45.71869" lon="4.82804">
        <ele>165.39999389648</ele>
        <time>2014-10-05T09:53:20.000Z</time>
      </trkpt>
      <trkpt lat="45.7186" lon="4.82783">
        <ele>165.60000610352</ele>
        <time>2014-10-05T09:53:26.000Z</time>
      </trkpt>
      <trkpt lat="45.7185" lon="4.82762">
        <ele>165.60000610352</ele>
        <time>2014-10-05T09:53:32.000Z</time>
      </trkpt>
      <trkpt lat="45.71837" lon="4.82739">
        <ele>165.39999389648</ele>
        <time>2014-10-05T09:53:39.000Z</time>
      </trkpt>
      <trkpt lat="45.71828" lon="4.82718">
        <ele>165.19999694824</ele>
        <time>2014-10-05T09:53:45.000Z</time>
      </trkpt>
      <trkpt lat="45.71817" lon="4.82693">
        <ele>164.80000305176</ele>
        <time>2014-10-05T09:53:52.000Z</time>
      </trkpt>
      <trkpt lat="45.71815" lon="4.82689">
        <ele>164.80000305176</ele>
        <time>2014-10-05T09:53:53.000Z</time>
      </trkpt>
      <trkpt lat="45.71807" lon="4.82672">
        <ele>164.60000610352</ele>
        <time>2014-10-05T09:53:58.000Z</time>
      </trkpt>
      <trkpt lat="45.71795" lon="4.82651">
        <ele>164.39999389648</ele>
        <time>2014-10-05T09:54:04.000Z</time>
      </trkpt>
      <trkpt lat="45.71794" lon="4.82648">
        <ele>164.39999389648</ele>
        <time>2014-10-05T09:54:05.000Z</time>
      </trkpt>
      <trkpt lat="45.71785" lon="4.8263">
        <ele>164.39999389648</ele>
        <time>2014-10-05T09:54:10.000Z</time>
      </trkpt>
      <trkpt lat="45.71782" lon="4.82618">
        <ele>164.39999389648</ele>
        <time>2014-10-05T09:54:13.000Z</time>
      </trkpt>
      <trkpt lat="45.71784" lon="4.82599">
        <ele>164.39999389648</ele>
        <time>2014-10-05T09:54:17.000Z</time>
      </trkpt>
      <trkpt lat="45.71791" lon="4.82576">
        <ele>164.19999694824</ele>
        <time>2014-10-05T09:54:23.000Z</time>
      </trkpt>
      <trkpt lat="45.71804" lon="4.82554">
        <ele>164</ele>
        <time>2014-10-05T09:54:29.000Z</time>
      </trkpt>
      <trkpt lat="45.71816" lon="4.82539">
        <ele>163.80000305176</ele>
        <time>2014-10-05T09:54:34.000Z</time>
      </trkpt>
      <trkpt lat="45.7183" lon="4.82524">
        <ele>163.60000610352</ele>
        <time>2014-10-05T09:54:40.000Z</time>
      </trkpt>
      <trkpt lat="45.71841" lon="4.82512">
        <ele>163.60000610352</ele>
        <time>2014-10-05T09:54:45.000Z</time>
      </trkpt>
      <trkpt lat="45.71852" lon="4.82498">
        <ele>163.39999389648</ele>
        <time>2014-10-05T09:54:50.000Z</time>
      </trkpt>
      <trkpt lat="45.71867" lon="4.82482">
        <ele>163.60000610352</ele>
        <time>2014-10-05T09:54:56.000Z</time>
      </trkpt>
      <trkpt lat="45.71882" lon="4.82468">
        <ele>163.80000305176</ele>
        <time>2014-10-05T09:55:02.000Z</time>
      </trkpt>
      <trkpt lat="45.71884" lon="4.82465">
        <ele>163.80000305176</ele>
        <time>2014-10-05T09:55:03.000Z</time>
      </trkpt>
      <trkpt lat="45.71898" lon="4.82464">
        <ele>163.80000305176</ele>
        <time>2014-10-05T09:55:08.000Z</time>
      </trkpt>
      <trkpt lat="45.71906" lon="4.82479">
        <ele>163.39999389648</ele>
        <time>2014-10-05T09:55:12.000Z</time>
      </trkpt>
      <trkpt lat="45.71908" lon="4.82483">
        <ele>163.39999389648</ele>
        <time>2014-10-05T09:55:13.000Z</time>
      </trkpt>
      <trkpt lat="45.71918" lon="4.82502">
        <ele>163</ele>
        <time>2014-10-05T09:55:18.000Z</time>
      </trkpt>
      <trkpt lat="45.71928" lon="4.82517">
        <ele>162.80000305176</ele>
        <time>2014-10-05T09:55:23.000Z</time>
      </trkpt>
      <trkpt lat="45.7194" lon="4.82538">
        <ele>162.39999389648</ele>
        <time>2014-10-05T09:55:29.000Z</time>
      </trkpt>
      <trkpt lat="45.71953" lon="4.82558">
        <ele>162.60000610352</ele>
        <time>2014-10-05T09:55:35.000Z</time>
      </trkpt>
      <trkpt lat="45.71961" lon="4.82572">
        <ele>163</ele>
        <time>2014-10-05T09:55:39.000Z</time>
      </trkpt>
      <trkpt lat="45.71972" lon="4.82592">
        <ele>163.19999694824</ele>
        <time>2014-10-05T09:55:45.000Z</time>
      </trkpt>
      <trkpt lat="45.71981" lon="4.82608">
        <ele>163.60000610352</ele>
        <time>2014-10-05T09:55:50.000Z</time>
      </trkpt>
      <trkpt lat="45.71991" lon="4.82628">
        <ele>164</ele>
        <time>2014-10-05T09:55:56.000Z</time>
      </trkpt>
      <trkpt lat="45.72001" lon="4.82645">
        <ele>163.80000305176</ele>
        <time>2014-10-05T09:56:01.000Z</time>
      </trkpt>
      <trkpt lat="45.72013" lon="4.82665">
        <ele>163.39999389648</ele>
        <time>2014-10-05T09:56:07.000Z</time>
      </trkpt>
      <trkpt lat="45.72022" lon="4.82681">
        <ele>163.39999389648</ele>
        <time>2014-10-05T09:56:12.000Z</time>
      </trkpt>
      <trkpt lat="45.72034" lon="4.82701">
        <ele>163.39999389648</ele>
        <time>2014-10-05T09:56:18.000Z</time>
      </trkpt>
      <trkpt lat="45.72041" lon="4.82711">
        <ele>163.39999389648</ele>
        <time>2014-10-05T09:56:22.000Z</time>
      </trkpt>
      <trkpt lat="45.72052" lon="4.82729">
        <ele>163.60000610352</ele>
        <time>2014-10-05T09:56:27.000Z</time>
      </trkpt>
      <trkpt lat="45.72065" lon="4.82749">
        <ele>164</ele>
        <time>2014-10-05T09:56:33.000Z</time>
      </trkpt>
      <trkpt lat="45.72067" lon="4.82752">
        <ele>164.19999694824</ele>
        <time>2014-10-05T09:56:34.000Z</time>
      </trkpt>
      <trkpt lat="45.72079" lon="4.82774">
        <ele>164.60000610352</ele>
        <time>2014-10-05T09:56:40.000Z</time>
      </trkpt>
      <trkpt lat="45.72094" lon="4.82794">
        <ele>165</ele>
        <time>2014-10-05T09:56:46.000Z</time>
      </trkpt>
      <trkpt lat="45.72104" lon="4.82815">
        <ele>165</ele>
        <time>2014-10-05T09:56:52.000Z</time>
      </trkpt>
      <trkpt lat="45.72111" lon="4.82823">
        <ele>165</ele>
        <time>2014-10-05T09:56:55.000Z</time>
      </trkpt>
      <trkpt lat="45.72117" lon="4.82834">
        <ele>165</ele>
        <time>2014-10-05T09:56:58.000Z</time>
      </trkpt>
      <trkpt lat="45.72119" lon="4.82838">
        <ele>165</ele>
        <time>2014-10-05T09:56:59.000Z</time>
      </trkpt>
      <trkpt lat="45.72132" lon="4.82858">
        <ele>165</ele>
        <time>2014-10-05T09:57:05.000Z</time>
      </trkpt>
      <trkpt lat="45.72137" lon="4.82865">
        <ele>165</ele>
        <time>2014-10-05T09:57:07.000Z</time>
      </trkpt>
      <trkpt lat="45.72148" lon="4.82881">
        <ele>165.39999389648</ele>
        <time>2014-10-05T09:57:12.000Z</time>
      </trkpt>
      <trkpt lat="45.72159" lon="4.82901">
        <ele>165.60000610352</ele>
        <time>2014-10-05T09:57:18.000Z</time>
      </trkpt>
      <trkpt lat="45.7216" lon="4.82904">
        <ele>165.80000305176</ele>
        <time>2014-10-05T09:57:19.000Z</time>
      </trkpt>
      <trkpt lat="45.7217" lon="4.8292">
        <ele>166</ele>
        <time>2014-10-05T09:57:24.000Z</time>
      </trkpt>
      <trkpt lat="45.72183" lon="4.82938">
        <ele>166.39999389648</ele>
        <time>2014-10-05T09:57:30.000Z</time>
      </trkpt>
      <trkpt lat="45.72186" lon="4.82941">
        <ele>166.60000610352</ele>
        <time>2014-10-05T09:57:31.000Z</time>
      </trkpt>
      <trkpt lat="45.72198" lon="4.82947">
        <ele>167</ele>
        <time>2014-10-05T09:57:36.000Z</time>
      </trkpt>
      <trkpt lat="45.72213" lon="4.82943">
        <ele>167.80000305176</ele>
        <time>2014-10-05T09:57:41.000Z</time>
      </trkpt>
      <trkpt lat="45.72231" lon="4.82945">
        <ele>167.80000305176</ele>
        <time>2014-10-05T09:57:47.000Z</time>
      </trkpt>
      <trkpt lat="45.72243" lon="4.82954">
        <ele>167.80000305176</ele>
        <time>2014-10-05T09:57:51.000Z</time>
      </trkpt>
      <trkpt lat="45.72254" lon="4.82961">
        <ele>167.39999389648</ele>
        <time>2014-10-05T09:57:55.000Z</time>
      </trkpt>
      <trkpt lat="45.72272" lon="4.82972">
        <ele>166.80000305176</ele>
        <time>2014-10-05T09:58:02.000Z</time>
      </trkpt>
      <trkpt lat="45.72275" lon="4.82969">
        <ele>166.80000305176</ele>
        <time>2014-10-05T09:58:03.000Z</time>
      </trkpt>
      <trkpt lat="45.7228" lon="4.82961">
        <ele>167</ele>
        <time>2014-10-05T09:58:05.000Z</time>
      </trkpt>
      <trkpt lat="45.72291" lon="4.82938">
        <ele>167.19999694824</ele>
        <time>2014-10-05T09:58:11.000Z</time>
      </trkpt>
      <trkpt lat="45.72292" lon="4.82934">
        <ele>167.19999694824</ele>
        <time>2014-10-05T09:58:12.000Z</time>
      </trkpt>
      <trkpt lat="45.72301" lon="4.82911">
        <ele>167</ele>
        <time>2014-10-05T09:58:18.000Z</time>
      </trkpt>
      <trkpt lat="45.7231" lon="4.82888">
        <ele>166.80000305176</ele>
        <time>2014-10-05T09:58:24.000Z</time>
      </trkpt>
      <trkpt lat="45.72313" lon="4.8288">
        <ele>166.80000305176</ele>
        <time>2014-10-05T09:58:26.000Z</time>
      </trkpt>
      <trkpt lat="45.72325" lon="4.82856">
        <ele>166.60000610352</ele>
        <time>2014-10-05T09:58:33.000Z</time>
      </trkpt>
      <trkpt lat="45.72327" lon="4.82852">
        <ele>166.60000610352</ele>
        <time>2014-10-05T09:58:34.000Z</time>
      </trkpt>
      <trkpt lat="45.72336" lon="4.8283">
        <ele>166</ele>
        <time>2014-10-05T09:58:40.000Z</time>
      </trkpt>
      <trkpt lat="45.72347" lon="4.82808">
        <ele>165.19999694824</ele>
        <time>2014-10-05T09:58:46.000Z</time>
      </trkpt>
      <trkpt lat="45.72353" lon="4.82797">
        <ele>164.80000305176</ele>
        <time>2014-10-05T09:58:49.000Z</time>
      </trkpt>
      <trkpt lat="45.72364" lon="4.82778">
        <ele>163.80000305176</ele>
        <time>2014-10-05T09:58:54.000Z</time>
      </trkpt>
      <trkpt lat="45.72379" lon="4.82761">
        <ele>163.39999389648</ele>
        <time>2014-10-05T09:59:00.000Z</time>
      </trkpt>
      <trkpt lat="45.72381" lon="4.82757">
        <ele>163.19999694824</ele>
        <time>2014-10-05T09:59:01.000Z</time>
      </trkpt>
      <trkpt lat="45.72388" lon="4.82747">
        <ele>163</ele>
        <time>2014-10-05T09:59:04.000Z</time>
      </trkpt>
      <trkpt lat="45.72402" lon="4.82728">
        <ele>163</ele>
        <time>2014-10-05T09:59:10.000Z</time>
      </trkpt>
      <trkpt lat="45.72415" lon="4.82709">
        <ele>162.80000305176</ele>
        <time>2014-10-05T09:59:16.000Z</time>
      </trkpt>
      <trkpt lat="45.72417" lon="4.82706">
        <ele>162.80000305176</ele>
        <time>2014-10-05T09:59:17.000Z</time>
      </trkpt>
      <trkpt lat="45.7242" lon="4.82681">
        <ele>163.39999389648</ele>
        <time>2014-10-05T09:59:24.000Z</time>
      </trkpt>
      <trkpt lat="45.72414" lon="4.82667">
        <ele>163.60000610352</ele>
        <time>2014-10-05T09:59:28.000Z</time>
      </trkpt>
      <trkpt lat="45.72407" lon="4.82648">
        <ele>163.80000305176</ele>
        <time>2014-10-05T09:59:33.000Z</time>
      </trkpt>
      <trkpt lat="45.72405" lon="4.82633">
        <ele>164.19999694824</ele>
        <time>2014-10-05T09:59:37.000Z</time>
      </trkpt>
      <trkpt lat="45.72397" lon="4.82609">
        <ele>164</ele>
        <time>2014-10-05T09:59:43.000Z</time>
      </trkpt>
      <trkpt lat="45.72392" lon="4.8259">
        <ele>163.80000305176</ele>
        <time>2014-10-05T09:59:48.000Z</time>
      </trkpt>
      <trkpt lat="45.72384" lon="4.82563">
        <ele>163.39999389648</ele>
        <time>2014-10-05T09:59:55.000Z</time>
      </trkpt>
      <trkpt lat="45.72383" lon="4.82555">
        <ele>163.39999389648</ele>
        <time>2014-10-05T09:59:57.000Z</time>
      </trkpt>
      <trkpt lat="45.72375" lon="4.82529">
        <ele>163.39999389648</ele>
        <time>2014-10-05T10:00:03.000Z</time>
      </trkpt>
      <trkpt lat="45.72374" lon="4.82525">
        <ele>163.39999389648</ele>
        <time>2014-10-05T10:00:04.000Z</time>
      </trkpt>
      <trkpt lat="45.72367" lon="4.825">
        <ele>164.19999694824</ele>
        <time>2014-10-05T10:00:10.000Z</time>
      </trkpt>
      <trkpt lat="45.72362" lon="4.82476">
        <ele>165</ele>
        <time>2014-10-05T10:00:16.000Z</time>
      </trkpt>
      <trkpt lat="45.72357" lon="4.8246">
        <ele>165.39999389648</ele>
        <time>2014-10-05T10:00:20.000Z</time>
      </trkpt>
      <trkpt lat="45.72351" lon="4.82435">
        <ele>165.60000610352</ele>
        <time>2014-10-05T10:00:26.000Z</time>
      </trkpt>
      <trkpt lat="45.7235" lon="4.82431">
        <ele>165.60000610352</ele>
        <time>2014-10-05T10:00:27.000Z</time>
      </trkpt>
      <trkpt lat="45.72343" lon="4.82405">
        <ele>165.39999389648</ele>
        <time>2014-10-05T10:00:33.000Z</time>
      </trkpt>
      <trkpt lat="45.72335" lon="4.82379">
        <ele>164.80000305176</ele>
        <time>2014-10-05T10:00:39.000Z</time>
      </trkpt>
      <trkpt lat="45.72332" lon="4.8237">
        <ele>164.60000610352</ele>
        <time>2014-10-05T10:00:41.000Z</time>
      </trkpt>
      <trkpt lat="45.72331" lon="4.82348">
        <ele>164</ele>
        <time>2014-10-05T10:00:46.000Z</time>
      </trkpt>
      <trkpt lat="45.72342" lon="4.82336">
        <ele>163.60000610352</ele>
        <time>2014-10-05T10:00:50.000Z</time>
      </trkpt>
      <trkpt lat="45.72356" lon="4.82319">
        <ele>163.60000610352</ele>
        <time>2014-10-05T10:00:56.000Z</time>
      </trkpt>
      <trkpt lat="45.72358" lon="4.82316">
        <ele>163.60000610352</ele>
        <time>2014-10-05T10:00:57.000Z</time>
      </trkpt>
      <trkpt lat="45.72376" lon="4.82295">
        <ele>163.80000305176</ele>
        <time>2014-10-05T10:01:05.000Z</time>
      </trkpt>
      <trkpt lat="45.72391" lon="4.82277">
        <ele>164.19999694824</ele>
        <time>2014-10-05T10:01:11.000Z</time>
      </trkpt>
      <trkpt lat="45.72394" lon="4.82274">
        <ele>164.19999694824</ele>
        <time>2014-10-05T10:01:12.000Z</time>
      </trkpt>
      <trkpt lat="45.72407" lon="4.82257">
        <ele>164.60000610352</ele>
        <time>2014-10-05T10:01:18.000Z</time>
      </trkpt>
      <trkpt lat="45.7242" lon="4.82239">
        <ele>165</ele>
        <time>2014-10-05T10:01:24.000Z</time>
      </trkpt>
      <trkpt lat="45.72422" lon="4.82236">
        <ele>165</ele>
        <time>2014-10-05T10:01:25.000Z</time>
      </trkpt>
      <trkpt lat="45.72437" lon="4.82221">
        <ele>164.60000610352</ele>
        <time>2014-10-05T10:01:31.000Z</time>
      </trkpt>
      <trkpt lat="45.72442" lon="4.82215">
        <ele>164.39999389648</ele>
        <time>2014-10-05T10:01:33.000Z</time>
      </trkpt>
      <trkpt lat="45.72456" lon="4.82199">
        <ele>164.60000610352</ele>
        <time>2014-10-05T10:01:39.000Z</time>
      </trkpt>
      <trkpt lat="45.72469" lon="4.82182">
        <ele>165.19999694824</ele>
        <time>2014-10-05T10:01:45.000Z</time>
      </trkpt>
      <trkpt lat="45.72477" lon="4.82174">
        <ele>165.80000305176</ele>
        <time>2014-10-05T10:01:48.000Z</time>
      </trkpt>
      <trkpt lat="45.72493" lon="4.82155">
        <ele>167.19999694824</ele>
        <time>2014-10-05T10:01:55.000Z</time>
      </trkpt>
      <trkpt lat="45.72496" lon="4.82152">
        <ele>167.39999389648</ele>
        <time>2014-10-05T10:01:56.000Z</time>
      </trkpt>
      <trkpt lat="45.72509" lon="4.82135">
        <ele>166.60000610352</ele>
        <time>2014-10-05T10:02:02.000Z</time>
      </trkpt>
      <trkpt lat="45.72514" lon="4.82129">
        <ele>166.19999694824</ele>
        <time>2014-10-05T10:02:04.000Z</time>
      </trkpt>
      <trkpt lat="45.72528" lon="4.82121">
        <ele>165.19999694824</ele>
        <time>2014-10-05T10:02:09.000Z</time>
      </trkpt>
      <trkpt lat="45.72545" lon="4.82112">
        <ele>163.80000305176</ele>
        <time>2014-10-05T10:02:15.000Z</time>
      </trkpt>
      <trkpt lat="45.72562" lon="4.82103">
        <ele>163.60000610352</ele>
        <time>2014-10-05T10:02:21.000Z</time>
      </trkpt>
      <trkpt lat="45.72565" lon="4.82102">
        <ele>163.39999389648</ele>
        <time>2014-10-05T10:02:22.000Z</time>
      </trkpt>
      <trkpt lat="45.72584" lon="4.82098">
        <ele>163</ele>
        <time>2014-10-05T10:02:29.000Z</time>
      </trkpt>
      <trkpt lat="45.72587" lon="4.82098">
        <ele>163</ele>
        <time>2014-10-05T10:02:30.000Z</time>
      </trkpt>
      <trkpt lat="45.72605" lon="4.82096">
        <ele>162.39999389648</ele>
        <time>2014-10-05T10:02:36.000Z</time>
      </trkpt>
      <trkpt lat="45.72608" lon="4.82096">
        <ele>162.39999389648</ele>
        <time>2014-10-05T10:02:37.000Z</time>
      </trkpt>
      <trkpt lat="45.72623" lon="4.82092">
        <ele>162.39999389648</ele>
        <time>2014-10-05T10:02:42.000Z</time>
      </trkpt>
      <trkpt lat="45.72642" lon="4.82089">
        <ele>162.80000305176</ele>
        <time>2014-10-05T10:02:48.000Z</time>
      </trkpt>
      <trkpt lat="45.7265" lon="4.82089">
        <ele>163.60000610352</ele>
        <time>2014-10-05T10:02:51.000Z</time>
      </trkpt>
      <trkpt lat="45.72668" lon="4.82089">
        <ele>165</ele>
        <time>2014-10-05T10:02:57.000Z</time>
      </trkpt>
      <trkpt lat="45.72688" lon="4.82089">
        <ele>166.60000610352</ele>
        <time>2014-10-05T10:03:04.000Z</time>
      </trkpt>
      <trkpt lat="45.72703" lon="4.82088">
        <ele>166.80000305176</ele>
        <time>2014-10-05T10:03:09.000Z</time>
      </trkpt>
      <trkpt lat="45.72718" lon="4.82089">
        <ele>167</ele>
        <time>2014-10-05T10:03:14.000Z</time>
      </trkpt>
      <trkpt lat="45.72729" lon="4.82094">
        <ele>167.19999694824</ele>
        <time>2014-10-05T10:03:19.000Z</time>
      </trkpt>
      <trkpt lat="45.72733" lon="4.82094">
        <ele>167.19999694824</ele>
        <time>2014-10-05T10:03:21.000Z</time>
      </trkpt>
      <trkpt lat="45.72741" lon="4.82091">
        <ele>166.80000305176</ele>
        <time>2014-10-05T10:03:24.000Z</time>
      </trkpt>
      <trkpt lat="45.72759" lon="4.82087">
        <ele>166.39999389648</ele>
        <time>2014-10-05T10:03:31.000Z</time>
      </trkpt>
      <trkpt lat="45.7277" lon="4.82083">
        <ele>166.19999694824</ele>
        <time>2014-10-05T10:03:35.000Z</time>
      </trkpt>
      <trkpt lat="45.72778" lon="4.82081">
        <ele>166</ele>
        <time>2014-10-05T10:03:37.000Z</time>
      </trkpt>
      <trkpt lat="45.72785" lon="4.82082">
        <ele>166</ele>
        <time>2014-10-05T10:03:39.000Z</time>
      </trkpt>
      <trkpt lat="45.72794" lon="4.82088">
        <ele>166.39999389648</ele>
        <time>2014-10-05T10:03:42.000Z</time>
      </trkpt>
      <trkpt lat="45.72809" lon="4.82097">
        <ele>166.60000610352</ele>
        <time>2014-10-05T10:03:47.000Z</time>
      </trkpt>
      <trkpt lat="45.72823" lon="4.82102">
        <ele>166.39999389648</ele>
        <time>2014-10-05T10:03:52.000Z</time>
      </trkpt>
      <trkpt lat="45.72826" lon="4.82101">
        <ele>166.19999694824</ele>
        <time>2014-10-05T10:03:53.000Z</time>
      </trkpt>
      <trkpt lat="45.72836" lon="4.82102">
        <ele>165.80000305176</ele>
        <time>2014-10-05T10:03:56.000Z</time>
      </trkpt>
      <trkpt lat="45.72843" lon="4.82103">
        <ele>165.80000305176</ele>
        <time>2014-10-05T10:03:58.000Z</time>
      </trkpt>
      <trkpt lat="45.72861" lon="4.82099">
        <ele>164.80000305176</ele>
        <time>2014-10-05T10:04:03.000Z</time>
      </trkpt>
      <trkpt lat="45.72877" lon="4.82098">
        <ele>164.80000305176</ele>
        <time>2014-10-05T10:04:08.000Z</time>
      </trkpt>
      <trkpt lat="45.72896" lon="4.82103">
        <ele>165</ele>
        <time>2014-10-05T10:04:14.000Z</time>
      </trkpt>
      <trkpt lat="45.72902" lon="4.82104">
        <ele>165.19999694824</ele>
        <time>2014-10-05T10:04:16.000Z</time>
      </trkpt>
      <trkpt lat="45.72916" lon="4.82105">
        <ele>165.39999389648</ele>
        <time>2014-10-05T10:04:21.000Z</time>
      </trkpt>
      <trkpt lat="45.72928" lon="4.8212">
        <ele>166</ele>
        <time>2014-10-05T10:04:26.000Z</time>
      </trkpt>
      <trkpt lat="45.72939" lon="4.82136">
        <ele>166.19999694824</ele>
        <time>2014-10-05T10:04:31.000Z</time>
      </trkpt>
      <trkpt lat="45.72954" lon="4.82152">
        <ele>166.60000610352</ele>
        <time>2014-10-05T10:04:37.000Z</time>
      </trkpt>
      <trkpt lat="45.72957" lon="4.82154">
        <ele>166.60000610352</ele>
        <time>2014-10-05T10:04:38.000Z</time>
      </trkpt>
      <trkpt lat="45.72969" lon="4.82163">
        <ele>167</ele>
        <time>2014-10-05T10:04:43.000Z</time>
      </trkpt>
      <trkpt lat="45.72989" lon="4.8217">
        <ele>166.80000305176</ele>
        <time>2014-10-05T10:04:49.000Z</time>
      </trkpt>
      <trkpt lat="45.73006" lon="4.8217">
        <ele>166.60000610352</ele>
        <time>2014-10-05T10:04:55.000Z</time>
      </trkpt>
      <trkpt lat="45.73024" lon="4.82165">
        <ele>165.80000305176</ele>
        <time>2014-10-05T10:05:01.000Z</time>
      </trkpt>
      <trkpt lat="45.73027" lon="4.82164">
        <ele>165.60000610352</ele>
        <time>2014-10-05T10:05:02.000Z</time>
      </trkpt>
      <trkpt lat="45.73047" lon="4.82157">
        <ele>164</ele>
        <time>2014-10-05T10:05:09.000Z</time>
      </trkpt>
      <trkpt lat="45.73067" lon="4.82148">
        <ele>163.19999694824</ele>
        <time>2014-10-05T10:05:16.000Z</time>
      </trkpt>
      <trkpt lat="45.7307" lon="4.82145">
        <ele>163.19999694824</ele>
        <time>2014-10-05T10:05:17.000Z</time>
      </trkpt>
      <trkpt lat="45.73087" lon="4.82136">
        <ele>163.19999694824</ele>
        <time>2014-10-05T10:05:23.000Z</time>
      </trkpt>
      <trkpt lat="45.7309" lon="4.82134">
        <ele>163.19999694824</ele>
        <time>2014-10-05T10:05:24.000Z</time>
      </trkpt>
      <trkpt lat="45.73104" lon="4.82128">
        <ele>163.39999389648</ele>
        <time>2014-10-05T10:05:29.000Z</time>
      </trkpt>
      <trkpt lat="45.73121" lon="4.82123">
        <ele>163.60000610352</ele>
        <time>2014-10-05T10:05:35.000Z</time>
      </trkpt>
      <trkpt lat="45.73128" lon="4.82121">
        <ele>163.80000305176</ele>
        <time>2014-10-05T10:05:37.000Z</time>
      </trkpt>
      <trkpt lat="45.73148" lon="4.82124">
        <ele>164</ele>
        <time>2014-10-05T10:05:44.000Z</time>
      </trkpt>
      <trkpt lat="45.73165" lon="4.82126">
        <ele>164</ele>
        <time>2014-10-05T10:05:50.000Z</time>
      </trkpt>
      <trkpt lat="45.73175" lon="4.8213">
        <ele>164</ele>
        <time>2014-10-05T10:05:53.000Z</time>
      </trkpt>
      <trkpt lat="45.73191" lon="4.82135">
        <ele>164.19999694824</ele>
        <time>2014-10-05T10:05:59.000Z</time>
      </trkpt>
      <trkpt lat="45.73208" lon="4.82141">
        <ele>164.19999694824</ele>
        <time>2014-10-05T10:06:05.000Z</time>
      </trkpt>
      <trkpt lat="45.73226" lon="4.8215">
        <ele>164.19999694824</ele>
        <time>2014-10-05T10:06:11.000Z</time>
      </trkpt>
      <trkpt lat="45.73229" lon="4.82152">
        <ele>164.19999694824</ele>
        <time>2014-10-05T10:06:12.000Z</time>
      </trkpt>
      <trkpt lat="45.73247" lon="4.82162">
        <ele>164.19999694824</ele>
        <time>2014-10-05T10:06:18.000Z</time>
      </trkpt>
      <trkpt lat="45.73249" lon="4.82164">
        <ele>164.19999694824</ele>
        <time>2014-10-05T10:06:19.000Z</time>
      </trkpt>
      <trkpt lat="45.73266" lon="4.82172">
        <ele>164</ele>
        <time>2014-10-05T10:06:25.000Z</time>
      </trkpt>
      <trkpt lat="45.73273" lon="4.82175">
        <ele>164</ele>
        <time>2014-10-05T10:06:27.000Z</time>
      </trkpt>
      <trkpt lat="45.73289" lon="4.82181">
        <ele>164</ele>
        <time>2014-10-05T10:06:32.000Z</time>
      </trkpt>
      <trkpt lat="45.73291" lon="4.82183">
        <ele>164</ele>
        <time>2014-10-05T10:06:33.000Z</time>
      </trkpt>
      <trkpt lat="45.73315" lon="4.82198">
        <ele>164</ele>
        <time>2014-10-05T10:06:41.000Z</time>
      </trkpt>
      <trkpt lat="45.73326" lon="4.8219">
        <ele>164</ele>
        <time>2014-10-05T10:06:44.000Z</time>
      </trkpt>
      <trkpt lat="45.73343" lon="4.82189">
        <ele>164</ele>
        <time>2014-10-05T10:06:49.000Z</time>
      </trkpt>
      <trkpt lat="45.7336" lon="4.82188">
        <ele>164</ele>
        <time>2014-10-05T10:06:55.000Z</time>
      </trkpt>
      <trkpt lat="45.73363" lon="4.82189">
        <ele>164</ele>
        <time>2014-10-05T10:06:56.000Z</time>
      </trkpt>
      <trkpt lat="45.73377" lon="4.82191">
        <ele>164</ele>
        <time>2014-10-05T10:07:02.000Z</time>
      </trkpt>
      <trkpt lat="45.73395" lon="4.82196">
        <ele>164</ele>
        <time>2014-10-05T10:07:08.000Z</time>
      </trkpt>
      <trkpt lat="45.73414" lon="4.82201">
        <ele>164</ele>
        <time>2014-10-05T10:07:14.000Z</time>
      </trkpt>
      <trkpt lat="45.73425" lon="4.82201">
        <ele>164</ele>
        <time>2014-10-05T10:07:19.000Z</time>
      </trkpt>
      <trkpt lat="45.7344" lon="4.82204">
        <ele>164</ele>
        <time>2014-10-05T10:07:24.000Z</time>
      </trkpt>
      <trkpt lat="45.73456" lon="4.82205">
        <ele>164</ele>
        <time>2014-10-05T10:07:29.000Z</time>
      </trkpt>
      <trkpt lat="45.73473" lon="4.82214">
        <ele>164</ele>
        <time>2014-10-05T10:07:34.000Z</time>
      </trkpt>
      <trkpt lat="45.73484" lon="4.82222">
        <ele>164</ele>
        <time>2014-10-05T10:07:38.000Z</time>
      </trkpt>
      <trkpt lat="45.73497" lon="4.82232">
        <ele>164</ele>
        <time>2014-10-05T10:07:43.000Z</time>
      </trkpt>
      <trkpt lat="45.73515" lon="4.82244">
        <ele>164</ele>
        <time>2014-10-05T10:07:50.000Z</time>
      </trkpt>
      <trkpt lat="45.73526" lon="4.82252">
        <ele>164</ele>
        <time>2014-10-05T10:07:54.000Z</time>
      </trkpt>
      <trkpt lat="45.73537" lon="4.8226">
        <ele>164</ele>
        <time>2014-10-05T10:07:59.000Z</time>
      </trkpt>
      <trkpt lat="45.73551" lon="4.82271">
        <ele>164</ele>
        <time>2014-10-05T10:08:04.000Z</time>
      </trkpt>
      <trkpt lat="45.73569" lon="4.82285">
        <ele>164</ele>
        <time>2014-10-05T10:08:10.000Z</time>
      </trkpt>
      <trkpt lat="45.73571" lon="4.82287">
        <ele>164</ele>
        <time>2014-10-05T10:08:11.000Z</time>
      </trkpt>
      <trkpt lat="45.73584" lon="4.82298">
        <ele>164</ele>
        <time>2014-10-05T10:08:16.000Z</time>
      </trkpt>
      <trkpt lat="45.73602" lon="4.82312">
        <ele>164</ele>
        <time>2014-10-05T10:08:22.000Z</time>
      </trkpt>
      <trkpt lat="45.73619" lon="4.82325">
        <ele>164</ele>
        <time>2014-10-05T10:08:28.000Z</time>
      </trkpt>
      <trkpt lat="45.7363" lon="4.82333">
        <ele>164</ele>
        <time>2014-10-05T10:08:32.000Z</time>
      </trkpt>
      <trkpt lat="45.73644" lon="4.82346">
        <ele>164</ele>
        <time>2014-10-05T10:08:37.000Z</time>
      </trkpt>
      <trkpt lat="45.73657" lon="4.82356">
        <ele>164.19999694824</ele>
        <time>2014-10-05T10:08:42.000Z</time>
      </trkpt>
      <trkpt lat="45.73672" lon="4.82365">
        <ele>164.39999389648</ele>
        <time>2014-10-05T10:08:47.000Z</time>
      </trkpt>
      <trkpt lat="45.73684" lon="4.82373">
        <ele>164.60000610352</ele>
        <time>2014-10-05T10:08:51.000Z</time>
      </trkpt>
      <trkpt lat="45.73696" lon="4.82378">
        <ele>164.80000305176</ele>
        <time>2014-10-05T10:08:55.000Z</time>
      </trkpt>
      <trkpt lat="45.73713" lon="4.82388">
        <ele>165</ele>
        <time>2014-10-05T10:09:01.000Z</time>
      </trkpt>
      <trkpt lat="45.73725" lon="4.82396">
        <ele>165</ele>
        <time>2014-10-05T10:09:06.000Z</time>
      </trkpt>
      <trkpt lat="45.73733" lon="4.82403">
        <ele>165</ele>
        <time>2014-10-05T10:09:10.000Z</time>
      </trkpt>
      <trkpt lat="45.73742" lon="4.8241">
        <ele>165</ele>
        <time>2014-10-05T10:09:14.000Z</time>
      </trkpt>
      <trkpt lat="45.73746" lon="4.82412">
        <ele>165</ele>
        <time>2014-10-05T10:09:16.000Z</time>
      </trkpt>
      <trkpt lat="45.73751" lon="4.82416">
        <ele>165</ele>
        <time>2014-10-05T10:09:18.000Z</time>
      </trkpt>
      <trkpt lat="45.73758" lon="4.82422">
        <ele>165</ele>
        <time>2014-10-05T10:09:21.000Z</time>
      </trkpt>
      <trkpt lat="45.73775" lon="4.82433">
        <ele>165</ele>
        <time>2014-10-05T10:09:27.000Z</time>
      </trkpt>
      <trkpt lat="45.73789" lon="4.82446">
        <ele>165</ele>
        <time>2014-10-05T10:09:32.000Z</time>
      </trkpt>
      <trkpt lat="45.73806" lon="4.82459">
        <ele>165</ele>
        <time>2014-10-05T10:09:38.000Z</time>
      </trkpt>
      <trkpt lat="45.73814" lon="4.82467">
        <ele>165</ele>
        <time>2014-10-05T10:09:41.000Z</time>
      </trkpt>
      <trkpt lat="45.73829" lon="4.8248">
        <ele>165</ele>
        <time>2014-10-05T10:09:47.000Z</time>
      </trkpt>
      <trkpt lat="45.73832" lon="4.82483">
        <ele>165</ele>
        <time>2014-10-05T10:09:48.000Z</time>
      </trkpt>
      <trkpt lat="45.73849" lon="4.82499">
        <ele>165</ele>
        <time>2014-10-05T10:09:55.000Z</time>
      </trkpt>
      <trkpt lat="45.73865" lon="4.82514">
        <ele>165</ele>
        <time>2014-10-05T10:10:01.000Z</time>
      </trkpt>
      <trkpt lat="45.7388" lon="4.82528">
        <ele>165</ele>
        <time>2014-10-05T10:10:07.000Z</time>
      </trkpt>
      <trkpt lat="45.73885" lon="4.82533">
        <ele>165</ele>
        <time>2014-10-05T10:10:09.000Z</time>
      </trkpt>
      <trkpt lat="45.73901" lon="4.82546">
        <ele>165</ele>
        <time>2014-10-05T10:10:15.000Z</time>
      </trkpt>
      <trkpt lat="45.73914" lon="4.82557">
        <ele>165</ele>
        <time>2014-10-05T10:10:20.000Z</time>
      </trkpt>
      <trkpt lat="45.7393" lon="4.8257">
        <ele>165</ele>
        <time>2014-10-05T10:10:26.000Z</time>
      </trkpt>
      <trkpt lat="45.73932" lon="4.82571">
        <ele>165</ele>
        <time>2014-10-05T10:10:27.000Z</time>
      </trkpt>
      <trkpt lat="45.7395" lon="4.82585">
        <ele>165</ele>
        <time>2014-10-05T10:10:34.000Z</time>
      </trkpt>
      <trkpt lat="45.73966" lon="4.826">
        <ele>165</ele>
        <time>2014-10-05T10:10:40.000Z</time>
      </trkpt>
      <trkpt lat="45.73975" lon="4.82608">
        <ele>165</ele>
        <time>2014-10-05T10:10:44.000Z</time>
      </trkpt>
      <trkpt lat="45.73991" lon="4.8262">
        <ele>165</ele>
        <time>2014-10-05T10:10:50.000Z</time>
      </trkpt>
      <trkpt lat="45.73994" lon="4.82622">
        <ele>165</ele>
        <time>2014-10-05T10:10:51.000Z</time>
      </trkpt>
      <trkpt lat="45.7401" lon="4.82637">
        <ele>165</ele>
        <time>2014-10-05T10:10:57.000Z</time>
      </trkpt>
      <trkpt lat="45.74025" lon="4.82651">
        <ele>165</ele>
        <time>2014-10-05T10:11:03.000Z</time>
      </trkpt>
      <trkpt lat="45.7403" lon="4.82656">
        <ele>165</ele>
        <time>2014-10-05T10:11:05.000Z</time>
      </trkpt>
      <trkpt lat="45.74045" lon="4.82668">
        <ele>165</ele>
        <time>2014-10-05T10:11:11.000Z</time>
      </trkpt>
      <trkpt lat="45.74061" lon="4.82681">
        <ele>165</ele>
        <time>2014-10-05T10:11:17.000Z</time>
      </trkpt>
      <trkpt lat="45.74077" lon="4.82695">
        <ele>165</ele>
        <time>2014-10-05T10:11:23.000Z</time>
      </trkpt>
      <trkpt lat="45.7408" lon="4.82697">
        <ele>165</ele>
        <time>2014-10-05T10:11:24.000Z</time>
      </trkpt>
      <trkpt lat="45.74098" lon="4.8271">
        <ele>165</ele>
        <time>2014-10-05T10:11:30.000Z</time>
      </trkpt>
      <trkpt lat="45.74101" lon="4.82713">
        <ele>165</ele>
        <time>2014-10-05T10:11:31.000Z</time>
      </trkpt>
      <trkpt lat="45.74118" lon="4.82727">
        <ele>165</ele>
        <time>2014-10-05T10:11:37.000Z</time>
      </trkpt>
      <trkpt lat="45.74135" lon="4.82741">
        <ele>165</ele>
        <time>2014-10-05T10:11:43.000Z</time>
      </trkpt>
      <trkpt lat="45.74137" lon="4.82743">
        <ele>165</ele>
        <time>2014-10-05T10:11:44.000Z</time>
      </trkpt>
      <trkpt lat="45.74153" lon="4.82756">
        <ele>165</ele>
        <time>2014-10-05T10:11:50.000Z</time>
      </trkpt>
      <trkpt lat="45.74169" lon="4.82769">
        <ele>165</ele>
        <time>2014-10-05T10:11:56.000Z</time>
      </trkpt>
      <trkpt lat="45.74172" lon="4.82771">
        <ele>165</ele>
        <time>2014-10-05T10:11:57.000Z</time>
      </trkpt>
      <trkpt lat="45.74188" lon="4.82784">
        <ele>165</ele>
        <time>2014-10-05T10:12:03.000Z</time>
      </trkpt>
      <trkpt lat="45.7419" lon="4.82787">
        <ele>165</ele>
        <time>2014-10-05T10:12:04.000Z</time>
      </trkpt>
      <trkpt lat="45.74206" lon="4.828">
        <ele>165</ele>
        <time>2014-10-05T10:12:10.000Z</time>
      </trkpt>
      <trkpt lat="45.74209" lon="4.82803">
        <ele>165</ele>
        <time>2014-10-05T10:12:11.000Z</time>
      </trkpt>
      <trkpt lat="45.74223" lon="4.82817">
        <ele>165</ele>
        <time>2014-10-05T10:12:17.000Z</time>
      </trkpt>
      <trkpt lat="45.74241" lon="4.82833">
        <ele>165</ele>
        <time>2014-10-05T10:12:24.000Z</time>
      </trkpt>
      <trkpt lat="45.74257" lon="4.82848">
        <ele>165</ele>
        <time>2014-10-05T10:12:30.000Z</time>
      </trkpt>
      <trkpt lat="45.74271" lon="4.82858">
        <ele>165</ele>
        <time>2014-10-05T10:12:35.000Z</time>
      </trkpt>
      <trkpt lat="45.74287" lon="4.82871">
        <ele>165</ele>
        <time>2014-10-05T10:12:41.000Z</time>
      </trkpt>
      <trkpt lat="45.7429" lon="4.82873">
        <ele>165</ele>
        <time>2014-10-05T10:12:42.000Z</time>
      </trkpt>
      <trkpt lat="45.74304" lon="4.82885">
        <ele>165</ele>
        <time>2014-10-05T10:12:47.000Z</time>
      </trkpt>
      <trkpt lat="45.74318" lon="4.82897">
        <ele>165</ele>
        <time>2014-10-05T10:12:52.000Z</time>
      </trkpt>
      <trkpt lat="45.74335" lon="4.82917">
        <ele>165</ele>
        <time>2014-10-05T10:12:59.000Z</time>
      </trkpt>
      <trkpt lat="45.74352" lon="4.82931">
        <ele>165</ele>
        <time>2014-10-05T10:13:05.000Z</time>
      </trkpt>
      <trkpt lat="45.74367" lon="4.82944">
        <ele>165</ele>
        <time>2014-10-05T10:13:11.000Z</time>
      </trkpt>
      <trkpt lat="45.74381" lon="4.82954">
        <ele>165</ele>
        <time>2014-10-05T10:13:16.000Z</time>
      </trkpt>
      <trkpt lat="45.74398" lon="4.82966">
        <ele>165</ele>
        <time>2014-10-05T10:13:22.000Z</time>
      </trkpt>
      <trkpt lat="45.74401" lon="4.82968">
        <ele>165</ele>
        <time>2014-10-05T10:13:23.000Z</time>
      </trkpt>
      <trkpt lat="45.74418" lon="4.82982">
        <ele>165</ele>
        <time>2014-10-05T10:13:29.000Z</time>
      </trkpt>
      <trkpt lat="45.74422" lon="4.82984">
        <ele>165</ele>
        <time>2014-10-05T10:13:30.000Z</time>
      </trkpt>
      <trkpt lat="45.74439" lon="4.83">
        <ele>165</ele>
        <time>2014-10-05T10:13:36.000Z</time>
      </trkpt>
      <trkpt lat="45.74442" lon="4.83002">
        <ele>165</ele>
        <time>2014-10-05T10:13:37.000Z</time>
      </trkpt>
      <trkpt lat="45.74456" lon="4.83015">
        <ele>165</ele>
        <time>2014-10-05T10:13:42.000Z</time>
      </trkpt>
      <trkpt lat="45.74462" lon="4.83021">
        <ele>165</ele>
        <time>2014-10-05T10:13:44.000Z</time>
      </trkpt>
      <trkpt lat="45.74474" lon="4.83033">
        <ele>165</ele>
        <time>2014-10-05T10:13:49.000Z</time>
      </trkpt>
      <trkpt lat="45.74487" lon="4.83048">
        <ele>165</ele>
        <time>2014-10-05T10:13:54.000Z</time>
      </trkpt>
      <trkpt lat="45.74502" lon="4.83065">
        <ele>165</ele>
        <time>2014-10-05T10:14:00.000Z</time>
      </trkpt>
      <trkpt lat="45.74514" lon="4.83081">
        <ele>165</ele>
        <time>2014-10-05T10:14:05.000Z</time>
      </trkpt>
      <trkpt lat="45.74528" lon="4.83096">
        <ele>165</ele>
        <time>2014-10-05T10:14:10.000Z</time>
      </trkpt>
      <trkpt lat="45.74542" lon="4.83114">
        <ele>165</ele>
        <time>2014-10-05T10:14:16.000Z</time>
      </trkpt>
      <trkpt lat="45.74556" lon="4.8313">
        <ele>165.19999694824</ele>
        <time>2014-10-05T10:14:22.000Z</time>
      </trkpt>
      <trkpt lat="45.74573" lon="4.83147">
        <ele>165.19999694824</ele>
        <time>2014-10-05T10:14:28.000Z</time>
      </trkpt>
      <trkpt lat="45.74587" lon="4.83159">
        <ele>165.19999694824</ele>
        <time>2014-10-05T10:14:33.000Z</time>
      </trkpt>
      <trkpt lat="45.74603" lon="4.83173">
        <ele>165</ele>
        <time>2014-10-05T10:14:39.000Z</time>
      </trkpt>
      <trkpt lat="45.74605" lon="4.83174">
        <ele>165</ele>
        <time>2014-10-05T10:14:40.000Z</time>
      </trkpt>
      <trkpt lat="45.74618" lon="4.83181">
        <ele>165</ele>
        <time>2014-10-05T10:14:45.000Z</time>
      </trkpt>
      <trkpt lat="45.74635" lon="4.83185">
        <ele>165</ele>
        <time>2014-10-05T10:14:50.000Z</time>
      </trkpt>
      <trkpt lat="45.74652" lon="4.83201">
        <ele>165</ele>
        <time>2014-10-05T10:14:56.000Z</time>
      </trkpt>
      <trkpt lat="45.74654" lon="4.83203">
        <ele>165</ele>
        <time>2014-10-05T10:14:57.000Z</time>
      </trkpt>
      <trkpt lat="45.7467" lon="4.8322">
        <ele>165</ele>
        <time>2014-10-05T10:15:04.000Z</time>
      </trkpt>
      <trkpt lat="45.74686" lon="4.83237">
        <ele>165</ele>
        <time>2014-10-05T10:15:11.000Z</time>
      </trkpt>
      <trkpt lat="45.74698" lon="4.83247">
        <ele>165</ele>
        <time>2014-10-05T10:15:16.000Z</time>
      </trkpt>
      <trkpt lat="45.74709" lon="4.83259">
        <ele>165</ele>
        <time>2014-10-05T10:15:21.000Z</time>
      </trkpt>
      <trkpt lat="45.74727" lon="4.83273">
        <ele>165</ele>
        <time>2014-10-05T10:15:28.000Z</time>
      </trkpt>
      <trkpt lat="45.74743" lon="4.83285">
        <ele>165</ele>
        <time>2014-10-05T10:15:34.000Z</time>
      </trkpt>
      <trkpt lat="45.74749" lon="4.8329">
        <ele>165</ele>
        <time>2014-10-05T10:15:36.000Z</time>
      </trkpt>
      <trkpt lat="45.74765" lon="4.83304">
        <ele>165</ele>
        <time>2014-10-05T10:15:42.000Z</time>
      </trkpt>
      <trkpt lat="45.7478" lon="4.83314">
        <ele>165</ele>
        <time>2014-10-05T10:15:47.000Z</time>
      </trkpt>
      <trkpt lat="45.74788" lon="4.83318">
        <ele>165</ele>
        <time>2014-10-05T10:15:51.000Z</time>
      </trkpt>
      <trkpt lat="45.74801" lon="4.83325">
        <ele>165</ele>
        <time>2014-10-05T10:15:56.000Z</time>
      </trkpt>
      <trkpt lat="45.74808" lon="4.83331">
        <ele>165</ele>
        <time>2014-10-05T10:15:59.000Z</time>
      </trkpt>
      <trkpt lat="45.74811" lon="4.83333">
        <ele>165</ele>
        <time>2014-10-05T10:16:00.000Z</time>
      </trkpt>
      <trkpt lat="45.74822" lon="4.8334">
        <ele>165</ele>
        <time>2014-10-05T10:16:04.000Z</time>
      </trkpt>
      <trkpt lat="45.74825" lon="4.83342">
        <ele>165</ele>
        <time>2014-10-05T10:16:05.000Z</time>
      </trkpt>
      <trkpt lat="45.7484" lon="4.83351">
        <ele>165</ele>
        <time>2014-10-05T10:16:10.000Z</time>
      </trkpt>
      <trkpt lat="45.74856" lon="4.83365">
        <ele>165</ele>
        <time>2014-10-05T10:16:16.000Z</time>
      </trkpt>
      <trkpt lat="45.74871" lon="4.83377">
        <ele>165</ele>
        <time>2014-10-05T10:16:21.000Z</time>
      </trkpt>
      <trkpt lat="45.74886" lon="4.83392">
        <ele>164.80000305176</ele>
        <time>2014-10-05T10:16:27.000Z</time>
      </trkpt>
      <trkpt lat="45.74889" lon="4.83394">
        <ele>164.80000305176</ele>
        <time>2014-10-05T10:16:28.000Z</time>
      </trkpt>
      <trkpt lat="45.74906" lon="4.83408">
        <ele>164.80000305176</ele>
        <time>2014-10-05T10:16:34.000Z</time>
      </trkpt>
      <trkpt lat="45.74922" lon="4.83421">
        <ele>164.80000305176</ele>
        <time>2014-10-05T10:16:40.000Z</time>
      </trkpt>
      <trkpt lat="45.74927" lon="4.83425">
        <ele>164.80000305176</ele>
        <time>2014-10-05T10:16:42.000Z</time>
      </trkpt>
      <trkpt lat="45.74944" lon="4.83438">
        <ele>164.80000305176</ele>
        <time>2014-10-05T10:16:48.000Z</time>
      </trkpt>
      <trkpt lat="45.74946" lon="4.8344">
        <ele>164.80000305176</ele>
        <time>2014-10-05T10:16:49.000Z</time>
      </trkpt>
      <trkpt lat="45.74964" lon="4.83453">
        <ele>165</ele>
        <time>2014-10-05T10:16:55.000Z</time>
      </trkpt>
      <trkpt lat="45.74966" lon="4.83455">
        <ele>165</ele>
        <time>2014-10-05T10:16:56.000Z</time>
      </trkpt>
      <trkpt lat="45.74982" lon="4.83468">
        <ele>165</ele>
        <time>2014-10-05T10:17:02.000Z</time>
      </trkpt>
      <trkpt lat="45.74985" lon="4.8347">
        <ele>165</ele>
        <time>2014-10-05T10:17:03.000Z</time>
      </trkpt>
      <trkpt lat="45.75002" lon="4.83483">
        <ele>165</ele>
        <time>2014-10-05T10:17:09.000Z</time>
      </trkpt>
      <trkpt lat="45.75008" lon="4.83487">
        <ele>165</ele>
        <time>2014-10-05T10:17:11.000Z</time>
      </trkpt>
      <trkpt lat="45.75025" lon="4.83498">
        <ele>165</ele>
        <time>2014-10-05T10:17:17.000Z</time>
      </trkpt>
      <trkpt lat="45.75028" lon="4.835">
        <ele>165</ele>
        <time>2014-10-05T10:17:18.000Z</time>
      </trkpt>
      <trkpt lat="45.75043" lon="4.83516">
        <ele>165</ele>
        <time>2014-10-05T10:17:24.000Z</time>
      </trkpt>
      <trkpt lat="45.75045" lon="4.83519">
        <ele>165</ele>
        <time>2014-10-05T10:17:25.000Z</time>
      </trkpt>
      <trkpt lat="45.75057" lon="4.83531">
        <ele>165</ele>
        <time>2014-10-05T10:17:30.000Z</time>
      </trkpt>
      <trkpt lat="45.75074" lon="4.83547">
        <ele>165</ele>
        <time>2014-10-05T10:17:37.000Z</time>
      </trkpt>
      <trkpt lat="45.75091" lon="4.8356">
        <ele>165</ele>
        <time>2014-10-05T10:17:43.000Z</time>
      </trkpt>
      <trkpt lat="45.7511" lon="4.83574">
        <ele>165</ele>
        <time>2014-10-05T10:17:50.000Z</time>
      </trkpt>
      <trkpt lat="45.75128" lon="4.83586">
        <ele>165</ele>
        <time>2014-10-05T10:17:56.000Z</time>
      </trkpt>
      <trkpt lat="45.75145" lon="4.83599">
        <ele>165</ele>
        <time>2014-10-05T10:18:02.000Z</time>
      </trkpt>
      <trkpt lat="45.75161" lon="4.83613">
        <ele>165</ele>
        <time>2014-10-05T10:18:08.000Z</time>
      </trkpt>
      <trkpt lat="45.75164" lon="4.83616">
        <ele>165</ele>
        <time>2014-10-05T10:18:09.000Z</time>
      </trkpt>
      <trkpt lat="45.75177" lon="4.83635">
        <ele>165</ele>
        <time>2014-10-05T10:18:15.000Z</time>
      </trkpt>
      <trkpt lat="45.75179" lon="4.83638">
        <ele>165</ele>
        <time>2014-10-05T10:18:16.000Z</time>
      </trkpt>
      <trkpt lat="45.75193" lon="4.83654">
        <ele>165</ele>
        <time>2014-10-05T10:18:21.000Z</time>
      </trkpt>
      <trkpt lat="45.75203" lon="4.83666">
        <ele>165</ele>
        <time>2014-10-05T10:18:26.000Z</time>
      </trkpt>
      <trkpt lat="45.75206" lon="4.8367">
        <ele>165</ele>
        <time>2014-10-05T10:18:30.000Z</time>
      </trkpt>
      <trkpt lat="45.75218" lon="4.83676">
        <ele>165</ele>
        <time>2014-10-05T10:18:34.000Z</time>
      </trkpt>
      <trkpt lat="45.75226" lon="4.83676">
        <ele>165</ele>
        <time>2014-10-05T10:18:36.000Z</time>
      </trkpt>
      <trkpt lat="45.7523" lon="4.83676">
        <ele>165</ele>
        <time>2014-10-05T10:18:37.000Z</time>
      </trkpt>
      <trkpt lat="45.75241" lon="4.83673">
        <ele>165</ele>
        <time>2014-10-05T10:18:40.000Z</time>
      </trkpt>
      <trkpt lat="45.75257" lon="4.83674">
        <ele>165</ele>
        <time>2014-10-05T10:18:45.000Z</time>
      </trkpt>
      <trkpt lat="45.75275" lon="4.8368">
        <ele>165</ele>
        <time>2014-10-05T10:18:51.000Z</time>
      </trkpt>
      <trkpt lat="45.75291" lon="4.83692">
        <ele>165</ele>
        <time>2014-10-05T10:18:57.000Z</time>
      </trkpt>
      <trkpt lat="45.75301" lon="4.83701">
        <ele>165</ele>
        <time>2014-10-05T10:19:01.000Z</time>
      </trkpt>
      <trkpt lat="45.75316" lon="4.83713">
        <ele>165</ele>
        <time>2014-10-05T10:19:07.000Z</time>
      </trkpt>
      <trkpt lat="45.75319" lon="4.83715">
        <ele>165</ele>
        <time>2014-10-05T10:19:08.000Z</time>
      </trkpt>
      <trkpt lat="45.75337" lon="4.83729">
        <ele>165</ele>
        <time>2014-10-05T10:19:15.000Z</time>
      </trkpt>
      <trkpt lat="45.7534" lon="4.83732">
        <ele>165</ele>
        <time>2014-10-05T10:19:16.000Z</time>
      </trkpt>
      <trkpt lat="45.75355" lon="4.83745">
        <ele>165</ele>
        <time>2014-10-05T10:19:22.000Z</time>
      </trkpt>
      <trkpt lat="45.75371" lon="4.83758">
        <ele>165</ele>
        <time>2014-10-05T10:19:28.000Z</time>
      </trkpt>
      <trkpt lat="45.75377" lon="4.83763">
        <ele>165</ele>
        <time>2014-10-05T10:19:30.000Z</time>
      </trkpt>
      <trkpt lat="45.75393" lon="4.83776">
        <ele>165</ele>
        <time>2014-10-05T10:19:36.000Z</time>
      </trkpt>
      <trkpt lat="45.75396" lon="4.83778">
        <ele>165</ele>
        <time>2014-10-05T10:19:37.000Z</time>
      </trkpt>
      <trkpt lat="45.75411" lon="4.83789">
        <ele>165</ele>
        <time>2014-10-05T10:19:43.000Z</time>
      </trkpt>
      <trkpt lat="45.75427" lon="4.83801">
        <ele>165</ele>
        <time>2014-10-05T10:19:49.000Z</time>
      </trkpt>
      <trkpt lat="45.75443" lon="4.83812">
        <ele>165</ele>
        <time>2014-10-05T10:19:55.000Z</time>
      </trkpt>
      <trkpt lat="45.7546" lon="4.83823">
        <ele>165</ele>
        <time>2014-10-05T10:20:01.000Z</time>
      </trkpt>
      <trkpt lat="45.75476" lon="4.83833">
        <ele>165</ele>
        <time>2014-10-05T10:20:07.000Z</time>
      </trkpt>
      <trkpt lat="45.7549" lon="4.83841">
        <ele>165</ele>
        <time>2014-10-05T10:20:12.000Z</time>
      </trkpt>
      <trkpt lat="45.75504" lon="4.83851">
        <ele>165</ele>
        <time>2014-10-05T10:20:17.000Z</time>
      </trkpt>
      <trkpt lat="45.75521" lon="4.83861">
        <ele>165</ele>
        <time>2014-10-05T10:20:23.000Z</time>
      </trkpt>
      <trkpt lat="45.75527" lon="4.83865">
        <ele>165</ele>
        <time>2014-10-05T10:20:25.000Z</time>
      </trkpt>
      <trkpt lat="45.75542" lon="4.83874">
        <ele>165</ele>
        <time>2014-10-05T10:20:30.000Z</time>
      </trkpt>
      <trkpt lat="45.75556" lon="4.8389">
        <ele>164.80000305176</ele>
        <time>2014-10-05T10:20:36.000Z</time>
      </trkpt>
      <trkpt lat="45.75559" lon="4.83892">
        <ele>164.60000610352</ele>
        <time>2014-10-05T10:20:37.000Z</time>
      </trkpt>
      <trkpt lat="45.75575" lon="4.83906">
        <ele>163.60000610352</ele>
        <time>2014-10-05T10:20:43.000Z</time>
      </trkpt>
      <trkpt lat="45.75577" lon="4.83907">
        <ele>163.39999389648</ele>
        <time>2014-10-05T10:20:44.000Z</time>
      </trkpt>
      <trkpt lat="45.75596" lon="4.83917">
        <ele>162</ele>
        <time>2014-10-05T10:20:50.000Z</time>
      </trkpt>
      <trkpt lat="45.75614" lon="4.83926">
        <ele>161.19999694824</ele>
        <time>2014-10-05T10:20:56.000Z</time>
      </trkpt>
      <trkpt lat="45.75617" lon="4.83927">
        <ele>161</ele>
        <time>2014-10-05T10:20:57.000Z</time>
      </trkpt>
      <trkpt lat="45.75636" lon="4.83937">
        <ele>160.39999389648</ele>
        <time>2014-10-05T10:21:04.000Z</time>
      </trkpt>
      <trkpt lat="45.75652" lon="4.83945">
        <ele>160.80000305176</ele>
        <time>2014-10-05T10:21:10.000Z</time>
      </trkpt>
      <trkpt lat="45.75664" lon="4.83954">
        <ele>161</ele>
        <time>2014-10-05T10:21:14.000Z</time>
      </trkpt>
      <trkpt lat="45.7568" lon="4.8396">
        <ele>162.19999694824</ele>
        <time>2014-10-05T10:21:20.000Z</time>
      </trkpt>
      <trkpt lat="45.75698" lon="4.83967">
        <ele>163.39999389648</ele>
        <time>2014-10-05T10:21:26.000Z</time>
      </trkpt>
      <trkpt lat="45.75701" lon="4.83968">
        <ele>163.60000610352</ele>
        <time>2014-10-05T10:21:27.000Z</time>
      </trkpt>
      <trkpt lat="45.75716" lon="4.83974">
        <ele>164.80000305176</ele>
        <time>2014-10-05T10:21:32.000Z</time>
      </trkpt>
      <trkpt lat="45.75734" lon="4.83982">
        <ele>165</ele>
        <time>2014-10-05T10:21:38.000Z</time>
      </trkpt>
      <trkpt lat="45.75737" lon="4.83983">
        <ele>165</ele>
        <time>2014-10-05T10:21:39.000Z</time>
      </trkpt>
      <trkpt lat="45.75755" lon="4.83991">
        <ele>164.60000610352</ele>
        <time>2014-10-05T10:21:45.000Z</time>
      </trkpt>
      <trkpt lat="45.75758" lon="4.83992">
        <ele>164.60000610352</ele>
        <time>2014-10-05T10:21:46.000Z</time>
      </trkpt>
      <trkpt lat="45.75777" lon="4.83997">
        <ele>164.60000610352</ele>
        <time>2014-10-05T10:21:52.000Z</time>
      </trkpt>
      <trkpt lat="45.75794" lon="4.84004">
        <ele>164.39999389648</ele>
        <time>2014-10-05T10:21:58.000Z</time>
      </trkpt>
      <trkpt lat="45.75812" lon="4.84009">
        <ele>164.39999389648</ele>
        <time>2014-10-05T10:22:04.000Z</time>
      </trkpt>
      <trkpt lat="45.75816" lon="4.8401">
        <ele>164.39999389648</ele>
        <time>2014-10-05T10:22:05.000Z</time>
      </trkpt>
      <trkpt lat="45.75833" lon="4.84015">
        <ele>164.19999694824</ele>
        <time>2014-10-05T10:22:11.000Z</time>
      </trkpt>
      <trkpt lat="45.75851" lon="4.84019">
        <ele>164.19999694824</ele>
        <time>2014-10-05T10:22:17.000Z</time>
      </trkpt>
      <trkpt lat="45.75854" lon="4.8402">
        <ele>164.19999694824</ele>
        <time>2014-10-05T10:22:18.000Z</time>
      </trkpt>
      <trkpt lat="45.75873" lon="4.84023">
        <ele>164.19999694824</ele>
        <time>2014-10-05T10:22:24.000Z</time>
      </trkpt>
      <trkpt lat="45.7589" lon="4.84026">
        <ele>164.19999694824</ele>
        <time>2014-10-05T10:22:30.000Z</time>
      </trkpt>
      <trkpt lat="45.75911" lon="4.84031">
        <ele>163.80000305176</ele>
        <time>2014-10-05T10:22:37.000Z</time>
      </trkpt>
      <trkpt lat="45.75925" lon="4.84035">
        <ele>163.60000610352</ele>
        <time>2014-10-05T10:22:42.000Z</time>
      </trkpt>
      <trkpt lat="45.75946" lon="4.84038">
        <ele>163.39999389648</ele>
        <time>2014-10-05T10:22:49.000Z</time>
      </trkpt>
      <trkpt lat="45.7596" lon="4.84039">
        <ele>163.19999694824</ele>
        <time>2014-10-05T10:22:54.000Z</time>
      </trkpt>
      <trkpt lat="45.75979" lon="4.84043">
        <ele>163.39999389648</ele>
        <time>2014-10-05T10:23:00.000Z</time>
      </trkpt>
      <trkpt lat="45.75995" lon="4.84043">
        <ele>163.80000305176</ele>
        <time>2014-10-05T10:23:05.000Z</time>
      </trkpt>
      <trkpt lat="45.76014" lon="4.84045">
        <ele>164.39999389648</ele>
        <time>2014-10-05T10:23:11.000Z</time>
      </trkpt>
      <trkpt lat="45.76029" lon="4.84051">
        <ele>165</ele>
        <time>2014-10-05T10:23:16.000Z</time>
      </trkpt>
      <trkpt lat="45.76047" lon="4.84056">
        <ele>165.60000610352</ele>
        <time>2014-10-05T10:23:22.000Z</time>
      </trkpt>
      <trkpt lat="45.7605" lon="4.84057">
        <ele>165.80000305176</ele>
        <time>2014-10-05T10:23:23.000Z</time>
      </trkpt>
      <trkpt lat="45.76067" lon="4.84058">
        <ele>165.80000305176</ele>
        <time>2014-10-05T10:23:29.000Z</time>
      </trkpt>
      <trkpt lat="45.76071" lon="4.84059">
        <ele>165.80000305176</ele>
        <time>2014-10-05T10:23:30.000Z</time>
      </trkpt>
      <trkpt lat="45.76083" lon="4.84061">
        <ele>165.80000305176</ele>
        <time>2014-10-05T10:23:34.000Z</time>
      </trkpt>
      <trkpt lat="45.76102" lon="4.84063">
        <ele>165.80000305176</ele>
        <time>2014-10-05T10:23:40.000Z</time>
      </trkpt>
      <trkpt lat="45.76108" lon="4.84063">
        <ele>165.80000305176</ele>
        <time>2014-10-05T10:23:42.000Z</time>
      </trkpt>
      <trkpt lat="45.76126" lon="4.84064">
        <ele>166</ele>
        <time>2014-10-05T10:23:48.000Z</time>
      </trkpt>
      <trkpt lat="45.76129" lon="4.84064">
        <ele>166</ele>
        <time>2014-10-05T10:23:49.000Z</time>
      </trkpt>
      <trkpt lat="45.76147" lon="4.84066">
        <ele>165.80000305176</ele>
        <time>2014-10-05T10:23:55.000Z</time>
      </trkpt>
      <trkpt lat="45.76165" lon="4.84068">
        <ele>165.39999389648</ele>
        <time>2014-10-05T10:24:01.000Z</time>
      </trkpt>
      <trkpt lat="45.76181" lon="4.8407">
        <ele>165.60000610352</ele>
        <time>2014-10-05T10:24:06.000Z</time>
      </trkpt>
      <trkpt lat="45.76199" lon="4.84073">
        <ele>165.80000305176</ele>
        <time>2014-10-05T10:24:12.000Z</time>
      </trkpt>
      <trkpt lat="45.76218" lon="4.84075">
        <ele>166</ele>
        <time>2014-10-05T10:24:18.000Z</time>
      </trkpt>
      <trkpt lat="45.76239" lon="4.84078">
        <ele>166</ele>
        <time>2014-10-05T10:24:25.000Z</time>
      </trkpt>
      <trkpt lat="45.76257" lon="4.84078">
        <ele>166</ele>
        <time>2014-10-05T10:24:31.000Z</time>
      </trkpt>
      <trkpt lat="45.76275" lon="4.84081">
        <ele>166</ele>
        <time>2014-10-05T10:24:37.000Z</time>
      </trkpt>
      <trkpt lat="45.76293" lon="4.84085">
        <ele>166</ele>
        <time>2014-10-05T10:24:43.000Z</time>
      </trkpt>
      <trkpt lat="45.76308" lon="4.84087">
        <ele>166</ele>
        <time>2014-10-05T10:24:48.000Z</time>
      </trkpt>
      <trkpt lat="45.76325" lon="4.84087">
        <ele>166.19999694824</ele>
        <time>2014-10-05T10:24:53.000Z</time>
      </trkpt>
      <trkpt lat="45.76339" lon="4.84087">
        <ele>166.39999389648</ele>
        <time>2014-10-05T10:24:57.000Z</time>
      </trkpt>
      <trkpt lat="45.76354" lon="4.84089">
        <ele>166.60000610352</ele>
        <time>2014-10-05T10:25:02.000Z</time>
      </trkpt>
      <trkpt lat="45.76366" lon="4.84095">
        <ele>166.60000610352</ele>
        <time>2014-10-05T10:25:06.000Z</time>
      </trkpt>
      <trkpt lat="45.76382" lon="4.84092">
        <ele>166.60000610352</ele>
        <time>2014-10-05T10:25:11.000Z</time>
      </trkpt>
      <trkpt lat="45.764" lon="4.84093">
        <ele>167</ele>
        <time>2014-10-05T10:25:17.000Z</time>
      </trkpt>
      <trkpt lat="45.76415" lon="4.84094">
        <ele>167.39999389648</ele>
        <time>2014-10-05T10:25:22.000Z</time>
      </trkpt>
      <trkpt lat="45.7643" lon="4.84094">
        <ele>167.60000610352</ele>
        <time>2014-10-05T10:25:27.000Z</time>
      </trkpt>
      <trkpt lat="45.76448" lon="4.84094">
        <ele>168</ele>
        <time>2014-10-05T10:25:33.000Z</time>
      </trkpt>
      <trkpt lat="45.76466" lon="4.84096">
        <ele>168</ele>
        <time>2014-10-05T10:25:39.000Z</time>
      </trkpt>
      <trkpt lat="45.76482" lon="4.84097">
        <ele>168</ele>
        <time>2014-10-05T10:25:44.000Z</time>
      </trkpt>
      <trkpt lat="45.76497" lon="4.84099">
        <ele>167.80000305176</ele>
        <time>2014-10-05T10:25:49.000Z</time>
      </trkpt>
      <trkpt lat="45.76516" lon="4.84101">
        <ele>167.80000305176</ele>
        <time>2014-10-05T10:25:55.000Z</time>
      </trkpt>
      <trkpt lat="45.76531" lon="4.84103">
        <ele>167.60000610352</ele>
        <time>2014-10-05T10:26:00.000Z</time>
      </trkpt>
      <trkpt lat="45.7655" lon="4.84103">
        <ele>167.60000610352</ele>
        <time>2014-10-05T10:26:06.000Z</time>
      </trkpt>
      <trkpt lat="45.76565" lon="4.84103">
        <ele>167.60000610352</ele>
        <time>2014-10-05T10:26:11.000Z</time>
      </trkpt>
      <trkpt lat="45.76584" lon="4.84103">
        <ele>167.60000610352</ele>
        <time>2014-10-05T10:26:17.000Z</time>
      </trkpt>
      <trkpt lat="45.76596" lon="4.84103">
        <ele>167.60000610352</ele>
        <time>2014-10-05T10:26:21.000Z</time>
      </trkpt>
      <trkpt lat="45.76615" lon="4.841">
        <ele>167.39999389648</ele>
        <time>2014-10-05T10:26:27.000Z</time>
      </trkpt>
      <trkpt lat="45.76633" lon="4.84098">
        <ele>167.39999389648</ele>
        <time>2014-10-05T10:26:33.000Z</time>
      </trkpt>
      <trkpt lat="45.76636" lon="4.84098">
        <ele>167.39999389648</ele>
        <time>2014-10-05T10:26:34.000Z</time>
      </trkpt>
      <trkpt lat="45.76652" lon="4.84094">
        <ele>167.39999389648</ele>
        <time>2014-10-05T10:26:39.000Z</time>
      </trkpt>
      <trkpt lat="45.76667" lon="4.84093">
        <ele>167.19999694824</ele>
        <time>2014-10-05T10:26:44.000Z</time>
      </trkpt>
      <trkpt lat="45.76685" lon="4.84091">
        <ele>167.19999694824</ele>
        <time>2014-10-05T10:26:50.000Z</time>
      </trkpt>
      <trkpt lat="45.767" lon="4.84087">
        <ele>167.19999694824</ele>
        <time>2014-10-05T10:26:55.000Z</time>
      </trkpt>
      <trkpt lat="45.76716" lon="4.84085">
        <ele>167.19999694824</ele>
        <time>2014-10-05T10:27:00.000Z</time>
      </trkpt>
      <trkpt lat="45.76734" lon="4.84082">
        <ele>166.80000305176</ele>
        <time>2014-10-05T10:27:06.000Z</time>
      </trkpt>
      <trkpt lat="45.76749" lon="4.8408">
        <ele>166.39999389648</ele>
        <time>2014-10-05T10:27:11.000Z</time>
      </trkpt>
      <trkpt lat="45.76747" lon="4.84087">
        <ele>166.60000610352</ele>
        <time>2014-10-05T10:27:14.000Z</time>
      </trkpt>
      <trkpt lat="45.76735" lon="4.84089">
        <ele>166.80000305176</ele>
        <time>2014-10-05T10:27:18.000Z</time>
      </trkpt>
      <trkpt lat="45.76732" lon="4.84089">
        <ele>167</ele>
        <time>2014-10-05T10:27:19.000Z</time>
      </trkpt>
      <trkpt lat="45.76713" lon="4.84093">
        <ele>167.19999694824</ele>
        <time>2014-10-05T10:27:25.000Z</time>
      </trkpt>
      <trkpt lat="45.76695" lon="4.84095">
        <ele>167.39999389648</ele>
        <time>2014-10-05T10:27:31.000Z</time>
      </trkpt>
      <trkpt lat="45.76678" lon="4.84098">
        <ele>167.39999389648</ele>
        <time>2014-10-05T10:27:37.000Z</time>
      </trkpt>
      <trkpt lat="45.76659" lon="4.84101">
        <ele>167.39999389648</ele>
        <time>2014-10-05T10:27:44.000Z</time>
      </trkpt>
      <trkpt lat="45.76641" lon="4.84102">
        <ele>167.60000610352</ele>
        <time>2014-10-05T10:27:50.000Z</time>
      </trkpt>
      <trkpt lat="45.76622" lon="4.84103">
        <ele>167.60000610352</ele>
        <time>2014-10-05T10:27:56.000Z</time>
      </trkpt>
      <trkpt lat="45.76608" lon="4.84103">
        <ele>167.60000610352</ele>
        <time>2014-10-05T10:28:01.000Z</time>
      </trkpt>
      <trkpt lat="45.76592" lon="4.84102">
        <ele>167.60000610352</ele>
        <time>2014-10-05T10:28:06.000Z</time>
      </trkpt>
      <trkpt lat="45.76583" lon="4.84105">
        <ele>167.60000610352</ele>
        <time>2014-10-05T10:28:11.000Z</time>
      </trkpt>
      <trkpt lat="45.76571" lon="4.84109">
        <ele>167.60000610352</ele>
        <time>2014-10-05T10:28:15.000Z</time>
      </trkpt>
      <trkpt lat="45.76554" lon="4.84108">
        <ele>167.60000610352</ele>
        <time>2014-10-05T10:28:20.000Z</time>
      </trkpt>
      <trkpt lat="45.76543" lon="4.84109">
        <ele>167.60000610352</ele>
        <time>2014-10-05T10:28:23.000Z</time>
      </trkpt>
      <trkpt lat="45.76536" lon="4.8411">
        <ele>167.80000305176</ele>
        <time>2014-10-05T10:28:25.000Z</time>
      </trkpt>
      <trkpt lat="45.7652" lon="4.84112">
        <ele>168</ele>
        <time>2014-10-05T10:28:30.000Z</time>
      </trkpt>
      <trkpt lat="45.76502" lon="4.84114">
        <ele>168.39999389648</ele>
        <time>2014-10-05T10:28:36.000Z</time>
      </trkpt>
      <trkpt lat="45.76485" lon="4.84113">
        <ele>168.60000610352</ele>
        <time>2014-10-05T10:28:42.000Z</time>
      </trkpt>
      <trkpt lat="45.76466" lon="4.84111">
        <ele>168.60000610352</ele>
        <time>2014-10-05T10:28:48.000Z</time>
      </trkpt>
      <trkpt lat="45.76448" lon="4.84111">
        <ele>168.39999389648</ele>
        <time>2014-10-05T10:28:54.000Z</time>
      </trkpt>
      <trkpt lat="45.76441" lon="4.84113">
        <ele>168.19999694824</ele>
        <time>2014-10-05T10:28:57.000Z</time>
      </trkpt>
      <trkpt lat="45.7644" lon="4.84114">
        <ele>168.19999694824</ele>
        <time>2014-10-05T10:28:58.000Z</time>
      </trkpt>
      <trkpt lat="45.76426" lon="4.84112">
        <ele>167.80000305176</ele>
        <time>2014-10-05T10:29:03.000Z</time>
      </trkpt>
      <trkpt lat="45.76408" lon="4.84107">
        <ele>167.39999389648</ele>
        <time>2014-10-05T10:29:08.000Z</time>
      </trkpt>
      <trkpt lat="45.76391" lon="4.84103">
        <ele>166.80000305176</ele>
        <time>2014-10-05T10:29:14.000Z</time>
      </trkpt>
      <trkpt lat="45.76379" lon="4.84099">
        <ele>166.80000305176</ele>
        <time>2014-10-05T10:29:19.000Z</time>
      </trkpt>
      <trkpt lat="45.76379" lon="4.841">
        <ele>166.80000305176</ele>
        <time>2014-10-05T10:29:21.000Z</time>
      </trkpt>
      <trkpt lat="45.76373" lon="4.84102">
        <ele>166.80000305176</ele>
        <time>2014-10-05T10:29:25.000Z</time>
      </trkpt>
      <trkpt lat="45.76367" lon="4.84106">
        <ele>166.80000305176</ele>
        <time>2014-10-05T10:29:27.000Z</time>
      </trkpt>
      <trkpt lat="45.76362" lon="4.84106">
        <ele>166.60000610352</ele>
        <time>2014-10-05T10:29:28.000Z</time>
      </trkpt>
      <trkpt lat="45.76343" lon="4.84106">
        <ele>166.39999389648</ele>
        <time>2014-10-05T10:29:33.000Z</time>
      </trkpt>
      <trkpt lat="45.76331" lon="4.84107">
        <ele>166.39999389648</ele>
        <time>2014-10-05T10:29:36.000Z</time>
      </trkpt>
      <trkpt lat="45.76311" lon="4.84106">
        <ele>166</ele>
        <time>2014-10-05T10:29:42.000Z</time>
      </trkpt>
      <trkpt lat="45.76296" lon="4.84103">
        <ele>166</ele>
        <time>2014-10-05T10:29:47.000Z</time>
      </trkpt>
      <trkpt lat="45.76276" lon="4.84099">
        <ele>166</ele>
        <time>2014-10-05T10:29:53.000Z</time>
      </trkpt>
      <trkpt lat="45.76259" lon="4.84096">
        <ele>166</ele>
        <time>2014-10-05T10:29:59.000Z</time>
      </trkpt>
      <trkpt lat="45.76243" lon="4.84093">
        <ele>166</ele>
        <time>2014-10-05T10:30:04.000Z</time>
      </trkpt>
      <trkpt lat="45.76225" lon="4.84092">
        <ele>166</ele>
        <time>2014-10-05T10:30:10.000Z</time>
      </trkpt>
      <trkpt lat="45.76222" lon="4.84092">
        <ele>166</ele>
        <time>2014-10-05T10:30:11.000Z</time>
      </trkpt>
      <trkpt lat="45.76208" lon="4.8409">
        <ele>165.80000305176</ele>
        <time>2014-10-05T10:30:16.000Z</time>
      </trkpt>
      <trkpt lat="45.7619" lon="4.84084">
        <ele>165.60000610352</ele>
        <time>2014-10-05T10:30:22.000Z</time>
      </trkpt>
      <trkpt lat="45.7617" lon="4.84081">
        <ele>165.80000305176</ele>
        <time>2014-10-05T10:30:28.000Z</time>
      </trkpt>
      <trkpt lat="45.76167" lon="4.8408">
        <ele>165.80000305176</ele>
        <time>2014-10-05T10:30:29.000Z</time>
      </trkpt>
      <trkpt lat="45.76151" lon="4.84078">
        <ele>166</ele>
        <time>2014-10-05T10:30:34.000Z</time>
      </trkpt>
      <trkpt lat="45.76133" lon="4.84075">
        <ele>166.39999389648</ele>
        <time>2014-10-05T10:30:40.000Z</time>
      </trkpt>
      <trkpt lat="45.76113" lon="4.84072">
        <ele>166.19999694824</ele>
        <time>2014-10-05T10:30:46.000Z</time>
      </trkpt>
      <trkpt lat="45.7611" lon="4.84072">
        <ele>166.19999694824</ele>
        <time>2014-10-05T10:30:47.000Z</time>
      </trkpt>
      <trkpt lat="45.76096" lon="4.84072">
        <ele>166.19999694824</ele>
        <time>2014-10-05T10:30:52.000Z</time>
      </trkpt>
      <trkpt lat="45.76083" lon="4.84072">
        <ele>166.19999694824</ele>
        <time>2014-10-05T10:30:57.000Z</time>
      </trkpt>
      <trkpt lat="45.76066" lon="4.8407">
        <ele>166.39999389648</ele>
        <time>2014-10-05T10:31:03.000Z</time>
      </trkpt>
      <trkpt lat="45.7605" lon="4.84069">
        <ele>166.39999389648</ele>
        <time>2014-10-05T10:31:08.000Z</time>
      </trkpt>
      <trkpt lat="45.76031" lon="4.84068">
        <ele>165.80000305176</ele>
        <time>2014-10-05T10:31:14.000Z</time>
      </trkpt>
      <trkpt lat="45.76028" lon="4.84068">
        <ele>165.80000305176</ele>
        <time>2014-10-05T10:31:15.000Z</time>
      </trkpt>
      <trkpt lat="45.76012" lon="4.84066">
        <ele>165.19999694824</ele>
        <time>2014-10-05T10:31:21.000Z</time>
      </trkpt>
      <trkpt lat="45.76012" lon="4.84067">
        <ele>165.39999389648</ele>
        <time>2014-10-05T10:31:22.000Z</time>
      </trkpt>
      <trkpt lat="45.76011" lon="4.84072">
        <ele>165.60000610352</ele>
        <time>2014-10-05T10:31:25.000Z</time>
      </trkpt>
      <trkpt lat="45.76005" lon="4.84073">
        <ele>165.39999389648</ele>
        <time>2014-10-05T10:31:27.000Z</time>
      </trkpt>
      <trkpt lat="45.76001" lon="4.84074">
        <ele>165.60000610352</ele>
        <time>2014-10-05T10:31:28.000Z</time>
      </trkpt>
      <trkpt lat="45.75984" lon="4.8407">
        <ele>165.39999389648</ele>
        <time>2014-10-05T10:31:33.000Z</time>
      </trkpt>
      <trkpt lat="45.7597" lon="4.84068">
        <ele>165.39999389648</ele>
        <time>2014-10-05T10:31:38.000Z</time>
      </trkpt>
      <trkpt lat="45.7595" lon="4.84064">
        <ele>165.39999389648</ele>
        <time>2014-10-05T10:31:44.000Z</time>
      </trkpt>
      <trkpt lat="45.75931" lon="4.84059">
        <ele>165.19999694824</ele>
        <time>2014-10-05T10:31:50.000Z</time>
      </trkpt>
      <trkpt lat="45.75913" lon="4.84054">
        <ele>165</ele>
        <time>2014-10-05T10:31:56.000Z</time>
      </trkpt>
      <trkpt lat="45.75895" lon="4.84049">
        <ele>164.80000305176</ele>
        <time>2014-10-05T10:32:02.000Z</time>
      </trkpt>
      <trkpt lat="45.75875" lon="4.84045">
        <ele>164.60000610352</ele>
        <time>2014-10-05T10:32:08.000Z</time>
      </trkpt>
      <trkpt lat="45.75872" lon="4.84044">
        <ele>164.60000610352</ele>
        <time>2014-10-05T10:32:09.000Z</time>
      </trkpt>
      <trkpt lat="45.75854" lon="4.84038">
        <ele>164</ele>
        <time>2014-10-05T10:32:15.000Z</time>
      </trkpt>
      <trkpt lat="45.75837" lon="4.84032">
        <ele>164</ele>
        <time>2014-10-05T10:32:21.000Z</time>
      </trkpt>
      <trkpt lat="45.75818" lon="4.84026">
        <ele>164.19999694824</ele>
        <time>2014-10-05T10:32:27.000Z</time>
      </trkpt>
      <trkpt lat="45.75812" lon="4.84024">
        <ele>164.19999694824</ele>
        <time>2014-10-05T10:32:29.000Z</time>
      </trkpt>
      <trkpt lat="45.75795" lon="4.84019">
        <ele>164.19999694824</ele>
        <time>2014-10-05T10:32:35.000Z</time>
      </trkpt>
      <trkpt lat="45.7578" lon="4.84013">
        <ele>164.39999389648</ele>
        <time>2014-10-05T10:32:40.000Z</time>
      </trkpt>
      <trkpt lat="45.7576" lon="4.84004">
        <ele>164.60000610352</ele>
        <time>2014-10-05T10:32:47.000Z</time>
      </trkpt>
      <trkpt lat="45.75744" lon="4.83997">
        <ele>165</ele>
        <time>2014-10-05T10:32:53.000Z</time>
      </trkpt>
      <trkpt lat="45.75735" lon="4.83993">
        <ele>165.19999694824</ele>
        <time>2014-10-05T10:32:57.000Z</time>
      </trkpt>
      <trkpt lat="45.75717" lon="4.83985">
        <ele>165</ele>
        <time>2014-10-05T10:33:03.000Z</time>
      </trkpt>
      <trkpt lat="45.75715" lon="4.83983">
        <ele>164.80000305176</ele>
        <time>2014-10-05T10:33:04.000Z</time>
      </trkpt>
      <trkpt lat="45.75696" lon="4.83972">
        <ele>163.39999389648</ele>
        <time>2014-10-05T10:33:10.000Z</time>
      </trkpt>
      <trkpt lat="45.75679" lon="4.83961">
        <ele>162</ele>
        <time>2014-10-05T10:33:16.000Z</time>
      </trkpt>
      <trkpt lat="45.75676" lon="4.83959">
        <ele>161.80000305176</ele>
        <time>2014-10-05T10:33:17.000Z</time>
      </trkpt>
      <trkpt lat="45.75661" lon="4.8395">
        <ele>161</ele>
        <time>2014-10-05T10:33:23.000Z</time>
      </trkpt>
      <trkpt lat="45.75655" lon="4.83946">
        <ele>161</ele>
        <time>2014-10-05T10:33:26.000Z</time>
      </trkpt>
      <trkpt lat="45.75647" lon="4.83939">
        <ele>160.80000305176</ele>
        <time>2014-10-05T10:33:29.000Z</time>
      </trkpt>
      <trkpt lat="45.7563" lon="4.83931">
        <ele>160.80000305176</ele>
        <time>2014-10-05T10:33:34.000Z</time>
      </trkpt>
      <trkpt lat="45.75611" lon="4.83923">
        <ele>161.39999389648</ele>
        <time>2014-10-05T10:33:40.000Z</time>
      </trkpt>
      <trkpt lat="45.75603" lon="4.8392">
        <ele>161.60000610352</ele>
        <time>2014-10-05T10:33:43.000Z</time>
      </trkpt>
      <trkpt lat="45.75584" lon="4.83911">
        <ele>162.80000305176</ele>
        <time>2014-10-05T10:33:50.000Z</time>
      </trkpt>
      <trkpt lat="45.75568" lon="4.83901">
        <ele>164</ele>
        <time>2014-10-05T10:33:56.000Z</time>
      </trkpt>
      <trkpt lat="45.75554" lon="4.83893">
        <ele>165</ele>
        <time>2014-10-05T10:34:01.000Z</time>
      </trkpt>
      <trkpt lat="45.75541" lon="4.83879">
        <ele>165</ele>
        <time>2014-10-05T10:34:07.000Z</time>
      </trkpt>
      <trkpt lat="45.75523" lon="4.83864">
        <ele>165</ele>
        <time>2014-10-05T10:34:14.000Z</time>
      </trkpt>
      <trkpt lat="45.75508" lon="4.83855">
        <ele>165</ele>
        <time>2014-10-05T10:34:20.000Z</time>
      </trkpt>
      <trkpt lat="45.75495" lon="4.83847">
        <ele>165</ele>
        <time>2014-10-05T10:34:25.000Z</time>
      </trkpt>
      <trkpt lat="45.75478" lon="4.83835">
        <ele>165</ele>
        <time>2014-10-05T10:34:31.000Z</time>
      </trkpt>
      <trkpt lat="45.75473" lon="4.83831">
        <ele>165</ele>
        <time>2014-10-05T10:34:33.000Z</time>
      </trkpt>
      <trkpt lat="45.75455" lon="4.83818">
        <ele>165</ele>
        <time>2014-10-05T10:34:40.000Z</time>
      </trkpt>
      <trkpt lat="45.75443" lon="4.83809">
        <ele>165</ele>
        <time>2014-10-05T10:34:45.000Z</time>
      </trkpt>
      <trkpt lat="45.75427" lon="4.83798">
        <ele>165</ele>
        <time>2014-10-05T10:34:51.000Z</time>
      </trkpt>
      <trkpt lat="45.75409" lon="4.83788">
        <ele>165</ele>
        <time>2014-10-05T10:34:58.000Z</time>
      </trkpt>
      <trkpt lat="45.75406" lon="4.83787">
        <ele>165</ele>
        <time>2014-10-05T10:34:59.000Z</time>
      </trkpt>
      <trkpt lat="45.75391" lon="4.83776">
        <ele>165</ele>
        <time>2014-10-05T10:35:06.000Z</time>
      </trkpt>
      <trkpt lat="45.75373" lon="4.83763">
        <ele>165</ele>
        <time>2014-10-05T10:35:13.000Z</time>
      </trkpt>
      <trkpt lat="45.75358" lon="4.83752">
        <ele>165</ele>
        <time>2014-10-05T10:35:19.000Z</time>
      </trkpt>
      <trkpt lat="45.7534" lon="4.83738">
        <ele>165</ele>
        <time>2014-10-05T10:35:25.000Z</time>
      </trkpt>
      <trkpt lat="45.75324" lon="4.83725">
        <ele>165</ele>
        <time>2014-10-05T10:35:31.000Z</time>
      </trkpt>
      <trkpt lat="45.75317" lon="4.8372">
        <ele>165</ele>
        <time>2014-10-05T10:35:34.000Z</time>
      </trkpt>
      <trkpt lat="45.75301" lon="4.83707">
        <ele>165</ele>
        <time>2014-10-05T10:35:40.000Z</time>
      </trkpt>
      <trkpt lat="45.75284" lon="4.83693">
        <ele>165</ele>
        <time>2014-10-05T10:35:47.000Z</time>
      </trkpt>
      <trkpt lat="45.7527" lon="4.83682">
        <ele>165</ele>
        <time>2014-10-05T10:35:53.000Z</time>
      </trkpt>
      <trkpt lat="45.75254" lon="4.83674">
        <ele>165</ele>
        <time>2014-10-05T10:35:59.000Z</time>
      </trkpt>
      <trkpt lat="45.75238" lon="4.83673">
        <ele>165</ele>
        <time>2014-10-05T10:36:04.000Z</time>
      </trkpt>
      <trkpt lat="45.75224" lon="4.83679">
        <ele>165</ele>
        <time>2014-10-05T10:36:09.000Z</time>
      </trkpt>
      <trkpt lat="45.75216" lon="4.83679">
        <ele>165</ele>
        <time>2014-10-05T10:36:12.000Z</time>
      </trkpt>
      <trkpt lat="45.75213" lon="4.83678">
        <ele>165</ele>
        <time>2014-10-05T10:36:13.000Z</time>
      </trkpt>
      <trkpt lat="45.75199" lon="4.83666">
        <ele>165</ele>
        <time>2014-10-05T10:36:18.000Z</time>
      </trkpt>
      <trkpt lat="45.75191" lon="4.83659">
        <ele>165</ele>
        <time>2014-10-05T10:36:22.000Z</time>
      </trkpt>
      <trkpt lat="45.75178" lon="4.83652">
        <ele>165</ele>
        <time>2014-10-05T10:36:29.000Z</time>
      </trkpt>
      <trkpt lat="45.75168" lon="4.83646">
        <ele>165</ele>
        <time>2014-10-05T10:36:33.000Z</time>
      </trkpt>
      <trkpt lat="45.75157" lon="4.83639">
        <ele>165</ele>
        <time>2014-10-05T10:36:38.000Z</time>
      </trkpt>
      <trkpt lat="45.7514" lon="4.83627">
        <ele>165.19999694824</ele>
        <time>2014-10-05T10:36:45.000Z</time>
      </trkpt>
      <trkpt lat="45.75134" lon="4.83626">
        <ele>165.19999694824</ele>
        <time>2014-10-05T10:36:48.000Z</time>
      </trkpt>
      <trkpt lat="45.75133" lon="4.83628">
        <ele>165.19999694824</ele>
        <time>2014-10-05T10:36:49.000Z</time>
      </trkpt>
      <trkpt lat="45.75137" lon="4.83636">
        <ele>165.39999389648</ele>
        <time>2014-10-05T10:36:52.000Z</time>
      </trkpt>
      <trkpt lat="45.75141" lon="4.83639">
        <ele>165.39999389648</ele>
        <time>2014-10-05T10:36:54.000Z</time>
      </trkpt>
      <trkpt lat="45.75145" lon="4.83643">
        <ele>165.39999389648</ele>
        <time>2014-10-05T10:36:56.000Z</time>
      </trkpt>
      <trkpt lat="45.75156" lon="4.83651">
        <ele>165.39999389648</ele>
        <time>2014-10-05T10:37:01.000Z</time>
      </trkpt>
      <trkpt lat="45.75172" lon="4.83663">
        <ele>165.19999694824</ele>
        <time>2014-10-05T10:37:07.000Z</time>
      </trkpt>
      <trkpt lat="45.75188" lon="4.83672">
        <ele>165</ele>
        <time>2014-10-05T10:37:13.000Z</time>
      </trkpt>
      <trkpt lat="45.75201" lon="4.83676">
        <ele>165</ele>
        <time>2014-10-05T10:37:18.000Z</time>
      </trkpt>
      <trkpt lat="45.75209" lon="4.83666">
        <ele>165</ele>
        <time>2014-10-05T10:37:22.000Z</time>
      </trkpt>
      <trkpt lat="45.75216" lon="4.83645">
        <ele>165</ele>
        <time>2014-10-05T10:37:28.000Z</time>
      </trkpt>
      <trkpt lat="45.75223" lon="4.83628">
        <ele>165</ele>
        <time>2014-10-05T10:37:33.000Z</time>
      </trkpt>
      <trkpt lat="45.75228" lon="4.83609">
        <ele>165</ele>
        <time>2014-10-05T10:37:38.000Z</time>
      </trkpt>
      <trkpt lat="45.75236" lon="4.83584">
        <ele>165</ele>
        <time>2014-10-05T10:37:45.000Z</time>
      </trkpt>
      <trkpt lat="45.75244" lon="4.83569">
        <ele>165</ele>
        <time>2014-10-05T10:37:50.000Z</time>
      </trkpt>
      <trkpt lat="45.75252" lon="4.83548">
        <ele>165</ele>
        <time>2014-10-05T10:37:56.000Z</time>
      </trkpt>
      <trkpt lat="45.7526" lon="4.83521">
        <ele>165</ele>
        <time>2014-10-05T10:38:03.000Z</time>
      </trkpt>
      <trkpt lat="45.7527" lon="4.83496">
        <ele>165.60000610352</ele>
        <time>2014-10-05T10:38:10.000Z</time>
      </trkpt>
      <trkpt lat="45.75278" lon="4.83478">
        <ele>167.39999389648</ele>
        <time>2014-10-05T10:38:15.000Z</time>
      </trkpt>
      <trkpt lat="45.75287" lon="4.83455">
        <ele>169.80000305176</ele>
        <time>2014-10-05T10:38:21.000Z</time>
      </trkpt>
      <trkpt lat="45.75297" lon="4.83433">
        <ele>171.80000305176</ele>
        <time>2014-10-05T10:38:27.000Z</time>
      </trkpt>
      <trkpt lat="45.75309" lon="4.83415">
        <ele>173.19999694824</ele>
        <time>2014-10-05T10:38:33.000Z</time>
      </trkpt>
      <trkpt lat="45.75312" lon="4.83414">
        <ele>173.39999389648</ele>
        <time>2014-10-05T10:38:34.000Z</time>
      </trkpt>
      <trkpt lat="45.75325" lon="4.83415">
        <ele>174.19999694824</ele>
        <time>2014-10-05T10:38:38.000Z</time>
      </trkpt>
      <trkpt lat="45.7533" lon="4.83417">
        <ele>174.39999389648</ele>
        <time>2014-10-05T10:38:40.000Z</time>
      </trkpt>
      <trkpt lat="45.75339" lon="4.83422">
        <ele>174.60000610352</ele>
        <time>2014-10-05T10:38:43.000Z</time>
      </trkpt>
      <trkpt lat="45.75344" lon="4.83425">
        <ele>174.80000305176</ele>
        <time>2014-10-05T10:38:45.000Z</time>
      </trkpt>
      <trkpt lat="45.75352" lon="4.83431">
        <ele>175</ele>
        <time>2014-10-05T10:38:49.000Z</time>
      </trkpt>
      <trkpt lat="45.75367" lon="4.8344">
        <ele>175.60000610352</ele>
        <time>2014-10-05T10:38:54.000Z</time>
      </trkpt>
      <trkpt lat="45.75386" lon="4.83454">
        <ele>176</ele>
        <time>2014-10-05T10:39:00.000Z</time>
      </trkpt>
      <trkpt lat="45.75402" lon="4.83465">
        <ele>175.19999694824</ele>
        <time>2014-10-05T10:39:06.000Z</time>
      </trkpt>
      <trkpt lat="45.7542" lon="4.83474">
        <ele>174.19999694824</ele>
        <time>2014-10-05T10:39:12.000Z</time>
      </trkpt>
      <trkpt lat="45.75434" lon="4.83482">
        <ele>173.39999389648</ele>
        <time>2014-10-05T10:39:17.000Z</time>
      </trkpt>
      <trkpt lat="45.75453" lon="4.83495">
        <ele>172.19999694824</ele>
        <time>2014-10-05T10:39:23.000Z</time>
      </trkpt>
      <trkpt lat="45.75467" lon="4.83506">
        <ele>171.39999389648</ele>
        <time>2014-10-05T10:39:28.000Z</time>
      </trkpt>
      <trkpt lat="45.75483" lon="4.83519">
        <ele>170.80000305176</ele>
        <time>2014-10-05T10:39:34.000Z</time>
      </trkpt>
      <trkpt lat="45.75485" lon="4.83521">
        <ele>170.80000305176</ele>
        <time>2014-10-05T10:39:35.000Z</time>
      </trkpt>
      <trkpt lat="45.75495" lon="4.83531">
        <ele>170.60000610352</ele>
        <time>2014-10-05T10:39:40.000Z</time>
      </trkpt>
      <trkpt lat="45.75508" lon="4.83543">
        <ele>170.39999389648</ele>
        <time>2014-10-05T10:39:46.000Z</time>
      </trkpt>
      <trkpt lat="45.75521" lon="4.83553">
        <ele>170.60000610352</ele>
        <time>2014-10-05T10:39:51.000Z</time>
      </trkpt>
      <trkpt lat="45.75539" lon="4.83564">
        <ele>170.80000305176</ele>
        <time>2014-10-05T10:39:56.000Z</time>
      </trkpt>
      <trkpt lat="45.75542" lon="4.83566">
        <ele>170.80000305176</ele>
        <time>2014-10-05T10:39:57.000Z</time>
      </trkpt>
      <trkpt lat="45.75561" lon="4.83578">
        <ele>171.39999389648</ele>
        <time>2014-10-05T10:40:02.000Z</time>
      </trkpt>
      <trkpt lat="45.75565" lon="4.8358">
        <ele>171.60000610352</ele>
        <time>2014-10-05T10:40:03.000Z</time>
      </trkpt>
      <trkpt lat="45.75583" lon="4.8359">
        <ele>172.39999389648</ele>
        <time>2014-10-05T10:40:08.000Z</time>
      </trkpt>
      <trkpt lat="45.75585" lon="4.83591">
        <ele>172.39999389648</ele>
        <time>2014-10-05T10:40:09.000Z</time>
      </trkpt>
      <trkpt lat="45.75599" lon="4.83601">
        <ele>173.19999694824</ele>
        <time>2014-10-05T10:40:12.000Z</time>
      </trkpt>
      <trkpt lat="45.75627" lon="4.83614">
        <ele>174.60000610352</ele>
        <time>2014-10-05T10:40:18.000Z</time>
      </trkpt>
      <trkpt lat="45.75627" lon="4.83619">
        <ele>174.39999389648</ele>
        <time>2014-10-05T10:40:21.000Z</time>
      </trkpt>
      <trkpt lat="45.75632" lon="4.83626">
        <ele>174.19999694824</ele>
        <time>2014-10-05T10:40:26.000Z</time>
      </trkpt>
      <trkpt lat="45.75644" lon="4.83634">
        <ele>174.19999694824</ele>
        <time>2014-10-05T10:40:31.000Z</time>
      </trkpt>
      <trkpt lat="45.75659" lon="4.83644">
        <ele>174.60000610352</ele>
        <time>2014-10-05T10:40:37.000Z</time>
      </trkpt>
      <trkpt lat="45.7567" lon="4.83654">
        <ele>174.60000610352</ele>
        <time>2014-10-05T10:40:42.000Z</time>
      </trkpt>
      <trkpt lat="45.75686" lon="4.83662">
        <ele>175</ele>
        <time>2014-10-05T10:40:48.000Z</time>
      </trkpt>
      <trkpt lat="45.75703" lon="4.83673">
        <ele>175.19999694824</ele>
        <time>2014-10-05T10:40:54.000Z</time>
      </trkpt>
      <trkpt lat="45.75706" lon="4.83674">
        <ele>175.19999694824</ele>
        <time>2014-10-05T10:40:55.000Z</time>
      </trkpt>
      <trkpt lat="45.75721" lon="4.83673">
        <ele>176</ele>
        <time>2014-10-05T10:41:00.000Z</time>
      </trkpt>
      <trkpt lat="45.7572" lon="4.83661">
        <ele>176.60000610352</ele>
        <time>2014-10-05T10:41:03.000Z</time>
      </trkpt>
      <trkpt lat="45.75711" lon="4.83649">
        <ele>176.80000305176</ele>
        <time>2014-10-05T10:41:07.000Z</time>
      </trkpt>
      <trkpt lat="45.75708" lon="4.83646">
        <ele>177</ele>
        <time>2014-10-05T10:41:08.000Z</time>
      </trkpt>
      <trkpt lat="45.75694" lon="4.83636">
        <ele>176.80000305176</ele>
        <time>2014-10-05T10:41:13.000Z</time>
      </trkpt>
      <trkpt lat="45.75677" lon="4.83627">
        <ele>176.60000610352</ele>
        <time>2014-10-05T10:41:19.000Z</time>
      </trkpt>
      <trkpt lat="45.75661" lon="4.83616">
        <ele>176</ele>
        <time>2014-10-05T10:41:25.000Z</time>
      </trkpt>
      <trkpt lat="45.75645" lon="4.83606">
        <ele>175</ele>
        <time>2014-10-05T10:41:31.000Z</time>
      </trkpt>
      <trkpt lat="45.75628" lon="4.83594">
        <ele>174</ele>
        <time>2014-10-05T10:41:37.000Z</time>
      </trkpt>
      <trkpt lat="45.75611" lon="4.83584">
        <ele>173.39999389648</ele>
        <time>2014-10-05T10:41:43.000Z</time>
      </trkpt>
      <trkpt lat="45.75594" lon="4.83575">
        <ele>172.80000305176</ele>
        <time>2014-10-05T10:41:49.000Z</time>
      </trkpt>
      <trkpt lat="45.75591" lon="4.83573">
        <ele>172.60000610352</ele>
        <time>2014-10-05T10:41:50.000Z</time>
      </trkpt>
      <trkpt lat="45.7558" lon="4.83559">
        <ele>172.19999694824</ele>
        <time>2014-10-05T10:41:55.000Z</time>
      </trkpt>
      <trkpt lat="45.75579" lon="4.83555">
        <ele>172</ele>
        <time>2014-10-05T10:41:56.000Z</time>
      </trkpt>
      <trkpt lat="45.7558" lon="4.83542">
        <ele>171.60000610352</ele>
        <time>2014-10-05T10:41:59.000Z</time>
      </trkpt>
      <trkpt lat="45.75584" lon="4.83518">
        <ele>172.19999694824</ele>
        <time>2014-10-05T10:42:04.000Z</time>
      </trkpt>
      <trkpt lat="45.75589" lon="4.83494">
        <ele>173</ele>
        <time>2014-10-05T10:42:09.000Z</time>
      </trkpt>
      <trkpt lat="45.75594" lon="4.83465">
        <ele>172.60000610352</ele>
        <time>2014-10-05T10:42:15.000Z</time>
      </trkpt>
      <trkpt lat="45.756" lon="4.83437">
        <ele>173.19999694824</ele>
        <time>2014-10-05T10:42:21.000Z</time>
      </trkpt>
      <trkpt lat="45.75607" lon="4.8341">
        <ele>173.39999389648</ele>
        <time>2014-10-05T10:42:27.000Z</time>
      </trkpt>
      <trkpt lat="45.75609" lon="4.834">
        <ele>173.39999389648</ele>
        <time>2014-10-05T10:42:29.000Z</time>
      </trkpt>
      <trkpt lat="45.75615" lon="4.83377">
        <ele>173.19999694824</ele>
        <time>2014-10-05T10:42:34.000Z</time>
      </trkpt>
      <trkpt lat="45.75627" lon="4.83355">
        <ele>173.19999694824</ele>
        <time>2014-10-05T10:42:39.000Z</time>
      </trkpt>
      <trkpt lat="45.75639" lon="4.83335">
        <ele>173.39999389648</ele>
        <time>2014-10-05T10:42:44.000Z</time>
      </trkpt>
      <trkpt lat="45.75642" lon="4.83331">
        <ele>173.39999389648</ele>
        <time>2014-10-05T10:42:45.000Z</time>
      </trkpt>
      <trkpt lat="45.75649" lon="4.83306">
        <ele>174.19999694824</ele>
        <time>2014-10-05T10:42:50.000Z</time>
      </trkpt>
      <trkpt lat="45.75651" lon="4.83301">
        <ele>174.39999389648</ele>
        <time>2014-10-05T10:42:51.000Z</time>
      </trkpt>
      <trkpt lat="45.75657" lon="4.83273">
        <ele>174.19999694824</ele>
        <time>2014-10-05T10:42:56.000Z</time>
      </trkpt>
      <trkpt lat="45.75658" lon="4.83268">
        <ele>174.19999694824</ele>
        <time>2014-10-05T10:42:57.000Z</time>
      </trkpt>
      <trkpt lat="45.75664" lon="4.8324">
        <ele>174</ele>
        <time>2014-10-05T10:43:02.000Z</time>
      </trkpt>
      <trkpt lat="45.75665" lon="4.83235">
        <ele>174</ele>
        <time>2014-10-05T10:43:03.000Z</time>
      </trkpt>
      <trkpt lat="45.75671" lon="4.8321">
        <ele>173.39999389648</ele>
        <time>2014-10-05T10:43:08.000Z</time>
      </trkpt>
      <trkpt lat="45.75672" lon="4.83205">
        <ele>173.39999389648</ele>
        <time>2014-10-05T10:43:09.000Z</time>
      </trkpt>
      <trkpt lat="45.75677" lon="4.8318">
        <ele>174</ele>
        <time>2014-10-05T10:43:14.000Z</time>
      </trkpt>
      <trkpt lat="45.75678" lon="4.83175">
        <ele>174.19999694824</ele>
        <time>2014-10-05T10:43:15.000Z</time>
      </trkpt>
      <trkpt lat="45.75683" lon="4.83151">
        <ele>174</ele>
        <time>2014-10-05T10:43:20.000Z</time>
      </trkpt>
      <trkpt lat="45.75687" lon="4.83132">
        <ele>173.39999389648</ele>
        <time>2014-10-05T10:43:24.000Z</time>
      </trkpt>
      <trkpt lat="45.75689" lon="4.83122">
        <ele>173</ele>
        <time>2014-10-05T10:43:26.000Z</time>
      </trkpt>
    </trkseg>
  </trk>
</gpx>